# Wetter Temperatur Luftdruck Luftfeuchtigkeit Sichtweite Windgeschwindigkeit Windrichtung Zeit
1 Clear 22 1014 46 10000 3.09 40 12:45 22.04.2021
2 Clear 22 1015 53 10000 2.57 0 12:20 22.04.2021
3 Clear 20 1015 60 10000 1.54 90 11:45 22.04.2021
4 Clear 20 1015 60 10000 1.54 90 11:23 22.04.2021
5 Clear 18 1015 68 10000 2.06 150 10:45 22.04.2021
6 Clear 18 1015 68 10000 2.06 150 10:24 22.04.2021
7 Clear 16 1014 72 10000 3.09 160 09:47 22.04.2021
8 Clear 15 1014 77 10000 1.03 0 09:24 22.04.2021
9 Clear 13 1014 76 10000 2.06 300 08:39 22.04.2021
10 Clear 13 1014 76 10000 2.06 300 08:21 22.04.2021
11 Clear 14 1013 77 10000 1.54 90 07:45 22.04.2021
12 Clear 14 1013 77 10000 1.54 90 07:24 22.04.2021
13 Clear 15 1014 72 10000 1.54 30 06:27 22.04.2021
14 Clear 16 1014 67 10000 1.54 10 05:26 22.04.2021
15 Clear 15 1014 72 10000 1.54 70 04:56 22.04.2021
16 Clear 17 1015 63 10000 2.06 100 01:23 22.04.2021
17 Clear 19 1014 59 10000 4.12 360 23:53 21.04.2021
18 Clear 20 1014 56 10000 5.66 360 23:32 21.04.2021
19 Clear 21 1013 49 10000 6.69 360 22:44 21.04.2021
20 Clear 24 1012 29 10000 3.6 360 22:24 21.04.2021
21 Clear 25 1012 27 10000 2.57 360 21:50 21.04.2021
22 Clear 26 1012 25 10000 3.09 360 21:25 21.04.2021
23 Clear 26 1012 27 10000 2.06 20 20:59 21.04.2021
24 Clear 26 1012 27 10000 2.06 20 20:59 21.04.2021
25 Clear 27 1012 29 10000 3.09 10 20:21 21.04.2021
26 Clear 27 1012 29 10000 3.09 350 19:44 21.04.2021
27 Clear 28 1012 30 10000 3.09 0 19:25 21.04.2021
28 Clear 28 1012 32 10000 2.06 0 18:46 21.04.2021
29 Clear 28 1012 30 10000 1.54 0 18:28 21.04.2021
30 Clear 27 1012 32 10000 3.6 360 17:49 21.04.2021
31 Clear 27 1012 34 10000 2.06 0 17:25 21.04.2021
32 Clear 27 1012 34 10000 2.06 0 17:25 21.04.2021
33 Clear 28 1012 34 10000 2.06 20 16:55 21.04.2021
34 Clear 27 1013 39 10000 1.54 0 16:23 21.04.2021
35 Clear 25 1013 41 10000 2.06 0 15:42 21.04.2021
36 Clear 25 1014 44 10000 3.09 10 15:18 21.04.2021
37 Clear 23 1014 46 10000 3.6 330 14:42 21.04.2021
38 Clear 24 1014 46 10000 1.03 0 14:22 21.04.2021
39 Clear 23 1015 46 10000 2.57 360 13:44 21.04.2021
40 Clear 21 1015 49 10000 2.06 0 13:21 21.04.2021
41 Clear 21 1015 56 10000 1.54 0 12:32 21.04.2021
42 Clear 20 1015 60 10000 1.54 0 11:50 21.04.2021
43 Clear 19 1015 59 10000 1.03 0 11:30 21.04.2021
44 Clear 18 1015 68 10000 2.06 80 10:52 21.04.2021
45 Clear 17 1015 72 10000 1.03 0 10:34 21.04.2021
46 Clear 15 1015 77 10000 1.54 270 09:51 21.04.2021
47 Clear 14 1014 82 10000 1.03 0 09:19 21.04.2021
48 Clear 13 1014 82 10000 1.54 250 08:41 21.04.2021
49 Clear 12 1014 82 10000 1.54 260 08:20 21.04.2021
50 Clear 13 1014 76 10000 1.54 260 07:32 21.04.2021
51 Clear 14 1014 77 10000 2.06 100 06:57 21.04.2021
52 Clear 14 1014 77 10000 2.06 100 06:57 21.04.2021
53 Clear 14 1014 77 10000 2.57 60 05:22 21.04.2021
54 Clear 18 1015 59 10000 2.57 50 01:32 21.04.2021
55 Clear 19 1015 59 10000 4.63 30 23:51 20.04.2021
56 Clear 20 1015 56 10000 5.14 30 23:31 20.04.2021
57 Clear 21 1014 52 10000 6.17 30 22:41 20.04.2021
58 Clear 22 1014 49 10000 5.66 30 22:22 20.04.2021
59 Clear 23 1013 43 10000 5.14 20 21:47 20.04.2021
60 Clear 25 1013 38 10000 5.66 20 21:26 20.04.2021
61 Clouds 26 1013 29 10000 3.6 20 20:44 20.04.2021
62 Clouds 27 1013 26 10000 3.09 30 20:24 20.04.2021
63 Clouds 27 1013 26 10000 3.6 340 19:57 20.04.2021
64 Clouds 28 1012 24 10000 3.09 330 19:39 20.04.2021
65 Clouds 28 1012 24 10000 3.09 330 19:39 20.04.2021
66 Clouds 28 1012 24 10000 3.09 330 19:39 20.04.2021
67 Clouds 28 1012 24 10000 3.09 330 19:21 20.04.2021
68 Clouds 28 1013 23 10000 2.57 240 18:36 20.04.2021
69 Clear 28 1013 23 10000 2.57 280 17:46 20.04.2021
70 Clear 28 1013 23 10000 2.57 280 17:28 20.04.2021
71 Clear 28 1013 23 10000 2.57 310 16:49 20.04.2021
72 Clear 27 1014 22 10000 1.54 0 15:53 20.04.2021
73 Clear 27 1014 22 10000 2.57 30 15:29 20.04.2021
74 Clear 26 1015 27 10000 1.54 0 14:58 20.04.2021
75 Clear 25 1015 29 10000 3.09 330 14:35 20.04.2021
76 Clear 24 1015 33 10000 2.06 0 13:52 20.04.2021
77 Clear 23 1016 33 10000 2.57 350 13:22 20.04.2021
78 Clear 23 1016 38 10000 2.06 360 12:44 20.04.2021
79 Clear 21 1016 46 10000 2.06 30 12:20 20.04.2021
80 Clear 20 1016 52 10000 1.54 0 11:44 20.04.2021
81 Clear 20 1016 52 10000 1.54 0 11:21 20.04.2021
82 Clear 20 1016 49 10000 1.03 0 10:44 20.04.2021
83 Clear 18 1016 55 8000 1.03 0 10:23 20.04.2021
84 Clear 16 1016 59 8000 1.54 90 09:36 20.04.2021
85 Clear 14 1016 67 8000 1.54 70 08:56 20.04.2021
86 Clear 13 1016 71 10000 1.54 80 08:22 20.04.2021
87 Clear 14 1016 67 8000 2.06 120 07:47 20.04.2021
88 Clear 15 1016 63 8000 1.54 30 06:47 20.04.2021
89 Clear 15 1016 55 8000 1.03 0 05:40 20.04.2021
90 Clear 15 1017 55 8000 1.03 0 04:42 20.04.2021
91 Clouds 19 1018 42 10000 3.6 60 01:48 20.04.2021
92 Clouds 21 1018 35 10000 3.09 30 00:37 20.04.2021
93 Clouds 22 1018 33 10000 4.63 30 23:37 19.04.2021
94 Clouds 23 1017 31 10000 5.66 20 22:57 19.04.2021
95 Clouds 25 1017 22 10000 4.12 360 22:36 19.04.2021
96 Clouds 25 1016 22 10000 4.63 360 21:51 19.04.2021
97 Clouds 26 1016 21 10000 3.6 360 21:33 19.04.2021
98 Clouds 27 1016 19 10000 3.6 10 20:55 19.04.2021
99 Clouds 28 1016 18 10000 3.09 10 20:37 19.04.2021
100 Clouds 28 1016 18 10000 3.09 10 20:19 19.04.2021
101 Clouds 29 1016 17 10000 4.12 330 19:40 19.04.2021
102 Clouds 29 1016 17 10000 4.12 330 19:22 19.04.2021
103 Clouds 30 1016 20 10000 3.6 0 18:46 19.04.2021
104 Clouds 30 1016 20 10000 3.6 0 18:22 19.04.2021
105 Clouds 30 1016 21 10000 3.6 310 17:54 19.04.2021
106 Clouds 30 1016 21 10000 3.09 310 17:29 19.04.2021
107 Clouds 29 1016 26 10000 3.09 360 16:51 19.04.2021
108 Clouds 29 1017 26 10000 3.09 0 16:33 19.04.2021
109 Clouds 29 1017 26 10000 3.09 0 16:33 19.04.2021
110 Clouds 29 1017 30 10000 2.06 0 15:52 19.04.2021
111 Clouds 28 1017 32 10000 3.09 0 15:29 19.04.2021
112 Clouds 27 1018 36 10000 3.09 280 14:53 19.04.2021
113 Clouds 27 1018 36 10000 2.06 300 14:35 19.04.2021
114 Clouds 27 1018 39 10000 1.54 0 13:54 19.04.2021
115 Clear 25 1018 47 10000 2.57 0 13:30 19.04.2021
116 Clear 24 1018 50 10000 2.57 0 12:56 19.04.2021
117 Clear 24 1018 50 10000 1.54 0 12:36 19.04.2021
118 Clear 24 1018 50 10000 1.54 0 12:18 19.04.2021
119 Clear 22 1018 53 10000 1.54 10 11:49 19.04.2021
120 Clear 21 1018 60 10000 2.06 320 11:20 19.04.2021
121 Clear 21 1018 60 10000 2.06 320 10:44 19.04.2021
122 Clear 20 1018 64 10000 1.54 0 10:20 19.04.2021
123 Clear 19 1018 68 10000 1.03 0 09:43 19.04.2021
124 Clear 17 1018 72 10000 1.03 0 09:24 19.04.2021
125 Clear 15 1018 82 10000 1.54 250 08:41 19.04.2021
126 Clear 14 1018 82 10000 1.54 250 07:50 19.04.2021
127 Clear 14 1017 82 10000 1.54 260 07:24 19.04.2021
128 Clouds 15 1017 77 10000 0.51 0 06:52 19.04.2021
129 Clouds 15 1017 77 10000 1.03 0 05:30 19.04.2021
130 Clear 19 1019 55 10000 1.03 0 01:49 19.04.2021
131 Clear 20 1019 56 10000 1.03 0 00:42 19.04.2021
132 Clear 21 1019 52 10000 5.66 30 23:22 18.04.2021
133 Clear 22 1018 53 10000 4.63 20 22:58 18.04.2021
134 Clear 23 1017 49 10000 6.69 20 22:34 18.04.2021
135 Clear 26 1016 27 10000 3.09 350 21:57 18.04.2021
136 Clear 27 1016 26 10000 2.57 300 21:29 18.04.2021
137 Clouds 28 1016 24 10000 1.03 0 20:55 18.04.2021
138 Clouds 29 1016 21 10000 1.03 0 20:37 18.04.2021
139 Clouds 29 1016 21 10000 1.03 0 20:18 18.04.2021
140 Clouds 30 1016 21 10000 1.03 0 19:41 18.04.2021
141 Clouds 29 1016 23 10000 2.06 310 19:21 18.04.2021
142 Clouds 30 1016 25 10000 2.57 20 18:45 18.04.2021
143 Clouds 30 1016 25 10000 2.57 20 18:25 18.04.2021
144 Clouds 30 1016 25 10000 2.57 320 17:47 18.04.2021
145 Clouds 29 1016 26 10000 3.09 30 17:28 18.04.2021
146 Clouds 29 1016 26 10000 3.6 280 16:52 18.04.2021
147 Clouds 29 1017 28 10000 2.57 0 16:34 18.04.2021
148 Clouds 28 1017 32 10000 3.6 320 15:49 18.04.2021
149 Clear 27 1017 34 10000 2.57 0 15:28 18.04.2021
150 Clear 27 1017 34 10000 2.06 0 14:53 18.04.2021
151 Clear 26 1017 36 10000 3.6 360 14:28 18.04.2021
152 Clear 26 1017 41 10000 2.06 0 13:56 18.04.2021
153 Clear 24 1018 46 10000 2.06 0 13:38 18.04.2021
154 Clear 24 1018 46 10000 2.06 0 13:18 18.04.2021
155 Clear 23 1018 56 10000 1.54 0 12:32 18.04.2021
156 Clear 21 1018 64 10000 1.54 20 11:45 18.04.2021
157 Clear 20 1018 64 10000 1.54 0 11:22 18.04.2021
158 Clear 19 1018 68 10000 1.54 360 10:48 18.04.2021
159 Clear 19 1018 68 10000 0.51 0 10:23 18.04.2021
160 Clear 18 1018 72 10000 0.51 0 09:53 18.04.2021
161 Clear 16 1018 82 10000 1.03 0 09:35 18.04.2021
162 Clear 14 1017 88 10000 1.03 0 08:57 18.04.2021
163 Clear 13 1017 88 10000 0.51 0 08:35 18.04.2021
164 Clear 14 1017 82 10000 1.54 250 07:59 18.04.2021
165 Clear 14 1017 88 10000 2.06 230 07:38 18.04.2021
166 Clear 15 1017 77 10000 2.57 230 05:42 18.04.2021
167 Clear 15 1017 77 10000 2.57 240 05:24 18.04.2021
168 Clear 17 1018 67 10000 2.06 70 02:39 18.04.2021
169 Clear 17 1018 67 10000 2.06 70 02:39 18.04.2021
170 Clear 17 1018 67 10000 2.06 70 02:20 18.04.2021
171 Clear 19 1017 63 10000 5.66 30 00:37 18.04.2021
172 Clear 21 1017 52 10000 5.14 10 23:37 17.04.2021
173 Clouds 23 1016 35 10000 3.09 40 22:51 17.04.2021
174 Clouds 24 1016 33 10000 2.57 30 22:31 17.04.2021
175 Clouds 24 1015 33 10000 2.57 350 21:50 17.04.2021
176 Clouds 25 1015 31 10000 2.06 20 21:30 17.04.2021
177 Clouds 26 1015 29 10000 2.57 10 20:48 17.04.2021
178 Clouds 26 1015 27 10000 2.06 310 20:27 17.04.2021
179 Clouds 27 1015 28 10000 2.06 30 19:45 17.04.2021
180 Clouds 27 1015 28 10000 3.09 0 19:21 17.04.2021
181 Clouds 28 1015 28 10000 2.57 310 18:55 17.04.2021
182 Clouds 28 1015 28 10000 2.06 0 18:35 17.04.2021
183 Clouds 27 1015 29 10000 2.57 0 17:56 17.04.2021
184 Clouds 27 1015 29 10000 2.57 0 17:56 17.04.2021
185 Clouds 26 1015 34 10000 3.6 360 17:38 17.04.2021
186 Clouds 27 1015 34 10000 2.06 0 16:52 17.04.2021
187 Clouds 25 1016 38 10000 3.6 50 16:27 17.04.2021
188 Clouds 25 1016 38 10000 2.57 0 15:39 17.04.2021
189 Clouds 24 1016 43 10000 2.57 0 14:50 17.04.2021
190 Clouds 24 1016 50 10000 2.06 360 14:29 17.04.2021
191 Clouds 24 1017 50 10000 1.54 0 13:46 17.04.2021
192 Clear 22 1017 53 10000 3.09 350 13:20 17.04.2021
193 Clear 20 1017 60 10000 2.06 0 12:39 17.04.2021
194 Clear 20 1017 60 10000 2.06 0 12:18 17.04.2021
195 Clear 19 1017 68 10000 1.03 0 11:39 17.04.2021
196 Clear 19 1017 68 10000 1.03 0 11:20 17.04.2021
197 Clear 17 1017 72 10000 2.06 350 10:41 17.04.2021
198 Clear 17 1017 72 10000 2.06 350 10:22 17.04.2021
199 Clear 16 1017 77 10000 1.03 0 09:19 17.04.2021
200 Clouds 13 1016 82 8000 1.03 0 08:34 17.04.2021
201 Clouds 14 1016 82 10000 2.06 120 07:59 17.04.2021
202 Clouds 14 1016 82 10000 2.06 100 06:41 17.04.2021
203 Clouds 15 1016 77 10000 2.06 60 03:49 17.04.2021
204 Clouds 17 1016 72 10000 4.12 50 02:28 17.04.2021
205 Clouds 17 1016 72 10000 6.17 60 00:43 17.04.2021
206 Clouds 18 1016 68 10000 6.69 50 00:21 17.04.2021
207 Clouds 19 1016 59 10000 5.66 40 23:43 16.04.2021
208 Clouds 20 1015 60 10000 5.14 20 22:59 16.04.2021
209 Clouds 20 1015 60 10000 5.14 20 22:41 16.04.2021
210 Clouds 21 1014 52 10000 6.17 20 22:20 16.04.2021
211 Clouds 22 1014 40 10000 3.09 30 21:45 16.04.2021
212 Clouds 23 1013 35 10000 2.57 60 21:27 16.04.2021
213 Clouds 24 1012 35 10000 3.6 60 20:46 16.04.2021
214 Clouds 24 1012 35 10000 3.6 60 20:24 16.04.2021
215 Clouds 25 1012 33 10000 2.06 0 19:50 16.04.2021
216 Clouds 25 1012 33 10000 4.12 40 19:22 16.04.2021
217 Clouds 25 1012 36 10000 3.09 350 18:28 16.04.2021
218 Clouds 25 1013 36 10000 4.12 30 17:54 16.04.2021
219 Clouds 24 1013 41 10000 3.09 350 17:20 16.04.2021
220 Clouds 24 1013 41 10000 3.6 40 16:57 16.04.2021
221 Clouds 24 1013 43 10000 2.57 0 16:38 16.04.2021
222 Clouds 24 1013 43 10000 2.57 0 16:20 16.04.2021
223 Clouds 23 1014 49 10000 3.09 50 15:40 16.04.2021
224 Clouds 23 1014 46 8000 2.57 20 14:59 16.04.2021
225 Clouds 22 1014 53 8000 3.09 10 14:40 16.04.2021
226 Clouds 21 1014 56 8000 3.09 330 13:59 16.04.2021
227 Clouds 21 1014 56 8000 2.57 60 13:37 16.04.2021
228 Clouds 21 1014 56 8000 2.57 60 13:18 16.04.2021
229 Clouds 20 1014 60 8000 1.54 0 12:44 16.04.2021
230 Clouds 19 1014 68 8000 2.06 30 12:23 16.04.2021
231 Clouds 17 1014 77 8000 2.06 50 11:43 16.04.2021
232 Clouds 18 1014 72 8000 1.54 60 11:43 16.04.2021
233 Clouds 17 1014 77 8000 2.06 50 11:23 16.04.2021
234 Clouds 16 1014 82 8000 3.09 60 10:43 16.04.2021
235 Clouds 16 1014 82 8000 3.09 60 10:23 16.04.2021
236 Clouds 15 1013 88 8000 3.09 30 09:45 16.04.2021
237 Clouds 15 1013 88 8000 3.09 30 09:45 16.04.2021
238 Clouds 15 1013 88 8000 2.57 50 09:23 16.04.2021
239 Clouds 15 1013 88 8000 3.09 60 08:45 16.04.2021
240 Clouds 14 1013 94 10000 1.03 0 08:24 16.04.2021
241 Clouds 14 1013 94 8000 2.06 250 07:46 16.04.2021
242 Clouds 14 1012 94 8000 2.06 250 07:25 16.04.2021
243 Clouds 14 1013 94 8000 2.06 260 06:46 16.04.2021
244 Clouds 15 1012 88 7000 3.09 240 05:32 16.04.2021
245 Clouds 15 1013 88 7000 3.09 240 03:59 16.04.2021
246 Clouds 17 1014 72 8000 3.6 360 00:47 16.04.2021
247 Clouds 17 1014 72 8000 4.12 350 00:22 16.04.2021
248 Clouds 18 1014 68 8000 5.14 350 23:58 15.04.2021
249 Clouds 18 1013 68 8000 5.14 350 23:34 15.04.2021
250 Clouds 18 1013 68 8000 5.66 340 22:51 15.04.2021
251 Clouds 18 1012 72 8000 5.14 360 22:26 15.04.2021
252 Clouds 18 1012 72 8000 5.14 360 22:26 15.04.2021
253 Clouds 18 1012 72 8000 4.12 360 21:48 15.04.2021
254 Clouds 19 1012 68 8000 4.63 360 21:29 15.04.2021
255 Clouds 19 1011 59 8000 3.6 360 20:58 15.04.2021
256 Clouds 19 1011 63 8000 4.63 10 20:38 15.04.2021
257 Clouds 19 1011 63 8000 4.63 10 20:18 15.04.2021
258 Clouds 20 1011 60 8000 5.66 10 19:41 15.04.2021
259 Clouds 21 1011 52 8000 6.69 350 19:21 15.04.2021
260 Clouds 23 1011 46 8000 5.66 320 18:41 15.04.2021
261 Clouds 23 1010 38 8000 5.14 290 18:41 15.04.2021
262 Clouds 23 1010 38 8000 5.14 290 18:20 15.04.2021
263 Clouds 25 1010 41 8000 4.63 300 17:54 15.04.2021
264 Clouds 24 1011 41 8000 2.57 230 17:33 15.04.2021
265 Clouds 25 1011 36 8000 1.54 0 16:45 15.04.2021
266 Clouds 24 1011 41 8000 3.09 0 16:25 15.04.2021
267 Clouds 23 1012 40 8000 2.06 0 15:51 15.04.2021
268 Clouds 24 1012 43 8000 2.57 0 15:28 15.04.2021
269 Clouds 22 1013 49 10000 2.06 0 14:45 15.04.2021
270 Clouds 22 1013 49 10000 2.06 0 14:27 15.04.2021
271 Clouds 22 1013 53 10000 2.57 0 13:58 15.04.2021
272 Clouds 22 1013 53 10000 2.57 300 13:40 15.04.2021
273 Clouds 22 1013 56 10000 1.54 0 12:55 15.04.2021
274 Clouds 21 1013 60 10000 1.03 0 12:28 15.04.2021
275 Clouds 19 1013 68 10000 1.54 0 11:59 15.04.2021
276 Clouds 19 1013 68 10000 1.54 230 11:39 15.04.2021
277 Clouds 19 1013 68 10000 1.54 230 11:21 15.04.2021
278 Clouds 19 1013 68 10000 1.54 230 11:21 15.04.2021
279 Clouds 17 1013 72 10000 2.57 290 10:43 15.04.2021
280 Clouds 17 1013 77 10000 2.57 280 10:25 15.04.2021
281 Clouds 14 1012 88 10000 2.57 280 09:33 15.04.2021
282 Clouds 13 1012 88 10000 2.06 260 08:54 15.04.2021
283 Clouds 14 1012 82 10000 2.57 250 08:35 15.04.2021
284 Clouds 15 1011 82 10000 2.57 240 07:48 15.04.2021
285 Clouds 16 1011 77 10000 2.57 280 07:20 15.04.2021
286 Clouds 16 1012 77 10000 2.06 290 06:36 15.04.2021
287 Clouds 16 1012 77 10000 2.57 290 05:47 15.04.2021
288 Clouds 16 1013 82 10000 3.6 310 03:59 15.04.2021
289 Clouds 18 1014 68 10000 4.12 340 00:23 15.04.2021
290 Clouds 19 1013 63 10000 3.6 360 23:36 14.04.2021
291 Clouds 20 1013 56 10000 4.63 360 22:59 14.04.2021
292 Clouds 20 1013 56 10000 4.63 360 22:41 14.04.2021
293 Clouds 21 1012 52 10000 3.6 340 22:21 14.04.2021
294 Clouds 21 1012 56 9000 3.6 20 21:42 14.04.2021
295 Clouds 21 1012 56 9000 3.6 20 21:22 14.04.2021
296 Clouds 21 1012 56 9000 2.57 10 20:54 14.04.2021
297 Clouds 21 1012 56 9000 3.6 310 20:31 14.04.2021
298 Clouds 21 1012 56 9000 3.6 310 20:31 14.04.2021
299 Clouds 22 1012 53 9000 2.57 220 19:48 14.04.2021
300 Clouds 22 1012 53 9000 3.09 230 19:19 14.04.2021
301 Clouds 22 1012 53 9000 3.09 260 18:55 14.04.2021
302 Clouds 22 1012 53 9000 4.12 250 18:21 14.04.2021
303 Clouds 22 1012 53 9000 3.6 230 17:57 14.04.2021
304 Clouds 23 1012 49 9000 1.54 0 17:24 14.04.2021
305 Clouds 23 1012 49 9000 3.6 250 16:53 14.04.2021
306 Clouds 22 1013 53 9000 4.12 240 16:25 14.04.2021
307 Clouds 23 1013 49 9000 4.12 280 15:42 14.04.2021
308 Clouds 23 1013 49 9000 4.12 280 15:22 14.04.2021
309 Clouds 22 1014 53 10000 3.6 300 14:46 14.04.2021
310 Clouds 22 1014 53 10000 3.6 300 14:24 14.04.2021
311 Clouds 22 1014 53 10000 3.6 300 13:54 14.04.2021
312 Clouds 21 1014 56 10000 3.6 280 13:23 14.04.2021
313 Clouds 20 1014 60 10000 3.09 280 12:38 14.04.2021
314 Clouds 19 1015 63 10000 4.12 280 11:43 14.04.2021
315 Clouds 18 1015 68 10000 3.09 270 11:25 14.04.2021
316 Clouds 17 1015 77 10000 3.09 280 10:48 14.04.2021
317 Clouds 16 1015 82 10000 5.14 260 10:30 14.04.2021
318 Clouds 16 1015 82 10000 4.12 240 09:42 14.04.2021
319 Clouds 15 1014 88 10000 3.6 260 09:21 14.04.2021
320 Clouds 15 1014 88 10000 2.57 260 08:43 14.04.2021
321 Clouds 15 1014 88 10000 3.09 240 08:20 14.04.2021
322 Clouds 16 1014 77 10000 4.63 250 06:55 14.04.2021
323 Clouds 17 1014 67 10000 4.63 270 06:24 14.04.2021
324 Clouds 19 1014 52 10000 4.63 280 04:45 14.04.2021
325 Clouds 21 1014 32 10000 1.54 280 01:49 14.04.2021
326 Clouds 23 1015 25 10000 1.03 0 00:39 14.04.2021
327 Clouds 23 1015 27 10000 1.54 90 23:47 13.04.2021
328 Clouds 23 1015 25 10000 3.6 40 23:27 13.04.2021
329 Clouds 24 1015 22 10000 4.12 40 22:42 13.04.2021
330 Clouds 24 1014 22 10000 4.12 30 22:19 13.04.2021
331 Clouds 25 1014 29 10000 4.63 10 21:46 13.04.2021
332 Clouds 25 1014 36 10000 4.63 10 21:27 13.04.2021
333 Clouds 26 1014 34 10000 5.14 360 20:42 13.04.2021
334 Clear 28 1013 24 10000 3.6 10 20:21 13.04.2021
335 Clear 29 1013 24 10000 3.6 350 19:48 13.04.2021
336 Clear 30 1013 26 10000 3.6 310 19:24 13.04.2021
337 Clear 31 1013 27 10000 2.57 290 18:41 13.04.2021
338 Clear 31 1013 25 10000 2.06 320 17:56 13.04.2021
339 Clear 31 1014 27 10000 2.57 0 17:36 13.04.2021
340 Clear 31 1014 27 10000 2.57 0 17:18 13.04.2021
341 Clear 30 1015 32 10000 2.06 290 16:43 13.04.2021
342 Clear 30 1015 32 10000 2.06 290 16:20 13.04.2021
343 Clear 28 1015 34 10000 2.06 350 15:44 13.04.2021
344 Clear 28 1015 34 10000 2.06 350 15:44 13.04.2021
345 Clear 28 1015 34 10000 2.06 350 15:44 13.04.2021
346 Clear 28 1016 34 10000 2.06 20 15:22 13.04.2021
347 Clear 28 1016 36 10000 2.57 350 14:46 13.04.2021
348 Clear 27 1017 39 10000 2.57 350 14:19 13.04.2021
349 Clear 26 1017 41 10000 2.06 320 13:45 13.04.2021
350 Clear 26 1017 47 10000 1.03 0 13:24 13.04.2021
351 Clear 24 1018 53 10000 2.06 270 12:56 13.04.2021
352 Clear 23 1018 56 10000 1.54 0 12:28 13.04.2021
353 Clear 22 1018 56 10000 1.54 0 11:55 13.04.2021
354 Clear 20 1018 64 10000 2.06 0 11:29 13.04.2021
355 Clear 19 1018 68 10000 2.06 230 10:47 13.04.2021
356 Clear 17 1018 72 10000 2.57 230 10:21 13.04.2021
357 Clear 17 1018 72 10000 2.57 230 10:21 13.04.2021
358 Clear 16 1018 72 10000 2.57 240 09:57 13.04.2021
359 Clear 15 1017 77 10000 2.06 240 09:36 13.04.2021
360 Clear 13 1017 82 10000 2.06 250 08:56 13.04.2021
361 Clear 14 1017 77 10000 2.06 240 08:38 13.04.2021
362 Clear 14 1017 77 10000 2.06 240 08:20 13.04.2021
363 Clear 16 1016 72 10000 1.54 320 07:36 13.04.2021
364 Clear 16 1016 67 10000 0.51 0 06:31 13.04.2021
365 Clear 17 1017 63 10000 3.09 230 04:47 13.04.2021
366 Clear 20 1018 56 10000 2.06 100 01:39 13.04.2021
367 Clear 21 1018 52 10000 4.12 30 00:19 13.04.2021
368 Clear 22 1018 53 10000 4.63 30 23:44 12.04.2021
369 Clear 22 1017 53 10000 4.63 30 23:24 12.04.2021
370 Clear 24 1017 46 10000 4.63 20 22:38 12.04.2021
371 Clear 26 1016 22 10000 2.57 60 21:58 12.04.2021
372 Clear 27 1016 22 10000 2.57 50 21:38 12.04.2021
373 Clear 27 1016 22 10000 2.57 50 21:19 12.04.2021
374 Clear 29 1016 21 10000 2.06 30 20:38 12.04.2021
375 Clear 29 1016 21 10000 2.06 30 20:20 12.04.2021
376 Clear 29 1015 23 10000 3.6 60 19:43 12.04.2021
377 Clear 30 1015 21 10000 2.57 70 19:23 12.04.2021
378 Clear 30 1015 21 10000 2.57 70 19:23 12.04.2021
379 Clear 29 1015 23 10000 3.6 40 18:59 12.04.2021
380 Clear 30 1015 21 10000 2.57 50 18:40 12.04.2021
381 Clear 30 1015 21 10000 2.57 50 18:22 12.04.2021
382 Clear 30 1016 23 10000 3.09 0 17:43 12.04.2021
383 Clear 30 1016 23 10000 3.09 0 17:22 12.04.2021
384 Clear 29 1016 28 10000 3.09 320 16:46 12.04.2021
385 Clear 29 1016 28 10000 3.09 320 16:27 12.04.2021
386 Clear 28 1017 30 10000 2.57 0 15:48 12.04.2021
387 Clear 28 1017 28 10000 3.09 30 15:25 12.04.2021
388 Clear 27 1017 32 10000 4.12 30 14:50 12.04.2021
389 Clear 26 1018 34 10000 2.57 40 14:29 12.04.2021
390 Clear 25 1018 36 10000 3.6 30 13:46 12.04.2021
391 Clear 24 1018 43 10000 2.06 50 13:26 12.04.2021
392 Clear 24 1019 43 10000 2.06 80 12:45 12.04.2021
393 Clear 23 1019 49 10000 1.54 0 12:24 12.04.2021
394 Clear 23 1019 49 10000 1.54 0 12:24 12.04.2021
395 Clear 21 1019 56 10000 1.54 30 11:56 12.04.2021
396 Clear 20 1019 60 10000 1.03 0 11:18 12.04.2021
397 Clear 19 1018 59 10000 1.03 0 10:41 12.04.2021
398 Clear 18 1018 63 10000 1.03 0 10:22 12.04.2021
399 Clear 15 1018 77 10000 1.03 0 09:40 12.04.2021
400 Clear 15 1018 77 10000 1.03 0 09:18 12.04.2021
401 Clear 13 1017 82 10000 0.51 0 08:35 12.04.2021
402 Clear 15 1017 77 10000 2.06 230 07:38 12.04.2021
403 Clear 15 1017 77 10000 2.06 230 07:19 12.04.2021
404 Clear 14 1018 77 10000 2.06 270 05:51 12.04.2021
405 Clear 15 1018 72 10000 1.54 70 04:28 12.04.2021
406 Clear 19 1018 59 10000 4.63 40 00:52 12.04.2021
407 Clear 19 1018 59 10000 5.66 30 00:24 12.04.2021
408 Clouds 21 1017 43 10000 4.12 20 23:46 11.04.2021
409 Clouds 22 1017 35 10000 3.09 50 23:27 11.04.2021
410 Clouds 22 1016 35 10000 3.09 40 22:46 11.04.2021
411 Clouds 23 1016 33 10000 3.09 50 22:23 11.04.2021
412 Clouds 23 1016 33 10000 4.12 50 21:46 11.04.2021
413 Clouds 24 1015 33 10000 3.6 50 21:27 11.04.2021
414 Clouds 25 1015 31 10000 3.6 30 20:55 11.04.2021
415 Clouds 26 1015 31 10000 2.57 30 20:29 11.04.2021
416 Clouds 26 1015 31 10000 2.57 30 19:54 11.04.2021
417 Clouds 27 1014 32 10000 3.09 0 19:36 11.04.2021
418 Clouds 27 1014 32 10000 3.09 0 19:18 11.04.2021
419 Clouds 27 1014 29 8000 2.57 0 18:42 11.04.2021
420 Clouds 27 1015 29 8000 2.57 0 18:24 11.04.2021
421 Clouds 27 1015 32 8000 2.57 60 17:46 11.04.2021
422 Clouds 27 1015 32 8000 2.57 60 17:27 11.04.2021
423 Clouds 27 1015 34 8000 2.06 70 16:50 11.04.2021
424 Clouds 25 1015 38 8000 2.57 0 16:23 11.04.2021
425 Clouds 25 1016 41 8000 3.09 50 15:54 11.04.2021
426 Clouds 24 1016 43 8000 2.57 0 15:27 11.04.2021
427 Clouds 24 1016 43 8000 2.57 0 15:27 11.04.2021
428 Clouds 24 1016 43 8000 2.57 0 15:27 11.04.2021
429 Clouds 23 1016 43 8000 3.6 50 14:59 11.04.2021
430 Clouds 23 1016 43 8000 3.6 50 14:41 11.04.2021
431 Clouds 21 1017 52 8000 3.09 0 13:52 11.04.2021
432 Clouds 21 1017 56 8000 2.06 0 13:31 11.04.2021
433 Clouds 20 1017 56 8000 2.57 0 12:54 11.04.2021
434 Clouds 20 1017 60 8000 2.57 90 12:21 11.04.2021
435 Clouds 20 1017 56 8000 2.06 40 11:52 11.04.2021
436 Clouds 19 1017 59 8000 1.54 80 11:24 11.04.2021
437 Clouds 17 1017 67 8000 1.54 90 10:49 11.04.2021
438 Clouds 16 1016 63 8000 2.57 70 10:31 11.04.2021
439 Clouds 15 1016 67 8000 3.09 70 09:57 11.04.2021
440 Clouds 15 1016 67 8000 2.57 50 09:33 11.04.2021
441 Clouds 15 1016 67 8000 2.57 70 08:54 11.04.2021
442 Clouds 15 1016 67 8000 3.09 70 08:25 11.04.2021
443 Clouds 14 1015 77 8000 1.03 0 07:22 11.04.2021
444 Clouds 14 1015 77 8000 1.03 0 06:51 11.04.2021
445 Clouds 14 1015 77 8000 2.06 250 05:42 11.04.2021
446 Clouds 14 1015 77 8000 2.06 240 05:20 11.04.2021
447 Clouds 14 1016 77 8000 2.06 250 04:34 11.04.2021
448 Clear 16 1016 72 10000 2.06 330 01:49 11.04.2021
449 Clear 17 1016 67 10000 3.09 40 00:34 11.04.2021
450 Clouds 18 1015 63 10000 3.6 350 23:48 10.04.2021
451 Clouds 19 1015 59 10000 4.12 360 23:25 10.04.2021
452 Clouds 19 1015 59 10000 4.12 360 23:25 10.04.2021
453 Clouds 20 1014 56 10000 6.17 360 22:43 10.04.2021
454 Clouds 22 1013 43 10000 3.6 10 22:20 10.04.2021
455 Clouds 22 1013 43 10000 4.12 340 21:41 10.04.2021
456 Clouds 23 1013 38 10000 3.6 350 21:21 10.04.2021
457 Clouds 24 1012 31 8000 3.09 310 20:44 10.04.2021
458 Clouds 25 1012 29 8000 2.06 330 20:23 10.04.2021
459 Clouds 25 1012 29 8000 2.06 330 20:23 10.04.2021
460 Clouds 25 1012 31 8000 3.09 340 19:44 10.04.2021
461 Clouds 25 1012 31 8000 3.09 340 19:25 10.04.2021
462 Clouds 26 1012 29 8000 4.12 330 18:51 10.04.2021
463 Clouds 26 1012 29 8000 2.57 300 18:29 10.04.2021
464 Clouds 26 1012 31 8000 3.09 0 17:38 10.04.2021
465 Clouds 26 1012 31 8000 3.09 0 17:18 10.04.2021
466 Clouds 26 1013 34 8000 1.54 0 16:28 10.04.2021
467 Clear 25 1013 33 8000 1.54 0 15:55 10.04.2021
468 Clear 25 1013 36 8000 1.03 0 15:23 10.04.2021
469 Clear 24 1014 38 8000 1.54 0 14:42 10.04.2021
470 Clouds 23 1014 43 8000 2.06 0 14:19 10.04.2021
471 Clouds 22 1014 43 8000 2.57 70 13:42 10.04.2021
472 Clouds 20 1014 52 8000 2.57 30 12:53 10.04.2021
473 Clouds 20 1015 52 8000 1.03 0 12:28 10.04.2021
474 Clouds 18 1015 63 8000 1.54 360 11:49 10.04.2021
475 Clouds 18 1015 59 8000 1.03 0 11:25 10.04.2021
476 Clouds 18 1015 59 8000 1.03 0 11:25 10.04.2021
477 Clouds 16 1015 67 8000 1.54 260 10:52 10.04.2021
478 Clouds 15 1015 72 8000 1.54 230 10:31 10.04.2021
479 Clouds 14 1015 72 8000 1.54 240 09:48 10.04.2021
480 Clouds 12 1015 76 10000 1.03 0 09:20 10.04.2021
481 Clouds 12 1015 76 10000 1.03 0 09:20 10.04.2021
482 Clouds 11 1014 76 10000 1.54 270 08:48 10.04.2021
483 Clouds 12 1014 71 10000 2.57 300 08:29 10.04.2021
484 Clouds 12 1014 71 10000 2.57 300 08:29 10.04.2021
485 Clouds 13 1013 76 10000 3.09 200 07:38 10.04.2021
486 Clouds 13 1013 76 10000 3.09 200 07:19 10.04.2021
487 Clouds 13 1014 71 10000 3.09 220 06:24 10.04.2021
488 Clouds 13 1015 71 10000 2.06 260 03:49 10.04.2021
489 Clouds 14 1015 67 10000 3.6 240 02:51 10.04.2021
490 Clouds 15 1015 67 10000 4.12 230 02:21 10.04.2021
491 Clouds 18 1015 55 10000 1.54 340 00:43 10.04.2021
492 Clouds 19 1014 52 8000 4.63 30 00:21 10.04.2021
493 Clouds 20 1014 49 8000 3.09 360 23:40 09.04.2021
494 Clouds 21 1014 37 8000 2.06 20 22:58 09.04.2021
495 Clouds 22 1014 35 8000 2.57 30 22:38 09.04.2021
496 Clouds 22 1014 35 8000 4.12 20 21:56 09.04.2021
497 Clouds 23 1014 35 8000 2.57 270 21:37 09.04.2021
498 Clouds 23 1014 35 8000 2.57 270 21:18 09.04.2021
499 Clouds 24 1013 38 8000 2.06 200 20:41 09.04.2021
500 Clouds 24 1013 38 8000 2.06 200 20:22 09.04.2021
501 Clouds 24 1013 41 8000 1.54 220 19:44 09.04.2021
502 Clouds 23 1013 43 8000 2.57 260 19:23 09.04.2021
503 Clouds 23 1013 43 8000 2.57 260 18:54 09.04.2021
504 Clouds 24 1013 41 8000 1.03 0 18:32 09.04.2021
505 Clouds 23 1014 43 8000 2.06 260 17:54 09.04.2021
506 Clouds 23 1014 43 8000 3.6 270 17:36 09.04.2021
507 Clouds 24 1014 41 8000 2.06 280 16:56 09.04.2021
508 Clouds 24 1014 43 8000 2.06 0 16:34 09.04.2021
509 Clouds 25 1014 41 8000 2.57 290 15:51 09.04.2021
510 Clouds 24 1014 43 8000 3.09 330 15:33 09.04.2021
511 Clouds 24 1014 43 8000 3.09 310 14:57 09.04.2021
512 Clouds 24 1014 50 8000 2.57 10 14:33 09.04.2021
513 Clouds 22 1015 53 8000 2.57 320 13:52 09.04.2021
514 Clouds 21 1015 60 8000 2.57 330 13:24 09.04.2021
515 Clouds 21 1015 64 8000 2.57 290 12:51 09.04.2021
516 Clouds 20 1015 64 8000 2.06 0 12:32 09.04.2021
517 Clouds 19 1015 68 8000 1.03 0 11:45 09.04.2021
518 Clouds 19 1015 68 8000 1.03 0 11:22 09.04.2021
519 Clouds 19 1015 72 8000 1.03 0 10:46 09.04.2021
520 Clouds 16 1015 82 8000 1.54 250 10:20 09.04.2021
521 Clouds 14 1014 88 8000 1.54 140 09:30 09.04.2021
522 Clouds 14 1014 88 8000 2.06 140 08:57 09.04.2021
523 Clouds 14 1014 82 8000 1.54 130 08:37 09.04.2021
524 Clouds 14 1014 82 8000 1.54 30 07:35 09.04.2021
525 Clouds 14 1014 82 8000 1.54 40 06:34 09.04.2021
526 Clouds 14 1014 82 8000 2.06 70 05:47 09.04.2021
527 Clouds 15 1016 77 8000 1.54 230 03:50 09.04.2021
528 Clouds 17 1017 72 8000 3.6 40 01:27 09.04.2021
529 Clouds 18 1017 68 8000 4.12 360 00:36 09.04.2021
530 Clouds 18 1017 68 8000 4.12 360 00:18 09.04.2021
531 Clouds 20 1017 60 8000 2.06 130 23:18 08.04.2021
532 Clouds 20 1016 56 8000 2.06 110 22:42 08.04.2021
533 Clouds 20 1016 60 8000 2.06 120 22:21 08.04.2021
534 Clouds 21 1016 56 8000 3.09 110 21:54 08.04.2021
535 Clouds 21 1015 52 8000 1.54 100 21:36 08.04.2021
536 Clouds 21 1015 52 8000 1.54 100 21:18 08.04.2021
537 Clouds 22 1015 53 8000 1.03 0 20:45 08.04.2021
538 Clouds 22 1015 53 8000 1.54 120 20:25 08.04.2021
539 Clouds 24 1015 46 8000 1.03 0 19:42 08.04.2021
540 Clouds 24 1015 46 8000 1.03 0 19:19 08.04.2021
541 Clouds 23 1015 53 8000 2.57 100 18:45 08.04.2021
542 Clouds 23 1015 53 8000 2.57 100 18:20 08.04.2021
543 Clouds 23 1015 53 10000 2.57 50 17:48 08.04.2021
544 Clouds 22 1016 56 8000 2.06 0 17:24 08.04.2021
545 Clouds 22 1016 56 8000 1.54 0 16:46 08.04.2021
546 Clouds 22 1016 56 8000 1.54 0 16:26 08.04.2021
547 Clouds 22 1016 56 8000 2.06 40 15:47 08.04.2021
548 Clouds 22 1017 60 8000 1.54 0 15:28 08.04.2021
549 Clouds 19 1017 63 8000 2.06 310 14:45 08.04.2021
550 Clouds 19 1017 63 8000 2.06 310 14:24 08.04.2021
551 Clouds 19 1018 63 8000 2.06 320 13:56 08.04.2021
552 Clouds 18 1018 68 8000 2.57 270 13:38 08.04.2021
553 Clouds 18 1018 68 8000 2.57 270 13:19 08.04.2021
554 Clouds 17 1018 77 8000 2.06 290 12:38 08.04.2021
555 Clouds 16 1018 77 8000 2.57 270 11:59 08.04.2021
556 Clouds 16 1018 77 8000 2.57 270 11:41 08.04.2021
557 Clouds 15 1017 82 8000 2.57 260 10:57 08.04.2021
558 Clouds 14 1017 88 8000 2.06 260 10:28 08.04.2021
559 Clouds 13 1016 88 6000 1.54 260 09:51 08.04.2021
560 Clouds 13 1016 88 6000 1.54 250 09:33 08.04.2021
561 Clouds 13 1016 82 8000 2.06 250 08:45 08.04.2021
562 Clouds 13 1016 82 8000 2.06 250 08:25 08.04.2021
563 Clouds 13 1016 82 8000 2.06 260 07:53 08.04.2021
564 Clouds 13 1016 82 8000 2.06 250 06:56 08.04.2021
565 Clouds 15 1016 77 8000 2.57 60 03:31 08.04.2021
566 Clouds 18 1017 63 8000 4.12 20 00:44 08.04.2021
567 Clouds 19 1017 63 8000 3.6 360 23:56 07.04.2021
568 Clouds 19 1017 68 8000 2.57 180 23:37 07.04.2021
569 Clouds 19 1017 68 8000 2.57 180 23:18 07.04.2021
570 Clouds 19 1016 68 8000 2.06 200 22:43 07.04.2021
571 Clouds 20 1016 64 8000 2.06 220 22:25 07.04.2021
572 Clouds 20 1015 60 6000 1.54 240 21:42 07.04.2021
573 Clouds 20 1015 60 6000 1.54 240 21:21 07.04.2021
574 Clouds 20 1015 60 6000 1.03 0 20:42 07.04.2021
575 Clouds 20 1015 60 6000 1.03 0 20:20 07.04.2021
576 Clouds 21 1014 60 6000 1.03 0 19:42 07.04.2021
577 Clouds 20 1015 60 6000 2.06 220 19:24 07.04.2021
578 Clouds 20 1014 60 6000 1.54 250 18:47 07.04.2021
579 Clouds 20 1014 64 6000 1.03 0 18:19 07.04.2021
580 Clouds 20 1014 60 6000 1.54 260 17:53 07.04.2021
581 Clouds 21 1014 60 6000 2.06 30 17:35 07.04.2021
582 Clouds 21 1014 60 6000 2.06 360 16:48 07.04.2021
583 Clouds 22 1015 60 6000 1.03 0 16:22 07.04.2021
584 Clouds 19 1015 68 6000 1.54 0 15:57 07.04.2021
585 Clouds 20 1015 68 6000 1.03 0 15:38 07.04.2021
586 Clouds 18 1016 72 6000 1.54 260 14:52 07.04.2021
587 Clouds 17 1016 77 6000 2.06 0 14:25 07.04.2021
588 Clouds 17 1016 77 6000 2.06 290 13:47 07.04.2021
589 Clouds 17 1016 77 6000 2.57 280 13:23 07.04.2021
590 Clouds 17 1016 77 6000 2.57 280 13:23 07.04.2021
591 Clouds 16 1016 82 6000 2.06 310 12:49 07.04.2021
592 Clouds 16 1016 82 6000 1.54 0 12:22 07.04.2021
593 Clouds 16 1015 82 6000 2.06 270 11:48 07.04.2021
594 Clouds 15 1015 88 6000 2.57 240 11:25 07.04.2021
595 Clouds 15 1015 82 6000 2.57 240 10:51 07.04.2021
596 Clouds 15 1015 82 6000 2.57 250 09:56 07.04.2021
597 Clouds 15 1014 82 6000 2.57 270 09:37 07.04.2021
598 Clouds 15 1014 82 6000 2.57 270 09:19 07.04.2021
599 Clouds 15 1014 82 6000 1.03 0 08:33 07.04.2021
600 Clouds 15 1013 82 8000 2.06 320 07:57 07.04.2021
601 Clouds 15 1013 82 8000 2.06 280 07:29 07.04.2021
602 Clouds 15 1013 82 8000 2.57 260 06:59 07.04.2021
603 Clouds 15 1013 82 8000 3.09 260 06:21 07.04.2021
604 Clouds 16 1013 77 8000 3.09 270 03:54 07.04.2021
605 Clouds 17 1014 72 8000 3.09 270 23:52 06.04.2021
606 Clouds 18 1013 68 8000 4.12 290 23:23 06.04.2021
607 Clouds 19 1013 63 8000 3.6 310 22:59 06.04.2021
608 Clouds 20 1012 60 8000 4.12 320 22:22 06.04.2021
609 Clouds 21 1012 60 8000 4.63 340 21:59 06.04.2021
610 Clouds 21 1012 60 8000 4.63 340 21:59 06.04.2021
611 Clouds 21 1012 60 8000 3.6 260 21:39 06.04.2021
612 Clouds 21 1012 60 8000 3.6 260 21:21 06.04.2021
613 Clouds 21 1012 60 8000 3.6 260 21:21 06.04.2021
614 Clouds 23 1011 49 8000 3.6 300 20:51 06.04.2021
615 Clouds 24 1011 43 8000 4.63 290 20:21 06.04.2021
616 Clouds 25 1011 44 8000 4.12 220 19:49 06.04.2021
617 Clouds 25 1011 44 8000 3.09 260 19:31 06.04.2021
618 Clouds 26 1011 41 8000 3.09 240 18:48 06.04.2021
619 Clouds 26 1011 44 8000 2.06 250 18:24 06.04.2021
620 Clouds 26 1011 44 8000 2.06 0 17:52 06.04.2021
621 Clouds 25 1011 47 8000 1.54 0 17:30 06.04.2021
622 Clouds 25 1011 50 8000 1.54 0 16:56 06.04.2021
623 Clouds 25 1011 50 8000 1.54 0 16:56 06.04.2021
624 Clouds 24 1012 53 8000 2.06 0 16:38 06.04.2021
625 Clouds 22 1012 60 8000 2.06 300 15:41 06.04.2021
626 Clouds 22 1012 60 8000 2.06 300 15:20 06.04.2021
627 Clouds 21 1013 64 8000 3.09 310 14:39 06.04.2021
628 Clouds 21 1013 64 8000 3.09 310 14:18 06.04.2021
629 Clouds 20 1013 68 8000 3.6 270 13:43 06.04.2021
630 Clouds 19 1013 68 8000 2.06 280 13:23 06.04.2021
631 Clouds 19 1013 72 8000 2.57 270 12:42 06.04.2021
632 Clouds 17 1014 77 8000 2.06 300 12:22 06.04.2021
633 Clouds 17 1014 82 8000 2.06 290 11:51 06.04.2021
634 Clouds 15 1014 88 8000 2.06 260 11:21 06.04.2021
635 Clouds 13 1014 94 4000 2.06 280 10:47 06.04.2021
636 Clouds 13 1014 94 4000 2.06 220 10:28 06.04.2021
637 Clouds 13 1014 94 4000 2.06 260 09:49 06.04.2021
638 Clouds 13 1014 88 4000 2.57 250 09:30 06.04.2021
639 Clouds 12 1013 94 6000 1.54 250 08:45 06.04.2021
640 Clear 13 1013 88 10000 2.57 240 08:18 06.04.2021
641 Clear 13 1013 88 10000 2.06 260 06:55 06.04.2021
642 Clear 14 1013 82 10000 2.57 240 05:40 06.04.2021
643 Clear 16 1014 72 10000 3.6 240 02:57 06.04.2021
644 Clear 18 1014 68 10000 2.06 50 00:44 06.04.2021
645 Clear 19 1013 63 10000 3.09 30 00:21 06.04.2021
646 Clear 20 1013 60 10000 4.63 30 23:43 05.04.2021
647 Clear 21 1013 56 10000 4.12 40 23:19 05.04.2021
648 Clear 22 1013 53 10000 5.14 20 22:48 05.04.2021
649 Clear 24 1012 35 10000 2.57 360 22:26 05.04.2021
650 Clear 24 1012 35 10000 2.57 10 21:44 05.04.2021
651 Clear 25 1012 33 10000 2.57 320 21:21 05.04.2021
652 Clouds 25 1012 31 10000 1.54 310 20:43 05.04.2021
653 Clouds 26 1012 29 10000 1.54 320 20:25 05.04.2021
654 Clouds 27 1012 29 10000 2.06 360 19:43 05.04.2021
655 Clouds 27 1012 29 10000 2.06 360 19:22 05.04.2021
656 Clouds 28 1012 28 10000 1.54 0 18:49 05.04.2021
657 Clouds 27 1012 32 10000 2.06 320 18:31 05.04.2021
658 Clouds 28 1012 30 10000 1.54 0 17:59 05.04.2021
659 Clouds 28 1012 30 10000 1.54 0 17:41 05.04.2021
660 Clear 29 1012 30 10000 1.03 0 17:19 05.04.2021
661 Clear 27 1012 32 10000 1.54 30 16:42 05.04.2021
662 Clear 26 1013 31 10000 1.03 0 16:20 05.04.2021
663 Clear 26 1013 34 10000 1.54 0 15:52 05.04.2021
664 Clear 25 1013 36 10000 2.06 0 15:27 05.04.2021
665 Clear 24 1014 35 10000 3.09 50 14:47 05.04.2021
666 Clear 23 1014 40 10000 3.09 360 14:27 05.04.2021
667 Clear 21 1014 49 10000 1.03 0 13:31 05.04.2021
668 Clear 21 1015 52 10000 1.54 310 12:48 05.04.2021
669 Clear 19 1015 59 10000 2.06 330 12:26 05.04.2021
670 Clear 18 1015 63 10000 1.03 0 11:55 05.04.2021
671 Clear 18 1015 63 10000 1.03 0 11:33 05.04.2021
672 Clear 16 1015 72 10000 1.54 250 10:59 05.04.2021
673 Clear 14 1015 77 10000 2.57 250 10:40 05.04.2021
674 Clear 14 1015 77 10000 2.57 250 10:19 05.04.2021
675 Clear 13 1015 82 10000 2.57 250 09:45 05.04.2021
676 Clear 12 1015 87 8000 3.09 230 09:22 05.04.2021
677 Clear 10 1014 87 8000 2.06 260 08:40 05.04.2021
678 Clear 10 1014 87 8000 2.06 260 08:20 05.04.2021
679 Clear 10 1013 87 8000 2.06 260 07:35 05.04.2021
680 Clear 13 1014 76 10000 1.54 50 04:25 05.04.2021
681 Clear 16 1014 63 8000 3.6 40 01:35 05.04.2021
682 Clear 17 1014 59 8000 4.63 40 00:36 05.04.2021
683 Clear 18 1014 55 8000 6.17 30 23:43 04.04.2021
684 Clear 19 1014 48 10000 5.14 30 23:23 04.04.2021
685 Clear 21 1014 40 10000 4.12 30 22:50 04.04.2021
686 Clear 21 1013 37 10000 2.57 30 22:28 04.04.2021
687 Clear 22 1013 35 10000 2.57 350 21:26 04.04.2021
688 Clear 23 1013 35 10000 2.57 330 20:56 04.04.2021
689 Clear 24 1013 33 10000 1.54 260 20:29 04.04.2021
690 Clear 24 1013 35 10000 2.06 0 19:54 04.04.2021
691 Clear 24 1013 35 10000 3.09 310 19:36 04.04.2021
692 Clear 24 1013 35 10000 3.09 310 19:18 04.04.2021
693 Clear 24 1013 35 10000 3.09 20 18:41 04.04.2021
694 Clear 24 1013 35 10000 2.06 40 18:20 04.04.2021
695 Clear 24 1013 38 10000 2.57 20 17:41 04.04.2021
696 Clear 24 1013 35 10000 2.06 40 17:41 04.04.2021
697 Clear 24 1013 38 10000 2.57 20 17:41 04.04.2021
698 Clear 24 1013 38 10000 2.57 20 17:22 04.04.2021
699 Clear 24 1013 38 10000 2.57 20 17:22 04.04.2021
700 Clear 23 1013 40 10000 2.57 0 16:42 04.04.2021
701 Clear 23 1014 38 10000 2.57 0 16:18 04.04.2021
702 Clear 22 1014 43 10000 2.57 0 15:34 04.04.2021
703 Clouds 21 1015 46 8000 1.54 0 14:46 04.04.2021
704 Clouds 21 1015 46 8000 1.54 0 14:27 04.04.2021
705 Clouds 20 1015 49 8000 1.03 0 13:47 04.04.2021
706 Clouds 19 1016 52 8000 1.54 0 13:23 04.04.2021
707 Clear 17 1016 59 8000 2.06 0 12:41 04.04.2021
708 Clear 17 1016 59 8000 2.06 0 12:23 04.04.2021
709 Clear 17 1015 59 8000 1.54 0 11:42 04.04.2021
710 Clear 17 1016 63 8000 1.03 0 11:23 04.04.2021
711 Clear 16 1016 67 8000 1.03 0 10:43 04.04.2021
712 Clear 12 1016 82 8000 2.57 250 09:54 04.04.2021
713 Clear 11 1015 82 8000 1.54 240 09:25 04.04.2021
714 Clear 10 1015 87 8000 2.57 240 08:53 04.04.2021
715 Clear 10 1015 81 8000 2.06 240 08:35 04.04.2021
716 Clear 9 1015 87 8000 1.54 280 07:54 04.04.2021
717 Clear 11 1014 76 8000 1.54 100 06:37 04.04.2021
718 Clear 12 1014 76 8000 1.54 80 05:33 04.04.2021
719 Clear 16 1015 59 8000 3.09 40 01:29 04.04.2021
720 Clear 16 1015 59 8000 4.63 40 00:20 04.04.2021
721 Clear 17 1014 55 8000 4.12 30 23:49 03.04.2021
722 Clear 18 1014 52 8000 3.09 20 23:31 03.04.2021
723 Clear 19 1014 48 8000 5.14 360 22:52 03.04.2021
724 Clouds 21 1013 37 10000 3.6 350 22:22 03.04.2021
725 Clouds 21 1013 37 10000 3.6 350 21:52 03.04.2021
726 Clouds 22 1012 35 10000 3.6 340 21:25 03.04.2021
727 Clouds 23 1012 31 10000 3.09 330 20:54 03.04.2021
728 Clouds 24 1012 31 10000 2.57 350 20:28 03.04.2021
729 Clouds 25 1012 31 10000 1.54 0 19:51 03.04.2021
730 Clouds 24 1012 33 10000 3.09 300 19:29 03.04.2021
731 Clouds 25 1012 31 10000 1.03 0 18:53 03.04.2021
732 Clouds 25 1012 33 10000 2.57 320 18:34 03.04.2021
733 Clouds 25 1012 33 10000 2.57 320 18:34 03.04.2021
734 Clouds 24 1012 35 10000 3.6 310 17:56 03.04.2021
735 Clouds 24 1012 35 10000 2.57 10 17:27 03.04.2021
736 Clouds 24 1013 35 10000 2.57 30 16:55 03.04.2021
737 Clouds 24 1013 35 10000 3.09 330 16:28 03.04.2021
738 Clouds 23 1014 38 8000 3.09 0 15:52 03.04.2021
739 Clouds 23 1014 38 8000 1.54 0 15:31 03.04.2021
740 Clouds 22 1014 40 8000 2.57 340 14:52 03.04.2021
741 Clouds 22 1015 43 8000 3.09 10 14:26 03.04.2021
742 Clouds 21 1015 46 8000 3.09 40 13:55 03.04.2021
743 Clouds 19 1015 52 8000 2.06 0 13:35 03.04.2021
744 Clouds 18 1015 55 8000 2.06 0 12:59 03.04.2021
745 Clouds 18 1015 63 8000 2.06 0 12:35 03.04.2021
746 Clouds 17 1016 67 8000 1.54 0 11:54 03.04.2021
747 Clouds 17 1016 72 8000 1.03 0 11:30 03.04.2021
748 Clouds 14 1016 82 8000 2.06 270 10:49 03.04.2021
749 Clouds 13 1016 82 8000 2.57 260 10:27 03.04.2021
750 Clouds 12 1016 87 8000 2.57 260 09:42 03.04.2021
751 Clouds 11 1015 87 8000 2.57 260 09:23 03.04.2021
752 Clear 11 1015 82 10000 1.54 260 08:38 03.04.2021
753 Clear 12 1015 82 10000 3.09 240 07:47 03.04.2021
754 Clear 12 1014 82 10000 2.57 230 07:26 03.04.2021
755 Clear 15 1015 67 10000 2.06 30 04:24 03.04.2021
756 Clear 15 1016 67 10000 2.06 80 02:57 03.04.2021
757 Clear 16 1016 63 10000 2.57 70 02:34 03.04.2021
758 Clear 17 1016 59 10000 2.57 50 00:51 03.04.2021
759 Clear 18 1016 55 10000 3.09 30 00:18 03.04.2021
760 Clear 19 1016 52 10000 5.14 20 23:44 02.04.2021
761 Clear 20 1016 52 10000 5.66 10 23:19 02.04.2021
762 Clouds 23 1015 38 10000 3.6 10 22:45 02.04.2021
763 Clouds 23 1015 38 10000 3.6 10 22:25 02.04.2021
764 Clouds 24 1015 35 10000 3.6 360 21:42 02.04.2021
765 Clouds 24 1015 33 10000 2.57 10 21:19 02.04.2021
766 Clouds 25 1015 31 8000 3.09 20 20:45 02.04.2021
767 Clouds 26 1015 31 8000 3.6 350 20:25 02.04.2021
768 Clouds 27 1015 29 8000 2.06 340 19:42 02.04.2021
769 Clouds 27 1015 29 8000 2.57 30 19:23 02.04.2021
770 Clouds 27 1015 32 8000 1.54 0 18:50 02.04.2021
771 Clouds 27 1015 34 8000 3.09 350 18:30 02.04.2021
772 Clear 27 1015 34 8000 3.09 50 17:57 02.04.2021
773 Clear 27 1016 36 8000 2.57 0 17:32 02.04.2021
774 Clear 27 1016 39 8000 2.57 0 16:43 02.04.2021
775 Clear 25 1017 44 10000 2.57 0 15:50 02.04.2021
776 Clear 25 1017 41 10000 2.57 340 15:28 02.04.2021
777 Clear 24 1018 46 10000 2.57 360 14:41 02.04.2021
778 Clear 24 1018 46 10000 2.57 360 14:21 02.04.2021
779 Clouds 21 1019 56 10000 3.09 50 13:39 02.04.2021
780 Clouds 21 1019 56 10000 3.09 50 13:19 02.04.2021
781 Clouds 20 1019 64 10000 2.57 90 12:38 02.04.2021
782 Clouds 20 1019 64 10000 2.57 90 12:19 02.04.2021
783 Clouds 19 1019 68 10000 2.57 90 11:48 02.04.2021
784 Clouds 18 1019 72 10000 3.09 90 11:19 02.04.2021
785 Clouds 16 1019 82 8000 0.51 0 10:43 02.04.2021
786 Clouds 16 1019 82 8000 0.51 0 10:23 02.04.2021
787 Clouds 14 1019 88 8000 1.03 0 09:51 02.04.2021
788 Clouds 13 1019 94 8000 1.03 0 09:24 02.04.2021
789 Clouds 13 1019 88 8000 1.54 280 08:46 02.04.2021
790 Clouds 13 1019 88 8000 1.54 280 08:46 02.04.2021
791 Clouds 13 1019 94 8000 2.06 260 08:26 02.04.2021
792 Clear 14 1019 88 8000 1.54 260 07:22 02.04.2021
793 Clear 13 1019 88 8000 2.06 230 06:34 02.04.2021
794 Clear 14 1019 77 10000 1.54 250 03:40 02.04.2021
795 Clear 16 1020 72 10000 2.57 240 01:40 02.04.2021
796 Clear 17 1019 67 10000 2.57 250 00:43 02.04.2021
797 Clear 17 1019 67 10000 2.57 250 00:43 02.04.2021
798 Clear 18 1019 63 10000 2.06 270 23:47 01.04.2021
799 Clear 19 1019 59 10000 3.6 300 23:27 01.04.2021
800 Clear 19 1019 59 10000 4.12 310 22:50 01.04.2021
801 Clear 20 1018 56 10000 4.63 330 22:18 01.04.2021
802 Clear 21 1018 49 10000 4.63 320 21:44 01.04.2021
803 Clear 22 1017 46 10000 4.12 310 21:23 01.04.2021
804 Clouds 24 1017 41 10000 2.06 280 20:41 01.04.2021
805 Clouds 24 1017 41 10000 2.06 280 20:41 01.04.2021
806 Clouds 24 1017 41 10000 2.06 250 20:22 01.04.2021
807 Clouds 25 1016 38 10000 2.57 310 19:43 01.04.2021
808 Clouds 25 1016 38 10000 2.06 300 19:24 01.04.2021
809 Clouds 25 1016 36 10000 3.09 0 18:45 01.04.2021
810 Clouds 25 1016 36 10000 3.09 0 18:18 01.04.2021
811 Clear 25 1016 36 10000 4.12 280 17:45 01.04.2021
812 Clear 25 1016 36 10000 4.12 280 17:24 01.04.2021
813 Clear 25 1017 36 10000 4.12 310 16:50 01.04.2021
814 Clear 25 1016 36 10000 2.06 310 16:18 01.04.2021
815 Clear 25 1016 36 10000 2.06 310 16:18 01.04.2021
816 Clear 24 1017 41 10000 2.57 0 15:40 01.04.2021
817 Clear 24 1017 41 10000 2.57 0 15:19 01.04.2021
818 Clear 23 1017 43 8000 2.57 290 14:40 01.04.2021
819 Clear 23 1017 43 8000 2.57 290 14:40 01.04.2021
820 Clear 23 1017 43 8000 2.57 290 14:40 01.04.2021
821 Clear 23 1017 43 8000 2.57 290 14:40 01.04.2021
822 Clear 23 1017 43 8000 2.57 290 14:40 01.04.2021
823 Clear 23 1017 43 8000 2.57 290 14:21 01.04.2021
824 Clear 23 1017 43 8000 3.09 340 13:50 01.04.2021
825 Clear 22 1017 46 8000 3.09 320 13:30 01.04.2021
826 Clear 21 1017 49 8000 3.09 360 12:47 01.04.2021
827 Clear 21 1017 49 8000 3.09 350 12:29 01.04.2021
828 Clear 20 1017 49 8000 2.06 10 11:45 01.04.2021
829 Clear 20 1017 49 8000 2.06 10 11:24 01.04.2021
830 Clear 19 1017 55 8000 1.54 50 10:53 01.04.2021
831 Clear 17 1017 67 8000 1.54 70 10:33 01.04.2021
832 Clear 16 1016 77 8000 1.54 90 09:53 01.04.2021
833 Clear 13 1016 88 8000 2.06 90 09:24 01.04.2021
834 Clear 12 1015 87 9000 2.06 90 08:33 01.04.2021
835 Clear 13 1015 82 9000 2.57 80 07:52 01.04.2021
836 Clear 13 1014 82 9000 3.09 100 07:18 01.04.2021
837 Clear 14 1015 77 9000 2.06 60 06:31 01.04.2021
838 Clear 16 1015 72 9000 1.54 130 03:28 01.04.2021
839 Clear 16 1015 72 9000 2.06 250 00:38 01.04.2021
840 Clear 16 1015 72 7000 3.09 260 23:44 31.03.2021
841 Clear 17 1014 67 7000 4.63 260 22:59 31.03.2021
842 Clear 18 1013 59 7000 5.66 270 22:40 31.03.2021
843 Clear 18 1013 59 7000 5.66 270 22:20 31.03.2021
844 Clear 19 1013 52 7000 6.69 280 21:44 31.03.2021
845 Clear 21 1012 37 7000 7.72 280 21:20 31.03.2021
846 Dust 26 1010 27 4000 7.72 280 20:43 31.03.2021
847 Dust 26 1010 27 4000 7.72 280 20:23 31.03.2021
848 Dust 28 1009 26 4000 8.23 290 19:55 31.03.2021
849 Dust 31 1009 20 4000 7.2 290 19:36 31.03.2021
850 Dust 31 1009 20 4000 7.2 290 19:18 31.03.2021
851 Clouds 32 1008 20 7000 6.69 280 18:41 31.03.2021
852 Clouds 33 1008 19 7000 2.06 270 17:56 31.03.2021
853 Clouds 33 1008 22 8000 1.54 0 17:34 31.03.2021
854 Clouds 33 1008 22 8000 4.12 300 16:58 31.03.2021
855 Clouds 32 1009 23 8000 2.57 340 16:37 31.03.2021
856 Clear 32 1009 23 8000 2.57 340 16:19 31.03.2021
857 Clear 31 1009 25 8000 3.6 330 15:50 31.03.2021
858 Clear 29 1009 30 8000 3.6 330 15:19 31.03.2021
859 Clear 29 1010 32 8000 2.57 320 14:43 31.03.2021
860 Clear 28 1010 32 9000 2.06 0 14:20 31.03.2021
861 Clear 27 1011 34 9000 1.54 340 13:41 31.03.2021
862 Clear 26 1011 36 9000 1.03 0 12:42 31.03.2021
863 Clear 24 1012 38 9000 1.54 0 12:21 31.03.2021
864 Clear 22 1012 43 9000 1.54 0 11:56 31.03.2021
865 Clear 21 1012 46 8000 1.03 0 11:21 31.03.2021
866 Clear 19 1012 52 8000 2.06 260 10:47 31.03.2021
867 Clear 19 1012 55 8000 0.51 0 10:25 31.03.2021
868 Clear 16 1012 63 8000 3.09 70 09:43 31.03.2021
869 Clear 16 1012 63 8000 3.09 0 08:59 31.03.2021
870 Clear 14 1012 67 8000 0.51 0 08:38 31.03.2021
871 Clear 14 1012 67 8000 1.03 0 07:53 31.03.2021
872 Clear 14 1011 67 8000 2.06 270 06:49 31.03.2021
873 Clear 16 1012 59 8000 2.06 260 03:51 31.03.2021
874 Clear 19 1013 52 8000 1.03 0 01:43 31.03.2021
875 Clear 20 1014 45 8000 1.54 70 00:49 31.03.2021
876 Clear 20 1014 45 8000 1.54 160 00:21 31.03.2021
877 Clear 21 1014 43 8000 3.09 40 23:46 30.03.2021
878 Clear 22 1013 40 6000 3.6 40 23:19 30.03.2021
879 Clear 24 1013 41 6000 3.09 10 22:41 30.03.2021
880 Clear 24 1013 41 6000 3.09 10 22:23 30.03.2021
881 Clear 24 1012 35 6000 3.09 280 21:51 30.03.2021
882 Clear 25 1012 33 8000 3.09 240 21:21 30.03.2021
883 Clear 26 1012 31 8000 3.09 250 20:53 30.03.2021
884 Clear 28 1012 26 8000 2.57 260 20:28 30.03.2021
885 Clear 28 1012 24 10000 1.54 280 19:51 30.03.2021
886 Clear 28 1012 26 8000 2.57 270 19:28 30.03.2021
887 Clear 29 1012 24 8000 2.06 0 18:40 30.03.2021
888 Clear 29 1012 24 8000 2.06 0 18:20 30.03.2021
889 Clear 28 1013 26 8000 2.57 300 17:42 30.03.2021
890 Clear 28 1013 26 8000 2.57 300 17:23 30.03.2021
891 Clear 28 1013 26 8000 2.06 0 16:45 30.03.2021
892 Clear 28 1013 26 8000 1.54 0 16:24 30.03.2021
893 Clear 25 1014 29 8000 3.09 340 15:21 30.03.2021
894 Clear 25 1015 27 8000 2.06 290 14:57 30.03.2021
895 Clear 24 1015 31 8000 2.06 0 14:22 30.03.2021
896 Clear 23 1016 31 8000 2.06 0 13:59 30.03.2021
897 Clear 22 1016 33 8000 1.54 0 13:37 30.03.2021
898 Clear 21 1016 35 8000 1.54 290 12:49 30.03.2021
899 Clear 20 1016 37 8000 2.06 270 12:29 30.03.2021
900 Clear 19 1016 42 8000 2.06 270 11:58 30.03.2021
901 Clear 18 1016 48 8000 2.57 280 11:23 30.03.2021
902 Clear 18 1016 45 8000 2.57 270 10:46 30.03.2021
903 Clear 18 1015 45 8000 0.51 0 10:28 30.03.2021
904 Clear 16 1015 48 8000 2.06 160 09:50 30.03.2021
905 Clear 16 1015 48 8000 2.06 160 09:50 30.03.2021
906 Clear 14 1015 54 8000 1.03 0 09:31 30.03.2021
907 Clear 13 1015 58 8000 1.03 0 08:56 30.03.2021
908 Clear 14 1015 54 8000 1.54 240 08:38 30.03.2021
909 Clear 14 1014 54 8000 2.06 250 07:52 30.03.2021
910 Clouds 16 1014 48 8000 2.06 180 07:22 30.03.2021
911 Clouds 15 1015 47 8000 2.06 260 05:40 30.03.2021
912 Clouds 15 1015 47 8000 2.06 260 05:19 30.03.2021
913 Clouds 18 1016 52 6000 5.14 260 00:33 30.03.2021
914 Clouds 21 1015 43 6000 3.6 270 23:36 29.03.2021
915 Clouds 22 1015 40 6000 3.6 320 22:52 29.03.2021
916 Clouds 23 1015 40 6000 3.6 320 22:30 29.03.2021
917 Clouds 24 1014 38 6000 4.12 350 21:47 29.03.2021
918 Clouds 24 1014 38 6000 4.63 350 21:29 29.03.2021
919 Clouds 26 1014 36 6000 2.57 330 20:48 29.03.2021
920 Clouds 26 1014 34 4000 2.06 330 20:27 29.03.2021
921 Clouds 30 1013 14 4000 5.14 210 19:49 29.03.2021
922 Clouds 30 1013 15 4000 6.69 230 19:24 29.03.2021
923 Clouds 30 1013 14 4000 5.66 190 18:44 29.03.2021
924 Clouds 30 1013 15 4000 5.14 230 18:26 29.03.2021
925 Clouds 30 1013 15 6000 4.12 180 17:51 29.03.2021
926 Clouds 30 1013 14 6000 4.12 200 17:32 29.03.2021
927 Clouds 32 1013 13 6000 5.14 180 16:42 29.03.2021
928 Clouds 31 1014 14 6000 5.14 180 16:24 29.03.2021
929 Clouds 31 1014 15 6000 3.6 140 15:36 29.03.2021
930 Clouds 31 1014 15 6000 3.6 140 15:18 29.03.2021
931 Clouds 31 1014 14 6000 5.66 0 14:45 29.03.2021
932 Clear 29 1015 17 6000 3.09 40 13:55 29.03.2021
933 Clear 29 1015 21 6000 2.06 30 13:33 29.03.2021
934 Clear 27 1015 26 6000 2.57 50 12:54 29.03.2021
935 Clear 25 1015 31 6000 2.57 40 12:36 29.03.2021
936 Clear 22 1015 40 6000 2.57 250 11:43 29.03.2021
937 Clear 22 1015 40 6000 2.57 250 11:25 29.03.2021
938 Clear 19 1016 48 6000 3.09 250 10:43 29.03.2021
939 Clouds 18 1015 52 6000 2.06 250 10:19 29.03.2021
940 Mist 18 1015 42 4000 2.06 0 09:31 29.03.2021
941 Clear 19 1014 37 6000 3.09 30 08:30 29.03.2021
942 Clouds 18 1013 42 6000 1.54 300 07:54 29.03.2021
943 Clouds 20 1014 34 6000 1.54 20 06:57 29.03.2021
944 Clouds 20 1014 32 6000 3.09 30 05:45 29.03.2021
945 Clouds 24 1015 23 6000 4.63 150 02:32 29.03.2021
946 Clouds 20 1015 37 8000 2.06 80 00:27 29.03.2021
947 Clouds 20 1016 37 8000 2.57 80 23:57 28.03.2021
948 Clouds 21 1015 35 8000 1.54 90 23:25 28.03.2021
949 Clouds 22 1015 30 8000 3.09 100 22:43 28.03.2021
950 Clouds 23 1015 28 8000 3.09 130 22:25 28.03.2021
951 Clouds 24 1015 27 6000 4.63 130 21:47 28.03.2021
952 Clouds 25 1015 25 6000 7.2 140 21:24 28.03.2021
953 Clouds 25 1015 27 6000 5.66 130 20:53 28.03.2021
954 Clouds 26 1015 25 6000 1.03 0 20:35 28.03.2021
955 Clouds 26 1015 25 6000 5.66 110 19:56 28.03.2021
956 Clouds 27 1015 24 6000 7.2 110 19:38 28.03.2021
957 Clouds 27 1015 24 6000 7.2 110 19:20 28.03.2021
958 Clouds 26 1015 27 6000 7.72 130 18:37 28.03.2021
959 Clouds 26 1015 27 6000 7.72 130 18:18 28.03.2021
960 Clouds 27 1015 24 8000 5.14 120 17:37 28.03.2021
961 Clouds 29 1015 24 8000 2.06 0 16:56 28.03.2021
962 Clouds 27 1015 26 8000 4.12 0 16:28 28.03.2021
963 Clouds 27 1015 26 8000 3.09 70 15:57 28.03.2021
964 Clouds 27 1016 26 8000 4.12 90 15:24 28.03.2021
965 Clouds 26 1017 29 8000 4.63 90 14:46 28.03.2021
966 Clouds 25 1018 29 8000 3.09 80 14:18 28.03.2021
967 Clouds 25 1019 29 8000 2.06 30 13:35 28.03.2021
968 Clouds 23 1019 35 8000 2.06 330 12:56 28.03.2021
969 Clouds 22 1019 37 8000 2.57 60 12:34 28.03.2021
970 Clouds 21 1019 43 8000 2.57 30 11:52 28.03.2021
971 Clouds 18 1019 52 8000 2.06 30 11:32 28.03.2021
972 Clouds 18 1019 48 8000 2.06 80 10:48 28.03.2021
973 Clouds 19 1018 39 8000 4.12 80 10:29 28.03.2021
974 Clouds 20 1018 32 8000 6.17 90 09:51 28.03.2021
975 Clouds 18 1018 39 8000 3.6 50 09:28 28.03.2021
976 Clouds 18 1018 39 8000 1.03 0 08:51 28.03.2021
977 Clouds 20 1017 32 8000 2.57 200 08:33 28.03.2021
978 Clouds 20 1017 32 8000 4.12 170 07:41 28.03.2021
979 Clouds 17 1016 42 8000 2.06 120 06:20 28.03.2021
980 Clouds 19 1018 37 8000 1.03 0 03:50 28.03.2021
981 Clouds 23 1019 25 10000 4.63 230 00:36 28.03.2021
982 Clouds 24 1019 25 10000 5.66 230 23:53 27.03.2021
983 Clouds 24 1019 25 10000 3.09 250 23:34 27.03.2021
984 Clouds 23 1017 27 10000 2.06 350 22:40 27.03.2021
985 Clouds 23 1017 27 10000 2.06 350 22:21 27.03.2021
986 Clouds 23 1016 28 10000 1.03 0 21:42 27.03.2021
987 Clouds 23 1016 28 10000 1.03 0 21:21 27.03.2021
988 Clouds 23 1016 27 10000 2.57 60 20:58 27.03.2021
989 Clouds 24 1016 25 10000 3.09 60 20:37 27.03.2021
990 Clouds 25 1016 20 10000 1.54 210 19:56 27.03.2021
991 Clouds 26 1016 19 10000 4.63 190 19:37 27.03.2021
992 Clouds 26 1016 19 10000 4.63 190 19:18 27.03.2021
993 Dust 27 1016 19 5000 6.69 210 18:41 27.03.2021
994 Dust 26 1016 21 4000 7.72 210 18:20 27.03.2021
995 Clouds 27 1015 18 10000 5.66 190 17:29 27.03.2021
996 Clouds 27 1015 21 10000 3.6 180 16:58 27.03.2021
997 Clouds 29 1015 18 10000 3.09 150 16:38 27.03.2021
998 Clouds 29 1015 18 10000 3.09 150 16:20 27.03.2021
999 Clouds 30 1015 19 10000 2.57 120 15:39 27.03.2021
1000 Clouds 28 1016 18 10000 3.09 110 14:59 27.03.2021
1001 Clouds 28 1016 17 10000 3.6 70 14:38 27.03.2021
1002 Clouds 26 1017 19 10000 1.54 10 13:39 27.03.2021
1003 Clouds 26 1017 19 10000 1.54 10 13:19 27.03.2021
1004 Clouds 27 1017 18 10000 2.06 70 12:43 27.03.2021
1005 Clouds 25 1017 23 10000 3.09 70 11:50 27.03.2021
1006 Clouds 24 1017 25 10000 2.06 50 11:31 27.03.2021
1007 Clouds 25 1017 23 10000 2.06 70 10:49 27.03.2021
1008 Clouds 24 1017 22 10000 1.54 70 10:30 27.03.2021
1009 Clouds 22 1017 30 10000 2.57 60 09:47 27.03.2021
1010 Clouds 19 1017 42 10000 1.54 70 09:20 27.03.2021
1011 Clouds 13 1016 50 10000 4.63 100 08:39 27.03.2021
1012 Clouds 12 1016 54 10000 2.57 80 07:52 27.03.2021
1013 Clouds 14 1016 51 10000 2.06 50 06:59 27.03.2021
1014 Clouds 14 1016 51 10000 1.03 0 06:39 27.03.2021
1015 Clouds 16 1016 44 10000 2.06 90 04:42 27.03.2021
1016 Clouds 17 1017 36 10000 1.03 0 02:26 27.03.2021
1017 Clouds 21 1018 26 10000 2.57 140 00:44 27.03.2021
1018 Clouds 21 1018 26 10000 2.57 80 00:25 27.03.2021
1019 Clouds 21 1018 24 10000 2.57 130 23:27 26.03.2021
1020 Clouds 23 1018 21 10000 4.63 50 22:40 26.03.2021
1021 Clouds 23 1018 21 10000 4.63 50 22:40 26.03.2021
1022 Clouds 24 1017 22 10000 6.17 50 21:45 26.03.2021
1023 Clouds 23 1017 23 8000 1.54 0 21:23 26.03.2021
1024 Clouds 24 1017 20 8000 2.06 40 20:57 26.03.2021
1025 Clouds 25 1016 20 8000 2.57 50 20:31 26.03.2021
1026 Clouds 26 1016 19 8000 2.57 60 19:52 26.03.2021
1027 Clouds 27 1016 18 8000 3.6 50 19:33 26.03.2021
1028 Clouds 29 1016 16 8000 4.63 40 18:51 26.03.2021
1029 Clouds 29 1016 14 8000 4.12 70 18:31 26.03.2021
1030 Clouds 30 1016 14 8000 3.6 40 17:57 26.03.2021
1031 Clouds 30 1016 14 8000 3.6 70 17:35 26.03.2021
1032 Clouds 29 1017 13 8000 3.09 50 16:49 26.03.2021
1033 Clouds 28 1017 15 8000 2.06 30 16:22 26.03.2021
1034 Clouds 29 1017 13 8000 3.09 10 15:36 26.03.2021
1035 Clouds 29 1018 15 8000 4.63 40 14:50 26.03.2021
1036 Clouds 29 1019 16 8000 2.57 50 13:52 26.03.2021
1037 Clouds 29 1019 16 8000 2.57 50 13:52 26.03.2021
1038 Clouds 29 1019 20 8000 2.57 100 13:26 26.03.2021
1039 Clear 27 1020 24 10000 3.09 70 12:40 26.03.2021
1040 Clouds 19 1020 52 8000 3.09 90 11:49 26.03.2021
1041 Clouds 19 1020 52 8000 3.09 90 11:31 26.03.2021
1042 Clouds 19 1020 52 8000 3.09 90 11:31 26.03.2021
1043 Clouds 17 1020 55 8000 3.09 80 10:44 26.03.2021
1044 Clouds 17 1020 55 8000 3.09 80 10:23 26.03.2021
1045 Clouds 17 1020 55 8000 3.09 80 10:23 26.03.2021
1046 Clouds 15 1020 58 8000 2.06 90 09:41 26.03.2021
1047 Clouds 14 1020 58 8000 3.09 90 08:49 26.03.2021
1048 Clouds 13 1019 62 8000 3.6 100 08:31 26.03.2021
1049 Clouds 12 1019 62 8000 2.57 80 07:57 26.03.2021
1050 Clouds 13 1019 58 8000 2.57 80 07:22 26.03.2021
1051 Clouds 13 1019 58 8000 3.09 90 06:56 26.03.2021
1052 Clouds 11 1019 62 8000 2.06 80 05:32 26.03.2021
1053 Clouds 12 1020 58 8000 3.09 100 04:23 26.03.2021
1054 Clear 15 1021 44 10000 4.12 100 01:18 26.03.2021
1055 Clear 16 1021 41 10000 2.57 110 00:18 26.03.2021
1056 Clear 16 1022 39 10000 2.57 110 23:42 25.03.2021
1057 Clear 19 1021 30 10000 3.09 70 22:50 25.03.2021
1058 Clear 21 1021 24 10000 4.12 40 22:26 25.03.2021
1059 Clear 19 1021 30 10000 2.06 80 21:48 25.03.2021
1060 Clear 21 1020 26 10000 2.57 60 21:29 25.03.2021
1061 Clear 22 1020 23 10000 2.57 50 20:41 25.03.2021
1062 Clear 23 1020 20 10000 3.09 40 20:23 25.03.2021
1063 Clear 25 1020 16 10000 4.12 40 19:43 25.03.2021
1064 Clear 26 1020 17 10000 3.6 40 19:24 25.03.2021
1065 Clear 26 1020 18 10000 3.6 40 18:46 25.03.2021
1066 Clear 27 1020 17 10000 3.6 80 18:26 25.03.2021
1067 Clear 28 1020 16 10000 1.54 0 17:42 25.03.2021
1068 Clear 27 1020 17 10000 2.57 60 17:23 25.03.2021
1069 Clear 27 1020 18 10000 3.6 360 16:39 25.03.2021
1070 Clear 27 1020 18 10000 3.6 360 16:20 25.03.2021
1071 Clear 28 1021 16 10000 2.06 80 15:42 25.03.2021
1072 Clear 27 1021 17 10000 2.57 0 15:19 25.03.2021
1073 Clear 26 1022 21 10000 2.57 60 14:42 25.03.2021
1074 Clear 26 1022 19 10000 2.57 10 13:41 25.03.2021
1075 Clear 25 1023 19 10000 2.57 60 13:23 25.03.2021
1076 Clear 24 1023 22 10000 3.6 70 12:41 25.03.2021
1077 Clear 23 1023 23 10000 4.63 60 12:20 25.03.2021
1078 Clear 22 1023 23 10000 5.14 60 11:48 25.03.2021
1079 Clear 21 1024 28 10000 4.12 80 11:26 25.03.2021
1080 Clear 20 1024 37 10000 3.6 80 10:52 25.03.2021
1081 Clear 19 1024 42 10000 2.57 100 10:24 25.03.2021
1082 Clear 17 1024 48 10000 1.54 70 09:56 25.03.2021
1083 Clear 14 1023 62 10000 1.54 70 09:38 25.03.2021
1084 Clear 12 1023 66 10000 1.54 50 08:46 25.03.2021
1085 Clear 10 1023 71 10000 2.06 70 07:59 25.03.2021
1086 Clear 10 1023 71 10000 2.06 80 07:19 25.03.2021
1087 Clear 10 1023 71 10000 2.06 90 06:25 25.03.2021
1088 Clear 11 1023 66 10000 2.57 70 05:49 25.03.2021
1089 Clear 13 1024 50 10000 2.57 70 02:48 25.03.2021
1090 Clear 16 1025 41 10000 2.06 70 00:24 25.03.2021
1091 Clear 17 1025 39 10000 3.6 120 23:53 24.03.2021
1092 Clear 17 1025 34 10000 2.57 100 23:29 24.03.2021
1093 Clear 19 1025 27 10000 2.57 50 22:49 24.03.2021
1094 Clear 20 1025 26 10000 3.09 50 22:28 24.03.2021
1095 Clear 21 1024 24 10000 3.09 30 21:44 24.03.2021
1096 Clear 22 1024 23 10000 3.6 30 21:24 24.03.2021
1097 Clear 22 1023 23 10000 2.57 30 20:43 24.03.2021
1098 Clouds 23 1023 21 10000 2.06 10 20:20 24.03.2021
1099 Clouds 24 1023 20 10000 3.09 360 19:48 24.03.2021
1100 Clouds 25 1023 19 10000 2.57 340 19:28 24.03.2021
1101 Clouds 25 1023 20 10000 2.57 340 18:49 24.03.2021
1102 Clouds 26 1022 19 10000 3.6 330 18:23 24.03.2021
1103 Clouds 26 1023 19 10000 3.09 340 17:51 24.03.2021
1104 Clouds 27 1023 19 10000 2.57 0 17:31 24.03.2021
1105 Clouds 28 1023 20 10000 1.03 0 16:52 24.03.2021
1106 Clouds 27 1023 21 10000 1.54 0 16:29 24.03.2021
1107 Clouds 27 1023 21 10000 1.54 0 15:50 24.03.2021
1108 Clouds 25 1023 23 10000 2.06 0 15:30 24.03.2021
1109 Clouds 26 1024 24 10000 2.06 0 14:47 24.03.2021
1110 Clear 24 1024 25 10000 3.09 50 14:26 24.03.2021
1111 Clear 25 1024 27 10000 2.06 0 13:54 24.03.2021
1112 Clear 23 1025 28 10000 3.09 40 13:27 24.03.2021
1113 Clear 23 1025 33 10000 3.6 0 12:42 24.03.2021
1114 Clear 22 1025 30 10000 3.6 60 12:23 24.03.2021
1115 Clear 21 1026 32 10000 4.12 60 11:44 24.03.2021
1116 Clear 18 1026 48 10000 3.09 70 10:59 24.03.2021
1117 Clear 17 1025 55 10000 2.06 70 10:40 24.03.2021
1118 Clear 17 1025 55 10000 2.06 70 10:21 24.03.2021
1119 Clear 15 1025 63 10000 2.06 80 09:52 24.03.2021
1120 Clear 13 1025 71 10000 2.06 70 09:22 24.03.2021
1121 Clear 11 1025 76 10000 1.54 90 08:51 24.03.2021
1122 Clear 9 1024 81 10000 2.57 80 08:26 24.03.2021
1123 Clear 9 1024 81 10000 2.57 80 08:26 24.03.2021
1124 Clear 9 1024 81 10000 2.06 70 07:37 24.03.2021
1125 Clear 10 1024 76 10000 2.06 40 06:52 24.03.2021
1126 Clear 10 1023 76 10000 1.54 90 05:30 24.03.2021
1127 Clear 16 1024 48 10000 3.09 170 00:51 24.03.2021
1128 Clear 17 1024 42 10000 3.09 120 23:59 23.03.2021
1129 Clear 16 1024 44 10000 3.6 110 23:22 23.03.2021
1130 Clear 18 1024 36 10000 3.09 40 22:54 23.03.2021
1131 Clear 19 1023 34 10000 3.09 30 22:36 23.03.2021
1132 Clear 19 1023 32 10000 4.12 10 21:54 23.03.2021
1133 Clear 20 1022 32 10000 3.6 10 21:34 23.03.2021
1134 Clear 21 1022 26 10000 2.57 10 20:56 23.03.2021
1135 Clouds 22 1021 24 10000 3.09 10 20:38 23.03.2021
1136 Clouds 22 1021 24 10000 3.09 10 20:19 23.03.2021
1137 Clouds 23 1021 23 10000 3.09 340 19:41 23.03.2021
1138 Clouds 24 1021 20 10000 2.06 290 19:22 23.03.2021
1139 Clouds 25 1021 20 10000 4.12 270 18:38 23.03.2021
1140 Clouds 25 1021 20 10000 4.12 270 18:19 23.03.2021
1141 Clouds 25 1021 20 10000 4.12 270 18:19 23.03.2021
1142 Clouds 25 1021 20 10000 2.57 340 17:43 23.03.2021
1143 Clouds 25 1021 20 10000 2.57 340 17:21 23.03.2021
1144 Clouds 24 1021 22 10000 4.12 280 16:26 23.03.2021
1145 Clouds 25 1021 20 10000 3.09 310 15:51 23.03.2021
1146 Clouds 25 1021 22 10000 3.09 320 15:24 23.03.2021
1147 Clouds 25 1021 23 10000 2.57 0 14:49 23.03.2021
1148 Clouds 24 1022 27 10000 3.09 360 14:20 23.03.2021
1149 Clouds 24 1022 25 10000 3.09 340 13:47 23.03.2021
1150 Clouds 24 1022 29 10000 2.06 0 13:25 23.03.2021
1151 Clouds 23 1023 35 10000 1.03 0 12:46 23.03.2021
1152 Clear 21 1023 43 10000 2.06 80 12:26 23.03.2021
1153 Clear 20 1023 45 10000 2.06 90 11:49 23.03.2021
1154 Clear 20 1023 45 10000 2.06 90 11:49 23.03.2021
1155 Clear 19 1023 48 10000 2.57 70 11:26 23.03.2021
1156 Clear 17 1022 59 10000 2.57 70 10:42 23.03.2021
1157 Clear 17 1022 59 10000 2.57 70 10:21 23.03.2021
1158 Clear 15 1022 67 10000 2.06 80 09:51 23.03.2021
1159 Clear 13 1022 71 10000 1.03 0 09:23 23.03.2021
1160 Clear 11 1021 76 10000 2.06 30 08:55 23.03.2021
1161 Clear 8 1021 87 10000 2.06 90 08:37 23.03.2021
1162 Clear 8 1021 87 10000 2.06 90 08:19 23.03.2021
1163 Clear 8 1021 87 10000 2.06 80 07:27 23.03.2021
1164 Clear 9 1021 81 10000 1.54 70 06:53 23.03.2021
1165 Clear 11 1020 76 10000 2.06 140 03:25 23.03.2021
1166 Clear 11 1020 76 10000 1.03 0 02:46 23.03.2021
1167 Clear 14 1020 54 10000 1.03 0 23:47 22.03.2021
1168 Clear 15 1020 51 10000 2.06 30 23:18 22.03.2021
1169 Clear 16 1020 48 10000 2.06 0 22:42 22.03.2021
1170 Clouds 17 1020 48 10000 3.09 330 22:20 22.03.2021
1171 Clouds 17 1019 48 10000 3.09 320 21:47 22.03.2021
1172 Clouds 18 1019 45 10000 3.6 330 21:26 22.03.2021
1173 Clouds 19 1018 37 10000 4.12 310 20:44 22.03.2021
1174 Clouds 19 1018 37 10000 4.12 310 20:25 22.03.2021
1175 Clouds 19 1018 37 10000 2.57 250 19:58 22.03.2021
1176 Clouds 19 1018 37 10000 2.57 250 19:58 22.03.2021
1177 Clouds 20 1018 34 10000 4.63 260 19:38 22.03.2021
1178 Clouds 20 1018 34 10000 4.63 260 19:19 22.03.2021
1179 Clouds 22 1017 28 10000 3.6 310 18:40 22.03.2021
1180 Clouds 22 1017 30 10000 3.6 270 18:22 22.03.2021
1181 Clouds 23 1017 28 10000 3.6 300 17:49 22.03.2021
1182 Clouds 23 1017 28 10000 4.12 290 17:22 22.03.2021
1183 Clouds 22 1017 30 10000 4.63 300 16:49 22.03.2021
1184 Clouds 22 1017 30 10000 4.63 300 16:49 22.03.2021
1185 Clouds 22 1017 30 10000 4.12 320 16:22 22.03.2021
1186 Clouds 22 1017 30 10000 4.63 290 15:42 22.03.2021
1187 Clouds 22 1017 30 10000 4.63 290 15:42 22.03.2021
1188 Clouds 23 1017 33 10000 2.57 0 15:22 22.03.2021
1189 Clouds 22 1017 33 10000 2.06 0 14:57 22.03.2021
1190 Clouds 21 1018 37 10000 2.06 30 14:34 22.03.2021
1191 Clear 20 1018 42 10000 1.54 50 13:50 22.03.2021
1192 Clear 20 1018 42 10000 1.54 50 13:29 22.03.2021
1193 Clear 17 1018 51 10000 2.57 70 12:57 22.03.2021
1194 Clear 17 1018 51 10000 2.57 70 12:26 22.03.2021
1195 Clear 16 1018 55 10000 2.06 100 11:51 22.03.2021
1196 Clear 16 1018 55 10000 2.06 100 11:51 22.03.2021
1197 Clear 16 1018 55 10000 2.06 100 11:29 22.03.2021
1198 Clear 15 1018 63 10000 1.54 90 10:46 22.03.2021
1199 Clear 14 1018 67 10000 1.03 0 10:26 22.03.2021
1200 Clear 12 1018 76 10000 1.54 90 09:56 22.03.2021
1201 Clear 11 1017 76 10000 1.54 80 09:34 22.03.2021
1202 Clear 9 1017 87 10000 1.03 0 08:47 22.03.2021
1203 Clear 9 1017 87 10000 1.03 0 08:47 22.03.2021
1204 Clear 7 1017 87 10000 1.03 0 08:28 22.03.2021
1205 Clear 6 1017 93 10000 1.54 90 07:54 22.03.2021
1206 Clear 6 1017 87 10000 2.57 100 07:34 22.03.2021
1207 Clear 6 1017 93 10000 2.57 110 06:51 22.03.2021
1208 Clear 8 1017 81 10000 2.06 80 02:51 22.03.2021
1209 Clear 10 1018 76 10000 3.09 70 00:49 22.03.2021
1210 Clear 10 1018 76 10000 2.57 100 23:59 21.03.2021
1211 Clear 10 1018 76 10000 2.06 90 23:40 21.03.2021
1212 Clear 10 1018 76 10000 2.06 90 23:18 21.03.2021
1213 Clear 11 1018 66 10000 2.06 100 22:43 21.03.2021
1214 Clear 12 1017 62 10000 2.57 70 21:43 21.03.2021
1215 Clear 14 1017 51 10000 3.09 70 21:25 21.03.2021
1216 Clear 14 1017 47 10000 3.6 70 20:57 21.03.2021
1217 Clouds 15 1016 44 10000 3.6 70 20:38 21.03.2021
1218 Clouds 15 1016 44 10000 3.6 70 20:19 21.03.2021
1219 Clouds 17 1016 39 10000 4.12 60 19:40 21.03.2021
1220 Clouds 17 1016 39 10000 4.12 60 19:19 21.03.2021
1221 Clouds 17 1016 39 10000 4.63 80 18:41 21.03.2021
1222 Clouds 18 1016 39 10000 4.63 50 18:18 21.03.2021
1223 Clouds 18 1015 39 10000 4.63 60 17:42 21.03.2021
1224 Clouds 18 1015 36 10000 5.66 50 17:18 21.03.2021
1225 Clouds 18 1016 39 10000 4.63 50 16:50 21.03.2021
1226 Clouds 18 1016 39 10000 4.63 60 16:23 21.03.2021
1227 Clouds 18 1016 36 10000 5.14 40 15:48 21.03.2021
1228 Clouds 17 1016 45 10000 4.63 40 15:22 21.03.2021
1229 Clouds 17 1017 42 10000 5.14 60 14:48 21.03.2021
1230 Clouds 16 1017 44 10000 4.12 60 14:27 21.03.2021
1231 Clouds 16 1017 44 10000 4.63 60 13:59 21.03.2021
1232 Clouds 15 1018 51 10000 5.66 70 13:40 21.03.2021
1233 Clear 14 1018 51 10000 5.14 60 12:44 21.03.2021
1234 Clear 14 1018 51 10000 5.14 60 12:25 21.03.2021
1235 Clear 14 1018 51 10000 5.14 60 12:25 21.03.2021
1236 Clear 13 1018 62 10000 6.17 50 11:42 21.03.2021
1237 Clear 12 1018 66 10000 5.14 60 11:24 21.03.2021
1238 Clear 11 1018 76 10000 5.14 70 10:48 21.03.2021
1239 Clear 10 1017 81 10000 4.12 60 10:29 21.03.2021
1240 Clear 9 1017 81 10000 5.66 70 09:51 21.03.2021
1241 Clear 8 1017 87 10000 4.63 80 09:32 21.03.2021
1242 Clear 7 1017 93 10000 2.06 70 08:59 21.03.2021
1243 Clouds 6 1017 93 8000 3.09 100 08:36 21.03.2021
1244 Clouds 6 1017 93 8000 3.09 100 08:18 21.03.2021
1245 Clouds 5 1016 93 6000 2.57 90 07:29 21.03.2021
1246 Clouds 6 1016 87 6000 1.54 90 06:21 21.03.2021
1247 Clouds 7 1015 87 6000 1.03 0 04:52 21.03.2021
1248 Clouds 9 1016 76 6000 2.06 60 00:58 21.03.2021
1249 Clouds 9 1016 76 5000 3.6 60 00:38 21.03.2021
1250 Clouds 9 1016 76 5000 3.6 60 00:20 21.03.2021
1251 Clouds 10 1015 71 5000 4.12 40 23:45 20.03.2021
1252 Clouds 10 1015 76 5000 2.57 30 23:20 20.03.2021
1253 Clouds 11 1014 82 5000 3.6 10 22:24 20.03.2021
1254 Clouds 11 1014 87 5000 5.14 10 21:51 20.03.2021
1255 Clouds 11 1013 93 5000 3.09 290 21:33 20.03.2021
1256 Clouds 11 1013 87 6000 4.12 350 20:58 20.03.2021
1257 Clouds 12 1012 87 6000 3.09 290 20:39 20.03.2021
1258 Clouds 12 1012 87 6000 3.09 290 20:21 20.03.2021
1259 Clouds 12 1012 87 6000 3.09 340 19:41 20.03.2021
1260 Clouds 12 1012 87 5000 4.12 310 19:22 20.03.2021
1261 Clouds 13 1012 82 8000 4.12 300 18:45 20.03.2021
1262 Clouds 13 1012 82 8000 4.12 300 18:45 20.03.2021
1263 Clouds 13 1011 76 8000 6.69 290 18:21 20.03.2021
1264 Clouds 15 1011 63 8000 7.2 280 17:44 20.03.2021
1265 Clouds 16 1011 63 8000 5.66 290 17:22 20.03.2021
1266 Clouds 16 1011 59 8000 6.69 280 16:44 20.03.2021
1267 Clouds 15 1011 72 8000 5.66 280 16:20 20.03.2021
1268 Clouds 15 1012 63 8000 7.72 280 15:49 20.03.2021
1269 Clouds 16 1012 55 8000 7.72 280 15:29 20.03.2021
1270 Clouds 17 1012 51 8000 6.17 280 14:41 20.03.2021
1271 Clouds 16 1012 51 8000 6.17 270 14:20 20.03.2021
1272 Clouds 17 1013 45 8000 4.63 230 13:31 20.03.2021
1273 Clouds 14 1013 54 8000 5.14 290 12:42 20.03.2021
1274 Clouds 15 1013 51 8000 4.63 280 12:23 20.03.2021
1275 Clouds 15 1014 55 8000 5.14 270 11:44 20.03.2021
1276 Clouds 14 1014 58 8000 5.14 250 11:23 20.03.2021
1277 Clouds 13 1014 62 8000 5.14 250 10:47 20.03.2021
1278 Clouds 13 1013 67 7000 4.63 250 10:25 20.03.2021
1279 Clouds 11 1013 76 7000 3.6 250 09:53 20.03.2021
1280 Clouds 10 1013 81 7000 3.09 240 09:26 20.03.2021
1281 Clouds 10 1013 81 7000 3.09 230 08:55 20.03.2021
1282 Clouds 9 1013 87 7000 3.09 240 08:27 20.03.2021
1283 Clouds 8 1013 93 7000 2.57 240 07:49 20.03.2021
1284 Clouds 8 1013 93 7000 2.57 240 07:49 20.03.2021
1285 Clouds 9 1013 87 7000 2.57 230 07:29 20.03.2021
1286 Clouds 9 1013 87 7000 2.57 240 06:41 20.03.2021
1287 Clouds 9 1012 87 7000 2.06 250 05:29 20.03.2021
1288 Clouds 10 1013 81 7000 2.57 260 03:45 20.03.2021
1289 Clouds 12 1014 71 7000 3.09 350 02:40 20.03.2021
1290 Clouds 13 1014 62 8000 1.54 320 23:48 19.03.2021
1291 Clouds 13 1014 62 8000 1.54 320 23:48 19.03.2021
1292 Clouds 14 1013 58 8000 2.06 350 23:21 19.03.2021
1293 Clouds 14 1013 58 8000 2.57 350 22:45 19.03.2021
1294 Clouds 15 1013 55 8000 4.12 10 22:24 19.03.2021
1295 Clouds 15 1013 58 8000 4.63 10 21:51 19.03.2021
1296 Clouds 16 1012 55 8000 4.12 10 21:21 19.03.2021
1297 Clouds 16 1012 55 8000 4.63 10 20:46 19.03.2021
1298 Clouds 17 1012 42 8000 4.63 360 20:27 19.03.2021
1299 Clouds 19 1011 34 8000 3.6 340 19:52 19.03.2021
1300 Clouds 19 1011 34 8000 4.63 340 19:25 19.03.2021
1301 Clouds 20 1011 34 8000 4.63 340 18:56 19.03.2021
1302 Clouds 21 1011 32 8000 4.12 340 18:36 19.03.2021
1303 Clouds 21 1011 32 8000 4.12 340 18:18 19.03.2021
1304 Clouds 21 1011 32 8000 3.6 350 17:42 19.03.2021
1305 Clouds 21 1011 35 8000 4.12 360 17:22 19.03.2021
1306 Clouds 20 1011 37 8000 4.12 310 16:44 19.03.2021
1307 Clouds 21 1011 37 8000 3.09 340 16:26 19.03.2021
1308 Clouds 20 1011 45 8000 3.09 330 15:34 19.03.2021
1309 Clouds 19 1012 55 8000 3.6 310 14:54 19.03.2021
1310 Clouds 19 1012 52 8000 3.09 280 14:35 19.03.2021
1311 Clouds 18 1012 59 8000 3.6 310 13:54 19.03.2021
1312 Clouds 18 1013 55 10000 3.6 300 13:21 19.03.2021
1313 Clouds 17 1013 63 10000 2.06 0 12:48 19.03.2021
1314 Clouds 17 1013 67 10000 2.57 0 12:24 19.03.2021
1315 Clouds 15 1013 77 10000 2.57 280 11:34 19.03.2021
1316 Clouds 16 1013 77 10000 1.54 240 10:53 19.03.2021
1317 Clouds 14 1013 82 10000 2.06 270 10:25 19.03.2021
1318 Clouds 14 1013 82 10000 2.57 260 09:46 19.03.2021
1319 Clouds 13 1013 88 10000 3.09 270 09:26 19.03.2021
1320 Clouds 12 1013 87 10000 2.57 250 08:52 19.03.2021
1321 Clouds 12 1012 87 10000 1.54 250 08:29 19.03.2021
1322 Clouds 12 1012 87 10000 2.06 260 07:50 19.03.2021
1323 Clouds 11 1012 93 10000 2.57 270 07:32 19.03.2021
1324 Clouds 13 1011 88 10000 1.54 270 05:54 19.03.2021
1325 Clouds 13 1012 88 10000 2.57 260 02:36 19.03.2021
1326 Clouds 15 1012 72 10000 4.12 280 23:57 18.03.2021
1327 Clouds 15 1012 67 10000 3.6 280 23:29 18.03.2021
1328 Clouds 16 1013 63 10000 3.6 290 22:54 18.03.2021
1329 Clouds 16 1012 63 10000 3.6 310 22:27 18.03.2021
1330 Clouds 16 1012 63 10000 4.63 300 21:55 18.03.2021
1331 Clouds 17 1012 59 10000 4.63 280 21:36 18.03.2021
1332 Clouds 17 1012 59 10000 5.14 290 20:43 18.03.2021
1333 Clouds 18 1011 59 10000 5.14 290 20:23 18.03.2021
1334 Clouds 18 1011 59 10000 4.63 290 19:43 18.03.2021
1335 Clouds 19 1011 55 10000 4.12 290 19:24 18.03.2021
1336 Clouds 19 1011 55 10000 4.63 280 18:53 18.03.2021
1337 Clouds 20 1011 52 10000 4.12 290 18:26 18.03.2021
1338 Clouds 20 1011 52 10000 4.12 290 18:26 18.03.2021
1339 Clouds 20 1011 52 10000 3.6 280 17:44 18.03.2021
1340 Clouds 20 1011 52 10000 3.09 280 17:20 18.03.2021
1341 Clouds 21 1011 49 10000 2.57 0 16:41 18.03.2021
1342 Clouds 21 1011 49 10000 2.57 0 16:23 18.03.2021
1343 Clouds 21 1011 49 10000 2.57 290 15:41 18.03.2021
1344 Clouds 20 1012 52 10000 3.6 290 15:23 18.03.2021
1345 Clouds 19 1012 55 6000 3.6 280 14:49 18.03.2021
1346 Clouds 20 1013 52 6000 3.6 290 14:23 18.03.2021
1347 Clouds 19 1013 55 6000 3.09 260 13:48 18.03.2021
1348 Clouds 17 1013 63 6000 4.12 230 13:25 18.03.2021
1349 Clouds 15 1014 72 6000 3.6 240 12:42 18.03.2021
1350 Clouds 15 1014 72 6000 3.6 240 12:24 18.03.2021
1351 Clouds 14 1014 82 6000 4.12 270 11:50 18.03.2021
1352 Clouds 14 1014 82 6000 2.57 290 11:27 18.03.2021
1353 Clouds 14 1014 82 6000 3.6 280 10:44 18.03.2021
1354 Clouds 13 1014 88 6000 2.57 270 10:25 18.03.2021
1355 Clouds 13 1014 88 6000 2.57 280 09:54 18.03.2021
1356 Clouds 12 1014 87 6000 3.09 260 09:28 18.03.2021
1357 Clouds 12 1013 87 5000 3.6 270 08:46 18.03.2021
1358 Clouds 12 1013 94 5000 3.6 270 08:27 18.03.2021
1359 Mist 12 1013 94 4000 3.6 250 07:50 18.03.2021
1360 Mist 12 1012 94 3000 3.09 260 06:54 18.03.2021
1361 Mist 12 1012 94 4000 3.6 250 06:27 18.03.2021
1362 Mist 12 1012 94 4000 4.12 250 05:40 18.03.2021
1363 Clouds 14 1013 77 10000 2.57 250 00:51 18.03.2021
1364 Clouds 15 1013 63 10000 3.09 250 23:58 17.03.2021
1365 Clouds 17 1013 48 10000 3.09 280 22:44 17.03.2021
1366 Clouds 17 1013 48 10000 3.09 280 22:24 17.03.2021
1367 Clouds 18 1013 45 10000 2.57 280 21:53 17.03.2021
1368 Clouds 19 1013 42 10000 2.06 270 21:33 17.03.2021
1369 Clouds 20 1013 42 10000 1.54 250 20:58 17.03.2021
1370 Clouds 21 1013 37 10000 1.54 230 20:40 17.03.2021
1371 Clouds 21 1013 37 10000 1.54 230 20:20 17.03.2021
1372 Clouds 22 1013 35 10000 1.03 0 19:43 17.03.2021
1373 Clouds 22 1013 35 10000 2.57 270 19:21 17.03.2021
1374 Clouds 23 1012 31 10000 4.12 280 18:52 17.03.2021
1375 Clouds 24 1012 29 10000 5.14 280 18:32 17.03.2021
1376 Clouds 26 1012 25 10000 1.54 0 17:43 17.03.2021
1377 Clouds 24 1012 27 10000 2.06 10 17:23 17.03.2021
1378 Clouds 24 1013 29 10000 1.54 310 16:43 17.03.2021
1379 Clouds 24 1013 27 10000 2.06 300 16:21 17.03.2021
1380 Clouds 25 1013 25 10000 4.12 270 15:49 17.03.2021
1381 Clouds 25 1013 25 10000 4.63 280 15:30 17.03.2021
1382 Clouds 25 1013 25 10000 4.63 280 14:43 17.03.2021
1383 Clouds 25 1013 29 10000 4.12 300 14:21 17.03.2021
1384 Clouds 24 1014 29 10000 4.63 280 13:55 17.03.2021
1385 Clouds 25 1014 33 10000 2.57 320 13:27 17.03.2021
1386 Clouds 24 1014 41 10000 3.09 290 12:50 17.03.2021
1387 Clouds 23 1014 40 10000 2.06 290 12:29 17.03.2021
1388 Clouds 22 1014 43 10000 1.54 290 11:50 17.03.2021
1389 Clouds 21 1014 49 10000 2.06 290 11:23 17.03.2021
1390 Clouds 20 1014 52 10000 1.54 0 10:54 17.03.2021
1391 Clouds 19 1014 55 8000 1.54 240 10:25 17.03.2021
1392 Clouds 16 1014 67 8000 1.03 0 09:48 17.03.2021
1393 Clouds 16 1014 67 8000 1.03 0 09:48 17.03.2021
1394 Clouds 14 1014 77 8000 1.03 0 09:25 17.03.2021
1395 Clouds 12 1014 82 8000 0.51 0 08:56 17.03.2021
1396 Clouds 12 1013 76 8000 0.51 0 08:36 17.03.2021
1397 Clouds 12 1013 76 8000 1.03 0 07:48 17.03.2021
1398 Clouds 12 1013 82 8000 1.54 150 07:30 17.03.2021
1399 Clouds 11 1013 82 8000 2.06 80 06:39 17.03.2021
1400 Clouds 12 1013 82 8000 2.06 100 04:21 17.03.2021
1401 Clouds 15 1015 72 8000 1.03 0 02:50 17.03.2021
1402 Clouds 15 1016 67 8000 2.57 250 00:40 17.03.2021
1403 Clouds 18 1017 48 8000 3.09 230 23:29 16.03.2021
1404 Clouds 18 1016 45 8000 1.03 0 22:51 16.03.2021
1405 Clouds 18 1016 45 8000 1.54 310 22:33 16.03.2021
1406 Clouds 22 1016 33 10000 2.57 350 21:49 16.03.2021
1407 Clouds 22 1015 35 10000 2.06 350 21:31 16.03.2021
1408 Clouds 23 1015 33 10000 3.09 350 20:59 16.03.2021
1409 Clouds 23 1015 33 10000 3.09 350 20:59 16.03.2021
1410 Clouds 23 1014 33 10000 2.06 360 20:20 16.03.2021
1411 Clouds 24 1014 31 10000 2.06 270 19:58 16.03.2021
1412 Clouds 26 1014 24 10000 1.54 210 19:40 16.03.2021
1413 Clouds 26 1014 24 10000 1.54 210 19:20 16.03.2021
1414 Clouds 26 1014 24 10000 1.54 200 18:40 16.03.2021
1415 Clouds 25 1014 25 10000 2.06 240 18:21 16.03.2021
1416 Clouds 26 1014 24 10000 2.57 240 17:47 16.03.2021
1417 Clouds 25 1014 27 10000 3.6 260 17:29 16.03.2021
1418 Clouds 27 1014 21 10000 3.6 280 16:52 16.03.2021
1419 Clouds 27 1014 17 10000 3.71 316 16:28 16.03.2021
1420 Clouds 26 1015 25 8000 2.06 250 15:47 16.03.2021
1421 Clouds 26 1015 25 8000 2.06 250 15:21 16.03.2021
1422 Clouds 26 1015 25 8000 2.06 250 14:58 16.03.2021
1423 Clouds 27 1015 29 8000 1.54 0 14:40 16.03.2021
1424 Clouds 27 1015 29 8000 1.54 0 14:20 16.03.2021
1425 Clouds 26 1016 27 8000 1.54 0 13:49 16.03.2021
1426 Clouds 26 1016 31 8000 1.03 0 13:26 16.03.2021
1427 Clouds 24 1016 38 8000 2.06 330 12:53 16.03.2021
1428 Clouds 23 1016 43 8000 1.54 10 12:34 16.03.2021
1429 Clouds 21 1016 49 8000 1.54 0 11:54 16.03.2021
1430 Clouds 19 1017 55 8000 1.54 60 11:27 16.03.2021
1431 Clouds 18 1017 59 8000 1.54 60 10:44 16.03.2021
1432 Clouds 17 1017 67 8000 1.03 0 10:20 16.03.2021
1433 Clouds 14 1016 82 8000 0.51 0 09:39 16.03.2021
1434 Clouds 14 1016 82 8000 0.51 0 09:18 16.03.2021
1435 Clouds 12 1016 82 8000 0.51 0 08:48 16.03.2021
1436 Clouds 12 1016 82 8000 1.03 0 08:30 16.03.2021
1437 Clouds 12 1016 76 8000 1.03 0 07:36 16.03.2021
1438 Clouds 12 1016 76 8000 1.54 170 06:57 16.03.2021
1439 Clouds 12 1016 76 8000 1.54 150 06:35 16.03.2021
1440 Clouds 12 1016 76 8000 1.03 0 05:35 16.03.2021
1441 Clouds 13 1017 76 8000 0.51 0 02:46 16.03.2021
1442 Clouds 14 1017 77 8000 1.03 0 02:24 16.03.2021
1443 Clouds 17 1018 63 8000 0.51 0 00:25 16.03.2021
1444 Clouds 17 1018 63 8000 2.06 110 23:29 15.03.2021
1445 Clouds 18 1018 63 8000 2.06 130 22:56 15.03.2021
1446 Clouds 18 1018 63 8000 2.06 130 22:56 15.03.2021
1447 Clouds 18 1018 59 8000 2.06 80 22:36 15.03.2021
1448 Clouds 18 1018 59 8000 2.06 80 22:18 15.03.2021
1449 Clouds 20 1018 56 8000 3.09 40 21:39 15.03.2021
1450 Clouds 20 1018 56 8000 3.09 40 21:21 15.03.2021
1451 Clouds 21 1017 49 8000 2.06 10 20:44 15.03.2021
1452 Clouds 23 1017 40 8000 3.09 10 20:25 15.03.2021
1453 Clouds 24 1017 29 8000 3.09 350 19:56 15.03.2021
1454 Clouds 25 1017 22 10000 3.6 350 19:35 15.03.2021
1455 Clouds 25 1017 22 10000 3.09 350 18:58 15.03.2021
1456 Clouds 26 1016 25 10000 1.54 310 18:33 15.03.2021
1457 Clouds 26 1016 22 10000 3.09 280 17:57 15.03.2021
1458 Clouds 26 1016 19 10000 3.09 280 17:39 15.03.2021
1459 Clouds 26 1016 19 10000 3.09 280 17:21 15.03.2021
1460 Clouds 26 1016 19 10000 3.09 300 16:42 15.03.2021
1461 Clouds 25 1017 33 8000 1.54 330 15:55 15.03.2021
1462 Clouds 25 1017 33 8000 1.54 330 15:28 15.03.2021
1463 Clouds 25 1017 33 8000 1.54 330 14:47 15.03.2021
1464 Clouds 25 1018 33 8000 1.54 10 14:28 15.03.2021
1465 Clouds 25 1018 33 8000 1.03 0 13:59 15.03.2021
1466 Clouds 25 1018 33 8000 1.54 340 13:35 15.03.2021
1467 Clouds 23 1017 46 8000 2.06 20 12:51 15.03.2021
1468 Clouds 25 1018 24 10000 1.97 62 12:21 15.03.2021
1469 Clouds 18 1019 63 8000 1.54 90 11:59 15.03.2021
1470 Clouds 18 1019 63 8000 1.54 90 11:40 15.03.2021
1471 Clouds 18 1019 63 8000 1.54 90 11:21 15.03.2021
1472 Clouds 16 1019 72 8000 1.03 0 10:41 15.03.2021
1473 Clouds 16 1019 72 8000 1.03 0 10:22 15.03.2021
1474 Clouds 16 1018 72 10000 0.51 0 09:41 15.03.2021
1475 Clear 15 1018 77 10000 1.54 60 09:21 15.03.2021
1476 Clear 13 1018 88 10000 1.54 70 08:45 15.03.2021
1477 Clear 12 1018 82 10000 1.03 0 08:22 15.03.2021
1478 Clear 12 1018 82 10000 0.51 0 07:34 15.03.2021
1479 Clear 13 1018 82 10000 1.03 0 06:52 15.03.2021
1480 Clear 14 1017 77 10000 1.03 0 05:37 15.03.2021
1481 Clear 16 1019 72 10000 0.51 0 03:20 15.03.2021
1482 Clear 17 1019 63 10000 1.03 0 00:42 15.03.2021
1483 Clear 18 1019 52 10000 1.54 60 23:24 14.03.2021
1484 Clear 18 1019 55 10000 2.57 70 22:49 14.03.2021
1485 Clear 19 1019 52 10000 1.54 80 22:28 14.03.2021
1486 Clear 20 1019 49 10000 2.06 40 21:56 14.03.2021
1487 Clear 21 1019 46 10000 3.09 40 21:24 14.03.2021
1488 Clear 22 1019 43 10000 2.57 20 20:59 14.03.2021
1489 Clear 22 1019 46 10000 2.06 10 20:40 14.03.2021
1490 Clear 22 1019 46 10000 2.06 10 20:22 14.03.2021
1491 Clear 23 1018 46 10000 2.57 20 19:41 14.03.2021
1492 Clear 24 1018 46 10000 2.06 30 19:18 14.03.2021
1493 Clear 25 1018 41 10000 1.54 20 18:37 14.03.2021
1494 Clear 26 1018 38 10000 2.57 20 17:54 14.03.2021
1495 Clear 26 1018 38 10000 2.06 0 17:36 14.03.2021
1496 Clear 26 1018 38 10000 2.06 0 17:18 14.03.2021
1497 Clear 27 1019 34 10000 1.03 0 16:40 14.03.2021
1498 Clear 27 1019 34 10000 1.03 0 16:20 14.03.2021
1499 Clear 24 1019 41 10000 1.03 0 15:45 14.03.2021
1500 Clear 25 1019 36 10000 1.54 0 14:52 14.03.2021
1501 Clear 24 1020 43 10000 1.03 0 14:30 14.03.2021
1502 Clear 24 1020 43 10000 1.54 360 13:53 14.03.2021
1503 Clear 24 1020 46 10000 1.54 40 13:34 14.03.2021
1504 Clear 22 1021 53 10000 2.06 50 12:56 14.03.2021
1505 Clear 22 1021 53 10000 2.06 50 12:56 14.03.2021
1506 Clear 21 1021 56 10000 2.57 60 12:37 14.03.2021
1507 Clear 21 1021 56 10000 2.57 60 12:18 14.03.2021
1508 Clear 20 1021 56 10000 1.54 90 11:38 14.03.2021
1509 Clear 20 1021 56 10000 1.54 90 11:19 14.03.2021
1510 Clear 17 1021 72 10000 1.03 0 10:38 14.03.2021
1511 Clear 17 1021 72 10000 1.03 0 10:19 14.03.2021
1512 Clear 17 1021 72 10000 0.51 0 09:56 14.03.2021
1513 Clear 15 1021 82 10000 0.51 0 09:37 14.03.2021
1514 Clear 15 1021 82 10000 0.51 0 09:19 14.03.2021
1515 Clear 11 1020 93 10000 1.54 80 08:36 14.03.2021
1516 Clear 12 1020 87 10000 3.09 110 07:52 14.03.2021
1517 Clear 11 1020 93 10000 3.09 100 07:26 14.03.2021
1518 Clear 12 1020 94 10000 3.6 90 05:34 14.03.2021
1519 Clear 15 1021 82 10000 3.6 80 01:19 14.03.2021
1520 Clear 16 1021 72 10000 2.57 70 00:20 14.03.2021
1521 Clear 16 1021 72 10000 2.57 70 23:58 13.03.2021
1522 Clear 17 1021 67 10000 3.09 70 23:38 13.03.2021
1523 Clear 17 1021 67 10000 3.09 70 23:18 13.03.2021
1524 Clear 18 1021 63 10000 3.09 50 22:43 13.03.2021
1525 Clear 18 1021 55 10000 2.06 80 21:55 13.03.2021
1526 Clear 18 1021 55 10000 2.06 80 21:55 13.03.2021
1527 Clear 19 1021 52 10000 2.06 40 21:35 13.03.2021
1528 Clear 20 1021 49 10000 3.09 50 20:56 13.03.2021
1529 Clear 21 1021 46 10000 2.57 30 20:32 13.03.2021
1530 Clear 22 1020 46 10000 3.09 20 19:58 13.03.2021
1531 Clear 23 1020 46 10000 2.06 30 19:37 13.03.2021
1532 Clear 23 1020 46 10000 2.06 30 19:18 13.03.2021
1533 Clear 24 1020 46 10000 1.54 50 18:40 13.03.2021
1534 Clear 24 1020 46 10000 1.54 50 18:19 13.03.2021
1535 Clear 23 1020 46 10000 2.57 330 17:46 13.03.2021
1536 Clear 23 1020 46 10000 2.57 330 17:27 13.03.2021
1537 Clear 24 1020 46 10000 3.09 340 16:51 13.03.2021
1538 Clear 23 1020 49 10000 2.06 0 16:31 13.03.2021
1539 Clear 24 1020 46 10000 1.54 0 15:47 13.03.2021
1540 Clear 22 1021 53 10000 1.54 0 14:56 13.03.2021
1541 Clear 22 1021 53 10000 2.06 20 14:38 13.03.2021
1542 Clear 20 1022 56 10000 1.54 340 13:55 13.03.2021
1543 Clear 20 1022 60 10000 2.06 300 13:26 13.03.2021
1544 Clear 19 1022 59 10000 2.06 310 12:48 13.03.2021
1545 Clear 18 1022 68 10000 2.06 0 12:29 13.03.2021
1546 Clouds 16 1022 67 10000 2.57 30 11:52 13.03.2021
1547 Clear 16 1022 67 10000 2.06 350 11:31 13.03.2021
1548 Clear 15 1022 72 10000 1.54 0 10:55 13.03.2021
1549 Clear 14 1022 77 10000 1.03 0 10:30 13.03.2021
1550 Clear 15 1022 72 10000 0.51 0 09:56 13.03.2021
1551 Clear 12 1021 87 10000 0.51 0 09:24 13.03.2021
1552 Clear 11 1021 87 10000 0.51 0 08:44 13.03.2021
1553 Clear 10 1021 87 10000 1.03 0 08:20 13.03.2021
1554 Clear 9 1021 93 10000 1.54 80 07:56 13.03.2021
1555 Clear 9 1020 87 10000 3.09 100 07:20 13.03.2021
1556 Clear 11 1020 82 10000 2.06 90 03:33 13.03.2021
1557 Clear 12 1020 76 10000 2.57 70 01:21 13.03.2021
1558 Clear 13 1021 71 10000 2.57 90 00:20 13.03.2021
1559 Clear 14 1021 62 10000 2.57 80 23:33 12.03.2021
1560 Clear 15 1021 58 10000 2.57 80 22:56 12.03.2021
1561 Clear 16 1021 51 10000 2.06 40 22:29 12.03.2021
1562 Clear 17 1021 48 10000 2.06 50 21:54 12.03.2021
1563 Clear 18 1020 45 10000 2.57 50 21:36 12.03.2021
1564 Clear 18 1020 45 10000 2.57 50 21:18 12.03.2021
1565 Clear 18 1020 45 10000 3.09 60 20:41 12.03.2021
1566 Clear 19 1020 45 10000 3.6 70 20:19 12.03.2021
1567 Clear 21 1020 37 10000 3.6 40 19:43 12.03.2021
1568 Clear 21 1020 37 10000 4.12 40 19:24 12.03.2021
1569 Clear 23 1020 35 10000 3.6 0 18:43 12.03.2021
1570 Clear 23 1020 35 10000 3.6 0 18:24 12.03.2021
1571 Clear 23 1021 33 10000 2.57 80 17:41 12.03.2021
1572 Clear 23 1021 31 10000 1.54 0 17:23 12.03.2021
1573 Clear 23 1021 31 10000 1.54 0 16:43 12.03.2021
1574 Clear 23 1021 31 10000 1.54 0 16:23 12.03.2021
1575 Clear 22 1021 37 10000 1.54 0 15:38 12.03.2021
1576 Clear 21 1022 37 10000 1.54 0 14:52 12.03.2021
1577 Clear 21 1023 40 10000 2.57 40 14:22 12.03.2021
1578 Clear 21 1023 40 10000 2.57 40 14:22 12.03.2021
1579 Clear 21 1023 40 10000 2.06 50 13:55 12.03.2021
1580 Clear 19 1024 45 10000 2.57 50 13:37 12.03.2021
1581 Clear 19 1024 45 10000 2.57 50 13:18 12.03.2021
1582 Clear 18 1024 48 10000 2.57 30 12:43 12.03.2021
1583 Clear 18 1025 52 10000 1.54 30 12:25 12.03.2021
1584 Clear 17 1025 55 10000 2.06 360 11:53 12.03.2021
1585 Clear 15 1025 58 10000 2.06 340 11:24 12.03.2021
1586 Clear 15 1024 58 10000 1.03 0 10:55 12.03.2021
1587 Clear 14 1024 62 10000 1.54 300 10:27 12.03.2021
1588 Clear 14 1024 62 10000 0.51 0 09:57 12.03.2021
1589 Clear 12 1024 71 10000 1.03 0 09:26 12.03.2021
1590 Clear 9 1024 81 10000 1.03 0 08:46 12.03.2021
1591 Clear 8 1024 81 10000 1.03 0 07:59 12.03.2021
1592 Clear 9 1023 81 10000 1.54 200 07:38 12.03.2021
1593 Clear 8 1023 87 10000 1.54 230 06:54 12.03.2021
1594 Clear 7 1023 87 10000 2.57 250 06:28 12.03.2021
1595 Clear 10 1023 76 10000 3.09 90 02:58 12.03.2021
1596 Clear 11 1024 71 10000 2.06 80 00:51 12.03.2021
1597 Clear 12 1024 66 10000 2.57 100 23:31 11.03.2021
1598 Clear 13 1024 58 10000 3.09 100 22:51 11.03.2021
1599 Clear 14 1024 54 10000 2.57 80 22:30 11.03.2021
1600 Clear 16 1024 44 10000 3.09 60 21:55 11.03.2021
1601 Clear 17 1024 42 10000 3.6 50 21:36 11.03.2021
1602 Clear 17 1024 42 10000 3.6 50 21:18 11.03.2021
1603 Clear 19 1024 34 10000 3.6 30 20:41 11.03.2021
1604 Clear 19 1024 34 10000 3.6 30 20:19 11.03.2021
1605 Clear 19 1023 37 10000 3.6 50 19:44 11.03.2021
1606 Clear 21 1023 32 10000 3.6 40 19:26 11.03.2021
1607 Clear 21 1023 35 10000 3.6 40 18:46 11.03.2021
1608 Clear 21 1023 32 10000 3.6 60 18:28 11.03.2021
1609 Clear 22 1024 33 10000 3.09 50 17:44 11.03.2021
1610 Clear 23 1023 31 10000 1.54 0 16:53 11.03.2021
1611 Clear 22 1024 30 10000 2.06 0 16:27 11.03.2021
1612 Clear 22 1024 30 10000 2.06 0 15:48 11.03.2021
1613 Clear 22 1024 26 10000 2.06 90 15:22 11.03.2021
1614 Clear 21 1025 32 10000 2.57 0 14:46 11.03.2021
1615 Clear 21 1025 32 10000 2.57 0 14:19 11.03.2021
1616 Clear 21 1025 32 10000 2.57 0 14:19 11.03.2021
1617 Clear 20 1025 34 10000 3.09 0 13:49 11.03.2021
1618 Clear 19 1025 42 10000 2.57 70 13:30 11.03.2021
1619 Clear 18 1025 48 10000 2.57 10 12:58 11.03.2021
1620 Clear 18 1025 48 10000 2.06 50 12:38 11.03.2021
1621 Clear 18 1025 48 10000 2.06 50 12:38 11.03.2021
1622 Clear 18 1025 48 10000 2.06 50 12:20 11.03.2021
1623 Clear 15 1026 58 10000 2.06 40 11:43 11.03.2021
1624 Clear 15 1026 58 10000 2.06 40 11:21 11.03.2021
1625 Clear 14 1025 67 10000 2.06 70 10:39 11.03.2021
1626 Clear 14 1025 67 10000 2.06 70 10:19 11.03.2021
1627 Clear 9 1025 87 10000 2.06 70 09:39 11.03.2021
1628 Clear 9 1025 87 10000 2.06 70 09:21 11.03.2021
1629 Clear 8 1024 87 10000 2.06 80 08:46 11.03.2021
1630 Clear 7 1024 87 10000 2.06 120 08:18 11.03.2021
1631 Clear 8 1024 93 10000 2.57 160 07:29 11.03.2021
1632 Clear 7 1024 93 10000 2.06 120 06:50 11.03.2021
1633 Clear 7 1024 87 10000 2.06 90 06:25 11.03.2021
1634 Clear 9 1023 87 10000 2.57 90 02:50 11.03.2021
1635 Clear 11 1023 71 10000 1.54 80 00:58 11.03.2021
1636 Clear 13 1023 67 10000 3.09 120 23:32 10.03.2021
1637 Clear 13 1023 67 10000 3.09 120 23:32 10.03.2021
1638 Clear 13 1023 62 10000 2.57 60 22:56 10.03.2021
1639 Clear 13 1023 58 10000 2.06 50 22:32 10.03.2021
1640 Clear 14 1022 51 10000 2.57 60 21:47 10.03.2021
1641 Clear 14 1022 51 10000 2.57 60 21:25 10.03.2021
1642 Clouds 14 1022 54 10000 2.57 80 20:48 10.03.2021
1643 Clouds 15 1021 47 10000 3.6 70 20:30 10.03.2021
1644 Clouds 15 1021 47 10000 3.6 70 20:30 10.03.2021
1645 Clouds 17 1021 42 10000 4.12 70 19:53 10.03.2021
1646 Clouds 18 1021 39 10000 5.14 70 19:30 10.03.2021
1647 Clouds 18 1021 39 10000 5.14 50 18:47 10.03.2021
1648 Clouds 18 1021 39 10000 5.14 50 18:47 10.03.2021
1649 Clouds 19 1020 39 10000 5.66 40 18:28 10.03.2021
1650 Clouds 19 1020 37 10000 5.66 50 17:57 10.03.2021
1651 Clouds 19 1020 37 10000 5.66 50 17:57 10.03.2021
1652 Clouds 19 1020 37 10000 6.17 50 17:39 10.03.2021
1653 Clouds 19 1020 37 10000 6.17 50 17:19 10.03.2021
1654 Clouds 19 1020 37 10000 7.2 50 16:45 10.03.2021
1655 Clouds 19 1020 39 10000 5.66 60 16:25 10.03.2021
1656 Clouds 19 1019 34 10000 6.69 60 15:48 10.03.2021
1657 Clouds 19 1020 37 10000 6.69 50 15:25 10.03.2021
1658 Clouds 17 1021 48 10000 7.72 50 14:57 10.03.2021
1659 Clouds 17 1021 48 10000 7.72 50 14:22 10.03.2021
1660 Clouds 17 1021 48 10000 7.72 50 13:53 10.03.2021
1661 Clouds 17 1021 51 10000 7.2 40 13:31 10.03.2021
1662 Clouds 16 1021 59 10000 6.17 50 12:48 10.03.2021
1663 Clear 15 1021 63 10000 5.66 50 12:24 10.03.2021
1664 Clear 15 1022 63 10000 4.12 50 11:50 10.03.2021
1665 Clear 14 1021 72 10000 3.6 60 11:25 10.03.2021
1666 Clear 12 1021 82 10000 4.12 80 10:51 10.03.2021
1667 Clear 11 1021 82 8000 3.6 70 10:32 10.03.2021
1668 Clear 10 1021 87 10000 4.63 90 09:55 10.03.2021
1669 Clear 9 1021 87 10000 4.12 100 09:37 10.03.2021
1670 Clear 9 1021 87 10000 4.12 100 09:18 10.03.2021
1671 Clear 7 1020 100 10000 2.57 90 08:43 10.03.2021
1672 Clear 7 1020 93 8000 2.57 110 08:25 10.03.2021
1673 Clear 7 1019 93 8000 2.06 90 07:42 10.03.2021
1674 Clouds 7 1019 93 8000 2.06 90 07:24 10.03.2021
1675 Clouds 7 1019 93 8000 2.57 110 06:51 10.03.2021
1676 Clouds 9 1019 81 10000 2.57 60 02:43 10.03.2021
1677 Clouds 11 1020 76 10000 4.12 40 00:31 10.03.2021
1678 Clouds 12 1019 71 10000 4.63 40 23:33 09.03.2021
1679 Clouds 12 1019 71 10000 4.63 40 22:52 09.03.2021
1680 Clouds 13 1018 67 10000 3.6 30 22:34 09.03.2021
1681 Clouds 12 1018 76 10000 2.57 60 21:58 09.03.2021
1682 Clouds 13 1017 67 10000 4.12 40 21:38 09.03.2021
1683 Clouds 13 1017 67 10000 4.12 40 21:19 09.03.2021
1684 Clouds 13 1017 71 10000 3.6 0 20:45 09.03.2021
1685 Clouds 14 1016 67 10000 2.06 140 20:23 09.03.2021
1686 Clouds 14 1016 67 10000 3.09 140 19:57 09.03.2021
1687 Clouds 14 1016 62 10000 2.57 110 19:29 09.03.2021
1688 Clouds 15 1016 58 10000 2.57 110 18:54 09.03.2021
1689 Clouds 15 1016 55 10000 2.57 30 18:30 09.03.2021
1690 Clouds 15 1016 58 10000 3.09 100 17:59 09.03.2021
1691 Clouds 15 1016 55 10000 3.6 70 17:39 09.03.2021
1692 Clouds 15 1016 55 10000 3.6 70 17:20 09.03.2021
1693 Clouds 15 1016 55 10000 2.06 70 16:40 09.03.2021
1694 Clouds 15 1016 55 10000 2.06 70 16:20 09.03.2021
1695 Clouds 15 1016 58 10000 2.57 70 15:47 09.03.2021
1696 Clouds 14 1016 62 10000 3.09 70 15:24 09.03.2021
1697 Clouds 14 1017 62 10000 3.09 30 14:46 09.03.2021
1698 Clouds 15 1017 63 10000 3.6 80 14:24 09.03.2021
1699 Clouds 13 1018 71 10000 3.6 40 13:39 09.03.2021
1700 Clouds 13 1018 71 10000 3.6 40 13:21 09.03.2021
1701 Clouds 14 1018 62 10000 1.54 50 12:46 09.03.2021
1702 Clouds 13 1018 67 10000 2.06 50 12:27 09.03.2021
1703 Clouds 13 1018 67 10000 2.57 30 11:42 09.03.2021
1704 Clouds 12 1018 71 10000 1.03 0 11:21 09.03.2021
1705 Clouds 12 1018 76 8000 1.54 20 10:57 09.03.2021
1706 Clouds 11 1017 82 8000 3.09 40 10:39 09.03.2021
1707 Clouds 11 1017 82 8000 3.09 40 10:20 09.03.2021
1708 Clouds 11 1017 82 8000 3.09 40 10:20 09.03.2021
1709 Clouds 11 1017 82 8000 3.09 40 10:20 09.03.2021
1710 Clouds 11 1017 82 8000 2.57 30 09:44 09.03.2021
1711 Clouds 11 1017 82 8000 3.09 20 09:26 09.03.2021
1712 Clouds 11 1016 82 8000 2.57 30 08:48 09.03.2021
1713 Clouds 10 1016 87 8000 2.57 30 08:29 09.03.2021
1714 Clouds 9 1016 93 8000 2.06 60 07:40 09.03.2021
1715 Clouds 10 1016 87 8000 2.57 70 07:21 09.03.2021
1716 Clouds 11 1016 82 8000 1.54 40 06:38 09.03.2021
1717 Clouds 11 1016 82 8000 2.57 50 05:48 09.03.2021
1718 Clouds 12 1017 82 8000 4.63 50 00:38 09.03.2021
1719 Clouds 12 1017 82 8000 4.12 50 23:45 08.03.2021
1720 Clouds 12 1017 82 8000 4.12 50 23:27 08.03.2021
1721 Clouds 13 1017 76 8000 4.12 40 22:55 08.03.2021
1722 Clouds 13 1016 82 8000 3.09 40 22:36 08.03.2021
1723 Clouds 13 1016 82 8000 3.09 40 22:18 08.03.2021
1724 Clouds 13 1016 76 10000 3.6 20 21:35 08.03.2021
1725 Clouds 13 1016 82 10000 4.12 10 20:48 08.03.2021
1726 Clouds 14 1015 77 10000 4.12 360 20:28 08.03.2021
1727 Clouds 14 1015 77 10000 4.12 10 19:59 08.03.2021
1728 Clouds 15 1015 67 10000 3.09 330 19:37 08.03.2021
1729 Clouds 15 1015 72 10000 2.57 10 18:48 08.03.2021
1730 Clouds 15 1015 72 10000 3.6 10 18:23 08.03.2021
1731 Clouds 16 1015 67 10000 4.12 350 17:56 08.03.2021
1732 Clouds 16 1015 67 10000 4.12 330 17:38 08.03.2021
1733 Clouds 16 1015 67 10000 2.57 340 16:56 08.03.2021
1734 Clouds 16 1015 67 10000 2.57 360 16:30 08.03.2021
1735 Clouds 17 1016 63 10000 2.06 360 15:57 08.03.2021
1736 Clouds 16 1016 67 10000 1.54 0 15:30 08.03.2021
1737 Clouds 16 1016 72 10000 2.57 340 14:51 08.03.2021
1738 Clouds 16 1016 67 10000 2.06 10 14:20 08.03.2021
1739 Clouds 16 1017 67 10000 2.57 350 13:44 08.03.2021
1740 Clouds 15 1017 77 10000 2.06 340 13:21 08.03.2021
1741 Clouds 14 1018 82 8000 2.57 360 12:49 08.03.2021
1742 Clouds 14 1018 82 8000 2.06 10 12:28 08.03.2021
1743 Clouds 14 1018 82 8000 2.06 20 11:44 08.03.2021
1744 Clouds 14 1018 82 8000 2.06 20 11:19 08.03.2021
1745 Clouds 13 1018 88 8000 2.06 40 10:44 08.03.2021
1746 Clouds 13 1018 88 8000 2.57 10 10:26 08.03.2021
1747 Clouds 12 1017 94 8000 2.06 360 09:42 08.03.2021
1748 Clouds 12 1017 94 8000 2.06 360 09:23 08.03.2021
1749 Clouds 12 1016 87 8000 1.03 0 08:29 08.03.2021
1750 Clouds 11 1016 93 10000 1.03 0 07:41 08.03.2021
1751 Clouds 12 1016 94 10000 1.54 40 07:20 08.03.2021
1752 Clouds 13 1016 88 10000 1.54 40 05:18 08.03.2021
1753 Clouds 13 1018 88 10000 1.54 10 01:26 08.03.2021
1754 Clouds 13 1019 88 10000 1.03 0 00:33 08.03.2021
1755 Clouds 13 1019 88 10000 1.03 0 23:41 07.03.2021
1756 Clouds 13 1019 88 10000 1.54 10 23:20 07.03.2021
1757 Clouds 14 1019 82 8000 2.57 350 22:44 07.03.2021
1758 Clouds 13 1019 88 10000 2.06 350 22:44 07.03.2021
1759 Clouds 14 1019 82 8000 2.57 350 22:26 07.03.2021
1760 Clouds 14 1019 82 8000 2.57 20 21:46 07.03.2021
1761 Clouds 14 1019 82 8000 2.57 20 21:26 07.03.2021
1762 Clouds 14 1018 82 8000 2.57 20 20:50 07.03.2021
1763 Clouds 14 1018 82 8000 3.09 10 20:31 07.03.2021
1764 Clouds 14 1018 82 8000 2.57 330 19:59 07.03.2021
1765 Clouds 14 1018 88 5000 2.57 330 19:39 07.03.2021
1766 Clouds 14 1018 88 5000 2.57 330 19:21 07.03.2021
1767 Clouds 14 1018 82 5000 3.09 340 18:47 07.03.2021
1768 Clouds 14 1018 88 10000 3.6 260 18:20 07.03.2021
1769 Clouds 14 1018 88 10000 5.66 270 17:45 07.03.2021
1770 Clouds 16 1017 72 10000 3.09 300 17:21 07.03.2021
1771 Clouds 16 1017 72 10000 2.57 300 16:59 07.03.2021
1772 Clouds 17 1018 67 10000 2.57 270 16:39 07.03.2021
1773 Clouds 17 1018 67 10000 2.57 270 16:20 07.03.2021
1774 Clouds 17 1018 67 10000 2.57 270 16:20 07.03.2021
1775 Clouds 17 1018 67 10000 1.54 0 15:46 07.03.2021
1776 Clouds 17 1018 67 10000 2.57 300 15:28 07.03.2021
1777 Clouds 15 1019 77 10000 2.57 320 14:39 07.03.2021
1778 Clouds 15 1019 77 10000 2.57 320 14:21 07.03.2021
1779 Clouds 16 1019 72 10000 2.06 290 13:42 07.03.2021
1780 Clouds 14 1020 82 10000 2.57 290 13:23 07.03.2021
1781 Clouds 15 1020 77 10000 2.57 280 12:47 07.03.2021
1782 Clouds 14 1020 82 10000 2.06 300 12:29 07.03.2021
1783 Clouds 14 1020 82 10000 1.03 0 11:49 07.03.2021
1784 Clouds 13 1020 88 10000 2.06 290 11:22 07.03.2021
1785 Clouds 13 1020 82 10000 1.54 290 10:49 07.03.2021
1786 Clouds 13 1019 88 10000 1.54 290 10:30 07.03.2021
1787 Clouds 12 1019 87 8000 1.54 270 09:46 07.03.2021
1788 Clouds 12 1019 87 8000 1.03 0 09:25 07.03.2021
1789 Clouds 11 1018 93 8000 2.57 180 08:46 07.03.2021
1790 Clouds 10 1018 93 8000 2.57 170 08:25 07.03.2021
1791 Clouds 9 1018 93 8000 1.54 270 07:51 07.03.2021
1792 Clouds 10 1018 93 10000 0.51 0 02:43 07.03.2021
1793 Clouds 10 1018 87 10000 1.03 0 01:42 07.03.2021
1794 Clouds 11 1018 87 10000 2.57 200 23:54 06.03.2021
1795 Clouds 11 1018 87 10000 3.09 220 23:35 06.03.2021
1796 Clouds 11 1017 87 10000 2.06 230 22:48 06.03.2021
1797 Clouds 11 1017 87 10000 3.09 210 22:29 06.03.2021
1798 Clouds 11 1017 87 8000 3.6 190 21:59 06.03.2021
1799 Clouds 11 1016 87 8000 3.6 190 21:24 06.03.2021
1800 Clouds 11 1016 87 8000 4.12 180 20:54 06.03.2021
1801 Clouds 11 1016 87 4000 5.66 180 20:34 06.03.2021
1802 Clouds 12 1015 87 4000 4.12 50 19:50 06.03.2021
1803 Clouds 14 1015 72 8000 4.12 50 19:23 06.03.2021
1804 Clouds 14 1014 77 8000 4.12 30 18:56 06.03.2021
1805 Clouds 14 1014 77 8000 4.12 30 18:56 06.03.2021
1806 Clouds 15 1014 72 8000 4.12 360 18:38 06.03.2021
1807 Clouds 15 1014 72 8000 4.12 360 18:18 06.03.2021
1808 Clouds 16 1013 67 8000 5.14 350 17:44 06.03.2021
1809 Clouds 16 1013 67 8000 5.14 350 17:24 06.03.2021
1810 Clouds 16 1013 67 8000 5.14 350 16:52 06.03.2021
1811 Clouds 16 1013 67 8000 4.12 350 16:29 06.03.2021
1812 Clouds 17 1013 59 8000 2.06 280 15:54 06.03.2021
1813 Clouds 18 1013 55 8000 1.03 0 15:32 06.03.2021
1814 Clouds 18 1013 55 8000 1.03 0 15:32 06.03.2021
1815 Clouds 16 1014 67 8000 1.54 280 14:54 06.03.2021
1816 Clouds 16 1014 67 8000 2.57 270 14:30 06.03.2021
1817 Clouds 16 1014 67 8000 2.57 270 14:30 06.03.2021
1818 Clouds 16 1014 67 8000 1.54 240 13:42 06.03.2021
1819 Clouds 15 1014 72 8000 2.06 280 13:21 06.03.2021
1820 Clouds 15 1015 72 8000 3.09 270 12:44 06.03.2021
1821 Clouds 15 1015 77 8000 2.06 240 12:20 06.03.2021
1822 Clouds 15 1015 77 8000 2.06 240 12:20 06.03.2021
1823 Clouds 14 1015 82 8000 2.57 220 11:56 06.03.2021
1824 Clouds 14 1015 82 8000 4.12 260 11:22 06.03.2021
1825 Clouds 13 1015 88 8000 3.6 270 10:49 06.03.2021
1826 Clouds 12 1015 94 8000 4.63 260 10:24 06.03.2021
1827 Clouds 12 1014 100 8000 2.06 250 09:49 06.03.2021
1828 Clouds 11 1014 93 8000 2.06 250 09:21 06.03.2021
1829 Clouds 11 1014 93 8000 2.57 250 08:51 06.03.2021
1830 Clouds 11 1014 93 8000 2.06 240 08:22 06.03.2021
1831 Clouds 11 1013 100 8000 3.09 240 07:41 06.03.2021
1832 Clouds 11 1013 100 8000 3.09 240 07:20 06.03.2021
1833 Clouds 11 1012 100 6000 3.09 250 05:38 06.03.2021
1834 Clouds 11 1013 100 4000 3.6 310 02:51 06.03.2021
1835 Clouds 12 1013 94 4000 3.6 300 01:27 06.03.2021
1836 Clouds 13 1013 94 6000 4.12 270 00:39 06.03.2021
1837 Clouds 12 1014 94 6000 3.6 210 23:34 05.03.2021
1838 Clouds 13 1014 88 4000 3.09 190 22:58 05.03.2021
1839 Clouds 13 1014 88 8000 1.54 240 22:39 05.03.2021
1840 Clouds 13 1014 88 8000 1.54 240 22:20 05.03.2021
1841 Clouds 13 1013 88 8000 3.09 280 21:41 05.03.2021
1842 Clouds 13 1013 88 6000 4.63 260 21:22 05.03.2021
1843 Clouds 14 1013 88 6000 3.09 290 20:42 05.03.2021
1844 Clouds 14 1013 88 6000 3.09 290 20:23 05.03.2021
1845 Clouds 13 1013 88 1500 5.66 300 19:44 05.03.2021
1846 Clouds 16 1012 72 10000 5.14 320 19:22 05.03.2021
1847 Clouds 17 1012 72 10000 7.2 310 18:44 05.03.2021
1848 Clouds 19 1011 59 10000 5.66 300 18:25 05.03.2021
1849 Clouds 21 1011 46 10000 4.63 300 17:49 05.03.2021
1850 Clouds 20 1011 45 10000 3.6 300 17:31 05.03.2021
1851 Clouds 20 1011 45 10000 4.12 280 16:42 05.03.2021
1852 Clouds 21 1011 46 10000 4.12 270 16:23 05.03.2021
1853 Clouds 21 1012 46 10000 2.57 240 15:54 05.03.2021
1854 Clouds 21 1012 46 10000 2.06 0 15:27 05.03.2021
1855 Clouds 20 1013 49 10000 2.57 0 14:43 05.03.2021
1856 Clouds 20 1013 49 10000 3.09 270 14:24 05.03.2021
1857 Clouds 19 1014 48 10000 3.09 260 13:43 05.03.2021
1858 Clouds 19 1014 52 10000 3.09 230 13:21 05.03.2021
1859 Clouds 18 1015 55 10000 2.57 230 12:43 05.03.2021
1860 Clouds 15 1016 67 10000 2.57 220 11:39 05.03.2021
1861 Clouds 15 1016 67 10000 2.57 220 11:39 05.03.2021
1862 Clouds 15 1016 67 10000 2.57 220 11:19 05.03.2021
1863 Clouds 14 1017 77 8000 3.09 260 10:45 05.03.2021
1864 Clouds 13 1017 82 8000 3.09 260 10:26 05.03.2021
1865 Clouds 12 1017 87 8000 3.09 240 09:58 05.03.2021
1866 Clouds 12 1016 94 8000 2.57 240 09:38 05.03.2021
1867 Clouds 12 1016 94 8000 2.57 240 09:20 05.03.2021
1868 Clouds 11 1016 93 8000 3.09 270 08:38 05.03.2021
1869 Clouds 11 1016 93 8000 3.09 270 08:20 05.03.2021
1870 Clouds 12 1016 94 5000 3.6 260 07:33 05.03.2021
1871 Clouds 12 1016 94 4000 4.12 260 06:34 05.03.2021
1872 Mist 12 1016 87 4000 4.63 280 05:41 05.03.2021
1873 Clouds 13 1017 82 8000 3.09 280 01:18 05.03.2021
1874 Clouds 14 1017 82 8000 2.06 250 23:54 04.03.2021
1875 Clouds 14 1018 82 8000 2.57 260 23:24 04.03.2021
1876 Clouds 15 1018 77 8000 3.6 280 22:30 04.03.2021
1877 Clouds 15 1018 77 8000 3.6 300 21:53 04.03.2021
1878 Clouds 15 1018 77 8000 3.6 300 21:32 04.03.2021
1879 Clouds 16 1017 72 8000 3.6 300 20:58 04.03.2021
1880 Clouds 16 1017 72 8000 4.63 290 20:39 04.03.2021
1881 Clouds 16 1017 72 8000 4.63 290 20:20 04.03.2021
1882 Clouds 17 1017 67 8000 4.12 290 19:49 04.03.2021
1883 Clouds 17 1017 67 8000 3.09 280 19:23 04.03.2021
1884 Clouds 17 1017 72 8000 3.09 280 18:51 04.03.2021
1885 Clouds 17 1017 72 8000 3.09 280 18:30 04.03.2021
1886 Clouds 17 1017 72 8000 3.09 280 18:30 04.03.2021
1887 Clouds 18 1017 68 8000 3.09 260 17:47 04.03.2021
1888 Clouds 18 1018 68 7000 4.12 280 17:29 04.03.2021
1889 Clouds 18 1017 72 7000 4.12 280 16:50 04.03.2021
1890 Clouds 18 1017 72 7000 4.63 270 16:32 04.03.2021
1891 Clouds 18 1017 72 6000 3.09 280 15:57 04.03.2021
1892 Clouds 18 1018 68 6000 4.12 290 15:38 04.03.2021
1893 Clouds 18 1018 68 6000 4.12 290 15:19 04.03.2021
1894 Clouds 17 1018 72 6000 4.12 290 14:39 04.03.2021
1895 Clouds 17 1018 72 5000 5.14 280 13:54 04.03.2021
1896 Clouds 17 1018 77 5000 4.12 290 13:33 04.03.2021
1897 Clouds 17 1019 77 6000 4.63 280 12:58 04.03.2021
1898 Clouds 16 1019 77 8000 3.6 300 12:40 04.03.2021
1899 Clouds 17 1019 72 6000 2.06 290 11:49 04.03.2021
1900 Clouds 16 1019 77 5000 2.06 280 11:28 04.03.2021
1901 Clouds 16 1019 72 5000 1.54 290 10:56 04.03.2021
1902 Clouds 15 1019 72 8000 1.03 0 10:34 04.03.2021
1903 Clouds 13 1019 82 8000 1.54 260 09:51 04.03.2021
1904 Clouds 13 1019 82 8000 0.51 0 09:25 04.03.2021
1905 Clouds 11 1019 82 8000 1.03 0 08:49 04.03.2021
1906 Clouds 10 1018 87 8000 1.54 280 08:23 04.03.2021
1907 Clouds 11 1018 82 8000 1.03 0 07:35 04.03.2021
1908 Clouds 11 1017 87 8000 0.51 0 06:28 04.03.2021
1909 Clouds 11 1018 82 8000 1.54 240 05:42 04.03.2021
1910 Clouds 13 1019 76 8000 1.03 0 01:49 04.03.2021
1911 Clear 16 1020 63 8000 1.54 70 23:19 03.03.2021
1912 Clear 17 1019 55 8000 1.03 0 22:29 03.03.2021
1913 Clear 18 1019 52 8000 1.54 350 21:55 03.03.2021
1914 Clear 18 1019 52 8000 1.03 0 21:37 03.03.2021
1915 Clear 18 1019 52 8000 1.03 0 21:18 03.03.2021
1916 Clear 19 1019 52 8000 2.06 70 20:43 03.03.2021
1917 Clear 19 1019 52 8000 2.06 70 20:24 03.03.2021
1918 Clear 20 1019 45 8000 1.03 0 19:47 03.03.2021
1919 Clouds 22 1019 40 8000 1.03 0 19:28 03.03.2021
1920 Clouds 22 1018 40 8000 1.54 90 18:53 03.03.2021
1921 Clouds 23 1018 35 8000 1.54 0 18:34 03.03.2021
1922 Clouds 23 1018 33 8000 1.03 0 17:57 03.03.2021
1923 Clear 24 1018 33 8000 1.03 0 17:20 03.03.2021
1924 Clear 23 1018 35 8000 1.03 0 16:51 03.03.2021
1925 Clear 22 1019 35 8000 1.54 150 16:27 03.03.2021
1926 Clear 23 1019 38 8000 1.03 0 15:51 03.03.2021
1927 Clear 22 1019 40 8000 1.03 0 15:31 03.03.2021
1928 Clear 21 1020 46 8000 2.57 30 14:39 03.03.2021
1929 Clear 21 1020 46 8000 2.57 30 14:20 03.03.2021
1930 Clear 20 1021 52 10000 2.57 20 13:39 03.03.2021
1931 Clear 20 1021 52 10000 2.57 20 13:21 03.03.2021
1932 Clear 19 1021 52 10000 2.57 50 12:41 03.03.2021
1933 Clear 18 1021 59 10000 2.06 0 12:22 03.03.2021
1934 Clear 18 1021 59 10000 1.54 90 11:44 03.03.2021
1935 Clear 17 1021 63 10000 1.03 0 11:26 03.03.2021
1936 Clear 16 1021 72 10000 2.49 50 10:45 03.03.2021
1937 Clear 16 1021 72 10000 1.78 59 10:21 03.03.2021
1938 Clear 14 1021 77 10000 0.51 0 09:41 03.03.2021
1939 Clear 9 1021 87 10000 1.03 0 08:52 03.03.2021
1940 Clouds 8 1021 93 8000 0.51 0 08:24 03.03.2021
1941 Clouds 8 1020 93 8000 1.03 0 07:55 03.03.2021
1942 Clouds 8 1020 93 8000 1.54 100 07:26 03.03.2021
1943 Clouds 10 1020 87 8000 1.03 0 06:21 03.03.2021
1944 Clouds 11 1020 87 8000 2.06 110 05:44 03.03.2021
1945 Clouds 10 1020 87 8000 3.09 90 04:36 03.03.2021
1946 Clouds 10 1020 87 8000 2.57 90 03:53 03.03.2021
1947 Clouds 12 1021 82 8000 2.57 110 00:19 03.03.2021
1948 Clouds 13 1021 76 8000 2.06 90 23:32 02.03.2021
1949 Clouds 14 1021 67 8000 2.06 60 22:50 02.03.2021
1950 Clouds 15 1021 63 8000 2.57 50 22:21 02.03.2021
1951 Clouds 16 1021 59 8000 3.6 50 21:51 02.03.2021
1952 Clouds 16 1021 59 8000 3.09 50 21:32 02.03.2021
1953 Clouds 16 1021 59 8000 2.57 30 20:55 02.03.2021
1954 Clouds 17 1020 55 8000 3.09 40 20:37 02.03.2021
1955 Clouds 17 1020 55 8000 3.09 40 20:19 02.03.2021
1956 Clouds 18 1020 52 8000 2.57 40 19:46 02.03.2021
1957 Clouds 18 1020 52 8000 3.09 20 19:26 02.03.2021
1958 Clouds 19 1020 52 8000 3.6 40 18:41 02.03.2021
1959 Clouds 19 1019 52 8000 3.09 30 18:21 02.03.2021
1960 Clouds 19 1019 48 8000 4.12 60 17:57 02.03.2021
1961 Clouds 20 1019 49 8000 2.57 60 17:38 02.03.2021
1962 Clouds 20 1019 49 8000 2.57 60 17:18 02.03.2021
1963 Clouds 19 1019 48 8000 3.6 60 16:40 02.03.2021
1964 Clouds 19 1019 48 8000 2.06 10 15:54 02.03.2021
1965 Clouds 18 1020 55 8000 3.09 10 15:26 02.03.2021
1966 Clouds 18 1021 59 8000 2.06 0 14:42 02.03.2021
1967 Clouds 18 1021 59 8000 2.06 0 14:18 02.03.2021
1968 Clouds 18 1021 59 8000 2.57 0 13:42 02.03.2021
1969 Clouds 17 1021 59 8000 3.6 50 13:21 02.03.2021
1970 Clouds 16 1021 63 8000 2.57 40 12:43 02.03.2021
1971 Clear 16 1022 63 8000 1.54 0 12:24 02.03.2021
1972 Clear 16 1022 67 8000 1.54 30 11:41 02.03.2021
1973 Clear 15 1021 72 8000 2.06 30 11:20 02.03.2021
1974 Clear 15 1021 72 8000 0.51 0 10:42 02.03.2021
1975 Clear 13 1021 82 8000 1.03 0 10:23 02.03.2021
1976 Clear 9 1020 93 8000 1.54 90 09:41 02.03.2021
1977 Clear 9 1020 93 8000 1.54 90 09:21 02.03.2021
1978 Clouds 8 1019 93 8000 1.03 0 08:40 02.03.2021
1979 Clouds 8 1019 93 8000 1.03 0 08:21 02.03.2021
1980 Clouds 9 1019 93 8000 0.51 0 07:38 02.03.2021
1981 Clouds 9 1018 93 8000 1.54 40 06:36 02.03.2021
1982 Clouds 9 1018 93 8000 1.54 160 05:46 02.03.2021
1983 Clouds 9 1018 93 8000 1.54 160 05:46 02.03.2021
1984 Clouds 9 1018 93 8000 1.03 0 05:28 02.03.2021
1985 Clouds 12 1019 82 8000 3.6 90 01:46 02.03.2021
1986 Clouds 12 1019 82 6000 3.09 110 01:28 02.03.2021
1987 Clouds 12 1019 82 6000 2.06 90 00:51 02.03.2021
1988 Clouds 13 1018 76 6000 3.6 130 23:28 01.03.2021
1989 Clouds 13 1019 76 5000 3.6 160 22:42 01.03.2021
1990 Clouds 12 1018 82 5000 3.6 190 22:23 01.03.2021
1991 Clouds 13 1018 76 5000 5.14 170 21:50 01.03.2021
1992 Clouds 13 1018 76 6000 3.09 130 21:24 01.03.2021
1993 Clouds 13 1017 82 6000 3.09 190 20:48 01.03.2021
1994 Clouds 14 1017 72 6000 4.12 170 20:28 01.03.2021
1995 Clouds 15 1016 67 6000 3.6 200 19:55 01.03.2021
1996 Clouds 16 1016 63 6000 2.06 50 19:33 01.03.2021
1997 Clouds 17 1015 63 6000 2.06 10 18:46 01.03.2021
1998 Clouds 17 1015 59 6000 3.09 280 18:25 01.03.2021
1999 Clouds 17 1015 59 6000 1.54 320 17:58 01.03.2021
2000 Clouds 17 1015 59 6000 1.54 320 17:39 01.03.2021
2001 Clouds 16 1014 67 6000 4.63 330 17:19 01.03.2021
2002 Clouds 18 1014 59 6000 3.6 290 16:43 01.03.2021
2003 Clouds 18 1014 59 6000 3.09 290 16:24 01.03.2021
2004 Clouds 17 1014 63 6000 3.09 310 15:41 01.03.2021
2005 Clouds 17 1014 63 6000 3.6 310 15:20 01.03.2021
2006 Clouds 17 1015 67 6000 2.57 300 14:47 01.03.2021
2007 Clouds 17 1015 67 6000 3.09 310 14:29 01.03.2021
2008 Clouds 16 1015 67 6000 2.06 0 13:43 01.03.2021
2009 Clouds 16 1015 67 6000 2.06 0 13:23 01.03.2021
2010 Clouds 16 1015 72 6000 1.03 0 12:55 01.03.2021
2011 Clouds 14 1015 82 5000 1.54 250 12:36 01.03.2021
2012 Clouds 14 1015 82 5000 1.54 250 12:18 01.03.2021
2013 Clouds 14 1015 82 5000 1.03 0 11:40 01.03.2021
2014 Clouds 13 1015 88 5000 1.03 0 10:44 01.03.2021
2015 Clouds 13 1014 88 5000 0.51 0 10:23 01.03.2021
2016 Mist 12 1014 87 5000 1.03 0 09:58 01.03.2021
2017 Mist 11 1014 93 4000 1.54 50 09:40 01.03.2021
2018 Mist 11 1014 93 4000 1.54 50 09:20 01.03.2021
2019 Mist 11 1014 93 3500 1.54 320 08:47 01.03.2021
2020 Mist 11 1013 93 2000 1.03 0 07:50 01.03.2021
2021 Mist 10 1013 100 2000 1.03 0 06:52 01.03.2021
2022 Clouds 11 1013 93 5000 3.09 240 03:24 01.03.2021
2023 Clouds 12 1013 82 8000 2.57 240 00:44 01.03.2021
2024 Clouds 13 1013 76 8000 1.54 350 23:35 28.02.2021
2025 Clouds 13 1013 76 8000 1.03 0 22:51 28.02.2021
2026 Clouds 13 1013 71 8000 1.03 0 22:22 28.02.2021
2027 Clouds 14 1012 67 8000 2.57 190 21:49 28.02.2021
2028 Clouds 15 1012 63 8000 2.57 230 21:28 28.02.2021
2029 Clouds 14 1012 67 8000 2.06 240 20:56 28.02.2021
2030 Clouds 14 1012 67 8000 2.06 240 20:36 28.02.2021
2031 Clouds 16 1012 55 8000 3.09 240 19:47 28.02.2021
2032 Clouds 16 1012 55 8000 3.09 240 19:47 28.02.2021
2033 Clouds 16 1012 55 8000 3.09 280 19:28 28.02.2021
2034 Clouds 16 1011 55 8000 3.6 290 18:57 28.02.2021
2035 Clouds 16 1011 55 8000 3.6 290 18:57 28.02.2021
2036 Clouds 17 1011 51 8000 4.12 290 18:37 28.02.2021
2037 Clouds 17 1011 51 8000 4.12 290 18:18 28.02.2021
2038 Clouds 17 1011 55 8000 4.12 280 17:45 28.02.2021
2039 Clouds 17 1011 55 8000 3.6 290 17:27 28.02.2021
2040 Clouds 18 1011 45 8000 4.12 280 16:50 28.02.2021
2041 Clouds 19 1011 42 8000 1.54 200 16:30 28.02.2021
2042 Clouds 19 1011 39 8000 2.57 250 15:53 28.02.2021
2043 Clouds 19 1011 39 8000 2.57 250 15:53 28.02.2021
2044 Clouds 19 1011 39 8000 2.57 250 15:31 28.02.2021
2045 Clouds 17 1011 48 8000 4.63 140 14:58 28.02.2021
2046 Clouds 17 1011 48 8000 4.63 140 14:39 28.02.2021
2047 Clouds 16 1012 59 8000 4.12 190 14:20 28.02.2021
2048 Clouds 16 1013 59 8000 0.51 0 13:41 28.02.2021
2049 Clouds 16 1013 59 8000 0.51 0 13:41 28.02.2021
2050 Clouds 15 1013 63 8000 2.06 280 13:19 28.02.2021
2051 Clouds 15 1014 67 8000 2.57 160 12:54 28.02.2021
2052 Clouds 14 1014 62 8000 5.14 190 12:36 28.02.2021
2053 Clouds 14 1014 62 8000 5.14 190 12:18 28.02.2021
2054 Clouds 15 1014 58 8000 3.6 220 11:42 28.02.2021
2055 Clouds 15 1014 63 8000 2.57 230 11:22 28.02.2021
2056 Clouds 14 1014 67 8000 4.63 180 10:45 28.02.2021
2057 Clouds 14 1014 67 8000 4.63 190 10:25 28.02.2021
2058 Clouds 13 1014 71 8000 4.12 160 09:40 28.02.2021
2059 Clouds 12 1014 76 8000 5.66 170 09:22 28.02.2021
2060 Clouds 12 1014 76 8000 5.66 180 08:46 28.02.2021
2061 Clouds 11 1013 76 7000 6.69 180 08:28 28.02.2021
2062 Clouds 12 1013 71 8000 6.69 170 07:46 28.02.2021
2063 Clouds 12 1013 76 8000 6.69 180 07:28 28.02.2021
2064 Clouds 11 1014 82 8000 2.06 0 06:25 28.02.2021
2065 Clouds 12 1013 76 8000 3.09 160 05:23 28.02.2021
2066 Clouds 11 1015 87 10000 2.06 180 02:40 28.02.2021
2067 Clouds 11 1016 87 10000 2.06 240 01:36 28.02.2021
2068 Clouds 11 1017 87 10000 1.54 260 00:43 28.02.2021
2069 Clouds 11 1017 87 10000 1.54 260 00:21 28.02.2021
2070 Clouds 11 1017 87 10000 2.06 250 23:44 27.02.2021
2071 Clouds 12 1017 82 10000 1.03 0 23:18 27.02.2021
2072 Clouds 12 1017 76 10000 1.54 30 22:42 27.02.2021
2073 Clouds 12 1017 76 10000 1.54 30 22:18 27.02.2021
2074 Clouds 12 1017 76 10000 3.09 20 21:38 27.02.2021
2075 Clouds 12 1017 76 10000 3.09 20 21:38 27.02.2021
2076 Clouds 12 1017 76 10000 3.6 30 21:20 27.02.2021
2077 Clouds 12 1017 76 10000 3.6 20 20:46 27.02.2021
2078 Clouds 13 1016 71 10000 3.6 30 20:26 27.02.2021
2079 Clouds 14 1016 72 10000 3.09 70 19:45 27.02.2021
2080 Clouds 14 1016 72 10000 5.66 60 19:25 27.02.2021
2081 Clouds 15 1016 58 10000 4.12 50 18:43 27.02.2021
2082 Clouds 17 1015 55 10000 1.03 0 18:21 27.02.2021
2083 Clouds 17 1015 55 10000 2.57 230 17:45 27.02.2021
2084 Clouds 17 1015 55 10000 4.12 220 17:21 27.02.2021
2085 Clouds 18 1016 55 10000 2.06 210 16:59 27.02.2021
2086 Clouds 18 1016 55 10000 2.06 210 16:41 27.02.2021
2087 Clouds 17 1016 55 10000 2.57 210 16:23 27.02.2021
2088 Clouds 17 1017 55 10000 1.03 0 15:39 27.02.2021
2089 Clouds 17 1018 55 10000 1.03 0 14:52 27.02.2021
2090 Clouds 16 1018 59 10000 1.54 0 14:33 27.02.2021
2091 Clouds 16 1018 59 10000 2.06 20 13:56 27.02.2021
2092 Clouds 16 1018 59 10000 2.06 20 13:33 27.02.2021
2093 Clouds 14 1019 62 10000 1.54 10 12:58 27.02.2021
2094 Clouds 14 1019 62 10000 1.54 10 12:36 27.02.2021
2095 Clouds 14 1019 72 10000 1.03 0 12:18 27.02.2021
2096 Clouds 12 1019 76 10000 1.03 0 11:42 27.02.2021
2097 Clouds 11 1019 82 10000 1.03 0 11:23 27.02.2021
2098 Clouds 11 1020 82 10000 2.06 110 10:46 27.02.2021
2099 Clouds 11 1019 87 10000 1.03 0 10:28 27.02.2021
2100 Clouds 11 1019 87 10000 1.54 40 09:50 27.02.2021
2101 Clouds 9 1019 93 10000 2.06 30 09:26 27.02.2021
2102 Clouds 9 1019 93 10000 2.06 30 08:42 27.02.2021
2103 Clouds 8 1019 93 10000 0.51 0 08:21 27.02.2021
2104 Clouds 8 1019 93 10000 1.03 0 07:42 27.02.2021
2105 Clouds 8 1020 93 10000 1.54 70 04:47 27.02.2021
2106 Clouds 9 1022 87 10000 1.03 0 00:54 27.02.2021
2107 Clouds 9 1022 87 10000 0.51 0 23:54 26.02.2021
2108 Clouds 10 1022 81 10000 0.51 0 23:28 26.02.2021
2109 Clouds 11 1022 82 10000 1.03 0 22:50 26.02.2021
2110 Clouds 11 1021 82 10000 1.54 80 22:29 26.02.2021
2111 Clouds 11 1021 76 10000 1.03 0 21:43 26.02.2021
2112 Clouds 11 1021 76 10000 1.54 60 21:24 26.02.2021
2113 Clouds 12 1021 71 10000 3.09 30 20:44 26.02.2021
2114 Clouds 12 1021 71 10000 2.06 50 20:21 26.02.2021
2115 Clouds 12 1021 71 10000 2.06 50 19:48 26.02.2021
2116 Clouds 13 1021 62 10000 2.06 50 19:25 26.02.2021
2117 Clouds 14 1021 58 10000 2.57 50 18:42 26.02.2021
2118 Clouds 14 1020 62 10000 4.63 80 18:22 26.02.2021
2119 Clouds 14 1020 62 10000 4.63 80 17:41 26.02.2021
2120 Clouds 15 1021 58 10000 2.06 0 17:23 26.02.2021
2121 Clouds 15 1021 58 10000 1.03 0 16:52 26.02.2021
2122 Clouds 13 1021 62 10000 2.57 90 16:31 26.02.2021
2123 Clouds 13 1022 62 10000 3.09 120 15:57 26.02.2021
2124 Clouds 12 1022 71 10000 5.14 120 15:38 26.02.2021
2125 Clouds 12 1022 71 10000 5.14 120 15:19 26.02.2021
2126 Clouds 12 1022 71 10000 5.66 130 14:45 26.02.2021
2127 Clouds 10 1023 76 10000 7.72 120 14:25 26.02.2021
2128 Clouds 11 1024 76 10000 7.72 130 13:42 26.02.2021
2129 Clouds 10 1024 81 8000 7.72 130 13:23 26.02.2021
2130 Clouds 10 1024 81 6000 7.72 130 12:39 26.02.2021
2131 Clouds 9 1025 87 6000 7.72 130 11:54 26.02.2021
2132 Clouds 9 1024 81 6000 8.23 130 11:36 26.02.2021
2133 Clouds 9 1024 87 6000 8.75 130 10:48 26.02.2021
2134 Clouds 9 1024 93 5000 6.69 120 09:56 26.02.2021
2135 Clouds 9 1024 93 5000 3.09 160 09:31 26.02.2021
2136 Clouds 9 1024 93 5000 5.66 140 08:56 26.02.2021
2137 Clouds 9 1024 93 5000 3.09 130 08:26 26.02.2021
2138 Clouds 9 1023 100 5000 2.57 60 07:49 26.02.2021
2139 Rain 10 1023 93 5000 1.03 0 06:36 26.02.2021
2140 Rain 10 1023 93 5000 2.57 60 05:31 26.02.2021
2141 Clouds 11 1023 87 5000 1.54 290 03:48 26.02.2021
2142 Clouds 11 1024 93 5000 2.57 320 02:35 26.02.2021
2143 Clouds 12 1024 87 7000 2.57 280 23:57 25.02.2021
2144 Clouds 12 1024 87 7000 3.09 270 23:28 25.02.2021
2145 Clouds 12 1024 87 7000 3.6 310 22:50 25.02.2021
2146 Clouds 12 1024 87 7000 3.6 310 22:50 25.02.2021
2147 Clouds 14 1024 82 8000 5.14 300 22:19 25.02.2021
2148 Clouds 15 1024 77 8000 3.09 290 21:42 25.02.2021
2149 Clouds 15 1024 77 8000 3.6 300 21:23 25.02.2021
2150 Clouds 15 1024 77 8000 4.63 300 20:41 25.02.2021
2151 Clouds 16 1023 63 8000 5.66 300 20:22 25.02.2021
2152 Clouds 16 1023 63 8000 5.14 290 19:52 25.02.2021
2153 Clouds 17 1023 55 8000 5.14 290 19:22 25.02.2021
2154 Clouds 18 1023 52 8000 6.17 280 18:57 25.02.2021
2155 Clouds 19 1022 45 8000 6.17 270 18:25 25.02.2021
2156 Clouds 19 1022 42 8000 6.69 280 17:49 25.02.2021
2157 Clouds 20 1022 40 8000 5.66 270 17:26 25.02.2021
2158 Clouds 20 1022 40 7000 6.17 260 16:46 25.02.2021
2159 Clouds 21 1022 37 10000 5.14 270 16:25 25.02.2021
2160 Clouds 22 1022 37 10000 3.09 310 15:30 25.02.2021
2161 Clouds 21 1023 37 10000 4.12 300 14:57 25.02.2021
2162 Clouds 21 1023 40 10000 2.06 310 14:24 25.02.2021
2163 Clouds 20 1024 42 10000 2.57 300 13:53 25.02.2021
2164 Clouds 19 1024 45 10000 2.57 320 13:26 25.02.2021
2165 Clouds 19 1025 48 10000 2.57 340 12:55 25.02.2021
2166 Clouds 18 1025 52 10000 2.06 350 12:21 25.02.2021
2167 Clouds 17 1025 55 10000 1.03 0 11:47 25.02.2021
2168 Clouds 17 1025 55 10000 1.03 0 11:19 25.02.2021
2169 Clouds 17 1025 59 10000 0.51 0 10:45 25.02.2021
2170 Clouds 15 1025 67 10000 1.03 0 10:23 25.02.2021
2171 Clouds 14 1025 72 10000 1.03 0 09:42 25.02.2021
2172 Clouds 10 1025 81 10000 1.54 100 08:55 25.02.2021
2173 Clouds 11 1025 76 10000 1.54 20 08:25 25.02.2021
2174 Clouds 10 1024 81 10000 1.54 120 07:53 25.02.2021
2175 Clouds 10 1024 81 10000 3.09 100 07:29 25.02.2021
2176 Clouds 10 1025 81 10000 1.03 0 06:51 25.02.2021
2177 Clouds 14 1026 62 10000 3.09 180 01:57 25.02.2021
2178 Clouds 14 1026 62 10000 2.57 180 01:37 25.02.2021
2179 Clouds 15 1026 58 10000 2.57 200 00:39 25.02.2021
2180 Clouds 14 1026 62 10000 1.03 0 23:51 24.02.2021
2181 Clouds 14 1026 62 10000 2.57 250 23:24 24.02.2021
2182 Clouds 15 1026 58 10000 2.06 270 22:44 24.02.2021
2183 Clouds 16 1026 51 10000 3.6 290 22:25 24.02.2021
2184 Clouds 15 1025 58 10000 3.09 260 21:45 24.02.2021
2185 Clouds 16 1025 55 10000 3.09 270 20:54 24.02.2021
2186 Clouds 18 1025 45 10000 3.6 290 20:31 24.02.2021
2187 Clouds 19 1024 45 10000 5.14 300 19:56 24.02.2021
2188 Clouds 20 1024 49 10000 6.17 300 19:28 24.02.2021
2189 Clouds 21 1024 49 10000 6.69 290 18:56 24.02.2021
2190 Clouds 23 1023 46 10000 6.69 280 18:34 24.02.2021
2191 Clouds 23 1023 40 10000 6.17 290 17:52 24.02.2021
2192 Clouds 23 1023 40 10000 4.63 290 17:29 24.02.2021
2193 Clouds 23 1023 40 10000 5.66 270 16:57 24.02.2021
2194 Clouds 23 1023 40 10000 5.66 270 16:36 24.02.2021
2195 Clouds 23 1023 38 10000 5.66 290 16:18 24.02.2021
2196 Clouds 23 1023 40 10000 4.63 280 15:37 24.02.2021
2197 Clouds 23 1023 40 10000 3.6 330 14:53 24.02.2021
2198 Clear 22 1023 43 10000 2.57 0 14:32 24.02.2021
2199 Clear 22 1023 46 10000 2.06 310 13:57 24.02.2021
2200 Clear 21 1024 49 10000 2.57 350 13:38 24.02.2021
2201 Clear 21 1024 49 10000 2.57 350 13:19 24.02.2021
2202 Clear 20 1024 52 10000 2.06 340 12:43 24.02.2021
2203 Clear 20 1023 52 10000 1.54 0 12:23 24.02.2021
2204 Clear 19 1023 52 10000 1.03 0 11:45 24.02.2021
2205 Clear 18 1024 59 8000 0.51 0 10:49 24.02.2021
2206 Clear 16 1024 72 8000 0.51 0 10:29 24.02.2021
2207 Clear 11 1023 87 8000 1.54 70 09:41 24.02.2021
2208 Clear 11 1023 87 8000 1.54 70 09:18 24.02.2021
2209 Clear 10 1023 87 8000 1.03 0 08:33 24.02.2021
2210 Clear 9 1023 87 8000 2.06 90 07:55 24.02.2021
2211 Clear 9 1023 93 8000 1.03 0 07:20 24.02.2021
2212 Clear 9 1023 87 8000 0.51 0 06:20 24.02.2021
2213 Clear 11 1023 82 8000 2.06 90 02:47 24.02.2021
2214 Clear 14 1023 77 10000 2.06 120 23:59 23.02.2021
2215 Clear 14 1023 72 10000 2.57 100 23:20 23.02.2021
2216 Clear 16 1023 63 10000 3.09 100 22:37 23.02.2021
2217 Clear 16 1023 63 10000 3.09 100 22:18 23.02.2021
2218 Clear 17 1023 59 10000 2.57 80 21:40 23.02.2021
2219 Clear 17 1023 59 10000 2.57 80 21:22 23.02.2021
2220 Clear 18 1023 52 10000 3.09 80 20:47 23.02.2021
2221 Clear 18 1023 55 10000 3.09 80 20:47 23.02.2021
2222 Clear 18 1023 52 10000 3.09 80 20:28 23.02.2021
2223 Clear 20 1023 45 10000 3.6 70 19:47 23.02.2021
2224 Clear 21 1023 40 10000 4.63 60 19:27 23.02.2021
2225 Clear 22 1022 37 10000 4.63 60 18:50 23.02.2021
2226 Clear 22 1022 37 10000 5.14 80 18:29 23.02.2021
2227 Clear 23 1022 35 10000 5.14 80 17:54 23.02.2021
2228 Clear 23 1022 35 10000 4.63 70 17:29 23.02.2021
2229 Clear 23 1022 35 10000 5.14 70 16:47 23.02.2021
2230 Clear 23 1023 38 10000 4.63 70 16:25 23.02.2021
2231 Clear 23 1023 33 10000 4.12 50 15:52 23.02.2021
2232 Clear 22 1023 37 10000 3.6 60 15:34 23.02.2021
2233 Clear 22 1024 35 10000 4.12 30 14:58 23.02.2021
2234 Clear 21 1024 40 10000 3.6 50 14:40 23.02.2021
2235 Clear 21 1024 40 10000 3.6 50 14:19 23.02.2021
2236 Clear 20 1025 40 10000 2.57 60 13:39 23.02.2021
2237 Clear 20 1025 42 10000 2.06 30 13:19 23.02.2021
2238 Clear 18 1025 52 10000 2.57 50 12:46 23.02.2021
2239 Clear 17 1025 51 10000 3.09 80 12:19 23.02.2021
2240 Clear 15 1026 58 10000 3.6 80 11:45 23.02.2021
2241 Clear 15 1026 58 10000 3.6 80 11:19 23.02.2021
2242 Clear 14 1025 62 10000 3.6 90 10:40 23.02.2021
2243 Clear 13 1025 71 10000 4.12 80 10:19 23.02.2021
2244 Clear 12 1025 76 10000 2.06 70 09:42 23.02.2021
2245 Clear 10 1025 81 10000 2.06 80 09:21 23.02.2021
2246 Clear 8 1025 93 10000 2.06 70 08:47 23.02.2021
2247 Clear 8 1025 87 10000 2.06 70 08:21 23.02.2021
2248 Clear 7 1024 93 10000 2.06 80 07:39 23.02.2021
2249 Clear 9 1023 87 10000 2.06 60 05:28 23.02.2021
2250 Clear 10 1024 81 10000 1.54 90 02:54 23.02.2021
2251 Clear 10 1024 81 10000 1.54 90 02:54 23.02.2021
2252 Clear 10 1024 81 10000 1.54 90 02:54 23.02.2021
2253 Clear 10 1024 87 10000 2.06 100 02:33 23.02.2021
2254 Clear 11 1024 82 10000 2.57 100 00:20 23.02.2021
2255 Clear 12 1024 76 10000 3.09 90 23:46 22.02.2021
2256 Clear 12 1024 76 10000 2.57 90 23:18 22.02.2021
2257 Clear 13 1024 67 10000 2.06 80 22:39 22.02.2021
2258 Clear 13 1024 67 10000 2.06 80 22:20 22.02.2021
2259 Clear 15 1023 58 10000 2.06 30 21:38 22.02.2021
2260 Clear 15 1023 58 10000 2.06 30 21:20 22.02.2021
2261 Clear 16 1023 55 10000 1.03 0 20:48 22.02.2021
2262 Clear 16 1023 48 10000 0.51 0 20:27 22.02.2021
2263 Clear 17 1022 42 10000 0.51 0 19:50 22.02.2021
2264 Clear 18 1022 42 10000 1.54 360 19:30 22.02.2021
2265 Clear 18 1022 42 10000 1.54 360 19:30 22.02.2021
2266 Clear 18 1022 39 10000 2.06 300 18:49 22.02.2021
2267 Clear 19 1022 37 10000 1.03 0 18:29 22.02.2021
2268 Clear 19 1022 39 10000 1.03 0 17:51 22.02.2021
2269 Clear 19 1021 37 10000 1.03 0 17:22 22.02.2021
2270 Clear 18 1021 39 10000 1.03 0 16:51 22.02.2021
2271 Clear 19 1021 42 10000 1.54 0 16:30 22.02.2021
2272 Clear 17 1021 42 10000 2.06 340 15:36 22.02.2021
2273 Clear 17 1022 45 10000 2.57 30 14:54 22.02.2021
2274 Clear 16 1022 51 10000 1.54 0 14:35 22.02.2021
2275 Clear 16 1022 51 10000 1.54 0 13:58 22.02.2021
2276 Clear 15 1022 55 10000 2.57 30 13:36 22.02.2021
2277 Clear 14 1022 62 10000 3.09 50 12:52 22.02.2021
2278 Clear 14 1023 62 10000 3.09 70 12:23 22.02.2021
2279 Clear 13 1023 71 10000 3.09 110 11:56 22.02.2021
2280 Clear 12 1023 76 10000 2.57 100 11:32 22.02.2021
2281 Clear 11 1023 82 10000 1.54 110 10:59 22.02.2021
2282 Clear 11 1023 82 10000 1.54 110 10:39 22.02.2021
2283 Clear 10 1023 81 10000 2.06 100 10:19 22.02.2021
2284 Clear 8 1022 93 10000 1.54 60 09:37 22.02.2021
2285 Clear 7 1022 93 10000 1.03 0 09:19 22.02.2021
2286 Clear 6 1021 93 10000 1.54 70 08:49 22.02.2021
2287 Clear 6 1021 93 10000 1.54 80 08:21 22.02.2021
2288 Clear 6 1021 100 10000 2.57 110 07:46 22.02.2021
2289 Clear 6 1021 100 10000 1.03 0 07:22 22.02.2021
2290 Clear 6 1021 100 10000 1.03 0 06:26 22.02.2021
2291 Clear 7 1021 93 10000 2.06 100 04:25 22.02.2021
2292 Clear 8 1021 93 10000 1.03 0 03:22 22.02.2021
2293 Clouds 10 1021 81 10000 3.09 190 00:54 22.02.2021
2294 Clouds 10 1021 81 10000 2.57 190 00:29 22.02.2021
2295 Clouds 11 1020 76 10000 3.09 190 23:55 21.02.2021
2296 Clouds 11 1020 82 10000 1.54 200 23:23 21.02.2021
2297 Clouds 11 1020 87 10000 1.03 0 22:28 21.02.2021
2298 Clouds 11 1020 87 10000 1.03 0 21:52 21.02.2021
2299 Clouds 11 1020 87 10000 1.03 0 21:34 21.02.2021
2300 Clouds 11 1020 87 10000 1.03 0 21:34 21.02.2021
2301 Clouds 12 1019 76 10000 1.03 0 20:58 21.02.2021
2302 Clouds 11 1019 82 6000 1.54 210 20:36 21.02.2021
2303 Clouds 11 1019 82 6000 1.54 210 20:18 21.02.2021
2304 Clouds 12 1018 76 6000 3.6 230 19:43 21.02.2021
2305 Clouds 12 1018 76 6000 3.6 230 19:23 21.02.2021
2306 Clouds 11 1017 87 5000 3.6 280 18:29 21.02.2021
2307 Clouds 11 1017 87 5000 3.6 280 18:29 21.02.2021
2308 Clouds 12 1017 82 6000 4.63 270 17:58 21.02.2021
2309 Clouds 11 1016 87 6000 3.6 230 17:26 21.02.2021
2310 Clouds 10 1016 87 6000 2.57 260 16:53 21.02.2021
2311 Clouds 10 1016 87 6000 2.57 260 16:31 21.02.2021
2312 Clouds 10 1016 87 5000 4.12 320 15:43 21.02.2021
2313 Clouds 10 1016 87 5000 2.06 10 15:19 21.02.2021
2314 Clouds 11 1015 82 7000 5.14 340 14:41 21.02.2021
2315 Clouds 12 1015 87 5000 4.63 270 14:20 21.02.2021
2316 Clouds 11 1016 87 5000 4.12 270 13:43 21.02.2021
2317 Clouds 10 1016 87 5000 4.12 290 13:22 21.02.2021
2318 Clouds 11 1015 87 2000 8.23 270 12:29 21.02.2021
2319 Clouds 11 1014 87 10000 5.14 250 11:43 21.02.2021
2320 Clouds 10 1014 87 6000 6.17 240 10:58 21.02.2021
2321 Clouds 11 1013 87 6000 7.2 280 10:23 21.02.2021
2322 Clouds 11 1012 87 10000 3.6 240 09:53 21.02.2021
2323 Clouds 11 1012 87 10000 4.12 210 09:28 21.02.2021
2324 Clouds 10 1011 93 6000 2.06 260 08:49 21.02.2021
2325 Clouds 11 1011 87 6000 2.57 250 08:19 21.02.2021
2326 Clouds 11 1010 87 5000 3.6 250 07:33 21.02.2021
2327 Clouds 12 1010 82 5000 4.63 160 06:52 21.02.2021
2328 Haze 17 1008 31 3000 2.57 60 02:49 21.02.2021
2329 Haze 18 1009 29 3000 3.09 110 02:29 21.02.2021
2330 Clouds 19 1010 24 6000 3.09 330 00:43 21.02.2021
2331 Clouds 19 1009 22 7000 2.06 20 00:19 21.02.2021
2332 Clouds 20 1009 24 7000 3.09 20 23:20 20.02.2021
2333 Clouds 20 1009 24 7000 1.54 0 22:41 20.02.2021
2334 Clouds 20 1009 24 7000 2.06 360 22:23 20.02.2021
2335 Clouds 20 1009 26 7000 2.57 250 21:44 20.02.2021
2336 Clouds 21 1009 26 8000 3.6 330 21:23 20.02.2021
2337 Clouds 23 1009 20 8000 1.54 60 20:42 20.02.2021
2338 Clouds 23 1009 20 8000 1.54 60 20:21 20.02.2021
2339 Clouds 23 1008 20 8000 2.57 40 19:52 20.02.2021
2340 Clouds 24 1008 19 8000 2.06 60 19:27 20.02.2021
2341 Clear 24 1009 17 10000 2.06 50 18:39 20.02.2021
2342 Clear 25 1009 16 10000 2.06 60 18:20 20.02.2021
2343 Clear 26 1010 15 10000 2.57 40 17:38 20.02.2021
2344 Clear 26 1011 15 10000 2.06 30 16:55 20.02.2021
2345 Clear 25 1011 16 10000 2.06 0 16:32 20.02.2021
2346 Clear 25 1011 16 10000 2.06 70 15:47 20.02.2021
2347 Clear 25 1012 16 10000 2.57 40 15:23 20.02.2021
2348 Clear 25 1013 18 10000 2.57 20 14:46 20.02.2021
2349 Clear 24 1014 19 8000 3.6 50 14:23 20.02.2021
2350 Clear 24 1014 20 8000 2.57 50 13:47 20.02.2021
2351 Clouds 23 1015 18 8000 2.06 40 13:24 20.02.2021
2352 Clouds 22 1015 24 8000 2.06 0 12:50 20.02.2021
2353 Clouds 21 1016 26 8000 3.09 60 12:23 20.02.2021
2354 Clouds 21 1016 26 8000 3.09 70 11:43 20.02.2021
2355 Clouds 19 1016 30 8000 3.09 90 11:24 20.02.2021
2356 Clouds 16 1016 36 8000 3.09 130 10:47 20.02.2021
2357 Clouds 13 1016 44 8000 2.57 120 09:54 20.02.2021
2358 Clouds 10 1016 53 8000 2.57 100 09:28 20.02.2021
2359 Clouds 10 1015 50 8000 3.09 60 08:35 20.02.2021
2360 Clouds 10 1015 50 8000 3.09 40 07:57 20.02.2021
2361 Clear 12 1017 43 10000 1.54 210 02:46 20.02.2021
2362 Clear 12 1017 40 10000 2.06 230 02:24 20.02.2021
2363 Clear 12 1017 43 10000 1.54 240 01:48 20.02.2021
2364 Clear 13 1018 41 10000 1.54 300 00:45 20.02.2021
2365 Clear 14 1018 38 10000 1.03 0 23:52 19.02.2021
2366 Clear 16 1019 33 10000 1.54 130 23:18 19.02.2021
2367 Clear 15 1018 36 10000 1.03 0 22:27 19.02.2021
2368 Clear 17 1018 31 10000 2.06 240 21:54 19.02.2021
2369 Clear 17 1018 29 10000 2.57 270 21:31 19.02.2021
2370 Clear 18 1018 25 10000 2.57 270 20:48 19.02.2021
2371 Clear 19 1018 24 8000 3.09 280 20:28 19.02.2021
2372 Clear 21 1018 21 8000 3.09 290 19:55 19.02.2021
2373 Clear 22 1018 18 8000 3.09 290 19:27 19.02.2021
2374 Clear 23 1017 17 8000 3.6 280 18:56 19.02.2021
2375 Clear 24 1017 16 10000 4.12 290 18:33 19.02.2021
2376 Clear 24 1017 17 8000 3.6 320 17:51 19.02.2021
2377 Clear 25 1017 16 8000 2.57 300 17:22 19.02.2021
2378 Clear 25 1017 19 8000 2.57 310 16:38 19.02.2021
2379 Clear 25 1017 19 8000 2.57 310 16:18 19.02.2021
2380 Clear 25 1017 19 8000 1.54 310 15:41 19.02.2021
2381 Clear 25 1017 19 8000 1.03 0 15:20 19.02.2021
2382 Clear 23 1018 23 8000 2.06 340 14:38 19.02.2021
2383 Clear 23 1018 23 8000 2.06 340 14:38 19.02.2021
2384 Clear 23 1018 23 8000 2.06 340 14:20 19.02.2021
2385 Clear 23 1018 27 8000 2.06 290 13:44 19.02.2021
2386 Clear 22 1019 30 8000 1.54 0 13:24 19.02.2021
2387 Clear 21 1019 32 8000 1.03 0 12:42 19.02.2021
2388 Clear 20 1020 34 8000 1.54 10 12:23 19.02.2021
2389 Clear 18 1020 39 10000 1.54 30 11:51 19.02.2021
2390 Clear 18 1020 39 10000 1.03 0 11:23 19.02.2021
2391 Clear 16 1020 44 10000 1.03 0 10:50 19.02.2021
2392 Clear 14 1020 51 10000 1.03 0 10:22 19.02.2021
2393 Clear 12 1020 58 10000 1.03 0 09:40 19.02.2021
2394 Clear 10 1019 62 10000 1.54 80 09:22 19.02.2021
2395 Clear 8 1019 66 10000 2.57 90 08:50 19.02.2021
2396 Clear 7 1019 70 10000 2.57 90 08:23 19.02.2021
2397 Clear 7 1019 70 10000 2.57 90 07:48 19.02.2021
2398 Clear 8 1019 66 10000 1.54 100 07:27 19.02.2021
2399 Clear 9 1019 61 10000 1.03 0 06:49 19.02.2021
2400 Clear 10 1019 57 10000 2.06 110 05:27 19.02.2021
2401 Clear 10 1019 57 10000 1.54 80 04:41 19.02.2021
2402 Clear 14 1020 41 10000 1.54 160 01:47 19.02.2021
2403 Clear 15 1020 47 10000 3.09 220 00:37 19.02.2021
2404 Clear 15 1020 44 10000 4.12 220 23:54 18.02.2021
2405 Clear 15 1020 44 10000 4.12 220 23:34 18.02.2021
2406 Clear 15 1020 44 10000 2.57 250 22:47 18.02.2021
2407 Clear 16 1020 41 10000 2.06 260 22:28 18.02.2021
2408 Clear 17 1020 39 10000 1.54 260 21:47 18.02.2021
2409 Clear 18 1020 39 10000 2.57 300 21:25 18.02.2021
2410 Clear 18 1020 39 10000 2.57 300 21:25 18.02.2021
2411 Clear 19 1019 34 10000 2.57 310 20:41 18.02.2021
2412 Clear 20 1019 30 10000 3.09 300 20:23 18.02.2021
2413 Clear 20 1019 30 10000 3.6 300 19:46 18.02.2021
2414 Clear 21 1019 28 10000 4.12 260 19:26 18.02.2021
2415 Clear 22 1018 26 10000 4.12 260 18:53 18.02.2021
2416 Clouds 22 1018 26 10000 3.6 280 18:29 18.02.2021
2417 Clouds 22 1018 26 10000 4.63 270 17:52 18.02.2021
2418 Clouds 22 1018 24 10000 4.12 280 17:25 18.02.2021
2419 Clouds 23 1018 23 10000 4.12 280 16:53 18.02.2021
2420 Clouds 23 1018 23 10000 4.12 280 16:35 18.02.2021
2421 Clouds 23 1018 21 10000 4.63 280 15:55 18.02.2021
2422 Clouds 23 1018 21 10000 4.12 300 15:36 18.02.2021
2423 Clouds 23 1018 21 10000 4.12 300 15:18 18.02.2021
2424 Clouds 23 1018 23 10000 4.63 290 14:42 18.02.2021
2425 Clear 22 1019 23 10000 4.12 300 14:23 18.02.2021
2426 Clear 22 1020 30 10000 3.6 320 13:44 18.02.2021
2427 Clear 22 1020 30 10000 3.6 320 13:18 18.02.2021
2428 Clear 22 1020 30 10000 2.57 270 12:42 18.02.2021
2429 Clear 21 1020 32 10000 2.06 0 12:21 18.02.2021
2430 Clear 20 1020 34 10000 0.51 0 11:46 18.02.2021
2431 Clear 20 1020 34 10000 0.51 0 11:25 18.02.2021
2432 Clear 17 1020 39 10000 1.54 150 10:44 18.02.2021
2433 Clear 15 1020 41 10000 1.54 170 10:25 18.02.2021
2434 Clear 13 1020 50 10000 1.03 0 09:40 18.02.2021
2435 Clear 13 1020 50 10000 1.03 0 09:21 18.02.2021
2436 Clear 9 1019 66 10000 1.03 0 08:40 18.02.2021
2437 Clear 9 1019 66 10000 1.03 0 08:21 18.02.2021
2438 Clear 10 1019 66 10000 2.57 90 07:32 18.02.2021
2439 Clear 9 1019 66 10000 1.03 0 06:41 18.02.2021
2440 Clear 12 1019 50 10000 1.03 0 02:29 18.02.2021
2441 Clear 14 1021 44 10000 0.51 0 23:51 17.02.2021
2442 Clear 15 1021 41 10000 1.03 0 23:21 17.02.2021
2443 Clear 16 1021 39 10000 2.06 230 22:49 17.02.2021
2444 Clear 16 1021 39 10000 1.54 240 22:25 17.02.2021
2445 Clear 17 1021 36 10000 1.54 240 21:50 17.02.2021
2446 Clear 18 1020 32 10000 2.06 300 21:22 17.02.2021
2447 Clear 19 1020 30 10000 3.09 300 20:47 17.02.2021
2448 Clouds 19 1020 30 10000 4.12 300 20:29 17.02.2021
2449 Clouds 20 1020 28 10000 4.63 300 19:49 17.02.2021
2450 Clouds 21 1019 30 10000 5.66 310 19:30 17.02.2021
2451 Clouds 22 1019 33 10000 5.66 300 18:45 17.02.2021
2452 Clouds 23 1019 33 10000 6.69 290 18:25 17.02.2021
2453 Clear 24 1019 33 10000 7.2 270 17:41 17.02.2021
2454 Clear 24 1019 33 10000 7.2 270 17:41 17.02.2021
2455 Clear 24 1019 31 10000 4.12 300 17:19 17.02.2021
2456 Clear 25 1019 29 10000 5.14 270 16:46 17.02.2021
2457 Clear 24 1019 31 10000 5.66 280 16:25 17.02.2021
2458 Clear 25 1019 29 10000 3.6 300 15:44 17.02.2021
2459 Clear 24 1019 33 10000 4.12 300 15:25 17.02.2021
2460 Clear 24 1019 33 10000 3.6 310 14:48 17.02.2021
2461 Clear 24 1020 35 10000 3.09 0 14:29 17.02.2021
2462 Clear 23 1020 38 10000 3.09 260 13:48 17.02.2021
2463 Clear 23 1020 40 10000 3.09 290 13:29 17.02.2021
2464 Clear 22 1021 43 10000 2.06 300 12:47 17.02.2021
2465 Clear 21 1021 40 10000 1.54 240 12:24 17.02.2021
2466 Clear 21 1021 40 10000 1.03 0 11:44 17.02.2021
2467 Clear 20 1022 45 10000 0.51 0 11:22 17.02.2021
2468 Clear 18 1022 48 10000 1.54 220 10:49 17.02.2021
2469 Clear 18 1022 48 10000 1.54 220 10:31 17.02.2021
2470 Clear 14 1022 67 10000 1.03 0 09:52 17.02.2021
2471 Clear 12 1022 71 10000 1.03 0 09:29 17.02.2021
2472 Clear 10 1022 76 10000 1.54 80 08:45 17.02.2021
2473 Clear 10 1021 76 10000 1.54 90 08:22 17.02.2021
2474 Clear 10 1021 76 10000 1.54 110 07:34 17.02.2021
2475 Clear 11 1021 82 10000 1.03 0 06:35 17.02.2021
2476 Clear 12 1022 71 10000 2.06 240 03:40 17.02.2021
2477 Clear 13 1023 67 10000 2.06 240 02:30 17.02.2021
2478 Clear 15 1023 63 10000 2.06 240 01:30 17.02.2021
2479 Clear 15 1024 58 10000 2.06 250 00:24 17.02.2021
2480 Clear 17 1024 55 10000 2.57 230 23:38 16.02.2021
2481 Clear 18 1024 55 10000 1.54 30 22:45 16.02.2021
2482 Clear 18 1024 52 10000 1.54 0 22:26 16.02.2021
2483 Clear 20 1023 49 10000 3.09 350 21:58 16.02.2021
2484 Clear 20 1023 45 10000 3.09 320 21:39 16.02.2021
2485 Clear 20 1023 45 10000 3.09 320 21:20 16.02.2021
2486 Clear 21 1023 40 10000 3.09 340 20:46 16.02.2021
2487 Clear 22 1023 37 10000 3.6 320 20:24 16.02.2021
2488 Clear 22 1023 35 10000 3.09 270 19:47 16.02.2021
2489 Clear 23 1023 33 10000 4.12 270 19:28 16.02.2021
2490 Clear 23 1023 33 10000 4.12 270 19:28 16.02.2021
2491 Clear 25 1022 31 10000 1.54 260 18:47 16.02.2021
2492 Clear 25 1023 29 10000 1.54 60 18:23 16.02.2021
2493 Clear 25 1023 29 10000 2.57 350 17:53 16.02.2021
2494 Clear 26 1023 29 10000 1.54 0 17:27 16.02.2021
2495 Clear 25 1023 29 10000 1.03 0 16:52 16.02.2021
2496 Clear 25 1024 29 10000 1.03 0 16:30 16.02.2021
2497 Clear 25 1024 29 10000 1.03 0 16:30 16.02.2021
2498 Clear 25 1024 27 10000 2.06 0 15:57 16.02.2021
2499 Clear 24 1024 29 10000 2.06 0 15:36 16.02.2021
2500 Clear 24 1024 29 10000 2.06 0 15:18 16.02.2021
2501 Clear 24 1025 31 10000 1.54 0 14:39 16.02.2021
2502 Clear 24 1025 31 10000 1.54 0 14:21 16.02.2021
2503 Clear 23 1026 31 10000 1.54 0 13:44 16.02.2021
2504 Clear 23 1027 33 10000 1.03 0 12:59 16.02.2021
2505 Clear 22 1027 33 10000 0.51 0 12:40 16.02.2021
2506 Clear 22 1027 33 10000 0.51 0 12:19 16.02.2021
2507 Clear 21 1027 35 10000 0.51 0 11:40 16.02.2021
2508 Clear 21 1027 35 10000 0.51 0 11:20 16.02.2021
2509 Clear 19 1027 39 10000 0.51 0 10:46 16.02.2021
2510 Clear 16 1027 44 10000 1.54 160 10:27 16.02.2021
2511 Clear 14 1026 51 10000 1.54 160 09:53 16.02.2021
2512 Clear 11 1026 66 10000 1.54 80 09:26 16.02.2021
2513 Clear 9 1026 71 10000 2.57 100 08:51 16.02.2021
2514 Clear 9 1025 66 10000 1.54 100 08:28 16.02.2021
2515 Clear 11 1025 58 10000 0.51 0 07:45 16.02.2021
2516 Clear 12 1025 54 10000 0.51 0 06:51 16.02.2021
2517 Clear 14 1027 47 10000 1.54 170 02:40 16.02.2021
2518 Clear 16 1028 41 10000 1.54 240 23:55 15.02.2021
2519 Clear 16 1028 41 10000 2.06 250 23:29 15.02.2021
2520 Clear 18 1028 39 10000 3.09 230 22:50 15.02.2021
2521 Clear 18 1028 39 10000 3.6 240 22:28 15.02.2021
2522 Clear 18 1028 39 10000 2.06 240 21:47 15.02.2021
2523 Clear 19 1027 37 10000 2.06 260 21:24 15.02.2021
2524 Clouds 20 1026 34 10000 3.09 310 20:55 15.02.2021
2525 Clouds 22 1026 33 10000 3.6 310 20:37 15.02.2021
2526 Clouds 23 1025 31 10000 3.6 330 19:51 15.02.2021
2527 Clear 24 1024 29 10000 4.63 340 19:29 15.02.2021
2528 Clear 25 1024 29 10000 4.63 340 18:58 15.02.2021
2529 Clear 26 1024 29 10000 5.14 340 18:29 15.02.2021
2530 Clear 27 1023 29 10000 5.14 340 17:58 15.02.2021
2531 Clear 28 1023 24 10000 2.57 320 17:40 15.02.2021
2532 Clear 28 1023 24 10000 2.57 320 17:21 15.02.2021
2533 Clear 29 1023 21 10000 1.54 0 16:45 15.02.2021
2534 Clear 28 1023 23 10000 2.57 320 16:22 15.02.2021
2535 Clear 27 1024 26 10000 3.09 300 15:44 15.02.2021
2536 Clear 27 1024 26 10000 3.09 300 15:19 15.02.2021
2537 Clear 27 1024 26 10000 3.6 300 14:48 15.02.2021
2538 Clear 26 1024 29 10000 3.09 300 14:21 15.02.2021
2539 Clear 26 1025 29 10000 2.57 310 13:49 15.02.2021
2540 Clear 25 1025 31 10000 2.57 320 13:22 15.02.2021
2541 Clear 24 1025 33 10000 2.57 310 12:51 15.02.2021
2542 Clear 24 1025 33 10000 1.54 330 12:27 15.02.2021
2543 Clear 23 1025 35 10000 1.03 0 11:53 15.02.2021
2544 Clear 22 1025 37 10000 0.51 0 11:26 15.02.2021
2545 Clear 21 1025 40 10000 0.51 0 10:55 15.02.2021
2546 Clear 20 1025 42 10000 0.62 224 10:36 15.02.2021
2547 Clear 20 1025 42 10000 0.87 174 10:18 15.02.2021
2548 Clear 16 1024 51 10000 0.51 0 09:47 15.02.2021
2549 Clear 13 1024 62 10000 2.06 100 09:25 15.02.2021
2550 Clear 11 1023 66 10000 2.06 50 08:22 15.02.2021
2551 Clear 11 1023 66 10000 2.06 80 07:20 15.02.2021
2552 Clear 11 1023 66 10000 2.57 90 06:41 15.02.2021
2553 Clear 13 1023 62 10000 1.54 90 03:33 15.02.2021
2554 Clear 15 1024 55 10000 2.06 100 02:21 15.02.2021
2555 Clear 18 1024 48 10000 0.51 0 00:19 15.02.2021
2556 Clear 20 1024 42 10000 2.06 210 23:25 14.02.2021
2557 Clear 18 1024 45 10000 2.06 250 22:46 14.02.2021
2558 Clear 18 1023 45 10000 2.06 250 22:27 14.02.2021
2559 Clear 19 1023 42 10000 2.57 250 21:53 14.02.2021
2560 Clouds 20 1023 40 10000 2.57 250 21:31 14.02.2021
2561 Clouds 21 1022 37 10000 2.57 260 20:53 14.02.2021
2562 Clouds 22 1022 35 10000 2.57 250 20:30 14.02.2021
2563 Clouds 24 1022 31 10000 3.09 250 19:50 14.02.2021
2564 Clouds 26 1022 27 10000 3.6 270 19:31 14.02.2021
2565 Clouds 27 1021 26 10000 3.09 270 18:42 14.02.2021
2566 Clouds 27 1021 28 10000 2.06 300 18:22 14.02.2021
2567 Clouds 28 1021 26 10000 2.06 310 17:42 14.02.2021
2568 Clouds 28 1021 24 10000 2.06 0 17:19 14.02.2021
2569 Clouds 27 1021 28 10000 2.57 310 16:40 14.02.2021
2570 Clouds 27 1021 28 10000 2.57 310 16:18 14.02.2021
2571 Clouds 27 1022 32 10000 1.54 0 15:44 14.02.2021
2572 Clouds 25 1022 38 10000 2.57 340 14:58 14.02.2021
2573 Clouds 25 1022 38 10000 2.06 350 14:30 14.02.2021
2574 Clear 24 1022 41 10000 3.09 340 13:56 14.02.2021
2575 Clear 24 1022 41 10000 3.09 340 13:31 14.02.2021
2576 Clear 22 1023 43 9000 1.54 350 12:49 14.02.2021
2577 Clear 21 1023 46 9000 2.06 320 12:22 14.02.2021
2578 Clear 20 1023 49 9000 2.06 360 11:51 14.02.2021
2579 Clear 20 1023 49 9000 0.51 0 11:25 14.02.2021
2580 Clear 18 1023 55 8000 1.03 0 10:49 14.02.2021
2581 Clear 16 1022 63 8000 0.51 0 09:57 14.02.2021
2582 Clouds 14 1022 67 8000 2.06 180 09:39 14.02.2021
2583 Clouds 14 1022 67 8000 2.06 180 09:21 14.02.2021
2584 Clouds 11 1021 76 8000 0.51 0 08:43 14.02.2021
2585 Clouds 11 1021 82 8000 1.54 70 07:57 14.02.2021
2586 Clouds 12 1020 76 8000 1.54 110 06:52 14.02.2021
2587 Clouds 12 1020 76 8000 1.54 80 05:43 14.02.2021
2588 Clouds 13 1021 71 8000 4.12 110 03:32 14.02.2021
2589 Clouds 14 1021 67 8000 3.09 80 02:29 14.02.2021
2590 Clouds 15 1021 67 8000 2.57 90 00:48 14.02.2021
2591 Clouds 16 1021 67 10000 3.6 110 00:29 14.02.2021
2592 Clouds 16 1022 67 10000 2.06 90 23:42 13.02.2021
2593 Clouds 16 1022 67 10000 2.06 90 23:21 13.02.2021
2594 Clouds 17 1022 63 10000 3.09 40 22:44 13.02.2021
2595 Clouds 18 1022 55 10000 3.6 30 22:20 13.02.2021
2596 Clouds 19 1021 45 10000 3.6 30 21:43 13.02.2021
2597 Clouds 19 1021 42 10000 2.57 70 21:22 13.02.2021
2598 Clouds 21 1021 35 10000 3.09 40 20:30 13.02.2021
2599 Clouds 22 1021 33 10000 3.09 50 19:57 13.02.2021
2600 Clouds 22 1021 33 10000 3.09 50 19:38 13.02.2021
2601 Clouds 23 1020 33 10000 4.12 30 19:18 13.02.2021
2602 Clouds 24 1020 35 10000 4.12 20 18:44 13.02.2021
2603 Clouds 25 1020 36 10000 3.09 30 18:22 13.02.2021
2604 Clouds 26 1020 34 10000 2.57 350 17:42 13.02.2021
2605 Clouds 25 1020 33 10000 3.09 50 17:22 13.02.2021
2606 Clouds 25 1020 31 10000 3.09 60 16:42 13.02.2021
2607 Clouds 25 1020 31 10000 3.6 50 16:21 13.02.2021
2608 Clouds 24 1020 41 10000 2.57 50 15:39 13.02.2021
2609 Clouds 23 1021 43 10000 3.6 50 14:57 13.02.2021
2610 Clouds 22 1021 49 10000 2.57 50 14:32 13.02.2021
2611 Clouds 22 1022 49 10000 2.06 0 13:48 13.02.2021
2612 Clouds 21 1022 52 10000 2.57 60 13:24 13.02.2021
2613 Clouds 19 1023 59 10000 2.06 80 12:46 13.02.2021
2614 Clouds 19 1023 59 10000 2.06 80 12:18 13.02.2021
2615 Clear 18 1023 63 10000 2.06 100 11:45 13.02.2021
2616 Clear 16 1023 67 10000 2.06 40 11:19 13.02.2021
2617 Clear 15 1023 72 10000 2.57 70 10:46 13.02.2021
2618 Clear 14 1023 77 10000 3.09 80 10:25 13.02.2021
2619 Clear 13 1023 76 10000 3.09 110 09:56 13.02.2021
2620 Clear 11 1022 82 10000 3.09 100 09:30 13.02.2021
2621 Clear 10 1022 87 10000 3.09 80 08:56 13.02.2021
2622 Clear 9 1022 87 10000 2.06 80 08:35 13.02.2021
2623 Clear 10 1022 81 10000 2.06 100 07:52 13.02.2021
2624 Clear 11 1021 82 10000 2.06 80 06:39 13.02.2021
2625 Clear 11 1021 82 10000 2.06 100 05:26 13.02.2021
2626 Clear 12 1022 76 10000 2.06 70 03:58 13.02.2021
2627 Clear 13 1022 71 10000 1.54 60 01:43 13.02.2021
2628 Clear 15 1022 63 10000 2.06 30 00:36 13.02.2021
2629 Clear 15 1022 63 10000 3.09 100 23:54 12.02.2021
2630 Clear 15 1023 58 10000 2.06 70 23:24 12.02.2021
2631 Clear 15 1022 63 10000 2.57 100 22:42 12.02.2021
2632 Clear 16 1022 55 10000 2.06 80 22:21 12.02.2021
2633 Clear 17 1022 51 10000 2.06 80 21:45 12.02.2021
2634 Clear 17 1022 55 10000 3.09 100 21:26 12.02.2021
2635 Clear 19 1022 45 10000 2.57 80 20:46 12.02.2021
2636 Clouds 20 1022 45 8000 3.6 50 20:28 12.02.2021
2637 Clouds 20 1022 42 8000 2.57 60 19:57 12.02.2021
2638 Clouds 20 1022 42 8000 2.57 60 19:57 12.02.2021
2639 Clouds 20 1022 42 8000 2.57 60 19:37 12.02.2021
2640 Clouds 20 1022 42 8000 2.57 60 19:37 12.02.2021
2641 Clouds 23 1021 38 8000 3.6 40 18:57 12.02.2021
2642 Clouds 23 1021 38 8000 4.12 30 18:30 12.02.2021
2643 Clouds 23 1021 33 8000 3.6 50 17:44 12.02.2021
2644 Clouds 24 1021 33 8000 3.6 40 17:21 12.02.2021
2645 Clouds 24 1021 46 8000 1.03 0 16:28 12.02.2021
2646 Clouds 23 1021 53 8000 2.06 350 15:46 12.02.2021
2647 Clear 22 1022 53 8000 2.06 360 15:21 12.02.2021
2648 Clear 21 1022 60 8000 2.06 0 14:42 12.02.2021
2649 Clear 20 1022 64 8000 2.57 360 14:23 12.02.2021
2650 Clear 19 1023 68 8000 2.06 30 13:40 12.02.2021
2651 Clouds 16 1023 82 8000 2.06 70 12:56 12.02.2021
2652 Clouds 15 1024 88 6000 1.54 0 12:37 12.02.2021
2653 Clouds 15 1024 88 6000 1.54 0 12:18 12.02.2021
2654 Clouds 13 1024 94 5000 1.54 100 11:38 12.02.2021
2655 Clouds 13 1024 94 5000 1.54 100 11:19 12.02.2021
2656 Mist 13 1023 94 4000 2.57 110 10:41 12.02.2021
2657 Mist 12 1023 100 2000 2.06 110 09:49 12.02.2021
2658 Fog 12 1023 100 400 2.57 60 09:25 12.02.2021
2659 Fog 13 1023 94 400 2.06 50 08:49 12.02.2021
2660 Fog 13 1023 94 400 2.06 40 08:28 12.02.2021
2661 Fog 12 1023 100 400 2.06 70 07:53 12.02.2021
2662 Fog 12 1022 100 400 1.54 80 07:31 12.02.2021
2663 Mist 13 1022 94 2000 1.54 30 06:55 12.02.2021
2664 Mist 14 1022 94 4000 1.54 50 05:43 12.02.2021
2665 Mist 14 1022 94 4000 2.57 290 04:30 12.02.2021
2666 Clouds 16 1023 82 5000 1.54 170 01:28 12.02.2021
2667 Clouds 15 1023 88 5000 2.57 220 23:40 11.02.2021
2668 Clouds 15 1023 88 5000 2.57 220 23:22 11.02.2021
2669 Clear 16 1023 82 7000 2.57 230 22:46 11.02.2021
2670 Clear 16 1023 77 10000 2.06 240 22:24 11.02.2021
2671 Clear 17 1022 67 10000 2.06 300 21:57 11.02.2021
2672 Clear 19 1022 59 10000 2.57 330 21:36 11.02.2021
2673 Clear 19 1022 59 10000 2.57 330 21:18 11.02.2021
2674 Clear 19 1021 59 10000 3.6 320 20:41 11.02.2021
2675 Clear 19 1021 59 10000 3.6 270 20:21 11.02.2021
2676 Clouds 21 1020 56 10000 4.12 270 19:47 11.02.2021
2677 Clouds 22 1020 53 10000 4.12 260 19:28 11.02.2021
2678 Clouds 23 1020 49 10000 3.6 270 18:49 11.02.2021
2679 Clouds 23 1019 49 10000 2.57 270 18:25 11.02.2021
2680 Clear 24 1019 46 10000 1.54 290 17:52 11.02.2021
2681 Clear 24 1019 46 10000 2.06 260 17:22 11.02.2021
2682 Clear 23 1019 49 10000 3.09 270 16:53 11.02.2021
2683 Clear 23 1019 53 10000 3.6 260 16:35 11.02.2021
2684 Clear 23 1019 53 10000 3.6 260 15:59 11.02.2021
2685 Clear 22 1020 53 10000 3.09 300 15:40 11.02.2021
2686 Clear 22 1020 53 10000 3.09 300 15:40 11.02.2021
2687 Clear 22 1020 53 10000 3.09 300 15:20 11.02.2021
2688 Clear 22 1020 53 10000 2.57 320 14:40 11.02.2021
2689 Clear 22 1020 53 10000 2.57 320 14:21 11.02.2021
2690 Clear 21 1020 52 10000 2.06 310 13:38 11.02.2021
2691 Clear 21 1020 56 8000 1.03 0 13:18 11.02.2021
2692 Clear 19 1020 59 8000 1.54 0 12:44 11.02.2021
2693 Clear 19 1021 59 8000 1.03 0 12:21 11.02.2021
2694 Clear 18 1021 63 8000 1.54 30 11:41 11.02.2021
2695 Clear 18 1021 63 8000 0.51 0 11:20 11.02.2021
2696 Clear 16 1021 72 8000 0.51 0 10:42 11.02.2021
2697 Clear 14 1020 82 8000 1.03 0 10:23 11.02.2021
2698 Clear 13 1020 82 8000 1.54 90 09:45 11.02.2021
2699 Clear 11 1020 87 8000 0.51 0 09:19 11.02.2021
2700 Clear 9 1020 87 8000 1.54 90 08:50 11.02.2021
2701 Clear 10 1020 87 8000 0.51 0 07:58 11.02.2021
2702 Clear 10 1020 87 10000 1.03 0 06:51 11.02.2021
2703 Clear 10 1020 87 10000 0.51 0 06:32 11.02.2021
2704 Clear 12 1020 87 10000 2.06 40 03:54 11.02.2021
2705 Clear 13 1020 82 10000 2.06 80 02:28 11.02.2021
2706 Clear 14 1021 82 10000 2.57 110 00:46 11.02.2021
2707 Clear 14 1021 82 10000 1.03 0 00:18 11.02.2021
2708 Clear 14 1021 82 10000 2.06 60 23:35 10.02.2021
2709 Clear 15 1021 72 10000 2.06 80 22:49 10.02.2021
2710 Clear 16 1021 72 10000 2.57 80 22:26 10.02.2021
2711 Clear 17 1021 67 10000 2.57 80 21:55 10.02.2021
2712 Clear 17 1021 67 10000 2.06 70 21:37 10.02.2021
2713 Clear 17 1021 67 10000 2.06 70 21:18 10.02.2021
2714 Clear 19 1020 59 10000 3.6 20 20:39 10.02.2021
2715 Clear 19 1020 59 10000 3.6 20 20:20 10.02.2021
2716 Clear 19 1020 63 10000 4.12 20 19:43 10.02.2021
2717 Clear 20 1019 60 10000 3.6 40 19:22 10.02.2021
2718 Clear 21 1019 56 10000 4.12 20 18:40 10.02.2021
2719 Clear 22 1019 49 10000 1.54 0 18:21 10.02.2021
2720 Clear 22 1019 46 10000 2.57 20 17:50 10.02.2021
2721 Clear 23 1019 43 10000 1.54 0 17:22 10.02.2021
2722 Clouds 22 1019 43 8000 2.06 30 16:50 10.02.2021
2723 Clouds 22 1019 49 8000 2.06 360 16:29 10.02.2021
2724 Clouds 22 1019 49 8000 2.06 0 15:45 10.02.2021
2725 Clouds 21 1020 52 8000 2.06 0 15:22 10.02.2021
2726 Clouds 20 1020 56 8000 2.06 40 14:42 10.02.2021
2727 Clouds 20 1021 60 8000 2.06 0 14:19 10.02.2021
2728 Clouds 19 1021 59 8000 2.06 40 13:50 10.02.2021
2729 Clouds 19 1022 63 8000 1.54 0 13:27 10.02.2021
2730 Clouds 17 1022 72 8000 1.54 70 12:46 10.02.2021
2731 Clouds 16 1022 77 8000 2.06 40 12:28 10.02.2021
2732 Clouds 15 1021 82 7000 2.06 40 11:47 10.02.2021
2733 Clouds 15 1021 82 7000 2.06 40 11:47 10.02.2021
2734 Clouds 15 1021 82 7000 3.09 60 11:28 10.02.2021
2735 Clouds 15 1021 82 7000 2.06 90 10:47 10.02.2021
2736 Clouds 15 1021 82 7000 2.06 100 10:19 10.02.2021
2737 Clouds 14 1021 88 7000 2.57 80 09:43 10.02.2021
2738 Clouds 13 1021 94 7000 1.03 0 09:21 10.02.2021
2739 Clouds 13 1020 94 7000 0.51 0 08:50 10.02.2021
2740 Clouds 13 1020 94 10000 1.54 20 07:59 10.02.2021
2741 Clouds 13 1020 94 10000 0.51 0 07:18 10.02.2021
2742 Clouds 13 1019 94 8000 1.54 270 04:47 10.02.2021
2743 Clouds 13 1021 94 8000 2.06 230 00:51 10.02.2021
2744 Clouds 14 1021 82 8000 1.54 290 23:39 09.02.2021
2745 Clouds 14 1021 82 8000 2.57 280 23:19 09.02.2021
2746 Clouds 14 1020 82 8000 1.54 260 22:25 09.02.2021
2747 Clouds 14 1020 82 8000 2.06 280 21:58 09.02.2021
2748 Clouds 16 1020 72 8000 1.03 0 21:40 09.02.2021
2749 Clouds 16 1020 72 8000 1.03 0 21:18 09.02.2021
2750 Clouds 16 1020 72 8000 1.54 300 20:41 09.02.2021
2751 Clouds 17 1019 67 8000 3.09 320 20:22 09.02.2021
2752 Clouds 17 1019 67 8000 3.09 320 19:39 09.02.2021
2753 Clouds 18 1019 63 8000 3.09 310 19:20 09.02.2021
2754 Clouds 18 1019 63 8000 4.63 320 18:41 09.02.2021
2755 Clouds 19 1019 59 8000 4.12 290 18:20 09.02.2021
2756 Clouds 19 1018 59 8000 4.12 290 17:42 09.02.2021
2757 Clouds 19 1018 55 8000 3.09 320 17:23 09.02.2021
2758 Clouds 20 1018 56 8000 3.09 250 16:49 09.02.2021
2759 Clouds 20 1018 56 8000 3.6 300 16:19 09.02.2021
2760 Clouds 19 1019 59 8000 3.09 300 15:50 09.02.2021
2761 Clouds 19 1019 59 8000 3.09 300 15:27 09.02.2021
2762 Clouds 18 1019 59 8000 4.12 280 14:56 09.02.2021
2763 Clouds 20 1019 56 8000 4.12 280 14:28 09.02.2021
2764 Clouds 18 1020 63 8000 4.12 270 13:54 09.02.2021
2765 Clouds 17 1020 67 8000 1.03 0 13:29 09.02.2021
2766 Clouds 18 1021 68 8000 1.03 0 12:57 09.02.2021
2767 Clouds 17 1021 72 8000 0.51 0 12:38 09.02.2021
2768 Clouds 17 1021 72 8000 0.51 0 12:20 09.02.2021
2769 Clouds 15 1021 82 8000 1.03 0 11:41 09.02.2021
2770 Clouds 14 1021 88 7000 1.03 0 11:21 09.02.2021
2771 Clouds 13 1021 88 7000 1.03 0 10:50 09.02.2021
2772 Clouds 13 1021 82 7000 0.51 0 10:19 09.02.2021
2773 Clouds 10 1020 93 7000 1.03 0 09:44 09.02.2021
2774 Clouds 10 1020 93 7000 1.03 0 09:25 09.02.2021
2775 Clouds 8 1020 100 7000 1.03 0 08:51 09.02.2021
2776 Clouds 8 1019 93 8000 0.51 0 08:27 09.02.2021
2777 Clouds 9 1018 100 8000 0.51 0 07:29 09.02.2021
2778 Clouds 11 1018 93 10000 1.03 0 04:58 09.02.2021
2779 Clouds 12 1019 87 10000 2.06 200 03:42 09.02.2021
2780 Clouds 12 1019 87 10000 2.57 230 01:20 09.02.2021
2781 Clouds 12 1020 87 10000 1.54 260 23:58 08.02.2021
2782 Clouds 13 1020 82 10000 3.09 240 23:22 08.02.2021
2783 Clouds 14 1020 77 10000 2.06 220 22:46 08.02.2021
2784 Clouds 14 1020 77 10000 2.06 220 22:26 08.02.2021
2785 Clouds 14 1019 77 10000 2.06 260 21:58 08.02.2021
2786 Clouds 14 1019 77 10000 1.54 280 21:38 08.02.2021
2787 Clouds 14 1019 77 10000 1.54 280 21:18 08.02.2021
2788 Clouds 14 1019 77 10000 1.54 280 20:42 08.02.2021
2789 Clouds 16 1019 67 10000 2.06 290 20:22 08.02.2021
2790 Clouds 16 1019 67 10000 2.57 300 19:48 08.02.2021
2791 Clouds 17 1019 63 10000 2.57 290 19:26 08.02.2021
2792 Clouds 18 1019 59 10000 2.57 270 18:49 08.02.2021
2793 Clouds 18 1019 59 10000 1.54 250 18:25 08.02.2021
2794 Clouds 18 1019 59 10000 1.54 250 17:47 08.02.2021
2795 Clouds 18 1018 59 10000 3.6 290 17:26 08.02.2021
2796 Clouds 18 1018 59 10000 4.12 280 16:47 08.02.2021
2797 Clouds 18 1018 59 10000 4.63 280 16:28 08.02.2021
2798 Clouds 18 1018 59 10000 4.12 280 15:56 08.02.2021
2799 Clouds 18 1019 59 10000 4.63 280 15:37 08.02.2021
2800 Clouds 18 1019 59 10000 4.63 280 15:18 08.02.2021
2801 Clouds 17 1019 59 10000 2.57 310 14:42 08.02.2021
2802 Clouds 17 1019 59 10000 2.57 310 14:24 08.02.2021
2803 Clouds 16 1020 63 8000 3.09 260 13:45 08.02.2021
2804 Clouds 16 1020 63 8000 3.09 260 13:25 08.02.2021
2805 Clouds 15 1021 67 8000 2.57 0 12:39 08.02.2021
2806 Clouds 14 1021 67 8000 2.06 180 11:58 08.02.2021
2807 Clouds 13 1021 76 8000 1.54 170 11:35 08.02.2021
2808 Clouds 14 1021 72 8000 0.51 0 10:46 08.02.2021
2809 Clouds 12 1020 76 8000 1.03 0 10:26 08.02.2021
2810 Clouds 12 1020 76 8000 1.03 0 10:26 08.02.2021
2811 Clouds 11 1020 82 8000 1.03 0 09:55 08.02.2021
2812 Clouds 9 1020 87 8000 2.57 190 09:36 08.02.2021
2813 Clouds 8 1020 87 8000 3.6 170 08:54 08.02.2021
2814 Clouds 8 1020 93 8000 3.09 190 08:24 08.02.2021
2815 Clouds 8 1020 93 8000 2.57 170 07:38 08.02.2021
2816 Clouds 8 1019 100 8000 2.57 210 06:33 08.02.2021
2817 Clouds 8 1019 93 8000 2.06 250 04:54 08.02.2021
2818 Clouds 9 1020 93 8000 3.6 230 02:26 08.02.2021
2819 Clouds 9 1020 87 8000 2.06 250 00:24 08.02.2021
2820 Clouds 11 1020 82 8000 2.06 230 23:53 07.02.2021
2821 Clouds 10 1020 81 8000 1.03 0 23:28 07.02.2021
2822 Clouds 10 1020 81 8000 1.54 230 22:56 07.02.2021
2823 Clouds 10 1020 76 10000 1.54 250 22:37 07.02.2021
2824 Clouds 10 1020 76 10000 1.54 250 22:19 07.02.2021
2825 Clouds 10 1020 81 10000 2.06 250 21:49 07.02.2021
2826 Clouds 12 1020 66 10000 2.06 260 21:22 07.02.2021
2827 Clouds 13 1020 62 10000 2.06 310 20:49 07.02.2021
2828 Clouds 13 1019 62 10000 2.57 290 20:27 07.02.2021
2829 Clouds 14 1019 58 10000 2.57 290 19:45 07.02.2021
2830 Clouds 14 1019 58 10000 3.6 270 19:27 07.02.2021
2831 Clouds 16 1019 48 10000 3.09 310 18:44 07.02.2021
2832 Clouds 16 1019 48 10000 2.06 0 18:26 07.02.2021
2833 Clouds 16 1019 48 10000 3.09 300 17:45 07.02.2021
2834 Clouds 16 1018 48 10000 3.6 270 17:23 07.02.2021
2835 Clouds 17 1018 48 10000 3.09 280 16:59 07.02.2021
2836 Clouds 17 1018 48 10000 3.09 280 16:41 07.02.2021
2837 Clouds 16 1018 51 10000 3.09 310 16:20 07.02.2021
2838 Clouds 16 1018 51 10000 3.09 0 15:44 07.02.2021
2839 Clouds 16 1018 51 10000 1.54 0 15:21 07.02.2021
2840 Clouds 16 1019 55 10000 2.57 350 14:44 07.02.2021
2841 Clouds 15 1019 55 10000 2.57 320 14:26 07.02.2021
2842 Clouds 15 1020 58 10000 2.57 340 13:44 07.02.2021
2843 Clouds 14 1020 62 10000 3.09 0 13:26 07.02.2021
2844 Clouds 14 1020 62 10000 1.54 0 12:40 07.02.2021
2845 Clouds 14 1020 62 10000 1.54 0 12:21 07.02.2021
2846 Clouds 14 1020 62 10000 1.03 0 11:42 07.02.2021
2847 Clouds 12 1020 71 10000 2.57 230 11:24 07.02.2021
2848 Clouds 11 1020 76 10000 1.54 270 10:30 07.02.2021
2849 Clouds 10 1019 81 10000 1.03 0 09:57 07.02.2021
2850 Clouds 9 1019 87 8000 1.03 0 09:38 07.02.2021
2851 Clouds 9 1019 87 8000 1.03 0 09:18 07.02.2021
2852 Clouds 9 1018 87 8000 2.57 220 07:58 07.02.2021
2853 Clouds 9 1017 87 8000 3.09 210 06:33 07.02.2021
2854 Clouds 8 1017 87 10000 3.6 240 04:45 07.02.2021
2855 Clouds 8 1017 87 10000 3.09 240 02:52 07.02.2021
2856 Clouds 9 1016 87 8000 3.6 230 00:39 07.02.2021
2857 Clouds 9 1016 87 8000 3.09 240 23:58 06.02.2021
2858 Clouds 9 1016 87 8000 4.12 230 23:19 06.02.2021
2859 Clouds 9 1015 87 8000 3.6 240 22:25 06.02.2021
2860 Clouds 9 1014 87 8000 3.6 230 21:38 06.02.2021
2861 Clouds 9 1014 87 8000 3.6 230 21:20 06.02.2021
2862 Clouds 10 1014 81 8000 4.12 240 20:44 06.02.2021
2863 Clouds 10 1014 81 8000 4.12 240 20:23 06.02.2021
2864 Clouds 10 1013 81 8000 3.6 250 19:51 06.02.2021
2865 Clouds 10 1013 81 8000 4.63 270 19:26 06.02.2021
2866 Clouds 11 1013 82 8000 5.66 280 18:46 06.02.2021
2867 Clouds 11 1012 82 8000 5.66 280 18:27 06.02.2021
2868 Clouds 11 1012 82 8000 4.63 310 17:41 06.02.2021
2869 Clouds 11 1011 82 4000 5.66 310 17:21 06.02.2021
2870 Clouds 13 1011 67 8000 5.14 290 16:57 06.02.2021
2871 Clouds 14 1011 67 8000 5.66 290 16:34 06.02.2021
2872 Clouds 14 1011 67 8000 5.66 290 16:34 06.02.2021
2873 Clouds 14 1011 67 8000 5.14 300 15:55 06.02.2021
2874 Clouds 13 1011 71 8000 5.14 290 15:36 06.02.2021
2875 Clouds 13 1011 71 8000 5.14 290 15:18 06.02.2021
2876 Clouds 13 1011 71 8000 4.12 280 14:43 06.02.2021
2877 Clouds 13 1011 71 8000 2.57 290 14:22 06.02.2021
2878 Clouds 13 1011 71 8000 3.09 290 13:47 06.02.2021
2879 Clouds 12 1012 82 8000 2.06 340 12:48 06.02.2021
2880 Clouds 12 1012 82 8000 1.54 350 12:20 06.02.2021
2881 Clouds 11 1012 87 8000 4.12 300 11:42 06.02.2021
2882 Clouds 12 1012 87 8000 3.6 220 11:20 06.02.2021
2883 Clouds 11 1011 87 8000 3.6 210 10:53 06.02.2021
2884 Clouds 10 1011 93 8000 3.6 220 10:28 06.02.2021
2885 Clouds 9 1011 93 8000 3.09 220 09:54 06.02.2021
2886 Clouds 9 1011 93 8000 3.09 230 09:36 06.02.2021
2887 Clouds 9 1011 93 8000 3.09 230 09:18 06.02.2021
2888 Clouds 9 1010 93 8000 2.57 270 08:29 06.02.2021
2889 Clouds 9 1010 93 8000 3.09 240 07:44 06.02.2021
2890 Clouds 9 1010 93 8000 2.06 280 05:42 06.02.2021
2891 Clouds 10 1010 87 5000 3.6 230 03:48 06.02.2021
2892 Clouds 9 1010 93 5000 4.12 280 01:33 06.02.2021
2893 Clouds 10 1010 87 10000 3.6 250 00:46 06.02.2021
2894 Clouds 10 1010 87 10000 4.63 250 00:19 06.02.2021
2895 Clouds 10 1010 87 10000 5.14 260 23:42 05.02.2021
2896 Clouds 10 1010 87 10000 5.14 280 23:24 05.02.2021
2897 Clouds 10 1009 87 10000 4.63 280 22:45 05.02.2021
2898 Clouds 11 1009 82 10000 5.14 290 22:18 05.02.2021
2899 Clouds 12 1008 76 10000 5.66 300 21:41 05.02.2021
2900 Clouds 12 1008 76 10000 5.66 300 21:23 05.02.2021
2901 Clouds 14 1007 54 10000 5.66 290 20:39 05.02.2021
2902 Clouds 14 1006 54 10000 5.66 280 19:50 05.02.2021
2903 Clouds 15 1006 51 10000 4.63 290 19:19 05.02.2021
2904 Clouds 16 1006 55 10000 4.12 270 18:45 05.02.2021
2905 Clouds 16 1005 55 10000 2.57 270 18:19 05.02.2021
2906 Clouds 16 1005 55 10000 1.54 0 17:43 05.02.2021
2907 Clouds 17 1005 51 10000 2.57 290 17:21 05.02.2021
2908 Clouds 17 1005 51 10000 2.57 290 17:21 05.02.2021
2909 Clouds 17 1005 51 10000 3.09 300 16:46 05.02.2021
2910 Clouds 17 1005 51 10000 4.12 280 16:23 05.02.2021
2911 Clouds 16 1005 55 8000 5.66 280 15:53 05.02.2021
2912 Clouds 17 1006 40 10000 0.66 356 15:26 05.02.2021
2913 Clouds 15 1006 58 8000 3.09 300 14:40 05.02.2021
2914 Clouds 15 1006 58 8000 3.09 300 14:22 05.02.2021
2915 Clouds 15 1006 58 8000 3.09 300 13:58 05.02.2021
2916 Clouds 15 1006 58 8000 3.09 300 13:35 05.02.2021
2917 Clouds 14 1006 62 8000 2.06 160 12:49 05.02.2021
2918 Clouds 15 1006 63 8000 1.54 0 12:27 05.02.2021
2919 Clouds 13 1007 71 8000 1.54 280 11:40 05.02.2021
2920 Clouds 13 1007 71 8000 1.54 280 11:21 05.02.2021
2921 Clouds 12 1007 76 8000 1.54 210 10:54 05.02.2021
2922 Clouds 11 1006 82 8000 1.03 0 10:27 05.02.2021
2923 Clouds 10 1006 87 8000 1.54 110 09:47 05.02.2021
2924 Clouds 10 1006 87 8000 1.54 130 09:27 05.02.2021
2925 Clouds 10 1005 87 8000 2.57 120 08:52 05.02.2021
2926 Clouds 10 1005 87 8000 2.57 130 08:20 05.02.2021
2927 Clouds 10 1005 87 8000 3.09 130 07:36 05.02.2021
2928 Clouds 10 1005 87 8000 2.06 130 06:49 05.02.2021
2929 Drizzle 9 1006 100 3000 2.06 270 05:37 05.02.2021
2930 Mist 11 1006 93 3000 5.66 280 02:52 05.02.2021
2931 Fog 11 1005 93 600 4.63 270 02:24 05.02.2021
2932 Clouds 12 1006 87 8000 2.06 260 00:40 05.02.2021
2933 Clouds 12 1006 87 8000 2.06 260 00:20 05.02.2021
2934 Clouds 13 1006 82 8000 2.06 280 23:55 04.02.2021
2935 Clouds 13 1007 82 8000 3.09 290 23:37 04.02.2021
2936 Clouds 13 1007 82 8000 3.09 290 23:19 04.02.2021
2937 Clouds 14 1007 77 8000 2.57 270 22:49 04.02.2021
2938 Clouds 14 1007 77 8000 3.09 290 22:25 04.02.2021
2939 Clouds 15 1007 72 8000 3.09 270 21:42 04.02.2021
2940 Clouds 15 1007 72 8000 3.09 270 21:19 04.02.2021
2941 Clouds 15 1007 72 8000 3.09 270 21:19 04.02.2021
2942 Clouds 14 1007 77 8000 2.57 260 20:46 04.02.2021
2943 Clouds 14 1007 77 8000 2.57 260 20:28 04.02.2021
2944 Clouds 15 1007 72 8000 2.57 260 19:43 04.02.2021
2945 Clouds 17 1006 63 8000 3.09 290 18:56 04.02.2021
2946 Clouds 18 1006 59 8000 4.12 250 18:25 04.02.2021
2947 Clouds 18 1006 59 8000 3.6 290 17:53 04.02.2021
2948 Clouds 18 1007 63 8000 3.09 270 17:26 04.02.2021
2949 Clouds 17 1007 63 8000 3.6 300 16:56 04.02.2021
2950 Clouds 17 1007 72 8000 3.09 300 16:38 04.02.2021
2951 Clouds 17 1007 72 8000 3.09 300 16:18 04.02.2021
2952 Clouds 17 1007 72 8000 3.09 300 16:18 04.02.2021
2953 Clouds 15 1008 82 5000 3.09 290 15:39 04.02.2021
2954 Clouds 15 1008 82 5000 3.09 290 15:20 04.02.2021
2955 Clouds 13 1009 88 5000 3.09 270 14:42 04.02.2021
2956 Clouds 13 1009 88 5000 3.09 270 14:20 04.02.2021
2957 Clouds 12 1009 94 5000 3.6 290 13:45 04.02.2021
2958 Clouds 11 1010 100 5000 2.06 300 13:24 04.02.2021
2959 Clouds 11 1011 100 5000 1.54 310 12:52 04.02.2021
2960 Mist 11 1011 93 3000 1.03 0 11:54 04.02.2021
2961 Mist 10 1011 100 1200 1.03 0 11:34 04.02.2021
2962 Fog 10 1011 100 600 2.57 270 10:58 04.02.2021
2963 Fog 11 1011 93 600 2.57 260 10:34 04.02.2021
2964 Fog 10 1011 100 300 3.6 250 09:45 04.02.2021
2965 Fog 10 1011 100 200 3.09 270 09:22 04.02.2021
2966 Fog 10 1011 100 200 3.6 290 08:51 04.02.2021
2967 Fog 10 1011 93 200 2.06 290 08:26 04.02.2021
2968 Fog 9 1011 100 400 2.57 290 07:56 04.02.2021
2969 Fog 9 1011 100 400 2.06 290 07:33 04.02.2021
2970 Mist 9 1011 93 3000 2.06 270 06:45 04.02.2021
2971 Mist 10 1011 93 3000 1.54 260 05:45 04.02.2021
2972 Clear 12 1013 82 6000 2.06 70 02:40 04.02.2021
2973 Clear 12 1013 82 6000 2.06 70 02:18 04.02.2021
2974 Clear 13 1015 82 8000 2.06 80 00:20 04.02.2021
2975 Clear 14 1015 77 8000 1.54 70 23:30 03.02.2021
2976 Clear 16 1016 72 8000 1.54 230 22:38 03.02.2021
2977 Clouds 16 1016 72 8000 1.54 230 22:20 03.02.2021
2978 Clouds 17 1016 72 8000 2.57 220 21:51 03.02.2021
2979 Clouds 17 1016 72 8000 3.09 220 21:24 03.02.2021
2980 Clouds 16 1016 77 8000 2.06 250 20:54 03.02.2021
2981 Clouds 17 1016 72 7000 2.06 250 20:35 03.02.2021
2982 Clouds 17 1016 72 7000 2.57 280 19:55 03.02.2021
2983 Clouds 18 1016 68 7000 4.63 270 19:27 03.02.2021
2984 Clouds 19 1016 63 6000 5.14 270 18:58 03.02.2021
2985 Clouds 21 1015 56 6000 3.6 280 18:38 03.02.2021
2986 Clouds 21 1015 56 6000 3.6 280 18:19 03.02.2021
2987 Clouds 21 1015 56 6000 3.09 290 17:46 03.02.2021
2988 Clouds 22 1015 53 6000 3.09 300 17:26 03.02.2021
2989 Clouds 21 1015 60 6000 2.57 310 16:43 03.02.2021
2990 Clouds 22 1016 53 6000 2.06 330 16:23 03.02.2021
2991 Clouds 22 1016 56 6000 2.06 320 15:41 03.02.2021
2992 Clouds 22 1016 56 6000 2.57 280 15:22 03.02.2021
2993 Clouds 21 1017 56 6000 1.54 340 14:47 03.02.2021
2994 Clouds 21 1017 56 6000 1.54 340 14:23 03.02.2021
2995 Clouds 20 1017 68 6000 1.54 320 13:48 03.02.2021
2996 Clouds 19 1018 72 6000 1.54 210 13:21 03.02.2021
2997 Clouds 17 1018 77 6000 1.03 0 12:45 03.02.2021
2998 Clouds 14 1018 88 6000 0.51 0 12:21 03.02.2021
2999 Clouds 13 1018 100 6000 1.03 0 11:43 03.02.2021
3000 Mist 12 1019 94 4000 1.54 250 11:24 03.02.2021
3001 Mist 10 1018 100 2000 1.54 270 10:44 03.02.2021
3002 Mist 10 1018 100 2000 1.54 270 10:20 03.02.2021
3003 Fog 10 1019 100 600 2.06 270 09:45 03.02.2021
3004 Fog 11 1018 93 600 1.03 0 09:27 03.02.2021
3005 Mist 11 1018 93 1200 0.51 0 08:48 03.02.2021
3006 Fog 11 1018 93 100 1.03 0 07:59 03.02.2021
3007 Fog 11 1018 93 100 1.03 0 07:26 03.02.2021
3008 Fog 11 1018 93 100 0.51 0 06:38 03.02.2021
3009 Fog 11 1019 93 100 2.57 250 04:50 03.02.2021
3010 Clouds 11 1019 87 5000 3.6 280 04:27 03.02.2021
3011 Clear 14 1019 62 10000 2.06 250 02:42 03.02.2021
3012 Clear 14 1019 62 10000 1.54 260 01:58 03.02.2021
3013 Clear 17 1019 55 10000 1.03 0 00:27 03.02.2021
3014 Clear 18 1019 52 10000 1.03 0 23:44 02.02.2021
3015 Clear 18 1019 55 10000 2.57 230 23:26 02.02.2021
3016 Clear 18 1019 55 10000 2.57 230 23:26 02.02.2021
3017 Clear 18 1020 59 10000 4.12 240 22:52 02.02.2021
3018 Clear 19 1019 55 10000 4.63 220 22:22 02.02.2021
3019 Clear 20 1019 49 10000 4.12 230 21:48 02.02.2021
3020 Clear 19 1019 48 10000 3.09 240 21:27 02.02.2021
3021 Clear 20 1019 45 10000 3.09 240 20:52 02.02.2021
3022 Clear 22 1018 40 10000 3.09 280 20:25 02.02.2021
3023 Clear 24 1018 35 10000 3.09 300 19:59 02.02.2021
3024 Clear 25 1017 27 10000 2.57 290 19:40 02.02.2021
3025 Clear 25 1017 27 10000 2.57 290 19:22 02.02.2021
3026 Clear 27 1017 22 10000 1.54 310 18:42 02.02.2021
3027 Clear 28 1017 21 10000 1.54 0 18:24 02.02.2021
3028 Clear 29 1017 18 10000 1.03 0 17:42 02.02.2021
3029 Clear 29 1017 16 10000 0.51 0 17:21 02.02.2021
3030 Clear 29 1017 17 10000 1.03 0 16:51 02.02.2021
3031 Clear 29 1017 18 10000 1.03 0 16:31 02.02.2021
3032 Clear 28 1017 21 10000 1.54 340 15:57 02.02.2021
3033 Clouds 27 1017 22 8000 1.54 320 15:34 02.02.2021
3034 Clouds 27 1018 26 8000 1.03 0 14:56 02.02.2021
3035 Clouds 25 1018 29 8000 1.54 340 14:37 02.02.2021
3036 Clouds 25 1018 29 8000 1.54 340 14:18 02.02.2021
3037 Clouds 25 1018 31 8000 1.54 0 13:42 02.02.2021
3038 Clouds 23 1019 33 8000 1.54 20 13:24 02.02.2021
3039 Clouds 22 1019 35 8000 1.54 350 12:53 02.02.2021
3040 Clouds 22 1020 37 8000 1.54 350 12:22 02.02.2021
3041 Clouds 21 1020 40 8000 0.51 0 11:38 02.02.2021
3042 Clouds 21 1020 40 8000 0.51 0 11:19 02.02.2021
3043 Clouds 18 1020 48 8000 0.51 0 10:45 02.02.2021
3044 Clouds 13 1020 58 8000 2.06 90 10:26 02.02.2021
3045 Clouds 10 1020 71 8000 3.09 90 09:45 02.02.2021
3046 Clouds 10 1020 71 8000 3.09 90 09:23 02.02.2021
3047 Clouds 8 1020 76 8000 2.06 80 08:43 02.02.2021
3048 Clear 9 1019 76 10000 2.06 90 07:47 02.02.2021
3049 Clear 9 1019 76 10000 1.54 90 07:25 02.02.2021
3050 Clear 10 1019 71 10000 1.03 0 06:40 02.02.2021
3051 Clear 9 1019 76 10000 2.06 90 05:51 02.02.2021
3052 Clear 12 1020 66 10000 0.51 0 04:18 02.02.2021
3053 Clear 12 1020 66 10000 2.57 70 02:25 02.02.2021
3054 Clear 14 1020 62 10000 3.09 80 00:40 02.02.2021
3055 Clear 15 1020 58 10000 3.09 100 23:57 01.02.2021
3056 Clear 18 1021 48 10000 3.09 50 22:59 01.02.2021
3057 Clear 18 1021 48 10000 2.06 80 22:39 01.02.2021
3058 Clear 18 1021 48 10000 2.06 80 22:19 01.02.2021
3059 Clear 18 1021 48 10000 2.06 80 21:45 01.02.2021
3060 Clear 19 1021 45 10000 2.57 70 21:22 01.02.2021
3061 Clear 19 1020 45 10000 2.06 70 20:42 01.02.2021
3062 Clear 21 1020 40 10000 2.06 50 20:24 01.02.2021
3063 Clear 22 1020 37 10000 2.57 40 19:47 01.02.2021
3064 Clear 24 1020 33 10000 3.6 30 19:21 01.02.2021
3065 Clear 24 1020 33 10000 3.6 30 19:21 01.02.2021
3066 Clear 25 1019 31 10000 3.09 30 18:55 01.02.2021
3067 Clear 26 1019 31 10000 3.6 40 18:32 01.02.2021
3068 Clear 27 1019 28 10000 3.09 50 17:57 01.02.2021
3069 Clear 27 1019 26 10000 3.09 70 17:39 01.02.2021
3070 Clear 27 1019 26 10000 3.09 70 17:18 01.02.2021
3071 Clear 27 1020 28 10000 2.57 40 16:33 01.02.2021
3072 Clear 26 1020 27 10000 3.09 60 15:50 01.02.2021
3073 Clear 26 1020 29 10000 2.57 0 15:21 01.02.2021
3074 Clear 25 1020 31 10000 3.09 30 14:57 01.02.2021
3075 Clear 24 1021 33 10000 3.09 70 14:39 01.02.2021
3076 Clear 23 1021 35 10000 3.6 70 13:56 01.02.2021
3077 Clear 22 1022 37 10000 3.6 70 13:38 01.02.2021
3078 Clear 22 1022 37 10000 3.6 70 13:38 01.02.2021
3079 Clear 22 1022 37 10000 3.6 70 13:19 01.02.2021
3080 Clear 20 1022 40 10000 3.09 60 12:44 01.02.2021
3081 Clear 19 1023 45 10000 2.57 60 12:23 01.02.2021
3082 Clear 18 1023 45 10000 3.6 80 11:42 01.02.2021
3083 Clear 16 1023 55 10000 2.57 90 11:20 01.02.2021
3084 Clear 15 1023 58 10000 2.57 90 10:46 01.02.2021
3085 Clear 10 1022 76 10000 2.06 90 10:20 01.02.2021
3086 Clear 10 1022 76 10000 2.06 90 09:44 01.02.2021
3087 Clear 8 1022 81 10000 2.06 90 09:24 01.02.2021
3088 Clear 9 1022 76 10000 2.06 50 08:51 01.02.2021
3089 Clear 8 1022 81 10000 3.09 100 07:53 01.02.2021
3090 Clear 10 1022 76 10000 2.06 30 06:34 01.02.2021
3091 Clear 11 1022 76 10000 3.09 110 04:30 01.02.2021
3092 Clear 11 1023 76 10000 1.54 110 01:41 01.02.2021
3093 Clear 13 1023 67 10000 2.06 50 23:45 31.01.2021
3094 Clear 14 1024 67 10000 2.06 110 22:44 31.01.2021
3095 Clear 15 1023 63 10000 2.57 100 22:25 31.01.2021
3096 Clear 17 1023 55 10000 3.09 80 21:55 31.01.2021
3097 Clear 17 1023 55 10000 3.09 60 21:26 31.01.2021
3098 Clear 18 1023 52 10000 3.6 60 20:59 31.01.2021
3099 Clear 19 1023 48 10000 5.14 50 20:37 31.01.2021
3100 Clear 19 1023 48 10000 5.14 50 20:18 31.01.2021
3101 Clear 21 1022 40 10000 4.12 30 19:37 31.01.2021
3102 Clear 21 1022 40 10000 4.12 30 19:19 31.01.2021
3103 Clear 21 1022 40 10000 4.12 30 19:19 31.01.2021
3104 Clear 22 1022 37 10000 5.14 30 18:41 31.01.2021
3105 Clear 23 1022 33 10000 4.63 50 18:23 31.01.2021
3106 Clear 23 1022 43 10000 2.57 20 17:47 31.01.2021
3107 Clear 23 1022 43 10000 2.57 90 17:24 31.01.2021
3108 Clear 22 1022 46 10000 2.57 60 16:52 31.01.2021
3109 Clear 22 1022 46 10000 2.57 70 16:33 31.01.2021
3110 Clouds 22 1023 46 10000 3.6 60 15:52 31.01.2021
3111 Clouds 20 1023 52 10000 2.57 50 15:34 31.01.2021
3112 Clouds 19 1023 55 10000 2.06 50 14:45 31.01.2021
3113 Clouds 19 1024 59 10000 2.06 70 14:25 31.01.2021
3114 Clouds 18 1025 63 10000 2.57 60 13:56 31.01.2021
3115 Clouds 18 1025 63 10000 2.57 60 13:56 31.01.2021
3116 Clouds 16 1025 67 6000 3.6 110 13:37 31.01.2021
3117 Clouds 15 1025 77 6000 4.63 110 12:50 31.01.2021
3118 Clouds 14 1026 77 6000 4.63 110 12:23 31.01.2021
3119 Clouds 14 1026 77 6000 4.63 110 12:23 31.01.2021
3120 Clouds 13 1026 82 6000 4.63 90 11:58 31.01.2021
3121 Clouds 12 1026 87 6000 4.12 70 11:37 31.01.2021
3122 Clouds 12 1026 87 6000 4.12 70 11:19 31.01.2021
3123 Clouds 12 1025 87 6000 4.12 80 10:43 31.01.2021
3124 Mist 11 1025 93 5000 4.63 90 10:24 31.01.2021
3125 Mist 9 1025 93 5000 2.57 80 09:32 31.01.2021
3126 Clouds 9 1024 93 8000 2.57 80 08:34 31.01.2021
3127 Clouds 9 1024 93 8000 3.6 90 07:48 31.01.2021
3128 Clouds 10 1024 87 8000 2.57 90 05:53 31.01.2021
3129 Clouds 12 1026 82 8000 1.03 0 00:52 31.01.2021
3130 Clear 13 1026 76 10000 2.06 80 00:26 31.01.2021
3131 Clear 13 1026 76 10000 2.06 80 00:26 31.01.2021
3132 Clear 13 1026 82 10000 1.54 100 23:34 30.01.2021
3133 Clear 13 1026 82 10000 3.09 90 22:59 30.01.2021
3134 Clear 14 1026 77 10000 1.54 30 22:31 30.01.2021
3135 Clear 15 1025 72 10000 2.57 350 21:43 30.01.2021
3136 Clear 16 1025 67 10000 4.12 340 21:23 30.01.2021
3137 Clear 17 1024 63 10000 3.6 310 20:50 30.01.2021
3138 Clouds 18 1023 55 8000 4.12 260 20:31 30.01.2021
3139 Clouds 19 1023 52 8000 4.63 260 19:54 30.01.2021
3140 Clouds 19 1023 52 8000 4.63 260 19:54 30.01.2021
3141 Clouds 20 1023 52 8000 4.63 250 19:36 30.01.2021
3142 Clouds 20 1023 52 8000 4.63 250 19:18 30.01.2021
3143 Clouds 23 1022 43 8000 3.6 300 18:39 30.01.2021
3144 Clouds 23 1022 43 8000 3.6 300 18:19 30.01.2021
3145 Clear 23 1022 38 8000 4.12 270 17:23 30.01.2021
3146 Clear 24 1022 35 8000 3.09 310 16:56 30.01.2021
3147 Clear 24 1022 35 8000 2.06 310 16:37 30.01.2021
3148 Clear 24 1022 35 8000 2.06 310 16:18 30.01.2021
3149 Clear 23 1022 35 8000 3.09 310 15:40 30.01.2021
3150 Clear 23 1023 35 8000 2.57 320 15:22 30.01.2021
3151 Clear 23 1023 35 8000 2.57 330 14:52 30.01.2021
3152 Clear 23 1024 35 10000 1.54 330 14:22 30.01.2021
3153 Clear 21 1025 40 10000 2.57 350 13:40 30.01.2021
3154 Clear 21 1025 40 10000 2.57 350 13:19 30.01.2021
3155 Clear 20 1025 42 10000 1.03 0 12:42 30.01.2021
3156 Clear 18 1025 48 10000 3.6 350 12:20 30.01.2021
3157 Clear 18 1025 48 10000 1.54 110 11:37 30.01.2021
3158 Clear 16 1025 51 10000 2.57 130 10:51 30.01.2021
3159 Clear 12 1024 62 10000 1.03 0 09:53 30.01.2021
3160 Clear 10 1024 71 10000 0.51 0 09:31 30.01.2021
3161 Clear 9 1024 71 10000 0.51 0 08:49 30.01.2021
3162 Clear 9 1024 71 10000 1.03 0 08:30 30.01.2021
3163 Clear 11 1024 66 10000 3.6 120 06:58 30.01.2021
3164 Clear 11 1024 66 10000 2.57 20 06:19 30.01.2021
3165 Clear 13 1025 62 10000 1.54 90 03:35 30.01.2021
3166 Clear 14 1025 58 10000 1.03 0 02:26 30.01.2021
3167 Clear 15 1025 63 10000 1.54 250 01:35 30.01.2021
3168 Clear 16 1025 59 10000 3.09 220 00:47 30.01.2021
3169 Clear 15 1025 63 10000 2.57 250 00:21 30.01.2021
3170 Clear 17 1025 59 10000 3.09 230 23:49 29.01.2021
3171 Clear 17 1025 59 10000 3.09 230 23:27 29.01.2021
3172 Clear 16 1025 55 10000 2.57 250 22:45 29.01.2021
3173 Clear 17 1025 48 10000 2.06 230 22:22 29.01.2021
3174 Clear 18 1025 42 10000 2.06 240 21:43 29.01.2021
3175 Clear 18 1024 42 10000 2.06 250 21:25 29.01.2021
3176 Clear 19 1024 37 10000 2.57 260 20:42 29.01.2021
3177 Clear 20 1024 32 10000 1.54 260 20:21 29.01.2021
3178 Clear 24 1023 23 10000 2.57 290 19:39 29.01.2021
3179 Clear 24 1023 23 10000 2.57 290 19:19 29.01.2021
3180 Clear 24 1023 23 10000 2.57 290 19:19 29.01.2021
3181 Clear 25 1023 20 10000 3.6 290 18:44 29.01.2021
3182 Clear 26 1023 21 10000 4.12 290 17:45 29.01.2021
3183 Clear 27 1023 19 10000 4.12 300 17:22 29.01.2021
3184 Clear 27 1023 19 10000 3.09 300 16:47 29.01.2021
3185 Clear 28 1023 18 10000 2.57 270 16:24 29.01.2021
3186 Clear 28 1023 20 10000 1.54 270 15:52 29.01.2021
3187 Clear 28 1023 20 10000 1.03 0 15:34 29.01.2021
3188 Clear 27 1024 22 10000 2.06 0 14:56 29.01.2021
3189 Clear 26 1024 27 10000 2.06 340 14:18 29.01.2021
3190 Clear 25 1025 31 10000 1.03 0 13:45 29.01.2021
3191 Clear 24 1025 33 10000 2.06 360 13:26 29.01.2021
3192 Clear 22 1026 35 10000 2.06 330 12:30 29.01.2021
3193 Clear 22 1025 35 10000 1.54 340 11:51 29.01.2021
3194 Clear 20 1025 40 10000 1.54 180 11:20 29.01.2021
3195 Clear 18 1025 45 10000 1.54 160 10:58 29.01.2021
3196 Clear 17 1025 51 10000 1.03 0 10:39 29.01.2021
3197 Clear 11 1025 66 10000 3.09 110 09:50 29.01.2021
3198 Clear 11 1025 66 10000 3.09 110 09:50 29.01.2021
3199 Clear 11 1025 66 10000 3.09 110 09:29 29.01.2021
3200 Clear 10 1024 66 10000 1.54 80 08:48 29.01.2021
3201 Clear 11 1024 66 10000 1.54 40 08:25 29.01.2021
3202 Clear 10 1024 71 10000 2.06 100 07:43 29.01.2021
3203 Clear 10 1024 71 10000 1.54 90 07:22 29.01.2021
3204 Clear 12 1023 62 10000 1.54 100 06:29 29.01.2021
3205 Clear 13 1023 58 10000 2.06 40 03:53 29.01.2021
3206 Clear 17 1024 48 10000 1.54 140 00:46 29.01.2021
3207 Clear 16 1024 48 10000 1.54 220 00:22 29.01.2021
3208 Clear 16 1024 48 10000 1.54 220 23:47 28.01.2021
3209 Clear 16 1024 48 10000 1.54 220 23:27 28.01.2021
3210 Clear 17 1025 42 10000 0.84 208 22:57 28.01.2021
3211 Clear 17 1025 42 10000 0.84 208 22:38 28.01.2021
3212 Clear 18 1025 40 10000 0.9 273 22:18 28.01.2021
3213 Clear 18 1025 40 10000 0.9 273 21:41 28.01.2021
3214 Clear 20 1023 37 10000 2.57 250 21:20 28.01.2021
3215 Clear 20 1023 37 10000 2.57 250 20:40 28.01.2021
3216 Clear 20 1023 37 10000 2.57 250 20:19 28.01.2021
3217 Clear 22 1023 30 10000 2.06 260 19:48 28.01.2021
3218 Clear 24 1023 27 10000 2.57 290 19:27 28.01.2021
3219 Clear 26 1023 24 10000 3.09 300 18:49 28.01.2021
3220 Clear 27 1022 21 10000 3.6 290 18:29 28.01.2021
3221 Clear 27 1022 21 10000 3.6 290 18:29 28.01.2021
3222 Clear 27 1022 22 10000 3.6 300 17:48 28.01.2021
3223 Clear 27 1022 22 10000 3.6 300 17:48 28.01.2021
3224 Clear 27 1022 22 10000 3.6 290 17:30 28.01.2021
3225 Clear 28 1022 20 10000 3.6 310 16:47 28.01.2021
3226 Clear 28 1022 21 10000 3.6 320 16:28 28.01.2021
3227 Clear 28 1022 21 10000 3.6 290 15:59 28.01.2021
3228 Clear 28 1022 23 10000 3.6 300 15:24 28.01.2021
3229 Clear 27 1023 28 10000 2.06 340 14:44 28.01.2021
3230 Clear 27 1023 28 10000 2.06 340 14:44 28.01.2021
3231 Clear 27 1023 28 10000 1.54 10 14:23 28.01.2021
3232 Clear 27 1023 28 10000 1.54 10 14:23 28.01.2021
3233 Clear 26 1023 27 10000 2.06 360 13:54 28.01.2021
3234 Clear 26 1024 31 10000 1.03 0 13:23 28.01.2021
3235 Clear 24 1024 33 10000 1.03 0 12:48 28.01.2021
3236 Clear 22 1024 37 10000 1.03 0 12:23 28.01.2021
3237 Clear 20 1024 42 10000 1.54 130 11:44 28.01.2021
3238 Clear 18 1024 48 10000 2.06 100 11:21 28.01.2021
3239 Clear 16 1024 51 10000 1.54 80 10:56 28.01.2021
3240 Clear 14 1023 58 10000 1.54 90 10:38 28.01.2021
3241 Clear 14 1023 58 10000 1.54 90 10:20 28.01.2021
3242 Clear 11 1023 71 10000 1.54 60 09:34 28.01.2021
3243 Clear 11 1023 66 10000 1.03 0 08:58 28.01.2021
3244 Clear 10 1023 71 10000 1.54 180 08:39 28.01.2021
3245 Clear 11 1023 66 10000 1.54 120 07:48 28.01.2021
3246 Clear 12 1022 66 10000 2.57 120 07:18 28.01.2021
3247 Clear 11 1022 66 10000 1.03 0 06:44 28.01.2021
3248 Clear 15 1023 51 10000 2.06 180 04:30 28.01.2021
3249 Clear 14 1023 54 10000 1.03 0 02:26 28.01.2021
3250 Clear 16 1024 55 10000 1.03 0 00:29 28.01.2021
3251 Clear 16 1024 59 10000 0.51 0 23:25 27.01.2021
3252 Clear 17 1024 55 10000 0.51 0 22:44 27.01.2021
3253 Clear 18 1024 55 10000 2.06 100 22:25 27.01.2021
3254 Clear 20 1024 49 10000 2.06 90 21:57 27.01.2021
3255 Clear 21 1023 46 10000 2.06 100 21:39 27.01.2021
3256 Clear 21 1023 46 10000 2.06 100 21:21 27.01.2021
3257 Clear 22 1023 43 10000 2.06 60 20:40 27.01.2021
3258 Clear 23 1023 40 10000 2.06 40 19:58 27.01.2021
3259 Clear 25 1023 36 10000 2.06 20 19:39 27.01.2021
3260 Clear 25 1023 36 10000 2.06 20 19:20 27.01.2021
3261 Clear 27 1022 32 10000 0.51 0 18:42 27.01.2021
3262 Clear 29 1022 28 10000 0.51 0 18:23 27.01.2021
3263 Clear 28 1022 30 10000 1.03 0 17:46 27.01.2021
3264 Clear 28 1022 30 10000 1.54 300 17:21 27.01.2021
3265 Clear 28 1022 30 10000 1.03 0 16:48 27.01.2021
3266 Clear 27 1023 29 10000 1.54 0 16:28 27.01.2021
3267 Clear 26 1023 31 10000 2.06 40 15:50 27.01.2021
3268 Clear 26 1023 31 10000 2.06 60 15:31 27.01.2021
3269 Clear 26 1024 34 10000 1.54 10 14:43 27.01.2021
3270 Clear 26 1024 34 10000 1.54 10 14:22 27.01.2021
3271 Clear 24 1024 38 8000 2.06 340 13:45 27.01.2021
3272 Clear 23 1025 40 8000 1.54 330 12:58 27.01.2021
3273 Clear 23 1025 43 8000 0.51 0 12:38 27.01.2021
3274 Clear 23 1025 43 8000 0.51 0 12:18 27.01.2021
3275 Clear 20 1025 49 8000 0.51 0 11:41 27.01.2021
3276 Clear 20 1025 49 8000 0.51 0 11:21 27.01.2021
3277 Clear 15 1025 63 8000 1.54 70 10:38 27.01.2021
3278 Clear 15 1025 63 8000 1.54 70 10:19 27.01.2021
3279 Clear 10 1025 81 8000 2.06 90 09:40 27.01.2021
3280 Clear 9 1025 81 8000 2.57 70 08:56 27.01.2021
3281 Clear 10 1024 81 8000 2.06 50 07:59 27.01.2021
3282 Clear 11 1024 76 8000 1.54 140 07:40 27.01.2021
3283 Clear 12 1024 76 8000 2.06 140 06:50 27.01.2021
3284 Clear 11 1024 76 8000 2.57 110 06:19 27.01.2021
3285 Clear 12 1024 76 8000 1.03 0 05:39 27.01.2021
3286 Clear 14 1025 67 8000 2.57 120 03:29 27.01.2021
3287 Clear 13 1025 71 8000 2.06 140 02:23 27.01.2021
3288 Clear 13 1025 67 8000 2.06 90 01:48 27.01.2021
3289 Clear 14 1025 67 8000 1.03 0 00:33 27.01.2021
3290 Clear 15 1025 63 8000 1.03 0 23:48 26.01.2021
3291 Clear 16 1025 59 8000 1.54 40 23:28 26.01.2021
3292 Clear 16 1025 59 8000 1.03 0 22:48 26.01.2021
3293 Clear 17 1025 55 8000 2.57 120 22:23 26.01.2021
3294 Clear 16 1025 59 8000 2.06 110 21:53 26.01.2021
3295 Clear 16 1025 59 8000 2.06 110 21:53 26.01.2021
3296 Clear 18 1025 52 8000 2.06 90 21:32 26.01.2021
3297 Clear 19 1025 45 8000 2.06 50 20:58 26.01.2021
3298 Clear 20 1024 42 8000 2.57 60 20:39 26.01.2021
3299 Clear 20 1024 42 8000 2.57 60 20:20 26.01.2021
3300 Clear 21 1024 40 8000 3.09 60 19:44 26.01.2021
3301 Clear 22 1023 37 8000 4.63 40 19:20 26.01.2021
3302 Clear 23 1023 35 8000 4.63 50 18:47 26.01.2021
3303 Clear 24 1023 33 8000 5.14 40 18:27 26.01.2021
3304 Clear 25 1023 31 8000 4.63 40 17:51 26.01.2021
3305 Clear 25 1023 33 8000 4.63 40 17:30 26.01.2021
3306 Clear 26 1023 29 8000 4.63 50 16:55 26.01.2021
3307 Clear 26 1023 27 8000 4.63 70 16:37 26.01.2021
3308 Clear 26 1023 27 8000 4.63 70 16:18 26.01.2021
3309 Clear 24 1023 35 8000 3.6 50 15:40 26.01.2021
3310 Clear 24 1023 35 8000 3.6 50 15:20 26.01.2021
3311 Clear 22 1024 43 8000 4.12 90 14:37 26.01.2021
3312 Clear 22 1024 43 8000 4.12 90 14:18 26.01.2021
3313 Clear 19 1025 52 8000 3.6 90 13:33 26.01.2021
3314 Clear 19 1026 52 8000 3.6 80 12:57 26.01.2021
3315 Clear 17 1026 59 7000 2.57 70 12:38 26.01.2021
3316 Clear 17 1026 59 7000 2.57 70 12:19 26.01.2021
3317 Clear 16 1026 63 7000 2.57 70 11:50 26.01.2021
3318 Clear 14 1026 72 7000 3.09 80 11:19 26.01.2021
3319 Clear 11 1026 82 7000 2.57 100 10:39 26.01.2021
3320 Clear 11 1026 82 7000 2.57 100 10:20 26.01.2021
3321 Clouds 9 1025 93 6000 2.06 90 09:39 26.01.2021
3322 Clouds 9 1025 93 6000 2.06 90 09:21 26.01.2021
3323 Mist 8 1025 100 4000 2.57 90 08:44 26.01.2021
3324 Mist 8 1025 100 4000 2.06 90 07:56 26.01.2021
3325 Clouds 9 1025 93 5000 2.06 70 07:19 26.01.2021
3326 Mist 10 1024 100 3000 3.09 120 05:51 26.01.2021
3327 Mist 10 1024 100 3000 3.09 100 05:32 26.01.2021
3328 Clear 11 1024 87 10000 1.54 70 03:32 26.01.2021
3329 Clear 13 1024 88 10000 3.6 60 01:18 26.01.2021
3330 Clear 14 1025 77 10000 2.57 60 00:26 26.01.2021
3331 Clear 14 1025 77 10000 3.09 60 23:33 25.01.2021
3332 Clear 15 1024 63 10000 2.57 40 22:50 25.01.2021
3333 Clear 15 1024 63 10000 2.57 40 22:29 25.01.2021
3334 Clear 17 1024 51 10000 3.09 40 21:46 25.01.2021
3335 Clear 17 1024 51 10000 3.09 40 21:19 25.01.2021
3336 Clear 18 1023 45 10000 3.09 20 20:43 25.01.2021
3337 Clear 18 1023 45 10000 3.09 20 20:23 25.01.2021
3338 Clear 19 1023 45 10000 2.57 30 19:48 25.01.2021
3339 Clear 20 1022 45 10000 3.6 40 19:23 25.01.2021
3340 Clear 21 1022 43 10000 3.6 30 18:46 25.01.2021
3341 Clear 22 1022 40 10000 2.06 60 18:24 25.01.2021
3342 Clear 22 1022 40 10000 3.09 80 17:49 25.01.2021
3343 Clear 22 1022 40 10000 2.06 10 17:25 25.01.2021
3344 Clear 21 1022 43 10000 3.6 40 16:50 25.01.2021
3345 Clear 21 1021 46 10000 2.06 30 16:26 25.01.2021
3346 Clear 20 1021 45 10000 3.6 40 15:57 25.01.2021
3347 Clear 21 1021 46 10000 3.09 50 15:39 25.01.2021
3348 Clear 21 1021 46 10000 3.09 50 15:19 25.01.2021
3349 Clear 19 1022 52 10000 3.6 70 14:39 25.01.2021
3350 Clear 19 1022 52 10000 3.6 70 14:18 25.01.2021
3351 Clear 19 1022 52 10000 3.09 80 13:44 25.01.2021
3352 Clear 18 1023 55 10000 2.57 70 13:21 25.01.2021
3353 Clear 17 1023 59 10000 3.09 70 12:44 25.01.2021
3354 Clear 17 1024 63 10000 1.54 0 12:19 25.01.2021
3355 Clear 14 1023 72 10000 1.54 100 11:29 25.01.2021
3356 Clouds 13 1023 76 10000 2.06 90 10:52 25.01.2021
3357 Clouds 12 1022 76 10000 1.54 80 10:22 25.01.2021
3358 Clouds 11 1022 82 10000 1.03 0 09:53 25.01.2021
3359 -273 0 0 0 0 0 09:31 25.01.2021
3360 Clouds 10 1021 76 10000 2.06 130 08:38 25.01.2021
3361 Clouds 9 1021 81 10000 2.06 140 07:58 25.01.2021
3362 Clouds 8 1021 87 10000 1.54 110 07:29 25.01.2021
3363 Clouds 10 1021 81 10000 1.03 0 06:38 25.01.2021
3364 Clouds 11 1022 76 10000 1.54 90 02:56 25.01.2021
3365 Clouds 12 1022 76 10000 1.54 70 00:45 25.01.2021
3366 Clouds 13 1022 67 10000 2.06 50 23:39 24.01.2021
3367 Clouds 12 1021 66 10000 2.57 110 23:18 24.01.2021
3368 Clouds 13 1021 62 10000 1.03 0 22:40 24.01.2021
3369 Clouds 13 1021 62 10000 1.03 0 22:18 24.01.2021
3370 Clouds 16 1021 51 10000 1.54 40 21:37 24.01.2021
3371 Clouds 16 1021 51 10000 1.54 40 21:19 24.01.2021
3372 Clouds 17 1020 48 10000 2.06 20 20:41 24.01.2021
3373 Clouds 17 1020 48 10000 2.06 20 20:19 24.01.2021
3374 Clouds 18 1020 45 10000 2.06 20 19:50 24.01.2021
3375 Clouds 18 1020 45 10000 2.57 60 19:26 24.01.2021
3376 Clouds 18 1020 45 10000 3.6 40 18:56 24.01.2021
3377 Clouds 19 1020 42 10000 3.6 50 18:37 24.01.2021
3378 Clouds 19 1020 42 10000 3.6 50 18:19 24.01.2021
3379 Clouds 19 1020 39 10000 3.6 50 17:47 24.01.2021
3380 Clouds 19 1020 39 10000 2.57 0 17:20 24.01.2021
3381 Clouds 20 1021 40 10000 3.09 40 16:42 24.01.2021
3382 Clouds 21 1021 28 10000 2.06 10 16:23 24.01.2021
3383 Clouds 20 1021 28 10000 1.54 70 15:49 24.01.2021
3384 Clouds 20 1021 30 10000 2.57 40 15:22 24.01.2021
3385 Clouds 19 1021 39 10000 2.57 20 14:58 24.01.2021
3386 Clouds 18 1022 52 10000 3.09 20 14:36 24.01.2021
3387 Clear 18 1023 59 10000 3.09 40 13:40 24.01.2021
3388 Clear 18 1023 59 10000 3.09 40 13:20 24.01.2021
3389 Clear 17 1023 63 10000 3.09 50 12:42 24.01.2021
3390 Clear 16 1024 67 10000 2.06 20 12:19 24.01.2021
3391 Clear 15 1023 72 10000 2.06 40 11:49 24.01.2021
3392 Clear 15 1023 72 10000 2.57 50 11:23 24.01.2021
3393 Clear 14 1023 77 10000 2.57 110 10:42 24.01.2021
3394 Clear 11 1022 87 10000 1.54 90 09:59 24.01.2021
3395 Clear 9 1022 93 10000 1.54 110 09:22 24.01.2021
3396 Clouds 7 1022 93 8000 2.06 120 08:55 24.01.2021
3397 Clouds 9 1021 87 8000 3.6 110 07:41 24.01.2021
3398 Clouds 11 1024 87 8000 1.03 0 02:39 24.01.2021
3399 Clouds 12 1024 82 8000 1.03 0 01:46 24.01.2021
3400 Clear 13 1024 76 10000 1.03 0 00:24 24.01.2021
3401 Clear 14 1023 77 10000 2.06 60 23:47 23.01.2021
3402 Clear 14 1023 77 10000 1.03 0 23:26 23.01.2021
3403 Clear 14 1023 77 10000 1.03 0 23:26 23.01.2021
3404 Clear 15 1023 72 10000 3.09 50 22:51 23.01.2021
3405 Clear 16 1023 67 10000 3.6 40 22:32 23.01.2021
3406 Clear 16 1023 67 10000 2.57 20 21:51 23.01.2021
3407 Clear 17 1023 63 10000 3.09 10 21:22 23.01.2021
3408 Clear 19 1023 55 10000 2.57 10 20:47 23.01.2021
3409 Clear 19 1023 55 10000 2.57 10 20:24 23.01.2021
3410 Clear 20 1022 52 10000 3.09 340 19:47 23.01.2021
3411 Clear 20 1022 52 10000 3.09 340 19:23 23.01.2021
3412 Clear 21 1022 49 10000 2.06 0 18:49 23.01.2021
3413 Clear 22 1022 49 10000 2.57 310 18:26 23.01.2021
3414 Clear 22 1022 49 10000 1.54 0 17:48 23.01.2021
3415 Clear 22 1022 49 10000 2.57 40 17:27 23.01.2021
3416 Clear 22 1022 49 10000 2.06 20 16:50 23.01.2021
3417 Clear 22 1022 46 10000 2.06 360 16:28 23.01.2021
3418 Clear 21 1022 49 10000 2.57 30 15:41 23.01.2021
3419 Clear 21 1022 49 10000 2.57 30 15:22 23.01.2021
3420 Clear 21 1023 56 8000 1.54 0 14:33 23.01.2021
3421 Clear 20 1024 56 8000 2.06 40 13:55 23.01.2021
3422 Clouds 19 1024 59 10000 2.06 70 13:36 23.01.2021
3423 Clouds 19 1025 59 10000 2.57 90 12:57 23.01.2021
3424 Clouds 18 1025 68 8000 3.6 110 12:29 23.01.2021
3425 Clouds 17 1025 72 8000 3.09 110 11:48 23.01.2021
3426 Clouds 17 1025 67 8000 4.12 120 11:28 23.01.2021
3427 Clouds 16 1025 77 8000 5.14 120 10:52 23.01.2021
3428 Clouds 15 1025 82 8000 3.6 120 10:22 23.01.2021
3429 Clouds 14 1025 88 8000 1.54 80 09:49 23.01.2021
3430 Clouds 14 1024 88 7000 2.57 110 08:57 23.01.2021
3431 Clouds 14 1024 88 7000 2.06 80 08:31 23.01.2021
3432 Clouds 14 1023 94 8000 2.06 60 07:31 23.01.2021
3433 Clouds 15 1024 88 8000 2.06 140 05:32 23.01.2021
3434 Clouds 16 1025 82 8000 1.54 90 00:54 23.01.2021
3435 Clouds 16 1026 88 8000 2.06 40 23:51 22.01.2021
3436 Clouds 16 1026 82 8000 0.51 0 23:30 22.01.2021
3437 Clouds 17 1025 77 8000 0.51 0 22:40 22.01.2021
3438 Clouds 17 1025 77 8000 1.03 0 21:47 22.01.2021
3439 Clouds 17 1025 77 8000 1.54 360 21:29 22.01.2021
3440 Clouds 18 1025 77 8000 2.57 350 20:59 22.01.2021
3441 Clouds 18 1025 72 8000 3.09 20 20:39 22.01.2021
3442 Clouds 19 1025 68 8000 2.57 360 19:59 22.01.2021
3443 Clouds 19 1025 68 8000 3.6 260 19:26 22.01.2021
3444 Clouds 20 1025 64 8000 3.09 270 18:59 22.01.2021
3445 Clouds 21 1024 56 8000 2.06 270 18:40 22.01.2021
3446 Clouds 21 1024 56 8000 2.06 270 18:21 22.01.2021
3447 Clouds 21 1024 56 8000 2.06 280 17:43 22.01.2021
3448 Clouds 22 1024 53 8000 2.06 320 17:24 22.01.2021
3449 Clouds 22 1024 53 8000 2.06 350 16:44 22.01.2021
3450 Clouds 21 1024 52 8000 2.57 320 16:23 22.01.2021
3451 Clear 21 1025 52 8000 2.57 320 15:29 22.01.2021
3452 Clear 21 1025 56 8000 2.57 300 14:58 22.01.2021
3453 Clear 20 1025 60 8000 3.09 280 14:30 22.01.2021
3454 Clouds 20 1026 60 8000 1.54 280 13:47 22.01.2021
3455 Clouds 19 1026 59 8000 2.57 340 13:28 22.01.2021
3456 Clear 19 1026 59 10000 1.54 330 12:46 22.01.2021
3457 Clear 19 1026 59 10000 0.51 0 12:22 22.01.2021
3458 Clear 18 1026 68 10000 1.03 0 11:46 22.01.2021
3459 Clear 15 1026 77 10000 1.54 140 10:55 22.01.2021
3460 Clear 13 1026 82 10000 2.57 150 10:35 22.01.2021
3461 Clear 12 1026 82 10000 3.09 150 09:58 22.01.2021
3462 Clear 10 1026 81 10000 3.6 150 09:29 22.01.2021
3463 Clear 8 1025 93 10000 2.06 130 08:50 22.01.2021
3464 Clear 8 1025 93 10000 2.57 100 08:25 22.01.2021
3465 Clear 9 1024 87 10000 1.54 50 07:31 22.01.2021
3466 Clear 12 1026 82 10000 3.6 170 03:21 22.01.2021
3467 Clear 13 1026 82 10000 1.03 0 00:39 22.01.2021
3468 Clear 13 1026 82 10000 2.06 180 23:52 21.01.2021
3469 Clear 14 1025 82 10000 3.09 180 23:31 21.01.2021
3470 Clear 14 1025 82 10000 2.06 210 22:51 21.01.2021
3471 Clear 14 1025 82 10000 2.57 190 22:30 21.01.2021
3472 Clear 14 1026 77 10000 2.06 230 21:43 21.01.2021
3473 Clear 15 1026 77 10000 3.09 230 21:20 21.01.2021
3474 Clouds 15 1025 67 10000 2.57 260 20:48 21.01.2021
3475 Clouds 15 1025 63 10000 3.09 280 20:29 21.01.2021
3476 Clouds 16 1024 59 10000 2.57 280 19:52 21.01.2021
3477 Clouds 18 1024 52 10000 3.09 280 19:30 21.01.2021
3478 Clouds 19 1024 48 10000 4.12 280 18:59 21.01.2021
3479 Clouds 20 1024 45 10000 3.09 290 18:39 21.01.2021
3480 Clouds 20 1024 45 10000 3.09 290 18:20 21.01.2021
3481 Clouds 20 1024 45 10000 4.12 310 17:51 21.01.2021
3482 Clouds 21 1023 46 10000 3.6 320 17:20 21.01.2021
3483 Clear 21 1023 43 10000 2.57 310 16:48 21.01.2021
3484 Clear 21 1023 40 10000 2.06 0 16:25 21.01.2021
3485 Clear 21 1023 40 10000 2.06 320 15:59 21.01.2021
3486 Clear 21 1024 40 10000 2.57 320 15:33 21.01.2021
3487 Clear 21 1024 37 10000 1.54 0 14:53 21.01.2021
3488 Clear 21 1024 40 10000 1.03 0 14:35 21.01.2021
3489 Clear 20 1024 40 10000 1.03 0 13:48 21.01.2021
3490 Clear 19 1025 42 10000 1.54 30 13:28 21.01.2021
3491 Clear 18 1025 45 10000 0.51 0 12:55 21.01.2021
3492 Clear 17 1025 51 10000 1.03 0 12:37 21.01.2021
3493 Clear 16 1026 55 10000 1.03 0 12:18 21.01.2021
3494 Clear 15 1026 58 10000 0.51 0 11:43 21.01.2021
3495 Clear 15 1026 58 10000 0.51 0 11:43 21.01.2021
3496 Clear 15 1026 58 10000 0.51 0 11:23 21.01.2021
3497 Clear 13 1025 67 10000 1.03 0 10:45 21.01.2021
3498 Clear 11 1025 71 10000 1.54 40 10:25 21.01.2021
3499 Clear 9 1025 81 10000 1.54 80 09:43 21.01.2021
3500 Clear 8 1024 81 10000 1.03 0 09:24 21.01.2021
3501 Clear 7 1024 87 10000 2.06 130 08:37 21.01.2021
3502 Clear 7 1024 81 10000 1.54 120 07:54 21.01.2021
3503 Clear 9 1023 81 10000 2.06 140 07:26 21.01.2021
3504 Clear 8 1023 87 10000 2.57 160 06:46 21.01.2021
3505 Clear 8 1023 87 10000 2.57 140 05:19 21.01.2021
3506 Clear 9 1024 81 10000 1.03 0 02:24 21.01.2021
3507 Clear 9 1024 87 10000 1.03 0 00:44 21.01.2021
3508 Clear 11 1024 71 10000 1.03 0 23:52 20.01.2021
3509 Clouds 12 1023 71 8000 3.6 170 23:31 20.01.2021
3510 Clouds 12 1024 76 8000 2.06 180 22:57 20.01.2021
3511 Clouds 12 1024 71 8000 1.54 240 22:36 20.01.2021
3512 Clouds 13 1024 71 8000 1.54 310 21:56 20.01.2021
3513 Clouds 13 1024 71 8000 2.06 290 21:24 20.01.2021
3514 Clouds 13 1023 71 8000 2.06 270 20:55 20.01.2021
3515 Clouds 13 1023 71 8000 1.54 260 20:36 20.01.2021
3516 Clouds 13 1023 71 8000 1.54 260 20:36 20.01.2021
3517 Clouds 13 1023 71 8000 1.54 260 20:18 20.01.2021
3518 Clouds 14 1022 62 8000 2.57 250 19:40 20.01.2021
3519 Clouds 14 1022 62 8000 2.57 250 19:21 20.01.2021
3520 Clouds 16 1022 59 6000 3.09 270 18:41 20.01.2021
3521 Clouds 16 1021 51 6000 2.57 280 17:56 20.01.2021
3522 Clouds 17 1021 45 6000 1.03 0 17:37 20.01.2021
3523 Clouds 17 1021 45 6000 1.03 0 16:52 20.01.2021
3524 Clouds 17 1021 45 6000 1.03 0 16:33 20.01.2021
3525 Clouds 16 1021 51 6000 1.03 0 15:51 20.01.2021
3526 Clouds 16 1021 51 6000 1.54 50 15:33 20.01.2021
3527 Clouds 15 1021 58 6000 1.54 40 14:48 20.01.2021
3528 Clouds 14 1021 58 6000 2.06 10 14:22 20.01.2021
3529 Clouds 14 1021 62 6000 2.57 350 13:42 20.01.2021
3530 Clouds 13 1021 67 6000 2.06 350 13:21 20.01.2021
3531 Clouds 13 1022 67 8000 1.54 50 12:39 20.01.2021
3532 Clouds 13 1022 67 8000 1.54 150 11:55 20.01.2021
3533 Clouds 12 1022 71 8000 2.06 120 11:35 20.01.2021
3534 Clouds 11 1022 76 8000 2.06 140 10:56 20.01.2021
3535 Clouds 9 1023 87 8000 1.03 0 10:32 20.01.2021
3536 Clouds 9 1023 81 8000 2.57 160 09:54 20.01.2021
3537 Clouds 8 1023 81 8000 2.57 170 09:26 20.01.2021
3538 Clouds 7 1023 81 8000 1.54 150 08:55 20.01.2021
3539 Clouds 7 1023 81 8000 1.54 160 08:29 20.01.2021
3540 Clouds 6 1022 81 8000 1.03 0 07:56 20.01.2021
3541 Clouds 5 1022 87 8000 1.03 0 07:35 20.01.2021
3542 Clouds 7 1021 81 8000 0.51 0 05:51 20.01.2021
3543 Clouds 7 1022 81 8000 1.03 0 03:28 20.01.2021
3544 Clear 10 1023 81 10000 2.06 210 01:19 20.01.2021
3545 Clear 10 1023 81 10000 3.09 210 00:45 20.01.2021
3546 Clear 11 1023 71 10000 4.12 230 23:48 19.01.2021
3547 Clear 11 1023 66 10000 3.09 240 23:26 19.01.2021
3548 Clear 11 1023 66 10000 3.09 240 23:26 19.01.2021
3549 Clear 10 1023 66 10000 2.06 250 22:57 19.01.2021
3550 Clear 10 1023 66 10000 2.06 240 22:36 19.01.2021
3551 Clear 10 1023 66 10000 2.06 240 22:18 19.01.2021
3552 Clear 11 1024 62 10000 2.06 240 21:42 19.01.2021
3553 Clear 11 1024 62 10000 2.06 250 21:23 19.01.2021
3554 Clear 12 1024 58 10000 2.06 260 20:43 19.01.2021
3555 Clear 13 1023 54 10000 3.09 280 20:23 19.01.2021
3556 Clear 13 1023 54 10000 2.06 270 19:48 19.01.2021
3557 Clear 15 1023 47 10000 3.09 270 19:27 19.01.2021
3558 Clear 17 1022 42 10000 3.09 280 18:47 19.01.2021
3559 Clear 18 1022 34 10000 2.57 310 18:26 19.01.2021
3560 Clear 19 1022 32 10000 1.54 320 17:46 19.01.2021
3561 Clear 19 1022 32 10000 2.06 330 17:26 19.01.2021
3562 Clear 19 1022 32 10000 2.57 320 16:49 19.01.2021
3563 Clear 19 1023 34 10000 3.09 300 16:26 19.01.2021
3564 Clear 18 1023 39 10000 3.09 300 15:57 19.01.2021
3565 Clear 18 1023 39 10000 3.09 300 15:57 19.01.2021
3566 Clear 18 1023 34 10000 2.06 300 15:37 19.01.2021
3567 Clouds 18 1023 39 8000 1.54 0 14:57 19.01.2021
3568 Clouds 17 1024 39 8000 2.06 320 14:38 19.01.2021
3569 Clouds 17 1024 39 8000 2.06 320 14:18 19.01.2021
3570 Clouds 16 1025 48 8000 1.54 320 13:40 19.01.2021
3571 Clear 16 1025 48 8000 1.54 320 13:20 19.01.2021
3572 Clear 15 1025 51 8000 1.03 0 12:42 19.01.2021
3573 Clear 14 1025 51 8000 1.03 0 12:21 19.01.2021
3574 Clear 13 1025 50 8000 2.06 40 11:43 19.01.2021
3575 Clear 12 1025 58 10000 1.54 40 11:23 19.01.2021
3576 Clear 11 1025 62 8000 1.03 0 10:50 19.01.2021
3577 Clear 9 1025 71 8000 0.51 0 10:31 19.01.2021
3578 Clear 6 1025 81 8000 1.54 70 09:52 19.01.2021
3579 Clear 5 1025 81 8000 2.06 90 09:24 19.01.2021
3580 Clear 4 1025 81 8000 2.06 90 08:51 19.01.2021
3581 Clear 4 1025 81 10000 1.03 0 08:19 19.01.2021
3582 Clear 6 1025 75 10000 0.51 0 07:36 19.01.2021
3583 Clouds 6 1025 75 10000 1.03 0 05:42 19.01.2021
3584 Clear 9 1026 61 10000 2.06 240 02:27 19.01.2021
3585 Clear 10 1026 57 10000 1.03 0 00:48 19.01.2021
3586 Clear 12 1026 54 10000 1.54 190 23:58 18.01.2021
3587 Clear 12 1026 58 10000 2.57 220 23:31 18.01.2021
3588 Clear 11 1026 58 10000 1.54 250 22:51 18.01.2021
3589 Clear 11 1026 54 10000 1.54 240 22:24 18.01.2021
3590 Clear 12 1026 47 10000 2.06 270 21:49 18.01.2021
3591 Clear 14 1026 41 10000 3.09 230 21:24 18.01.2021
3592 Clear 13 1025 35 10000 2.06 260 20:59 18.01.2021
3593 Clear 15 1025 31 10000 1.54 270 20:38 18.01.2021
3594 Clear 15 1025 31 10000 1.54 270 20:20 18.01.2021
3595 Clear 16 1025 29 10000 3.6 230 19:48 18.01.2021
3596 Clear 16 1025 31 10000 2.57 270 19:27 18.01.2021
3597 Clear 19 1025 22 10000 4.12 280 18:44 18.01.2021
3598 Clear 20 1024 21 10000 4.12 280 18:21 18.01.2021
3599 Clear 21 1024 21 10000 4.12 300 17:40 18.01.2021
3600 Clear 21 1024 21 10000 4.12 300 17:18 18.01.2021
3601 Clear 21 1023 23 10000 4.12 300 16:41 18.01.2021
3602 Clear 22 1023 23 10000 2.06 330 16:19 18.01.2021
3603 Clear 22 1023 24 10000 1.54 0 15:41 18.01.2021
3604 Clear 22 1023 23 10000 1.54 0 15:19 18.01.2021
3605 Clear 21 1024 24 10000 1.54 0 14:43 18.01.2021
3606 Clear 20 1024 24 10000 1.54 80 14:25 18.01.2021
3607 Clear 20 1025 26 10000 1.03 0 13:45 18.01.2021
3608 Clear 20 1026 28 10000 0.51 0 13:26 18.01.2021
3609 Clear 18 1026 32 10000 1.03 0 12:51 18.01.2021
3610 Clear 16 1026 39 10000 1.54 80 12:20 18.01.2021
3611 Clear 14 1027 44 10000 1.54 60 11:53 18.01.2021
3612 Clear 12 1027 54 10000 1.54 40 11:30 18.01.2021
3613 Clear 10 1026 66 10000 1.54 80 10:57 18.01.2021
3614 Clear 7 1026 76 10000 2.06 80 10:39 18.01.2021
3615 Clear 3 1026 87 10000 1.54 80 09:43 18.01.2021
3616 Clear 3 1026 87 10000 1.54 80 09:24 18.01.2021
3617 Clear 3 1026 81 10000 1.54 90 08:48 18.01.2021
3618 Clear 3 1025 81 10000 2.06 90 07:55 18.01.2021
3619 Clear 3 1025 87 10000 1.54 110 07:27 18.01.2021
3620 Clear 5 1025 75 10000 1.54 150 04:59 18.01.2021
3621 Clear 5 1025 75 10000 0.51 0 04:33 18.01.2021
3622 Clear 6 1025 75 10000 0.51 0 03:59 18.01.2021
3623 Clear 6 1025 75 10000 1.54 120 03:39 18.01.2021
3624 Clear 6 1025 75 10000 1.54 120 03:19 18.01.2021
3625 Clear 6 1026 81 10000 1.54 140 02:37 18.01.2021
3626 Clear 7 1027 70 10000 1.54 80 00:43 18.01.2021
3627 Clear 10 1027 53 10000 2.06 150 00:23 18.01.2021
3628 Clear 10 1027 53 10000 1.54 170 23:44 17.01.2021
3629 Clear 10 1027 53 10000 3.09 180 23:20 17.01.2021
3630 Clear 11 1027 54 10000 2.06 160 22:28 17.01.2021
3631 Clear 11 1027 54 10000 1.03 0 21:59 17.01.2021
3632 Clear 12 1027 50 10000 0.51 0 21:39 17.01.2021
3633 Clear 12 1027 50 10000 0.51 0 21:21 17.01.2021
3634 Clear 13 1027 44 10000 1.03 0 20:47 17.01.2021
3635 Clear 13 1027 44 10000 1.03 0 20:47 17.01.2021
3636 Clear 14 1026 38 10000 1.54 240 20:25 17.01.2021
3637 Clear 17 1026 29 10000 1.54 270 19:42 17.01.2021
3638 Clear 17 1026 29 10000 1.54 270 19:21 17.01.2021
3639 Clear 19 1026 26 10000 2.06 280 18:38 17.01.2021
3640 Clear 19 1026 26 10000 2.06 280 18:19 17.01.2021
3641 Clear 20 1026 26 10000 1.54 300 17:45 17.01.2021
3642 Clear 20 1025 24 10000 3.09 310 17:24 17.01.2021
3643 Clear 19 1025 32 10000 3.09 290 16:43 17.01.2021
3644 Clear 20 1025 32 10000 3.09 290 16:20 17.01.2021
3645 Clear 20 1025 34 10000 2.06 280 15:42 17.01.2021
3646 Clear 19 1025 39 10000 1.54 0 15:21 17.01.2021
3647 Clear 18 1026 42 10000 1.54 300 14:47 17.01.2021
3648 Clear 16 1026 48 10000 1.54 290 14:26 17.01.2021
3649 Clear 15 1027 51 10000 1.03 0 13:44 17.01.2021
3650 Clear 14 1027 51 10000 1.54 340 13:26 17.01.2021
3651 Clear 15 1027 47 10000 1.03 0 12:52 17.01.2021
3652 Clear 15 1027 51 10000 0.51 0 12:30 17.01.2021
3653 Clear 12 1027 58 10000 1.03 0 11:48 17.01.2021
3654 Clear 12 1027 54 10000 1.54 100 11:22 17.01.2021
3655 Clear 10 1027 66 10000 1.03 0 10:44 17.01.2021
3656 Clear 8 1026 81 10000 1.03 0 10:20 17.01.2021
3657 Clear 4 1026 87 10000 1.54 70 09:20 17.01.2021
3658 Clear 3 1026 87 10000 1.03 0 08:43 17.01.2021
3659 Clear 4 1025 87 10000 2.57 90 06:29 17.01.2021
3660 Clear 7 1025 70 10000 1.54 190 04:28 17.01.2021
3661 Clear 6 1025 75 10000 1.03 0 02:38 17.01.2021
3662 Clear 7 1025 70 10000 1.03 0 00:47 17.01.2021
3663 Clear 7 1025 70 10000 1.54 130 00:18 17.01.2021
3664 Clear 9 1025 61 10000 1.03 0 23:48 16.01.2021
3665 Clear 9 1025 66 10000 2.06 90 23:19 16.01.2021
3666 Clear 9 1025 66 10000 2.57 90 22:34 16.01.2021
3667 Clear 12 1025 54 10000 2.57 120 21:58 16.01.2021
3668 Clear 12 1025 54 10000 2.06 40 21:24 16.01.2021
3669 Clear 13 1025 50 10000 0.51 0 20:53 16.01.2021
3670 Clear 13 1025 50 10000 0.51 0 20:53 16.01.2021
3671 Clear 13 1024 50 10000 1.03 0 20:30 16.01.2021
3672 Clear 14 1024 44 10000 2.06 60 19:55 16.01.2021
3673 Clear 16 1024 39 10000 1.54 70 19:37 16.01.2021
3674 Clear 16 1024 39 10000 1.54 70 19:18 16.01.2021
3675 Clear 18 1023 32 10000 2.57 70 18:40 16.01.2021
3676 Clear 18 1023 32 10000 2.57 70 18:20 16.01.2021
3677 Clear 19 1023 27 10000 3.09 60 17:41 16.01.2021
3678 Clear 19 1023 27 10000 3.6 60 17:21 16.01.2021
3679 Clear 19 1023 34 10000 3.09 50 16:45 16.01.2021
3680 Clear 19 1023 34 10000 3.09 40 16:21 16.01.2021
3681 Clear 18 1023 32 10000 2.57 30 15:43 16.01.2021
3682 Clear 17 1024 39 10000 2.57 30 14:59 16.01.2021
3683 Clear 16 1024 41 10000 2.57 50 14:18 16.01.2021
3684 Clear 15 1025 44 10000 2.06 80 13:47 16.01.2021
3685 Clear 14 1025 44 10000 2.57 70 13:19 16.01.2021
3686 Clear 12 1026 54 10000 2.57 60 12:39 16.01.2021
3687 Clear 12 1026 54 10000 2.57 60 12:20 16.01.2021
3688 Clear 11 1026 58 10000 3.09 80 11:46 16.01.2021
3689 Clear 9 1026 66 10000 3.09 90 11:24 16.01.2021
3690 Clear 8 1026 71 10000 3.09 60 10:43 16.01.2021
3691 Clear 5 1025 81 10000 0.51 0 09:59 16.01.2021
3692 Clear 3 1025 87 10000 1.03 0 09:31 16.01.2021
3693 Clear 2 1025 87 10000 2.06 90 08:32 16.01.2021
3694 Clear 3 1025 87 10000 1.54 80 07:31 16.01.2021
3695 Clear 4 1024 87 10000 1.54 70 06:43 16.01.2021
3696 Clear 4 1025 81 10000 1.54 80 04:39 16.01.2021
3697 Clear 4 1025 87 10000 1.54 70 02:55 16.01.2021
3698 Clear 7 1025 70 10000 1.54 60 00:49 16.01.2021
3699 Clear 7 1026 70 10000 2.57 60 00:26 16.01.2021
3700 Clear 7 1026 70 10000 2.06 60 23:49 15.01.2021
3701 Clear 8 1025 71 10000 2.57 110 22:51 15.01.2021
3702 Clear 7 1025 76 10000 2.57 110 22:23 15.01.2021
3703 Clear 8 1025 71 10000 2.06 90 21:46 15.01.2021
3704 Clear 11 1025 54 10000 2.57 60 20:58 15.01.2021
3705 Clear 12 1025 50 10000 2.57 50 20:40 15.01.2021
3706 Clear 12 1025 50 10000 2.57 50 20:19 15.01.2021
3707 Clear 13 1025 47 10000 3.09 40 19:40 15.01.2021
3708 Clear 13 1025 47 10000 3.09 40 19:22 15.01.2021
3709 Clear 14 1025 44 10000 3.6 40 18:43 15.01.2021
3710 Clear 15 1025 41 10000 3.6 40 18:19 15.01.2021
3711 Clear 16 1025 41 10000 3.09 50 17:51 15.01.2021
3712 Clear 16 1025 41 10000 2.57 30 17:24 15.01.2021
3713 Clear 16 1025 41 10000 2.06 0 16:52 15.01.2021
3714 Clear 16 1025 41 10000 2.57 0 16:25 15.01.2021
3715 Clear 15 1025 41 10000 3.6 30 15:42 15.01.2021
3716 Clear 15 1025 44 10000 2.06 0 15:22 15.01.2021
3717 Clear 14 1025 47 10000 3.6 70 14:50 15.01.2021
3718 Clear 14 1025 47 10000 2.57 40 14:27 15.01.2021
3719 Clear 13 1026 50 10000 3.09 70 13:44 15.01.2021
3720 Clear 12 1027 54 10000 3.6 60 13:23 15.01.2021
3721 Clear 12 1027 50 10000 3.09 60 12:59 15.01.2021
3722 Clear 11 1027 54 10000 2.57 50 12:34 15.01.2021
3723 Clear 10 1028 57 10000 2.57 60 11:59 15.01.2021
3724 Clear 10 1028 57 10000 2.57 60 11:41 15.01.2021
3725 Clear 7 1027 76 10000 3.09 100 10:57 15.01.2021
3726 Clear 5 1027 81 10000 3.09 90 10:39 15.01.2021
3727 Clear 5 1027 81 10000 3.09 90 10:19 15.01.2021
3728 Clear 4 1027 87 10000 2.06 80 09:45 15.01.2021
3729 Clear 3 1027 93 10000 1.54 70 09:27 15.01.2021
3730 Clear 2 1026 87 10000 2.06 100 08:27 15.01.2021
3731 Clear 2 1026 93 10000 2.06 70 07:41 15.01.2021
3732 Clear 2 1026 87 10000 2.06 90 07:20 15.01.2021
3733 Clear 3 1027 87 10000 2.57 110 05:36 15.01.2021
3734 Clear 5 1027 81 10000 1.54 90 02:19 15.01.2021
3735 Clear 7 1027 70 10000 2.06 70 00:20 15.01.2021
3736 Clear 7 1027 70 10000 2.57 100 23:29 14.01.2021
3737 Clear 7 1027 76 10000 2.57 110 22:50 14.01.2021
3738 Clear 8 1027 71 10000 2.57 80 22:27 14.01.2021
3739 Clear 9 1027 66 10000 2.57 70 21:56 14.01.2021
3740 Clear 10 1027 62 10000 3.6 50 21:37 14.01.2021
3741 Clear 10 1027 62 10000 3.6 50 21:19 14.01.2021
3742 Clear 11 1027 54 10000 3.6 50 20:42 14.01.2021
3743 Clear 12 1027 50 10000 3.6 30 19:54 14.01.2021
3744 Clear 13 1026 44 10000 3.09 20 19:35 14.01.2021
3745 Clear 14 1026 38 10000 3.09 10 18:56 14.01.2021
3746 Clear 15 1026 36 10000 2.06 50 18:34 14.01.2021
3747 Clear 15 1026 36 10000 3.09 50 17:54 14.01.2021
3748 Clear 16 1026 36 10000 2.57 50 17:28 14.01.2021
3749 Clear 15 1026 36 10000 3.09 40 16:54 14.01.2021
3750 Clear 15 1026 36 10000 2.57 40 16:27 14.01.2021
3751 Clear 15 1026 36 10000 2.57 40 16:27 14.01.2021
3752 Clear 15 1026 38 10000 2.06 0 15:52 14.01.2021
3753 Clear 15 1027 38 10000 2.06 40 15:28 14.01.2021
3754 Clear 14 1027 41 10000 2.06 10 14:42 14.01.2021
3755 Clear 14 1028 41 10000 1.54 320 14:22 14.01.2021
3756 Clear 13 1029 47 10000 1.54 0 13:54 14.01.2021
3757 Clear 12 1029 50 10000 2.06 300 13:23 14.01.2021
3758 Clear 12 1029 58 10000 1.03 0 12:56 14.01.2021
3759 Clear 11 1030 62 10000 1.54 330 12:21 14.01.2021
3760 Clear 11 1030 62 10000 1.54 330 12:21 14.01.2021
3761 Clear 10 1030 71 10000 1.03 0 11:54 14.01.2021
3762 Clear 9 1029 71 10000 1.54 290 11:27 14.01.2021
3763 Clear 8 1029 76 10000 1.54 250 10:58 14.01.2021
3764 Clear 6 1029 87 10000 1.54 250 10:40 14.01.2021
3765 Clear 6 1029 87 10000 1.54 250 10:40 14.01.2021
3766 Clear 6 1029 87 10000 1.54 250 10:18 14.01.2021
3767 Clear 6 1028 81 10000 0.51 0 09:42 14.01.2021
3768 Clear 4 1028 87 10000 1.54 180 09:20 14.01.2021
3769 Clear 2 1028 93 10000 0.51 0 08:30 14.01.2021
3770 Clear 2 1028 93 10000 0.51 0 07:57 14.01.2021
3771 Clear 2 1028 93 10000 0.51 0 07:31 14.01.2021
3772 Clear 3 1028 87 10000 1.03 0 06:34 14.01.2021
3773 Clear 3 1028 87 10000 1.54 60 04:57 14.01.2021
3774 Clear 7 1029 70 10000 1.54 150 00:27 14.01.2021
3775 Clear 8 1028 71 10000 1.54 120 23:28 13.01.2021
3776 Clear 8 1028 76 10000 1.54 120 22:48 13.01.2021
3777 Clear 9 1028 71 10000 2.06 110 22:20 13.01.2021
3778 Clear 12 1028 50 10000 1.54 50 21:43 13.01.2021
3779 Clear 12 1028 50 10000 1.54 50 21:22 13.01.2021
3780 Clear 13 1028 47 10000 1.54 30 20:51 13.01.2021
3781 Clear 13 1028 44 10000 1.03 0 20:23 13.01.2021
3782 Clear 14 1028 38 10000 1.03 0 19:48 13.01.2021
3783 Clear 14 1027 38 10000 1.54 90 19:24 13.01.2021
3784 Clear 16 1027 31 10000 1.54 90 18:46 13.01.2021
3785 Clear 17 1027 27 10000 1.54 0 18:25 13.01.2021
3786 Clear 17 1027 27 10000 2.06 50 17:42 13.01.2021
3787 Clear 18 1027 27 10000 1.54 0 17:18 13.01.2021
3788 Clear 18 1027 27 10000 1.54 0 16:45 13.01.2021
3789 Clear 18 1027 27 10000 2.06 330 16:21 13.01.2021
3790 Clear 18 1027 29 10000 1.54 330 15:41 13.01.2021
3791 Clear 18 1027 29 10000 1.54 0 15:20 13.01.2021
3792 Clear 18 1028 29 10000 1.03 0 14:30 13.01.2021
3793 Clear 17 1028 36 10000 1.03 0 13:48 13.01.2021
3794 Clear 15 1028 44 10000 1.03 0 13:25 13.01.2021
3795 Clear 14 1029 51 10000 1.03 0 12:46 13.01.2021
3796 Clear 12 1029 58 10000 1.54 110 12:25 13.01.2021
3797 Clear 11 1029 62 10000 1.54 90 11:51 13.01.2021
3798 Clear 8 1029 76 10000 2.06 90 11:33 13.01.2021
3799 Clear 7 1029 76 10000 1.54 80 10:49 13.01.2021
3800 Clear 4 1028 87 10000 1.03 0 10:29 13.01.2021
3801 Clear 4 1028 87 10000 1.03 0 09:49 13.01.2021
3802 Clear 2 1028 93 10000 2.57 90 09:26 13.01.2021
3803 Clear 1 1028 93 10000 2.57 80 08:45 13.01.2021
3804 Clear 2 1028 93 10000 2.57 80 08:23 13.01.2021
3805 Clear 2 1027 93 10000 2.06 70 07:29 13.01.2021
3806 Clear 3 1027 93 10000 2.06 70 06:21 13.01.2021
3807 Clear 3 1027 93 10000 1.03 0 04:19 13.01.2021
3808 Clear 3 1027 93 10000 1.03 0 03:44 13.01.2021
3809 Clear 4 1027 87 10000 1.03 0 03:22 13.01.2021
3810 Clear 6 1027 87 10000 2.06 90 00:51 13.01.2021
3811 Clear 6 1027 87 10000 2.06 100 23:44 12.01.2021
3812 Clear 7 1026 81 10000 2.06 100 22:59 12.01.2021
3813 Clear 8 1026 81 10000 2.06 90 22:39 12.01.2021
3814 Clear 8 1026 81 10000 2.06 90 22:19 12.01.2021
3815 Clear 8 1026 81 10000 2.06 90 21:44 12.01.2021
3816 Clear 9 1026 71 10000 1.54 70 21:25 12.01.2021
3817 Clear 10 1025 66 10000 2.06 40 20:47 12.01.2021
3818 Clear 11 1025 62 10000 2.57 40 20:27 12.01.2021
3819 Clear 12 1025 58 10000 3.09 40 19:44 12.01.2021
3820 Clear 14 1025 47 10000 2.06 80 18:59 12.01.2021
3821 Clear 14 1025 47 10000 2.06 80 18:41 12.01.2021
3822 Clear 15 1024 41 10000 2.06 50 18:21 12.01.2021
3823 Clear 15 1024 41 10000 2.06 70 17:34 12.01.2021
3824 Clear 15 1024 41 10000 2.57 80 16:56 12.01.2021
3825 Clear 15 1024 41 10000 2.57 80 16:38 12.01.2021
3826 Clear 15 1024 41 10000 2.57 80 16:18 12.01.2021
3827 Clear 15 1024 41 10000 2.57 80 16:18 12.01.2021
3828 Clear 14 1024 47 10000 3.09 50 15:29 12.01.2021
3829 Clear 13 1024 50 10000 3.6 60 14:58 12.01.2021
3830 Clear 13 1025 50 10000 2.57 40 14:39 12.01.2021
3831 Clear 13 1025 50 10000 2.57 40 14:19 12.01.2021
3832 Clear 13 1025 50 10000 2.57 30 13:46 12.01.2021
3833 Clear 11 1026 58 8000 2.57 70 12:39 12.01.2021
3834 Clear 10 1026 66 8000 2.06 100 11:55 12.01.2021
3835 Clear 9 1026 71 8000 2.06 80 11:36 12.01.2021
3836 Clear 8 1026 76 8000 2.06 60 10:45 12.01.2021
3837 Clear 6 1025 87 8000 1.54 90 10:20 12.01.2021
3838 Clear 6 1025 87 8000 1.54 90 10:20 12.01.2021
3839 Clear 4 1025 100 8000 1.03 0 09:55 12.01.2021
3840 Clear 3 1025 93 8000 1.54 60 09:24 12.01.2021
3841 Clear 3 1025 93 8000 1.03 0 08:42 12.01.2021
3842 Clear 2 1025 100 8000 2.57 100 08:21 12.01.2021
3843 Clear 2 1024 100 8000 2.06 70 07:34 12.01.2021
3844 Clouds 3 1023 93 8000 2.57 80 06:20 12.01.2021
3845 Clouds 3 1024 100 8000 2.06 90 05:26 12.01.2021
3846 Clouds 5 1024 93 8000 1.54 150 03:24 12.01.2021
3847 Clouds 5 1024 93 8000 1.03 0 02:18 12.01.2021
3848 Clouds 5 1024 93 8000 2.06 90 01:25 12.01.2021
3849 Clouds 6 1023 93 8000 2.57 80 23:45 11.01.2021
3850 Clouds 6 1023 87 8000 2.57 100 23:20 11.01.2021
3851 Clouds 7 1023 87 8000 2.06 90 22:50 11.01.2021
3852 Clouds 7 1023 87 8000 2.06 110 22:32 11.01.2021
3853 Clouds 8 1023 81 8000 2.57 90 21:55 11.01.2021
3854 Clouds 8 1022 81 8000 2.06 60 21:37 11.01.2021
3855 Clouds 8 1022 81 8000 2.06 60 21:18 11.01.2021
3856 Clouds 8 1022 81 8000 2.06 80 20:40 11.01.2021
3857 Clouds 8 1022 81 8000 2.06 80 20:22 11.01.2021
3858 Clouds 9 1022 71 8000 2.57 60 19:52 11.01.2021
3859 Clouds 10 1021 66 8000 1.54 10 19:23 11.01.2021
3860 Clouds 11 1021 66 8000 3.6 10 18:44 11.01.2021
3861 Clouds 12 1021 66 8000 3.09 350 18:24 11.01.2021
3862 Clouds 12 1021 66 8000 2.57 330 17:43 11.01.2021
3863 Clouds 12 1021 66 8000 3.6 320 17:25 11.01.2021
3864 Clouds 12 1020 66 8000 3.09 290 16:50 11.01.2021
3865 Clouds 12 1020 62 8000 3.09 300 16:30 11.01.2021
3866 Clouds 12 1020 66 8000 3.09 300 15:59 11.01.2021
3867 Clouds 12 1020 62 8000 3.6 300 15:37 11.01.2021
3868 Clouds 12 1020 62 8000 4.12 280 14:58 11.01.2021
3869 Clouds 12 1020 66 8000 5.66 260 14:38 11.01.2021
3870 Clouds 12 1021 66 8000 5.66 270 13:48 11.01.2021
3871 Clouds 11 1021 76 8000 4.63 260 13:24 11.01.2021
3872 Clouds 11 1021 76 8000 4.63 270 12:45 11.01.2021
3873 Clouds 10 1021 76 8000 3.09 290 12:27 11.01.2021
3874 Clouds 10 1021 76 8000 3.09 280 11:50 11.01.2021
3875 Rain 10 1021 76 8000 3.6 240 11:21 11.01.2021
3876 Rain 9 1020 81 8000 3.09 220 10:42 11.01.2021
3877 Rain 9 1020 81 8000 3.6 210 10:23 11.01.2021
3878 Rain 8 1019 87 8000 3.6 190 09:37 11.01.2021
3879 Rain 8 1019 87 8000 3.6 190 09:19 11.01.2021
3880 Rain 8 1019 87 8000 3.6 200 08:43 11.01.2021
3881 Rain 8 1018 87 8000 4.12 230 07:51 11.01.2021
3882 Rain 7 1018 93 8000 4.12 230 07:25 11.01.2021
3883 Rain 7 1018 93 8000 2.57 240 06:50 11.01.2021
3884 Rain 8 1017 87 8000 5.14 240 02:57 11.01.2021
3885 Clouds 8 1017 87 8000 4.12 250 01:25 11.01.2021
3886 Rain 8 1017 87 8000 3.09 240 23:51 10.01.2021
3887 Rain 8 1017 87 8000 3.6 250 23:24 10.01.2021
3888 Rain 8 1017 87 8000 4.63 260 22:46 10.01.2021
3889 Rain 8 1017 81 9000 6.17 240 22:20 10.01.2021
3890 Rain 9 1016 76 9000 5.66 230 21:44 10.01.2021
3891 Rain 8 1016 87 8000 5.14 230 21:20 10.01.2021
3892 Rain 8 1016 87 8000 5.14 240 20:50 10.01.2021
3893 Clouds 8 1016 87 8000 5.14 240 20:29 10.01.2021
3894 Clouds 8 1016 87 8000 4.12 260 19:42 10.01.2021
3895 Rain 8 1015 81 8000 5.14 260 19:24 10.01.2021
3896 Rain 9 1015 81 8000 7.2 280 18:46 10.01.2021
3897 Rain 11 1015 71 8000 8.23 270 18:21 10.01.2021
3898 Rain 11 1014 71 6000 8.23 260 17:27 10.01.2021
3899 Rain 11 1014 76 6000 6.69 260 16:58 10.01.2021
3900 Rain 10 1014 87 5000 3.6 260 16:32 10.01.2021
3901 Rain 10 1014 87 5000 4.63 250 15:43 10.01.2021
3902 Clouds 9 1014 87 5000 4.12 250 15:24 10.01.2021
3903 Rain 8 1015 87 5000 6.17 250 14:43 10.01.2021
3904 Rain 7 1015 93 5000 4.12 260 14:24 10.01.2021
3905 Rain 7 1016 93 5000 4.63 270 13:54 10.01.2021
3906 Rain 8 1016 87 5000 6.69 250 13:36 10.01.2021
3907 Rain 8 1016 87 5000 6.69 250 13:18 10.01.2021
3908 Rain 8 1016 87 7000 4.12 240 12:42 10.01.2021
3909 Rain 7 1016 93 7000 4.12 260 11:58 10.01.2021
3910 Rain 7 1016 93 5000 4.63 290 11:22 10.01.2021
3911 Rain 8 1016 93 7000 4.63 240 10:58 10.01.2021
3912 Rain 7 1015 93 5000 6.69 230 10:28 10.01.2021
3913 Rain 7 1015 93 5000 6.17 230 09:57 10.01.2021
3914 Rain 7 1015 93 5000 6.69 250 09:18 10.01.2021
3915 Rain 8 1014 81 8000 4.12 240 08:19 10.01.2021
3916 Rain 8 1013 81 6000 6.69 240 07:28 10.01.2021
3917 Rain 8 1013 87 6000 5.66 230 06:19 10.01.2021
3918 Rain 8 1013 81 6000 6.17 250 05:35 10.01.2021
3919 Rain 8 1014 81 6000 6.17 230 02:55 10.01.2021
3920 Rain 8 1015 87 6000 6.17 230 00:48 10.01.2021
3921 Rain 8 1015 87 5000 5.14 240 23:43 09.01.2021
3922 Rain 8 1015 87 5000 4.12 240 23:25 09.01.2021
3923 Rain 8 1015 87 8000 5.66 250 22:44 09.01.2021
3924 Rain 9 1015 81 8000 6.69 250 22:18 09.01.2021
3925 Rain 9 1014 81 8000 6.69 230 21:41 09.01.2021
3926 Rain 9 1014 87 8000 5.66 230 21:23 09.01.2021
3927 Rain 8 1014 87 8000 4.63 240 20:59 09.01.2021
3928 Rain 9 1014 87 8000 4.63 230 20:38 09.01.2021
3929 Rain 9 1014 87 8000 4.63 220 19:44 09.01.2021
3930 Rain 9 1014 87 8000 3.6 210 19:22 09.01.2021
3931 Rain 8 1014 87 8000 4.63 270 18:39 09.01.2021
3932 Rain 8 1014 87 3500 7.2 260 18:20 09.01.2021
3933 Rain 9 1013 76 8000 6.69 300 17:45 09.01.2021
3934 Rain 12 1012 66 8000 7.72 260 17:27 09.01.2021
3935 Rain 12 1012 62 8000 9.26 270 16:33 09.01.2021
3936 Rain 12 1012 66 8000 8.75 250 15:48 09.01.2021
3937 Rain 12 1012 66 8000 8.75 250 15:48 09.01.2021
3938 Rain 12 1012 71 8000 7.72 270 15:28 09.01.2021
3939 Rain 12 1012 66 8000 6.69 270 14:40 09.01.2021
3940 Rain 12 1012 66 8000 6.69 270 14:20 09.01.2021
3941 Rain 12 1013 66 8000 6.69 290 13:47 09.01.2021
3942 Rain 12 1013 71 8000 7.72 280 13:29 09.01.2021
3943 Rain 13 1014 62 8000 6.17 270 12:48 09.01.2021
3944 Rain 12 1014 71 8000 5.66 260 12:22 09.01.2021
3945 Rain 12 1014 71 8000 5.66 260 11:50 09.01.2021
3946 Rain 12 1014 76 10000 4.63 250 11:30 09.01.2021
3947 Rain 11 1014 76 8000 4.63 240 10:52 09.01.2021
3948 Rain 10 1014 87 8000 4.12 220 10:30 09.01.2021
3949 Rain 9 1013 87 8000 3.09 210 09:52 09.01.2021
3950 Rain 8 1013 93 8000 3.09 230 09:25 09.01.2021
3951 Clouds 8 1013 93 8000 3.6 260 08:28 09.01.2021
3952 Clouds 8 1012 100 8000 5.14 260 06:57 09.01.2021
3953 Clouds 9 1011 93 8000 4.12 250 06:39 09.01.2021
3954 Rain 9 1011 93 5000 4.63 270 04:47 09.01.2021
3955 Rain 10 1011 93 2500 5.14 290 03:20 09.01.2021
3956 Rain 10 1010 93 2500 5.14 290 02:29 09.01.2021
3957 Rain 10 1010 100 2500 5.14 290 01:44 09.01.2021
3958 Rain 11 1010 93 6000 5.66 280 00:35 09.01.2021
3959 Rain 11 1010 93 6000 4.12 270 23:57 08.01.2021
3960 Rain 12 1010 94 6000 4.12 270 22:57 08.01.2021
3961 Rain 12 1009 87 6000 4.12 270 22:18 08.01.2021
3962 Rain 12 1008 94 6000 5.66 300 21:37 08.01.2021
3963 Clouds 13 1008 88 6000 7.2 290 20:46 08.01.2021
3964 Rain 13 1007 88 6000 7.2 290 20:25 08.01.2021
3965 Rain 14 1007 82 5000 10.8 280 19:45 08.01.2021
3966 Rain 14 1005 82 5000 11.83 290 19:22 08.01.2021
3967 Rain 16 1004 72 5000 12.35 280 18:35 08.01.2021
3968 Clouds 19 1003 55 5000 14.92 280 17:57 08.01.2021
3969 Clouds 18 1002 63 5000 14.4 270 17:35 08.01.2021
3970 Dust 17 1002 67 2000 10.8 270 16:56 08.01.2021
3971 Dust 19 1001 55 2000 13.38 260 16:26 08.01.2021
3972 Clouds 22 1001 60 7000 1.54 0 15:43 08.01.2021
3973 Rain 21 1000 68 7000 4.12 100 14:51 08.01.2021
3974 Rain 21 1000 68 7000 3.6 350 14:32 08.01.2021
3975 Rain 18 1002 77 7000 2.57 310 13:39 08.01.2021
3976 Clouds 18 1002 77 7000 2.57 310 13:18 08.01.2021
3977 Clouds 18 1002 77 7000 2.57 310 13:18 08.01.2021
3978 Rain 18 1002 72 7000 2.06 280 12:42 08.01.2021
3979 Clouds 18 1002 72 7000 2.06 0 12:19 08.01.2021
3980 Clouds 18 1002 72 7000 2.57 350 11:42 08.01.2021
3981 Clouds 16 1002 82 10000 1.54 360 11:22 08.01.2021
3982 Clouds 16 1002 77 10000 1.54 0 10:48 08.01.2021
3983 Clouds 16 1002 77 10000 3.09 350 10:24 08.01.2021
3984 Clouds 15 1001 82 10000 2.57 40 09:44 08.01.2021
3985 Rain 13 1001 94 10000 3.09 50 09:21 08.01.2021
3986 Rain 13 1001 88 8000 2.57 40 08:19 08.01.2021
3987 Clouds 13 1002 88 8000 2.57 50 07:25 08.01.2021
3988 Rain 14 1003 88 6000 2.57 70 04:47 08.01.2021
3989 Rain 14 1006 94 6000 2.06 30 23:46 07.01.2021
3990 Rain 14 1006 88 6000 1.54 60 23:28 07.01.2021
3991 Rain 15 1006 88 6000 1.54 360 22:44 07.01.2021
3992 Rain 16 1007 82 6000 2.06 30 22:21 07.01.2021
3993 Rain 17 1007 82 6000 2.57 120 21:41 07.01.2021
3994 Rain 16 1006 82 6000 3.6 0 21:22 07.01.2021
3995 Clouds 16 1006 82 8000 2.57 240 20:45 07.01.2021
3996 Clouds 17 1007 77 8000 3.6 280 20:26 07.01.2021
3997 Rain 16 1006 88 5000 3.09 290 19:42 07.01.2021
3998 Clouds 18 1006 77 8000 3.09 350 18:55 07.01.2021
3999 Clouds 19 1006 68 8000 2.06 340 18:30 07.01.2021
4000 Clouds 19 1005 72 8000 1.54 30 17:42 07.01.2021
4001 Rain 20 1006 68 4500 0.51 0 17:22 07.01.2021
4002 Clouds 20 1005 68 10000 0.51 0 16:52 07.01.2021
4003 Clouds 21 1005 64 10000 1.54 90 16:24 07.01.2021
4004 Clouds 22 1005 60 10000 1.03 0 15:37 07.01.2021
4005 Clouds 20 1005 64 10000 1.54 0 14:45 07.01.2021
4006 Clouds 21 1006 64 8000 2.06 40 14:26 07.01.2021
4007 Clouds 19 1006 72 8000 2.57 70 13:41 07.01.2021
4008 Clouds 19 1007 72 8000 3.09 80 13:18 07.01.2021
4009 Clouds 19 1007 77 8000 2.57 60 12:35 07.01.2021
4010 Clouds 17 1008 82 8000 3.6 80 11:52 07.01.2021
4011 Clouds 16 1008 82 8000 4.1 110 11:34 07.01.2021
4012 Clouds 14 1008 87 8000 4.6 110 10:48 07.01.2021
4013 Clouds 13 1008 93 8000 3.6 110 10:20 07.01.2021
4014 Clouds 12 1008 93 8000 4.1 90 09:46 07.01.2021
4015 Clouds 11 1008 93 8000 3.6 110 09:18 07.01.2021
4016 Clouds 12 1008 87 8000 3.1 120 08:27 07.01.2021
4017 Clouds 11 1007 93 8000 2.6 110 07:46 07.01.2021
4018 Clouds 13 1007 87 8000 2.6 130 07:18 07.01.2021
4019 Rain 14 1007 87 8000 3.1 140 04:22 07.01.2021
4020 Clouds 15 1006 77 8000 1 0 00:28 07.01.2021
4021 Clouds 15 1006 82 8000 1 0 23:38 06.01.2021
4022 Clouds 15 1006 82 8000 2.1 280 22:37 06.01.2021
4023 Rain 17 1005 72 8000 2.6 340 21:44 06.01.2021
4024 Rain 17 1005 72 8000 2.6 340 21:23 06.01.2021
4025 Clouds 19 1005 48 8000 2.1 0 20:53 06.01.2021
4026 Clouds 19 1005 48 8000 2.1 0 20:24 06.01.2021
4027 Clouds 18 1005 55 8000 1 0 19:49 06.01.2021
4028 Clouds 20 1005 52 8000 1 0 19:30 06.01.2021
4029 Clouds 21 1005 40 8000 1 0 18:59 06.01.2021
4030 Clouds 21 1005 40 8000 1.5 170 18:39 06.01.2021
4031 Clouds 21 1005 40 8000 1.5 170 18:18 06.01.2021
4032 Clouds 23 1005 40 8000 1 0 17:42 06.01.2021
4033 Clouds 23 1005 40 8000 1 0 17:21 06.01.2021
4034 Clouds 21 1005 40 8000 1.5 0 16:40 06.01.2021
4035 Clouds 21 1005 40 8000 1.5 0 16:19 06.01.2021
4036 Clouds 21 1005 43 8000 2.1 310 15:50 06.01.2021
4037 Clouds 21 1005 43 8000 2.1 310 15:50 06.01.2021
4038 Clouds 20 1005 42 8000 2.6 310 15:26 06.01.2021
4039 Clouds 19 1005 48 8000 1.5 280 14:44 06.01.2021
4040 Clouds 19 1005 48 8000 1.5 280 14:19 06.01.2021
4041 Clouds 18 1006 52 10000 2.1 40 13:42 06.01.2021
4042 Clouds 18 1006 52 10000 2.1 40 13:20 06.01.2021
4043 Clouds 16 1006 59 10000 2.1 70 12:46 06.01.2021
4044 Clouds 14 1007 62 10000 2.1 70 11:51 06.01.2021
4045 Clouds 14 1007 62 10000 3.1 50 11:24 06.01.2021
4046 Clouds 14 1007 67 10000 3.1 70 10:46 06.01.2021
4047 Clouds 10 1008 81 10000 2.1 40 09:58 06.01.2021
4048 Clouds 8 1007 87 10000 2.6 100 09:40 06.01.2021
4049 Clouds 8 1007 87 10000 3.1 80 08:56 06.01.2021
4050 Clouds 8 1008 87 10000 3.6 90 08:21 06.01.2021
4051 Clouds 8 1008 87 10000 2.6 110 07:54 06.01.2021
4052 Clouds 9 1008 81 10000 1.5 90 06:45 06.01.2021
4053 Clear 9 1008 87 10000 2.1 110 05:32 06.01.2021
4054 Clear 10 1008 81 10000 2.1 70 04:32 06.01.2021
4055 Clear 10 1008 81 10000 1.5 120 02:46 06.01.2021
4056 Clear 10 1009 87 10000 1.5 120 02:23 06.01.2021
4057 Clouds 13 1010 71 10000 1.5 240 00:29 06.01.2021
4058 Clouds 13 1009 76 10000 1.5 250 23:23 05.01.2021
4059 Clouds 14 1009 71 10000 2.1 160 22:41 05.01.2021
4060 Clouds 14 1009 71 10000 2.1 160 22:20 05.01.2021
4061 Clouds 15 1009 67 10000 4.6 280 21:52 05.01.2021
4062 Clouds 16 1008 67 10000 4.6 290 20:41 05.01.2021
4063 Clouds 16 1008 67 10000 4.6 290 20:23 05.01.2021
4064 Clouds 18 1007 63 10000 5.7 290 19:42 05.01.2021
4065 Clouds 18 1007 63 10000 5.7 290 19:21 05.01.2021
4066 Clouds 19 1007 52 10000 9.3 280 18:43 05.01.2021
4067 Clouds 19 1007 52 10000 9.3 280 18:24 05.01.2021
4068 Clouds 20 1007 56 10000 6.2 290 17:49 05.01.2021
4069 Clouds 20 1007 56 10000 9.8 280 17:27 05.01.2021
4070 Clouds 20 1007 52 10000 9.8 280 16:52 05.01.2021
4071 Clouds 19 1006 59 10000 6.7 290 16:21 05.01.2021
4072 Clouds 20 1006 56 10000 8.2 280 15:50 05.01.2021
4073 Clouds 18 1007 68 10000 2.6 330 14:57 05.01.2021
4074 Clouds 19 1007 63 10000 6.7 270 14:38 05.01.2021
4075 Clouds 18 1007 68 10000 4.1 270 13:50 05.01.2021
4076 Clouds 18 1008 68 10000 3.6 280 13:26 05.01.2021
4077 Clouds 19 1009 63 10000 1.5 0 12:49 05.01.2021
4078 Clouds 17 1009 67 10000 1.5 120 12:26 05.01.2021
4079 Clouds 15 1010 82 5000 2.1 120 11:39 05.01.2021
4080 Clouds 14 1010 82 5000 2.1 110 10:56 05.01.2021
4081 Clouds 13 1010 87 5000 1.5 80 10:37 05.01.2021
4082 Clouds 12 1010 87 5000 1.5 90 09:50 05.01.2021
4083 Rain 11 1010 87 5000 0.5 0 09:30 05.01.2021
4084 Clouds 11 1010 87 6000 2.6 110 08:29 05.01.2021
4085 Clouds 11 1010 87 6000 2.6 110 08:29 05.01.2021
4086 Clouds 10 1010 93 6000 2.6 70 07:50 05.01.2021
4087 Rain 10 1010 81 6000 4.1 120 04:59 05.01.2021
4088 Clouds 10 1012 57 8000 2.1 260 01:31 05.01.2021
4089 Clouds 11 1012 50 8000 2.1 290 00:21 05.01.2021
4090 Clouds 12 1012 46 8000 0.5 0 23:38 04.01.2021
4091 Clouds 12 1012 46 8000 0.5 0 23:19 04.01.2021
4092 Clouds 13 1012 43 8000 2.1 170 22:41 04.01.2021
4093 Clouds 12 1013 46 8000 1.5 250 21:56 04.01.2021
4094 Clouds 12 1013 46 8000 2.1 260 21:37 04.01.2021
4095 Clouds 13 1012 43 8000 1.5 290 20:52 04.01.2021
4096 Clouds 14 1012 44 8000 2.1 310 20:32 04.01.2021
4097 Clouds 14 1012 43 8000 2.1 330 19:55 04.01.2021
4098 Clouds 15 1012 38 8000 1.5 350 19:29 04.01.2021
4099 Clouds 15 1012 40 8000 2.6 360 18:58 04.01.2021
4100 Clouds 16 1012 32 8000 1.5 340 18:29 04.01.2021
4101 Clouds 17 1011 33 8000 1.5 30 17:44 04.01.2021
4102 Clouds 17 1011 33 8000 1.5 30 17:26 04.01.2021
4103 Clouds 17 1011 33 8000 2.1 20 16:48 04.01.2021
4104 Clouds 17 1011 33 8000 2.1 40 16:27 04.01.2021
4105 Clouds 17 1011 33 8000 1 0 15:52 04.01.2021
4106 Clouds 16 1011 36 8000 1.5 0 15:34 04.01.2021
4107 Clouds 15 1012 38 8000 1 0 14:50 04.01.2021
4108 Clouds 13 1013 43 8000 1.5 50 13:53 04.01.2021
4109 Clouds 12 1013 46 8000 2.1 70 13:34 04.01.2021
4110 Clouds 11 1014 50 8000 2.6 40 12:49 04.01.2021
4111 Clouds 11 1015 50 8000 2.6 50 12:25 04.01.2021
4112 Clouds 8 1016 61 8000 1 0 11:31 04.01.2021
4113 Clouds 7 1016 65 8000 1 0 10:54 04.01.2021
4114 Clouds 6 1016 70 8000 1.5 70 10:29 04.01.2021
4115 Clouds 5 1015 46 8000 1.5 100 09:58 04.01.2021
4116 Clouds 4 1015 57 8000 2.1 70 09:22 04.01.2021
4117 Clouds 3 1015 57 8000 2.1 80 08:48 04.01.2021
4118 Clear 3 1015 59 10000 2.6 80 08:18 04.01.2021
4119 Clear 3 1015 59 10000 2.6 80 07:44 04.01.2021
4120 Clear 4 1015 60 10000 1.5 60 05:34 04.01.2021
4121 Clear 4 1015 59 10000 2.1 100 04:31 04.01.2021
4122 Clear 8 1015 54 10000 2.1 20 00:48 04.01.2021
4123 Clear 7 1015 52 10000 1 0 23:49 03.01.2021
4124 Clear 8 1015 50 10000 1.5 50 23:24 03.01.2021
4125 Clear 9 1015 50 10000 1.5 140 22:56 03.01.2021
4126 Clouds 10 1015 50 8000 2.6 150 22:33 03.01.2021
4127 Clouds 10 1016 47 8000 2.1 130 21:56 03.01.2021
4128 Clouds 9 1015 45 8000 1.5 90 21:29 03.01.2021
4129 Clouds 10 1016 45 8000 1 0 20:50 03.01.2021
4130 Clouds 11 1016 43 8000 2.6 70 20:32 03.01.2021
4131 Clouds 11 1016 43 8000 1.5 70 19:57 03.01.2021
4132 Clouds 12 1016 40 8000 1.5 50 19:35 03.01.2021
4133 Clouds 13 1016 37 8000 2.1 50 18:57 03.01.2021
4134 Clouds 14 1015 35 8000 2.6 60 18:38 03.01.2021
4135 Clouds 14 1015 35 8000 2.6 60 18:19 03.01.2021
4136 Clouds 14 1015 41 8000 3.6 30 17:45 03.01.2021
4137 Clouds 14 1015 41 8000 3.6 30 17:23 03.01.2021
4138 Clouds 14 1015 35 8000 3.6 50 16:42 03.01.2021
4139 Clouds 14 1015 35 8000 3.6 50 16:20 03.01.2021
4140 Clouds 14 1016 35 8000 4.1 70 15:46 03.01.2021
4141 Clouds 14 1016 41 8000 4.1 70 15:27 03.01.2021
4142 Clouds 14 1016 44 8000 4.1 40 14:55 03.01.2021
4143 Clouds 14 1016 47 8000 4.1 50 14:29 03.01.2021
4144 Clear 13 1017 58 10000 3.6 80 13:41 03.01.2021
4145 Clear 13 1017 58 10000 3.6 80 13:23 03.01.2021
4146 Clear 11 1017 66 10000 3.6 60 12:32 03.01.2021
4147 Clear 9 1017 76 10000 3.6 80 11:42 03.01.2021
4148 Clear 9 1017 76 10000 3.6 80 11:24 03.01.2021
4149 Clear 8 1017 75 10000 3.6 80 10:34 03.01.2021
4150 Clear 6 1017 87 10000 2.6 90 09:59 03.01.2021
4151 Clear 5 1016 86 10000 1.5 90 09:34 03.01.2021
4152 Clear 6 1016 81 10000 2.6 90 08:59 03.01.2021
4153 Clouds 6 1016 81 10000 2.6 90 07:33 03.01.2021
4154 Clouds 7 1016 75 10000 2.1 90 05:53 03.01.2021
4155 Clouds 10 1017 66 10000 3.6 60 02:27 03.01.2021
4156 Clouds 10 1018 66 10000 4.6 60 01:44 03.01.2021
4157 Clouds 10 1018 66 10000 4.6 60 01:44 03.01.2021
4158 Clouds 11 1017 62 10000 4.1 40 00:18 03.01.2021
4159 Clouds 11 1017 62 10000 3.6 40 23:27 02.01.2021
4160 Clouds 11 1017 66 10000 3.6 50 22:51 02.01.2021
4161 Clouds 11 1017 66 10000 3.6 40 22:32 02.01.2021
4162 Clouds 11 1017 66 10000 4.1 40 21:49 02.01.2021
4163 Clouds 12 1017 62 10000 4.6 40 21:30 02.01.2021
4164 Clouds 13 1017 58 10000 4.1 30 20:49 02.01.2021
4165 Clouds 13 1017 58 10000 4.1 40 20:28 02.01.2021
4166 Clouds 14 1016 50 10000 2.1 20 19:50 02.01.2021
4167 Clouds 14 1016 47 10000 2.6 350 19:20 02.01.2021
4168 Clouds 15 1016 44 10000 2.1 320 18:53 02.01.2021
4169 Clouds 15 1016 44 10000 1.5 10 18:33 02.01.2021
4170 Clouds 15 1016 44 10000 2.6 10 17:56 02.01.2021
4171 Clouds 16 1016 48 10000 1.5 310 17:37 02.01.2021
4172 Clouds 16 1016 48 10000 1.5 0 16:48 02.01.2021
4173 Clouds 16 1016 48 10000 1.5 270 16:22 02.01.2021
4174 Clouds 16 1016 48 10000 1 0 15:50 02.01.2021
4175 Clouds 15 1016 47 10000 3.1 70 15:28 02.01.2021
4176 Clouds 16 1016 48 10000 2.1 110 14:47 02.01.2021
4177 Clouds 16 1016 48 10000 1.5 0 14:26 02.01.2021
4178 Clouds 15 1017 51 10000 1 0 13:44 02.01.2021
4179 Clouds 14 1018 58 10000 1 0 12:59 02.01.2021
4180 Clouds 13 1019 58 10000 1.5 20 12:40 02.01.2021
4181 Clouds 13 1019 58 10000 1.5 20 12:19 02.01.2021
4182 Clouds 11 1019 66 8000 1 0 11:38 02.01.2021
4183 Clouds 11 1019 66 8000 1 0 11:20 02.01.2021
4184 Clouds 9 1019 70 8000 1.5 50 10:40 02.01.2021
4185 Clouds 9 1019 70 8000 1.5 50 10:21 02.01.2021
4186 Clouds 7 1018 81 8000 0.5 0 09:39 02.01.2021
4187 Clouds 7 1018 81 8000 0.5 0 09:19 02.01.2021
4188 Clouds 8 1018 75 8000 2.1 0 08:46 02.01.2021
4189 Clouds 8 1018 75 8000 1.5 120 08:19 02.01.2021
4190 Clouds 8 1018 75 8000 1 0 07:24 02.01.2021
4191 Clouds 8 1018 75 8000 1 0 06:57 02.01.2021
4192 Clouds 8 1018 70 8000 1 0 05:57 02.01.2021
4193 Clear 8 1019 70 8000 3.1 170 01:59 02.01.2021
4194 Clear 9 1019 81 8000 1.5 190 00:39 02.01.2021
4195 Clear 9 1019 81 8000 2.1 230 23:58 01.01.2021
4196 Clear 9 1019 76 10000 1.5 260 23:24 01.01.2021
4197 Clear 10 1019 76 10000 1 0 22:57 01.01.2021
4198 Clear 10 1019 76 10000 1 0 22:57 01.01.2021
4199 Clear 11 1019 71 10000 2.1 330 22:37 01.01.2021
4200 Clear 11 1019 71 10000 2.1 330 22:18 01.01.2021
4201 Clouds 10 1019 61 10000 1.5 280 21:42 01.01.2021
4202 Clouds 10 1019 61 10000 1.5 280 21:20 01.01.2021
4203 Clouds 10 1019 61 10000 2.6 280 20:50 01.01.2021
4204 Clouds 13 1018 47 10000 1.5 230 20:18 01.01.2021
4205 Clouds 13 1018 47 10000 1.5 240 19:42 01.01.2021
4206 Clouds 13 1018 47 10000 1.5 240 19:22 01.01.2021
4207 Clouds 15 1018 44 10000 2.1 230 18:46 01.01.2021
4208 Clouds 16 1018 41 10000 1 0 18:27 01.01.2021
4209 Clouds 16 1018 41 10000 1.5 0 17:48 01.01.2021
4210 Clouds 16 1018 44 10000 1.5 0 17:23 01.01.2021
4211 Clear 16 1018 41 10000 1.5 0 16:51 01.01.2021
4212 Clear 16 1018 41 10000 2.1 40 16:26 01.01.2021
4213 Clear 15 1018 44 10000 2.6 30 15:42 01.01.2021
4214 Clear 15 1019 41 10000 2.6 360 14:50 01.01.2021
4215 Clear 15 1019 41 10000 1.5 0 14:31 01.01.2021
4216 Clear 15 1020 41 10000 1 0 13:40 01.01.2021
4217 Clear 15 1020 41 10000 1 0 13:20 01.01.2021
4218 Clear 12 1021 58 7000 2.1 120 12:37 01.01.2021
4219 Clear 12 1021 58 7000 2.1 120 12:18 01.01.2021
4220 Clear 12 1021 58 7000 2.1 120 12:18 01.01.2021
4221 Clear 11 1021 62 7000 2.6 120 11:38 01.01.2021
4222 Clear 11 1021 62 7000 2.6 120 11:18 01.01.2021
4223 Clear 8 1021 75 7000 1.5 110 10:34 01.01.2021
4224 Clear 7 1021 75 7000 1.5 140 09:45 01.01.2021
4225 Clear 4 1020 80 8000 1 0 08:52 01.01.2021
4226 Clear 3 1021 86 8000 0.5 0 08:25 01.01.2021
4227 Clear 6 1020 81 8000 1 0 04:52 01.01.2021
4228 Clear 6 1020 81 8000 1.5 100 02:25 01.01.2021
4229 Clear 8 1020 70 8000 2.1 60 00:38 01.01.2021
4230 Clear 8 1020 70 8000 2.1 60 00:20 01.01.2021
4231 Clear 10 1020 61 8000 2.6 40 23:22 31.12.2020
4232 Clear 11 1019 62 8000 3.6 40 22:56 31.12.2020
4233 Clear 11 1019 57 8000 3.6 40 22:38 31.12.2020
4234 Clear 11 1019 57 8000 3.6 40 22:19 31.12.2020
4235 Clear 11 1019 53 8000 2.6 40 21:46 31.12.2020
4236 Clear 11 1019 53 8000 2.1 90 21:23 31.12.2020
4237 Clear 12 1019 46 8000 1.5 40 20:48 31.12.2020
4238 Clear 14 1018 47 8000 2.6 10 20:18 31.12.2020
4239 Clear 14 1018 47 8000 2.6 10 19:45 31.12.2020
4240 Clear 14 1018 50 8000 2.1 360 19:24 31.12.2020
4241 Clear 16 1018 48 8000 2.6 10 18:42 31.12.2020
4242 Clear 16 1018 48 8000 2.6 10 18:23 31.12.2020
4243 Clear 16 1018 48 8000 3.1 30 17:44 31.12.2020
4244 Clear 17 1017 45 8000 2.1 20 17:22 31.12.2020
4245 Clear 17 1017 48 8000 2.1 0 16:40 31.12.2020
4246 Clear 17 1017 48 8000 2.1 0 16:21 31.12.2020
4247 Clear 17 1017 45 8000 2.1 0 15:45 31.12.2020
4248 Clear 16 1017 51 8000 2.1 0 15:22 31.12.2020
4249 Clear 16 1018 51 8000 2.6 20 14:56 31.12.2020
4250 Clear 15 1018 54 8000 2.6 350 14:37 31.12.2020
4251 Clear 15 1018 54 8000 2.6 350 14:19 31.12.2020
4252 Clear 14 1019 54 8000 1.5 340 13:38 31.12.2020
4253 Clouds 14 1019 54 8000 1.5 340 13:19 31.12.2020
4254 Clouds 13 1019 58 8000 1.5 20 12:53 31.12.2020
4255 Clouds 12 1019 66 8000 1.5 0 12:34 31.12.2020
4256 Clouds 11 1020 71 8000 1.5 80 11:51 31.12.2020
4257 Clouds 9 1019 76 8000 2.1 70 11:32 31.12.2020
4258 Clouds 9 1019 76 8000 2.1 70 11:32 31.12.2020
4259 Clouds 9 1019 76 8000 2.1 70 10:49 31.12.2020
4260 Clouds 10 1019 76 8000 0.5 0 10:29 31.12.2020
4261 Clouds 7 1019 87 8000 1.43 24 09:56 31.12.2020
4262 Clouds 4 1018 86 7000 1 0 09:34 31.12.2020
4263 Clouds 4 1018 93 8000 0.5 0 08:50 31.12.2020
4264 Clouds 4 1018 86 8000 0.5 0 08:32 31.12.2020
4265 Clouds 4 1018 86 8000 0.5 0 07:57 31.12.2020
4266 Clouds 5 1017 80 8000 0.5 0 07:29 31.12.2020
4267 Clouds 6 1017 81 8000 0.5 0 05:31 31.12.2020
4268 Clouds 7 1017 81 8000 1.5 90 04:30 31.12.2020
4269 Clouds 7 1017 81 8000 2.6 80 02:45 31.12.2020
4270 Clouds 8 1017 75 8000 1.5 80 02:25 31.12.2020
4271 Clouds 8 1017 75 8000 2.1 70 01:44 31.12.2020
4272 Clouds 9 1017 70 8000 3.1 60 01:24 31.12.2020
4273 Clouds 10 1017 71 8000 3.1 60 00:46 31.12.2020
4274 Clouds 10 1017 71 8000 3.1 60 23:48 30.12.2020
4275 Clouds 11 1017 66 8000 4.1 50 23:19 30.12.2020
4276 Clouds 11 1016 62 9000 3.1 30 22:48 30.12.2020
4277 Clouds 12 1016 58 9000 2.6 30 22:30 30.12.2020
4278 Clouds 11 1016 62 9000 1.5 100 21:44 30.12.2020
4279 Clouds 11 1016 62 9000 1.5 100 21:22 30.12.2020
4280 Clouds 12 1016 58 9000 1.5 80 20:50 30.12.2020
4281 Clouds 13 1016 58 9000 1 0 20:20 30.12.2020
4282 Clear 14 1015 54 9000 2.6 60 19:41 30.12.2020
4283 Clear 14 1015 54 9000 2.6 60 19:22 30.12.2020
4284 Clear 16 1015 48 9000 3.1 70 18:46 30.12.2020
4285 Clear 16 1015 48 9000 3.1 70 18:46 30.12.2020
4286 Clear 16 1015 48 9000 3.6 60 18:28 30.12.2020
4287 Clear 17 1015 45 9000 4.1 70 17:51 30.12.2020
4288 Clear 17 1015 45 9000 5.1 70 17:32 30.12.2020
4289 Clouds 17 1015 45 9000 4.6 60 16:56 30.12.2020
4290 Clouds 17 1015 45 9000 3.6 60 16:31 30.12.2020
4291 Clouds 17 1015 45 9000 4.1 60 15:47 30.12.2020
4292 Clouds 16 1015 48 9000 4.6 60 15:24 30.12.2020
4293 Clouds 16 1016 51 8000 4.6 50 14:44 30.12.2020
4294 Clouds 16 1016 51 8000 4.6 50 14:22 30.12.2020
4295 Clear 15 1017 62 8000 4.1 50 13:33 30.12.2020
4296 Clear 13 1017 71 8000 3.6 60 12:40 30.12.2020
4297 Clear 13 1017 71 8000 3.6 60 12:20 30.12.2020
4298 Clear 12 1018 71 8000 4.1 70 11:36 30.12.2020
4299 Clear 12 1018 71 8000 4.1 70 11:18 30.12.2020
4300 Clear 10 1017 87 8000 2.6 80 10:43 30.12.2020
4301 Clear 10 1017 87 8000 2.6 80 10:25 30.12.2020
4302 Clear 9 1017 87 8000 3.1 100 09:50 30.12.2020
4303 Clear 8 1016 93 8000 4.1 100 09:28 30.12.2020
4304 Clear 8 1016 93 10000 4.1 110 08:28 30.12.2020
4305 Clear 8 1016 93 10000 4.1 110 07:29 30.12.2020
4306 Clouds 8 1016 93 10000 2.6 100 06:52 30.12.2020
4307 Clouds 8 1016 87 10000 2.1 80 06:30 30.12.2020
4308 Clouds 9 1015 87 10000 2.6 80 05:43 30.12.2020
4309 Clouds 9 1015 87 10000 2.6 80 05:24 30.12.2020
4310 Clouds 11 1016 81 10000 3.1 90 03:28 30.12.2020
4311 Clouds 12 1016 81 10000 3.1 80 02:40 30.12.2020
4312 Clouds 12 1016 81 10000 2.1 70 01:56 30.12.2020
4313 Clouds 12 1016 81 10000 2.1 60 01:33 30.12.2020
4314 Clouds 12 1016 81 10000 3.1 50 00:50 30.12.2020
4315 Clouds 12 1016 81 10000 1.5 50 00:30 30.12.2020
4316 Clouds 12 1016 81 10000 1.5 50 23:54 29.12.2020
4317 Clouds 12 1016 81 10000 1.5 40 23:36 29.12.2020
4318 Clouds 12 1016 81 10000 1.5 40 23:18 29.12.2020
4319 Clouds 13 1016 76 10000 2.1 90 22:40 29.12.2020
4320 Clouds 13 1016 76 10000 2.1 90 22:20 29.12.2020
4321 Clouds 13 1016 76 10000 2.1 90 22:20 29.12.2020
4322 Clouds 13 1016 76 10000 2.1 50 21:46 29.12.2020
4323 Clouds 13 1015 71 10000 1.5 40 21:24 29.12.2020
4324 Clouds 14 1015 67 10000 2.1 20 20:46 29.12.2020
4325 Clouds 14 1015 62 10000 1 0 20:25 29.12.2020
4326 Clouds 14 1014 58 10000 1 0 19:47 29.12.2020
4327 Clouds 15 1014 54 10000 1 0 19:23 29.12.2020
4328 Clouds 16 1014 51 10000 1.5 350 18:54 29.12.2020
4329 Clouds 16 1014 51 10000 1.5 360 18:32 29.12.2020
4330 Clouds 17 1014 48 10000 2.1 360 17:57 29.12.2020
4331 Clouds 17 1014 48 10000 2.1 50 17:37 29.12.2020
4332 Clouds 17 1014 48 10000 2.1 50 17:18 29.12.2020
4333 Clouds 17 1014 48 10000 1.5 320 16:34 29.12.2020
4334 Clouds 17 1014 48 10000 2.1 310 15:53 29.12.2020
4335 Clear 17 1014 48 10000 2.1 210 15:34 29.12.2020
4336 Clear 17 1014 48 10000 1.5 70 14:56 29.12.2020
4337 Clear 17 1014 48 10000 1 0 14:36 29.12.2020
4338 Clear 17 1014 48 10000 1 0 14:18 29.12.2020
4339 Clear 15 1015 54 10000 1 0 13:37 29.12.2020
4340 Clear 15 1015 54 10000 1 0 13:18 29.12.2020
4341 Clear 14 1016 62 10000 1 0 12:37 29.12.2020
4342 Clear 14 1016 62 10000 1 0 12:19 29.12.2020
4343 Clear 13 1016 71 10000 2.1 200 11:50 29.12.2020
4344 Clear 12 1016 76 10000 1 0 11:31 29.12.2020
4345 Clear 9 1016 81 10000 1 0 10:22 29.12.2020
4346 Clear 5 1015 86 8000 1.5 100 09:42 29.12.2020
4347 Clear 5 1015 86 8000 1.5 100 09:19 29.12.2020
4348 Clear 5 1015 86 8000 1.5 100 09:19 29.12.2020
4349 Clear 5 1015 86 8000 1.5 100 09:19 29.12.2020
4350 Clear 6 1015 87 8000 1 0 08:49 29.12.2020
4351 Clear 5 1014 93 10000 0.5 0 07:44 29.12.2020
4352 Clear 6 1014 87 10000 0.5 342 07:26 29.12.2020
4353 Clear 6 1014 87 10000 1.5 100 05:54 29.12.2020
4354 Clear 9 1015 81 10000 2.6 210 03:18 29.12.2020
4355 Clear 9 1015 76 10000 2.6 220 00:44 29.12.2020
4356 Clear 9 1015 76 10000 2.6 220 00:44 29.12.2020
4357 Clear 9 1015 70 10000 1.5 260 23:39 28.12.2020
4358 Clear 9 1015 66 10000 1.5 260 22:58 28.12.2020
4359 Clear 10 1015 61 10000 2.1 270 22:23 28.12.2020
4360 Clear 13 1014 54 10000 3.1 230 21:44 28.12.2020
4361 Clear 11 1014 57 10000 1.5 250 21:23 28.12.2020
4362 Clear 13 1014 47 10000 2.1 260 20:40 28.12.2020
4363 Clear 13 1014 47 10000 2.1 260 20:22 28.12.2020
4364 Clear 16 1013 38 10000 2.1 300 19:42 28.12.2020
4365 Clear 16 1013 38 10000 2.1 300 19:23 28.12.2020
4366 Clear 16 1013 38 10000 2.1 300 19:23 28.12.2020
4367 Clear 16 1013 41 10000 2.1 300 18:50 28.12.2020
4368 Clear 17 1013 39 10000 2.6 260 18:28 28.12.2020
4369 Clear 19 1013 29 10000 4.1 280 17:42 28.12.2020
4370 Clear 19 1013 27 10000 4.1 280 17:23 28.12.2020
4371 Clear 19 1014 29 10000 3.6 260 16:38 28.12.2020
4372 Clear 19 1014 29 10000 3.6 260 16:20 28.12.2020
4373 Clear 19 1014 32 10000 3.1 0 15:45 28.12.2020
4374 Clear 19 1015 29 10000 3.6 260 14:56 28.12.2020
4375 Clear 18 1016 28 10000 2.6 320 13:55 28.12.2020
4376 Clear 18 1016 36 8000 2.1 320 13:25 28.12.2020
4377 Clear 16 1017 44 8000 1.5 0 12:41 28.12.2020
4378 Clear 16 1017 44 8000 1.5 0 12:22 28.12.2020
4379 Clear 15 1017 44 8000 1.5 320 11:45 28.12.2020
4380 Clear 16 1017 41 8000 0.5 0 11:24 28.12.2020
4381 Clear 12 1017 54 8000 1.5 180 10:45 28.12.2020
4382 Clear 12 1017 54 8000 1.5 180 10:27 28.12.2020
4383 Clear 9 1017 70 8000 1.5 120 09:46 28.12.2020
4384 Clear 6 1017 81 8000 2.6 80 09:19 28.12.2020
4385 Clear 9 1015 66 8000 1.5 150 07:40 28.12.2020
4386 Clear 8 1016 75 8000 1 0 06:50 28.12.2020
4387 Clear 10 1016 66 8000 2.1 130 04:37 28.12.2020
4388 Clear 11 1017 57 8000 1 0 02:27 28.12.2020
4389 Clear 11 1018 62 8000 0.5 0 00:53 28.12.2020
4390 Clear 13 1018 54 8000 1.5 210 23:46 27.12.2020
4391 Clear 13 1018 50 8000 1 0 23:19 27.12.2020
4392 Clear 13 1018 47 8000 2.1 240 21:58 27.12.2020
4393 Clear 14 1017 44 8000 2.1 250 21:26 27.12.2020
4394 Clear 15 1017 41 8000 2.1 250 20:47 27.12.2020
4395 Clear 16 1016 38 8000 2.1 240 19:46 27.12.2020
4396 Clear 17 1016 36 8000 2.1 230 19:22 27.12.2020
4397 Clear 19 1016 29 8000 3.6 280 18:42 27.12.2020
4398 Clear 19 1016 29 8000 3.6 280 18:19 27.12.2020
4399 Clear 20 1016 28 8000 3.6 280 17:47 27.12.2020
4400 Clear 21 1016 26 8000 3.6 270 17:27 27.12.2020
4401 Clear 22 1016 24 8000 3.6 280 16:43 27.12.2020
4402 Clear 22 1016 26 8000 2.6 290 15:59 27.12.2020
4403 Clear 22 1016 26 8000 2.6 260 15:19 27.12.2020
4404 Clear 20 1017 32 8000 2.6 350 14:41 27.12.2020
4405 Clear 20 1017 32 8000 2.6 350 14:22 27.12.2020
4406 Clear 18 1018 36 8000 3.1 10 13:23 27.12.2020
4407 Clear 19 1019 37 8000 1 0 12:49 27.12.2020
4408 Clear 17 1019 42 8000 1 0 12:22 27.12.2020
4409 Clear 14 1019 50 8000 1.5 60 11:39 27.12.2020
4410 Clear 13 1019 50 8000 2.1 30 10:52 27.12.2020
4411 Clear 12 1019 50 8000 2.6 170 10:26 27.12.2020
4412 Clear 9 1019 66 8000 1.5 160 09:56 27.12.2020
4413 Clear 6 1018 75 10000 2.6 90 08:50 27.12.2020
4414 Clear 7 1018 65 10000 2.1 70 08:26 27.12.2020
4415 Clear 7 1018 70 10000 2.1 70 07:27 27.12.2020
4416 Clear 8 1018 65 10000 1.5 100 05:46 27.12.2020
4417 Clear 9 1018 61 10000 2.6 100 04:32 27.12.2020
4418 Clear 9 1018 61 10000 1 0 03:21 27.12.2020
4419 Clear 10 1018 61 10000 0.5 0 01:34 27.12.2020
4420 Clear 11 1018 57 8000 1.5 100 00:24 27.12.2020
4421 Clear 13 1018 50 8000 1.5 120 23:40 26.12.2020
4422 Clear 13 1018 50 8000 1.5 120 23:19 26.12.2020
4423 Clear 13 1018 50 8000 2.6 110 22:36 26.12.2020
4424 Clear 13 1018 50 8000 2.6 110 22:18 26.12.2020
4425 Clear 15 1018 44 8000 2.6 90 21:48 26.12.2020
4426 Clear 14 1018 44 8000 2.1 100 21:24 26.12.2020
4427 Clear 15 1018 44 8000 1 0 20:43 26.12.2020
4428 Clear 16 1018 38 8000 0.5 0 20:19 26.12.2020
4429 Clear 19 1017 29 8000 1 0 19:29 26.12.2020
4430 Clear 20 1017 30 8000 1 0 18:53 26.12.2020
4431 Clear 21 1017 30 8000 1.5 30 18:32 26.12.2020
4432 Clear 23 1017 20 8000 1.5 20 17:44 26.12.2020
4433 Clear 23 1017 20 8000 1.5 20 17:26 26.12.2020
4434 Clear 23 1017 22 8000 1 0 16:37 26.12.2020
4435 Clear 23 1017 23 8000 1.5 30 15:52 26.12.2020
4436 Clear 22 1017 26 8000 2.6 50 15:19 26.12.2020
4437 Clear 22 1018 28 8000 2.6 40 14:29 26.12.2020
4438 Clear 23 1019 27 8000 1.5 60 13:56 26.12.2020
4439 Clear 23 1019 27 8000 1.5 60 13:56 26.12.2020
4440 Clear 21 1019 35 10000 1.5 110 13:36 26.12.2020
4441 Clear 19 1020 39 9000 2.1 110 12:53 26.12.2020
4442 Clear 17 1020 42 9000 1.5 90 12:30 26.12.2020
4443 Clear 16 1020 48 9000 1.5 80 11:58 26.12.2020
4444 Clear 14 1020 54 9000 1.5 80 11:39 26.12.2020
4445 Clear 14 1020 54 9000 1.5 80 11:18 26.12.2020
4446 Clouds 10 1019 66 10000 1.5 60 10:42 26.12.2020
4447 Clouds 10 1019 66 10000 1.5 60 10:22 26.12.2020
4448 Clouds 7 1019 70 9000 2.6 90 09:39 26.12.2020
4449 Clouds 7 1018 70 9000 2.1 100 08:41 26.12.2020
4450 Clouds 7 1018 70 9000 2.1 100 08:18 26.12.2020
4451 Clouds 7 1018 70 8000 2.6 90 07:20 26.12.2020
4452 Clouds 8 1018 81 8000 2.6 70 03:54 26.12.2020
4453 Clouds 10 1018 76 8000 2.1 110 02:34 26.12.2020
4454 Clouds 12 1019 66 8000 3.6 100 00:28 26.12.2020
4455 Clouds 12 1019 71 8000 3.6 100 23:46 25.12.2020
4456 Clouds 12 1019 71 8000 3.6 100 23:27 25.12.2020
4457 Clouds 13 1019 62 8000 3.1 100 22:51 25.12.2020
4458 Clouds 13 1019 66 8000 2.1 80 22:25 25.12.2020
4459 Clouds 14 1018 58 8000 2.1 90 21:41 25.12.2020
4460 Clouds 14 1018 58 8000 2.1 90 21:23 25.12.2020
4461 Clouds 15 1018 54 8000 0.5 0 20:39 25.12.2020
4462 Clouds 15 1018 54 8000 0.5 0 19:54 25.12.2020
4463 Clouds 17 1018 48 8000 1.5 70 19:36 25.12.2020
4464 Clouds 18 1018 45 8000 2.1 30 18:39 25.12.2020
4465 Clouds 18 1017 45 8000 2.1 50 17:58 25.12.2020
4466 Clouds 19 1017 42 8000 2.6 50 17:35 25.12.2020
4467 Clouds 19 1017 42 8000 2.1 60 16:49 25.12.2020
4468 Clouds 19 1017 39 8000 2.1 70 16:21 25.12.2020
4469 Clouds 19 1018 42 8000 1 0 15:46 25.12.2020
4470 Clouds 19 1018 45 8000 2.1 50 15:22 25.12.2020
4471 Clouds 18 1018 48 8000 1 0 14:32 25.12.2020
4472 Clouds 17 1019 51 8000 1 0 13:47 25.12.2020
4473 Clouds 17 1019 51 8000 0.5 0 13:26 25.12.2020
4474 Clouds 17 1019 55 8000 0.5 0 12:49 25.12.2020
4475 Clouds 15 1019 58 8000 1.5 50 12:27 25.12.2020
4476 Clouds 14 1019 62 8000 1.5 80 11:46 25.12.2020
4477 Clouds 14 1019 67 8000 1.5 90 11:22 25.12.2020
4478 Clouds 12 1019 71 8000 1 0 10:40 25.12.2020
4479 Clouds 10 1018 81 8000 2.1 90 09:49 25.12.2020
4480 Clouds 9 1018 76 8000 2.1 60 08:52 25.12.2020
4481 Clouds 9 1018 81 8000 1 0 08:32 25.12.2020
4482 Clouds 10 1018 76 8000 2.1 40 06:51 25.12.2020
4483 Clouds 11 1018 66 8000 2.1 0 05:38 25.12.2020
4484 Clouds 10 1018 76 8000 0.5 0 02:21 25.12.2020
4485 Clouds 11 1019 71 8000 0.5 0 00:25 25.12.2020
4486 Clouds 11 1019 71 8000 2.6 90 23:31 24.12.2020
4487 Clouds 13 1019 62 8000 1.5 70 22:54 24.12.2020
4488 Clouds 13 1019 66 8000 2.1 100 22:25 24.12.2020
4489 Clouds 13 1019 66 8000 1.5 100 21:47 24.12.2020
4490 Clear 14 1019 62 8000 1.5 70 20:59 24.12.2020
4491 Clear 17 1019 48 8000 1 0 19:54 24.12.2020
4492 Clouds 20 1019 42 8000 1 0 18:22 24.12.2020
4493 Clouds 20 1019 42 8000 2.1 330 17:39 24.12.2020
4494 Clouds 20 1019 42 8000 2.1 330 17:21 24.12.2020
4495 Clouds 21 1019 37 7000 1 0 16:25 24.12.2020
4496 Clouds 20 1020 40 7000 2.6 20 15:49 24.12.2020
4497 Clouds 20 1020 42 7000 1.5 0 15:26 24.12.2020
4498 Clouds 19 1021 45 6000 1.5 0 14:57 24.12.2020
4499 Clouds 19 1021 42 6000 1 0 14:38 24.12.2020
4500 Clouds 19 1021 42 6000 1 0 14:19 24.12.2020
4501 Clouds 18 1023 48 5000 1.5 350 13:39 24.12.2020
4502 Clouds 18 1023 48 5000 1.5 350 13:18 24.12.2020
4503 Clouds 16 1024 51 8000 0.5 0 12:40 24.12.2020
4504 Clouds 16 1024 51 8000 0.5 0 12:18 24.12.2020
4505 Clouds 16 1024 55 6000 0.5 0 11:38 24.12.2020
4506 Clouds 16 1024 55 6000 0.5 0 11:19 24.12.2020
4507 Clouds 13 1024 62 6000 1 0 10:43 24.12.2020
4508 Clouds 12 1024 66 6000 0.5 0 10:20 24.12.2020
4509 Clouds 10 1023 76 6000 0.5 0 09:50 24.12.2020
4510 Clouds 9 1023 76 6000 1 0 08:50 24.12.2020
4511 Clear 9 1023 70 10000 2.6 240 07:55 24.12.2020
4512 Clear 9 1022 76 10000 2.1 240 07:37 24.12.2020
4513 Clear 8 1022 75 10000 2.1 230 06:27 24.12.2020
4514 Clear 10 1022 71 10000 2.6 100 03:50 24.12.2020
4515 Clear 10 1023 71 10000 1.5 110 01:51 24.12.2020
4516 Clear 10 1023 71 10000 1.5 100 01:20 24.12.2020
4517 Clear 12 1024 62 10000 0.5 0 00:31 24.12.2020
4518 Clear 12 1024 62 10000 1.5 100 23:59 23.12.2020
4519 Clear 12 1024 66 10000 2.6 100 23:39 23.12.2020
4520 Clear 12 1024 66 10000 2.6 100 23:20 23.12.2020
4521 Clear 14 1024 54 10000 1.5 120 22:43 23.12.2020
4522 Clear 14 1024 54 10000 1.5 120 22:23 23.12.2020
4523 Clear 16 1024 48 10000 2.1 100 21:43 23.12.2020
4524 Clear 16 1024 48 10000 2.1 100 21:21 23.12.2020
4525 Clear 16 1024 48 10000 1.5 70 20:45 23.12.2020
4526 Clear 19 1024 37 10000 3.1 40 20:25 23.12.2020
4527 Clear 19 1024 37 10000 3.1 40 19:45 23.12.2020
4528 Clear 19 1024 37 10000 3.1 40 19:23 23.12.2020
4529 Clear 18 1025 40 10000 3.81 38 18:56 23.12.2020
4530 Clear 22 1023 33 10000 3.6 70 18:35 23.12.2020
4531 Clear 22 1023 33 10000 3.6 70 17:44 23.12.2020
4532 Clear 22 1023 33 10000 3.6 70 17:24 23.12.2020
4533 Clear 22 1023 33 10000 2.1 70 16:56 23.12.2020
4534 Clear 22 1023 35 10000 3.1 50 16:37 23.12.2020
4535 Clear 22 1024 33 10000 3.6 80 16:18 23.12.2020
4536 Clear 21 1024 35 10000 4.1 40 15:40 23.12.2020
4537 Clear 21 1024 35 10000 4.1 40 15:22 23.12.2020
4538 Clear 21 1024 37 10000 3.1 50 14:52 23.12.2020
4539 Clear 21 1025 37 10000 2.6 70 14:25 23.12.2020
4540 Clear 20 1025 40 10000 2.6 70 13:58 23.12.2020
4541 Clear 20 1026 42 10000 1.5 40 13:39 23.12.2020
4542 Clear 20 1026 42 10000 1.5 40 13:18 23.12.2020
4543 Clear 19 1026 48 10000 1 0 12:46 23.12.2020
4544 Clear 19 1027 48 10000 1 0 12:21 23.12.2020
4545 Clear 15 1027 62 10000 1 0 11:45 23.12.2020
4546 Clear 13 1027 71 10000 1 0 10:58 23.12.2020
4547 Clear 12 1026 71 10000 1.5 80 10:40 23.12.2020
4548 Clear 12 1026 71 10000 1.5 80 10:21 23.12.2020
4549 Clear 8 1026 87 10000 1 0 09:27 23.12.2020
4550 Clear 8 1025 87 10000 1.5 150 08:42 23.12.2020
4551 Clear 8 1025 81 10000 1 0 08:18 23.12.2020
4552 Clear 8 1025 81 10000 1 0 07:21 23.12.2020
4553 Clear 8 1024 81 10000 1.5 120 06:39 23.12.2020
4554 Clear 9 1025 81 10000 1 0 05:26 23.12.2020
4555 Clear 11 1024 71 10000 1 0 04:51 23.12.2020
4556 Clear 13 1026 66 10000 0.5 0 00:34 23.12.2020
4557 Clear 14 1026 58 10000 1 0 23:46 22.12.2020
4558 Clear 15 1026 58 10000 1 0 23:27 22.12.2020
4559 Clear 14 1026 62 10000 1 0 22:43 22.12.2020
4560 Clear 14 1026 62 10000 1 0 22:25 22.12.2020
4561 Clear 16 1026 55 10000 2.1 110 21:57 22.12.2020
4562 Clear 17 1025 51 10000 2.6 310 21:38 22.12.2020
4563 Clear 17 1025 51 10000 2.6 310 21:38 22.12.2020
4564 Clear 17 1025 51 10000 2.6 310 21:18 22.12.2020
4565 Clear 18 1025 45 10000 2.1 300 20:43 22.12.2020
4566 Clear 19 1025 42 10000 2.1 320 20:20 22.12.2020
4567 Clear 20 1025 40 10000 2.1 320 19:42 22.12.2020
4568 Clear 20 1025 40 10000 2.1 320 19:21 22.12.2020
4569 Clear 21 1025 35 10000 2.1 330 18:48 22.12.2020
4570 Clear 22 1025 33 10000 2.6 340 18:28 22.12.2020
4571 Clear 23 1024 31 10000 2.1 310 17:50 22.12.2020
4572 Clear 23 1024 33 10000 1.5 0 17:23 22.12.2020
4573 Clear 23 1024 33 10000 1.5 0 16:54 22.12.2020
4574 Clear 23 1024 33 10000 2.6 360 16:36 22.12.2020
4575 Clear 23 1024 33 10000 2.1 0 16:18 22.12.2020
4576 Clear 23 1025 33 10000 1 0 15:41 22.12.2020
4577 Clear 23 1025 33 10000 1 0 15:18 22.12.2020
4578 Clear 23 1025 33 10000 1.5 10 14:43 22.12.2020
4579 Clear 23 1025 33 10000 1.5 10 14:25 22.12.2020
4580 Clear 22 1026 37 10000 1.5 0 13:47 22.12.2020
4581 Clear 21 1026 43 10000 1 0 13:19 22.12.2020
4582 Clear 21 1026 43 10000 1 0 12:55 22.12.2020
4583 Clear 19 1026 48 10000 1 0 12:37 22.12.2020
4584 Clear 19 1026 48 10000 1 0 12:18 22.12.2020
4585 Clear 16 1026 59 10000 1 0 11:40 22.12.2020
4586 Clear 16 1026 59 10000 1 0 11:21 22.12.2020
4587 Clear 15 1026 62 10000 1 0 10:54 22.12.2020
4588 Clear 12 1026 71 10000 2.1 150 10:26 22.12.2020
4589 Clear 10 1026 87 10000 1.5 90 09:58 22.12.2020
4590 Clear 8 1025 93 10000 1 0 09:29 22.12.2020
4591 Clear 8 1025 93 10000 0.5 0 08:54 22.12.2020
4592 Clear 7 1025 93 10000 1.5 110 08:34 22.12.2020
4593 Clear 8 1025 87 10000 1.5 130 07:57 22.12.2020
4594 Clear 8 1025 87 10000 1.5 130 07:23 22.12.2020
4595 Clear 9 1025 87 10000 1.5 80 05:54 22.12.2020
4596 Clear 9 1025 93 10000 1 0 03:46 22.12.2020
4597 Clear 11 1025 81 10000 1.5 110 01:44 22.12.2020
4598 Clear 14 1026 71 10000 1.5 200 23:56 21.12.2020
4599 Clear 14 1026 71 10000 1.5 170 23:38 21.12.2020
4600 Clear 15 1026 72 10000 2.6 180 23:18 21.12.2020
4601 Clear 15 1026 72 10000 2.6 180 22:36 21.12.2020
4602 Clear 15 1026 72 10000 2.6 180 22:36 21.12.2020
4603 Clear 13 1026 76 10000 0.5 0 22:18 21.12.2020
4604 Clear 15 1026 67 10000 1 0 21:42 21.12.2020
4605 Clear 15 1026 67 10000 1 0 21:24 21.12.2020
4606 Clear 17 1025 59 10000 1.5 260 20:42 21.12.2020
4607 Clear 17 1025 59 10000 1.5 260 20:20 21.12.2020
4608 Clear 17 1025 59 10000 1.5 240 19:46 21.12.2020
4609 Clear 18 1025 55 10000 1 0 19:20 21.12.2020
4610 Clear 20 1025 49 10000 0.5 0 18:55 21.12.2020
4611 Clear 21 1024 46 10000 1 0 18:36 21.12.2020
4612 Clear 21 1024 46 10000 1 0 18:18 21.12.2020
4613 Clear 22 1024 43 8000 1 0 17:41 21.12.2020
4614 Clear 22 1024 43 8000 1 0 17:22 21.12.2020
4615 Clear 21 1024 43 8000 2.1 30 16:39 21.12.2020
4616 Clear 21 1024 43 8000 2.1 30 16:18 21.12.2020
4617 Clear 20 1024 45 8000 3.1 60 15:41 21.12.2020
4618 Clear 20 1025 49 8000 2.1 20 14:57 21.12.2020
4619 Clear 19 1025 52 8000 2.1 360 14:22 21.12.2020
4620 Clear 19 1025 52 8000 1 0 13:49 21.12.2020
4621 Clear 18 1026 59 8000 1 0 13:31 21.12.2020
4622 Clear 18 1026 59 8000 0.5 0 12:47 21.12.2020
4623 Clear 17 1026 63 8000 0.5 0 12:25 21.12.2020
4624 Clear 15 1027 67 8000 1 0 11:59 21.12.2020
4625 Clear 15 1027 67 6000 0.5 0 11:40 21.12.2020
4626 Clear 15 1027 67 6000 0.5 0 11:22 21.12.2020
4627 Clear 13 1026 71 6000 1 0 10:55 21.12.2020
4628 Clear 13 1026 76 6000 1.4 45 10:36 21.12.2020
4629 Clear 10 1026 81 6000 0.5 0 09:51 21.12.2020
4630 Clear 9 1026 81 6000 1 0 09:27 21.12.2020
4631 Clear 7 1025 87 8000 1.5 130 08:58 21.12.2020
4632 Clear 7 1025 93 10000 1 0 08:18 21.12.2020
4633 Clear 7 1025 87 10000 1 0 06:48 21.12.2020
4634 Clear 8 1025 87 10000 2.6 50 04:58 21.12.2020
4635 Clear 9 1025 81 10000 1.5 80 02:32 21.12.2020
4636 Clear 11 1026 76 10000 2.1 70 00:35 21.12.2020
4637 Clear 12 1026 71 10000 2.1 30 23:39 20.12.2020
4638 Clear 12 1026 71 10000 2.1 30 23:20 20.12.2020
4639 Clear 13 1025 66 10000 2.1 110 22:43 20.12.2020
4640 Clear 13 1025 66 10000 2.1 110 22:22 20.12.2020
4641 Clear 14 1025 62 10000 2.1 90 21:41 20.12.2020
4642 Clear 14 1025 62 10000 2.1 90 21:22 20.12.2020
4643 Clear 14 1025 58 10000 2.1 50 20:54 20.12.2020
4644 Clear 15 1025 54 10000 1.5 50 20:26 20.12.2020
4645 Clear 16 1025 51 10000 2.1 60 19:58 20.12.2020
4646 Clear 17 1024 51 10000 2.1 70 19:38 20.12.2020
4647 Clear 17 1024 51 10000 2.1 70 19:20 20.12.2020
4648 Clear 20 1024 42 10000 2.1 40 18:42 20.12.2020
4649 Clear 20 1024 42 10000 2.1 40 18:42 20.12.2020
4650 Clear 20 1024 42 10000 2.1 40 18:23 20.12.2020
4651 Clear 20 1024 42 10000 2.6 40 17:46 20.12.2020
4652 Clear 20 1024 42 10000 2.1 40 17:28 20.12.2020
4653 Clear 20 1024 42 10000 2.1 40 17:28 20.12.2020
4654 Clear 20 1024 37 10000 3.1 40 16:47 20.12.2020
4655 Clear 20 1023 37 10000 2.6 50 16:28 20.12.2020
4656 Clear 20 1023 42 10000 2.1 10 15:50 20.12.2020
4657 Clear 19 1023 39 10000 2.6 50 15:26 20.12.2020
4658 Clear 19 1024 39 10000 3.1 30 14:56 20.12.2020
4659 Clear 18 1024 45 10000 2.6 30 14:34 20.12.2020
4660 Clear 18 1024 45 10000 1.5 50 13:48 20.12.2020
4661 Clear 18 1025 52 10000 1.5 50 13:29 20.12.2020
4662 Clear 16 1025 55 10000 2.1 80 12:59 20.12.2020
4663 Clear 15 1025 58 10000 2.6 30 12:39 20.12.2020
4664 Clear 15 1025 58 10000 2.6 30 12:21 20.12.2020
4665 Clear 15 1025 62 10000 1.5 30 11:45 20.12.2020
4666 Clear 13 1025 71 10000 1.5 60 11:26 20.12.2020
4667 Clear 11 1025 76 10000 1.5 70 10:48 20.12.2020
4668 Clear 9 1025 81 10000 2.6 80 10:21 20.12.2020
4669 Clear 8 1025 87 10000 2.1 100 09:46 20.12.2020
4670 Clear 7 1025 87 10000 2.1 90 09:27 20.12.2020
4671 Clear 7 1025 87 10000 2.1 90 09:27 20.12.2020
4672 Clear 6 1024 93 10000 2.1 100 08:59 20.12.2020
4673 Clear 6 1024 93 10000 2.1 70 08:40 20.12.2020
4674 Clear 8 1024 81 10000 1.5 130 07:28 20.12.2020
4675 Clear 7 1024 93 10000 1.5 160 06:18 20.12.2020
4676 Clear 9 1023 87 10000 1 0 02:24 20.12.2020
4677 Clear 11 1024 76 10000 2.6 180 00:39 20.12.2020
4678 Clear 11 1024 81 10000 1 0 23:22 19.12.2020
4679 Clear 11 1024 76 10000 1 0 22:59 19.12.2020
4680 Clear 12 1024 71 10000 1.5 240 22:40 19.12.2020
4681 Clear 12 1024 71 10000 1.5 240 22:20 19.12.2020
4682 Clear 11 1024 76 10000 1.5 230 21:43 19.12.2020
4683 Clear 13 1024 71 10000 2.1 250 21:25 19.12.2020
4684 Clear 13 1024 66 10000 1.5 300 20:48 19.12.2020
4685 Clear 13 1023 66 10000 1 0 20:23 19.12.2020
4686 Clear 15 1023 58 10000 1 0 19:56 19.12.2020
4687 Clear 15 1023 58 10000 1.5 300 19:38 19.12.2020
4688 Clear 15 1023 58 10000 1.5 300 19:19 19.12.2020
4689 Clear 17 1023 51 10000 1 0 18:33 19.12.2020
4690 Clear 17 1023 51 10000 2.1 270 17:55 19.12.2020
4691 Clear 17 1023 51 10000 2.1 330 17:30 19.12.2020
4692 Clear 17 1022 51 10000 3.1 360 16:57 19.12.2020
4693 Clear 18 1022 52 10000 2.6 350 16:38 19.12.2020
4694 Clear 18 1022 52 10000 2.6 350 16:19 19.12.2020
4695 Clear 17 1021 55 10000 1.5 360 15:47 19.12.2020
4696 Clear 18 1021 52 10000 1 0 15:18 19.12.2020
4697 Clear 16 1022 59 10000 2.1 360 14:35 19.12.2020
4698 Clear 17 1023 59 10000 1 0 13:42 19.12.2020
4699 Clear 17 1023 59 10000 1 0 13:22 19.12.2020
4700 Clear 16 1023 59 10000 1 0 12:57 19.12.2020
4701 Clear 16 1024 63 10000 0.5 0 12:38 19.12.2020
4702 Clear 16 1024 63 10000 0.5 0 12:20 19.12.2020
4703 Clear 13 1024 71 10000 1 0 11:44 19.12.2020
4704 Clear 12 1024 71 10000 1.5 130 11:18 19.12.2020
4705 Clear 10 1023 87 10000 0.5 0 10:42 19.12.2020
4706 Clear 10 1023 87 10000 0.5 0 10:18 19.12.2020
4707 Clear 7 1022 93 10000 1 0 09:41 19.12.2020
4708 Clear 7 1022 87 10000 1 0 08:58 19.12.2020
4709 Clear 6 1022 93 10000 0.5 0 08:18 19.12.2020
4710 Clear 7 1021 87 10000 1.5 80 07:20 19.12.2020
4711 Clear 7 1021 87 10000 1 0 06:49 19.12.2020
4712 Clear 8 1021 87 10000 1.5 150 05:24 19.12.2020
4713 Clear 8 1021 87 10000 0.5 0 03:50 19.12.2020
4714 Clear 10 1021 81 10000 1.5 80 00:42 19.12.2020
4715 Clear 10 1021 81 10000 1.5 80 00:22 19.12.2020
4716 Clear 10 1021 81 10000 2.1 80 23:52 18.12.2020
4717 Clear 11 1021 81 10000 2.6 80 23:33 18.12.2020
4718 Clear 11 1021 76 10000 1.5 80 22:59 18.12.2020
4719 Clear 11 1022 76 10000 2.1 70 22:41 18.12.2020
4720 Clear 11 1022 76 10000 2.1 70 22:19 18.12.2020
4721 Clouds 12 1022 76 10000 2.6 100 21:46 18.12.2020
4722 Clouds 13 1022 71 10000 1.5 30 21:25 18.12.2020
4723 Clouds 15 1021 62 10000 1.5 350 20:26 18.12.2020
4724 Clouds 14 1021 67 10000 1 0 19:51 18.12.2020
4725 Clouds 15 1022 62 10000 0.5 0 19:25 18.12.2020
4726 Clouds 16 1021 59 10000 1.5 20 18:48 18.12.2020
4727 Clouds 17 1021 55 10000 2.1 20 18:28 18.12.2020
4728 Clouds 17 1021 48 10000 1 0 17:59 18.12.2020
4729 Clouds 18 1021 45 10000 1.5 10 17:21 18.12.2020
4730 Clouds 17 1020 48 10000 2.1 10 16:48 18.12.2020
4731 Clouds 18 1020 45 10000 1 0 16:26 18.12.2020
4732 Clouds 17 1021 48 10000 2.1 20 15:54 18.12.2020
4733 Clouds 17 1021 51 10000 1.5 30 15:36 18.12.2020
4734 Clouds 17 1021 51 10000 1.5 30 15:18 18.12.2020
4735 Clear 17 1021 51 10000 2.1 350 14:51 18.12.2020
4736 Clear 16 1021 55 10000 2.1 30 14:19 18.12.2020
4737 Clear 16 1021 59 10000 2.1 40 13:45 18.12.2020
4738 Clear 15 1022 62 10000 2.6 30 13:23 18.12.2020
4739 Clear 15 1022 67 10000 2.6 60 12:46 18.12.2020
4740 Clear 15 1022 67 10000 2.6 60 12:46 18.12.2020
4741 Clear 13 1023 76 10000 1 0 11:38 18.12.2020
4742 Clear 13 1023 76 10000 1 0 11:19 18.12.2020
4743 Clear 10 1023 87 10000 0.5 0 10:38 18.12.2020
4744 Clear 10 1023 87 10000 0.5 0 10:20 18.12.2020
4745 Clear 7 1022 93 10000 1 0 09:38 18.12.2020
4746 Clear 7 1022 93 10000 1 0 09:20 18.12.2020
4747 Clear 7 1022 93 10000 1.5 60 08:52 18.12.2020
4748 Clear 7 1022 93 7000 2.1 90 08:26 18.12.2020
4749 Clear 7 1022 93 7000 2.1 90 07:20 18.12.2020
4750 Clear 7 1022 93 7000 2.1 80 06:59 18.12.2020
4751 Clear 7 1022 93 7000 2.1 80 06:22 18.12.2020
4752 Clear 8 1022 93 7000 2.1 100 05:33 18.12.2020
4753 Clear 8 1022 93 7000 1 0 04:50 18.12.2020
4754 Clear 9 1022 93 7000 2.6 90 01:49 18.12.2020
4755 Clear 10 1022 87 7000 2.6 100 01:22 18.12.2020
4756 Clouds 10 1023 93 10000 2.1 90 23:57 17.12.2020
4757 Clouds 11 1023 87 10000 2.6 100 23:25 17.12.2020
4758 Clouds 11 1023 87 10000 2.1 60 22:50 17.12.2020
4759 Clouds 11 1023 87 10000 2.1 60 22:28 17.12.2020
4760 Clouds 12 1023 81 10000 2.1 80 21:47 17.12.2020
4761 Clouds 12 1023 81 10000 1.5 60 21:25 17.12.2020
4762 Clouds 13 1022 76 10000 2.6 50 20:59 17.12.2020
4763 Clouds 13 1022 76 10000 2.1 40 20:41 17.12.2020
4764 Clouds 13 1022 76 10000 2.1 40 20:18 17.12.2020
4765 Clouds 15 1022 62 10000 2.1 20 19:45 17.12.2020
4766 Clouds 15 1022 62 10000 2.1 20 19:23 17.12.2020
4767 Clouds 16 1021 63 10000 2.1 340 18:41 17.12.2020
4768 Clouds 16 1021 63 10000 2.1 340 18:23 17.12.2020
4769 Clouds 16 1021 63 10000 2.1 340 18:23 17.12.2020
4770 Clouds 16 1021 63 10000 1.5 0 17:53 17.12.2020
4771 Clouds 16 1021 63 10000 1.5 10 17:32 17.12.2020
4772 Clouds 16 1021 63 10000 3.1 20 16:46 17.12.2020
4773 Clouds 16 1021 59 10000 3.1 360 16:27 17.12.2020
4774 Clouds 17 1021 59 10000 2.6 360 15:52 17.12.2020
4775 Clouds 17 1021 59 10000 2.6 360 15:52 17.12.2020
4776 Clouds 17 1021 59 10000 1 0 15:34 17.12.2020
4777 Clouds 16 1021 63 10000 1 0 14:55 17.12.2020
4778 Clouds 16 1022 63 10000 1.5 0 14:34 17.12.2020
4779 Clouds 16 1022 63 7000 1.5 340 13:58 17.12.2020
4780 Clouds 16 1022 63 7000 1 0 13:35 17.12.2020
4781 Clouds 15 1022 72 7000 1.5 320 12:49 17.12.2020
4782 Clouds 14 1023 76 7000 2.1 310 12:27 17.12.2020
4783 Clouds 14 1023 82 7000 1 0 11:46 17.12.2020
4784 Clouds 12 1023 87 7000 1.5 300 11:26 17.12.2020
4785 Clouds 12 1023 87 7000 1.5 280 10:56 17.12.2020
4786 Clouds 11 1022 93 7000 2.6 240 10:30 17.12.2020
4787 Clouds 10 1022 100 5000 1.5 250 09:35 17.12.2020
4788 Clouds 11 1021 87 7000 1 0 08:37 17.12.2020
4789 Clouds 11 1021 93 7000 2.6 220 07:40 17.12.2020
4790 Clouds 11 1021 93 7000 2.6 220 07:18 17.12.2020
4791 Clouds 10 1021 100 7000 2.1 210 06:44 17.12.2020
4792 Clouds 10 1021 100 7000 2.1 240 06:26 17.12.2020
4793 Rain 12 1020 93 4000 2.6 280 01:40 17.12.2020
4794 Rain 12 1020 93 3000 3.1 280 23:58 16.12.2020
4795 Rain 12 1020 93 3000 4.1 260 23:23 16.12.2020
4796 Rain 12 1020 93 3000 3.1 270 22:58 16.12.2020
4797 Rain 12 1020 93 5000 2.6 260 22:38 16.12.2020
4798 Rain 12 1019 93 5000 3.1 240 21:58 16.12.2020
4799 Rain 13 1019 87 5000 4.1 220 21:38 16.12.2020
4800 Rain 13 1019 87 5000 4.1 220 21:20 16.12.2020
4801 Rain 13 1020 87 5000 3.1 270 20:44 16.12.2020
4802 Rain 13 1020 87 5000 3.6 280 20:19 16.12.2020
4803 Rain 15 1019 72 5000 4.6 290 19:21 16.12.2020
4804 Clouds 16 1018 72 7000 2.6 300 18:57 16.12.2020
4805 Rain 16 1018 72 7000 2.6 300 18:57 16.12.2020
4806 Clouds 16 1018 67 7000 3.1 300 18:37 16.12.2020
4807 Clouds 16 1018 67 7000 3.1 300 18:19 16.12.2020
4808 Clouds 16 1018 77 5000 0.5 0 17:33 16.12.2020
4809 Clouds 16 1018 77 5000 3.1 280 16:42 16.12.2020
4810 Clouds 16 1018 77 5000 2.6 270 16:22 16.12.2020
4811 Clouds 16 1018 77 5000 2.6 270 15:52 16.12.2020
4812 Clouds 16 1018 77 5000 2.6 270 15:32 16.12.2020
4813 Clouds 16 1019 77 5000 3.6 270 14:55 16.12.2020
4814 Clouds 16 1019 77 5000 4.6 280 14:37 16.12.2020
4815 Clouds 16 1019 72 5000 3.6 290 14:19 16.12.2020
4816 Clouds 16 1019 77 5000 3.6 300 13:37 16.12.2020
4817 Clouds 16 1019 77 5000 3.6 300 13:18 16.12.2020
4818 Clouds 15 1020 82 5000 2.6 300 12:42 16.12.2020
4819 Mist 14 1020 93 3500 1.5 240 11:43 16.12.2020
4820 Mist 14 1020 93 3500 1.5 240 11:23 16.12.2020
4821 Mist 13 1019 93 3500 1.5 210 10:52 16.12.2020
4822 Mist 13 1019 93 3500 2.1 250 10:27 16.12.2020
4823 Clouds 13 1019 93 5000 1.5 260 09:50 16.12.2020
4824 Mist 13 1019 93 4000 2.1 290 09:23 16.12.2020
4825 Mist 13 1019 93 3000 1.5 270 08:22 16.12.2020
4826 Mist 13 1018 93 3000 2.1 260 07:42 16.12.2020
4827 Mist 13 1018 93 3000 2.1 260 07:19 16.12.2020
4828 Clear 13 1017 87 10000 3.6 220 03:35 16.12.2020
4829 Clear 13 1018 82 10000 4.1 230 01:34 16.12.2020
4830 Clear 14 1017 76 10000 2.1 250 23:46 15.12.2020
4831 Clear 15 1017 72 10000 2.1 100 22:59 15.12.2020
4832 Clear 15 1017 72 10000 2.6 110 22:38 15.12.2020
4833 Clear 15 1017 72 10000 2.6 110 22:19 15.12.2020
4834 Clear 17 1017 63 10000 2.1 70 21:43 15.12.2020
4835 Clear 17 1017 63 10000 2.1 70 21:21 15.12.2020
4836 Clear 18 1017 59 10000 2.6 40 20:45 15.12.2020
4837 Clear 18 1017 59 10000 2.1 40 20:26 15.12.2020
4838 Clear 19 1017 55 10000 1.5 20 19:53 15.12.2020
4839 Clear 20 1017 52 10000 2.1 30 19:30 15.12.2020
4840 Clear 21 1016 49 10000 1.5 10 18:39 15.12.2020
4841 Clear 21 1016 49 10000 1.5 10 18:21 15.12.2020
4842 Clear 22 1016 46 10000 1.5 350 17:46 15.12.2020
4843 Clear 23 1016 43 10000 1.5 0 17:28 15.12.2020
4844 Clouds 22 1016 43 10000 2.1 0 16:58 15.12.2020
4845 Clouds 22 1016 43 10000 1.5 0 16:31 15.12.2020
4846 Clouds 22 1016 43 10000 2.6 10 15:44 15.12.2020
4847 Clouds 22 1016 43 10000 2.6 10 15:25 15.12.2020
4848 Clouds 21 1017 52 10000 3.1 30 14:43 15.12.2020
4849 Clouds 21 1017 52 10000 3.1 30 14:21 15.12.2020
4850 Clouds 21 1018 52 10000 2.6 30 13:51 15.12.2020
4851 Clear 20 1018 60 10000 2.1 50 13:32 15.12.2020
4852 Clear 19 1018 68 10000 1.5 100 12:47 15.12.2020
4853 Clear 19 1018 68 10000 1.5 100 12:47 15.12.2020
4854 Clouds 18 1019 72 10000 1.5 60 12:20 15.12.2020
4855 Clouds 17 1019 77 10000 2.1 40 11:54 15.12.2020
4856 Clouds 16 1019 82 8000 2.6 70 11:26 15.12.2020
4857 Clouds 16 1019 82 7000 3.1 40 10:53 15.12.2020
4858 Clouds 15 1018 87 7000 2.1 90 10:23 15.12.2020
4859 Clouds 14 1018 93 7000 1.5 70 09:49 15.12.2020
4860 Clouds 13 1018 93 8000 2.1 60 09:31 15.12.2020
4861 Clouds 13 1018 93 8000 2.1 80 08:47 15.12.2020
4862 Clouds 14 1018 87 8000 3.1 100 08:25 15.12.2020
4863 Clouds 14 1018 87 8000 2.6 60 07:49 15.12.2020
4864 Clouds 15 1018 87 8000 2.1 70 07:23 15.12.2020
4865 Clouds 15 1018 87 10000 2.6 80 06:27 15.12.2020
4866 Clouds 14 1018 87 10000 1.5 230 01:27 15.12.2020
4867 Clouds 15 1018 82 10000 2.1 240 00:34 15.12.2020
4868 Clouds 15 1018 87 10000 2.1 270 23:23 14.12.2020
4869 Clouds 15 1018 87 10000 1 0 22:48 14.12.2020
4870 Clouds 15 1018 87 10000 1.5 260 22:27 14.12.2020
4871 Clouds 16 1017 82 10000 1.5 310 21:44 14.12.2020
4872 Clouds 16 1017 82 10000 1.5 310 21:22 14.12.2020
4873 Clouds 17 1017 77 10000 2.1 320 20:49 14.12.2020
4874 Clouds 17 1017 77 10000 3.1 330 20:29 14.12.2020
4875 Clouds 18 1017 72 10000 3.1 310 19:50 14.12.2020
4876 Clouds 18 1017 68 10000 2.6 250 19:28 14.12.2020
4877 Clouds 19 1017 63 10000 1 0 18:44 14.12.2020
4878 Clouds 20 1017 60 10000 2.6 260 18:24 14.12.2020
4879 Clouds 21 1017 56 10000 3.6 270 17:46 14.12.2020
4880 Clouds 21 1016 56 10000 3.1 280 17:23 14.12.2020
4881 Clouds 21 1016 56 10000 2.1 300 16:50 14.12.2020
4882 Clouds 22 1016 53 10000 2.6 0 16:28 14.12.2020
4883 Clouds 21 1016 56 10000 2.1 320 15:35 14.12.2020
4884 Clouds 21 1016 52 10000 4.1 280 14:58 14.12.2020
4885 Clouds 21 1017 52 10000 3.1 300 14:40 14.12.2020
4886 Clouds 21 1017 52 10000 3.1 300 14:21 14.12.2020
4887 Clouds 21 1017 49 10000 4.1 280 13:41 14.12.2020
4888 Clouds 21 1017 49 10000 4.1 280 13:18 14.12.2020
4889 Clouds 20 1018 56 10000 3.1 220 12:50 14.12.2020
4890 Clouds 20 1018 56 10000 2.1 90 12:24 14.12.2020
4891 Clouds 17 1018 77 10000 4.1 120 11:31 14.12.2020
4892 Clouds 16 1018 82 8000 4.6 120 10:37 14.12.2020
4893 Clouds 16 1018 82 8000 4.6 120 10:37 14.12.2020
4894 Clouds 16 1018 82 8000 4.6 120 10:19 14.12.2020
4895 Clouds 14 1017 87 7000 3.6 120 09:29 14.12.2020
4896 Clouds 14 1017 87 7000 3.6 130 08:46 14.12.2020
4897 Clouds 14 1017 87 7000 1.5 140 08:27 14.12.2020
4898 Clouds 14 1016 87 8000 0.5 0 07:27 14.12.2020
4899 Clouds 13 1016 93 8000 1 0 06:45 14.12.2020
4900 Clouds 14 1015 93 8000 2.6 110 04:28 14.12.2020
4901 Clouds 15 1016 87 8000 2.1 80 02:26 14.12.2020
4902 Clouds 15 1016 87 5000 1 0 00:54 14.12.2020
4903 Clouds 15 1016 87 5000 1 0 00:31 14.12.2020
4904 Mist 15 1016 87 3000 1.5 280 23:46 13.12.2020
4905 Mist 15 1016 87 3000 2.6 300 23:25 13.12.2020
4906 Clouds 15 1016 87 6000 2.6 290 22:46 13.12.2020
4907 Clouds 14 1016 87 8000 3.6 250 22:19 13.12.2020
4908 Clear 15 1015 82 10000 3.6 240 21:42 13.12.2020
4909 Clear 15 1015 82 10000 3.6 240 21:23 13.12.2020
4910 Clear 15 1015 82 10000 2.6 260 20:35 13.12.2020
4911 Clear 16 1014 77 10000 3.1 270 19:53 13.12.2020
4912 Clear 16 1014 77 10000 1.5 260 19:30 13.12.2020
4913 Clear 17 1014 72 10000 2.6 270 18:58 13.12.2020
4914 Clear 17 1014 72 10000 3.1 270 18:39 13.12.2020
4915 Clear 17 1014 72 10000 3.1 270 18:39 13.12.2020
4916 Clear 17 1014 72 10000 3.1 270 18:19 13.12.2020
4917 Clear 17 1014 72 10000 3.6 280 17:46 13.12.2020
4918 Clear 18 1014 68 10000 3.6 280 17:20 13.12.2020
4919 Clear 19 1013 63 10000 2.1 300 16:54 13.12.2020
4920 Clear 19 1013 63 10000 2.1 300 16:54 13.12.2020
4921 Clear 20 1014 60 10000 2.1 290 16:36 13.12.2020
4922 Clear 20 1014 60 10000 1.5 300 15:56 13.12.2020
4923 Clear 21 1014 56 10000 1 0 15:38 13.12.2020
4924 Clear 21 1014 56 10000 1 0 15:18 13.12.2020
4925 Clear 20 1014 60 10000 1 0 14:42 13.12.2020
4926 Clear 20 1014 60 10000 1 0 14:18 13.12.2020
4927 Clear 18 1016 63 10000 1 0 13:41 13.12.2020
4928 Clear 18 1016 63 10000 1 0 13:22 13.12.2020
4929 Clear 18 1016 68 10000 0.5 0 12:37 13.12.2020
4930 Clear 18 1016 68 10000 0.5 0 12:18 13.12.2020
4931 Clear 14 1016 76 10000 1 0 11:35 13.12.2020
4932 Clear 14 1017 76 10000 1.5 280 10:49 13.12.2020
4933 Clear 15 1016 72 10000 0.71 268 10:30 13.12.2020
4934 Clear 12 1016 81 10000 1.03 258 09:52 13.12.2020
4935 Clear 9 1016 87 10000 1 0 08:58 13.12.2020
4936 Clear 10 1016 81 10000 2.6 240 08:33 13.12.2020
4937 Clear 9 1016 87 10000 2.6 250 07:29 13.12.2020
4938 Clear 11 1015 87 10000 1.5 60 03:31 13.12.2020
4939 Clear 12 1016 81 10000 2.1 110 02:40 13.12.2020
4940 Clear 12 1017 81 10000 2.1 110 01:37 13.12.2020
4941 Clear 12 1017 81 10000 2.1 110 01:37 13.12.2020
4942 Clear 12 1017 81 10000 2.1 110 01:37 13.12.2020
4943 Clear 12 1017 81 10000 2.1 110 01:37 13.12.2020
4944 Clear 13 1017 82 10000 2.6 90 00:47 13.12.2020
4945 Clear 14 1018 76 10000 1 0 23:51 12.12.2020
4946 Clear 15 1018 72 10000 2.6 110 23:31 12.12.2020
4947 Clear 16 1018 67 10000 2.6 140 22:46 12.12.2020
4948 Clear 16 1019 63 10000 2.1 90 21:56 12.12.2020
4949 Clear 17 1019 59 10000 2.1 80 21:32 12.12.2020
4950 Clear 17 1019 55 10000 1.5 80 20:55 12.12.2020
4951 Clear 17 1019 59 10000 2.6 70 20:24 12.12.2020
4952 Clear 19 1019 52 10000 3.1 60 19:57 12.12.2020
4953 Clear 21 1019 49 10000 4.1 40 19:38 12.12.2020
4954 Clear 21 1019 49 10000 4.1 40 19:20 12.12.2020
4955 Clear 22 1018 43 10000 5.1 30 18:41 12.12.2020
4956 Clear 22 1018 43 10000 5.1 30 18:23 12.12.2020
4957 Clear 23 1018 43 10000 5.1 30 17:45 12.12.2020
4958 Clear 25 1018 38 10000 4.1 20 16:54 12.12.2020
4959 Clear 25 1018 31 10000 3.6 50 16:19 12.12.2020
4960 Clear 25 1019 41 10000 1.5 340 15:44 12.12.2020
4961 Clear 24 1019 47 10000 1.5 0 15:26 12.12.2020
4962 Clear 23 1019 49 10000 2.1 50 14:44 12.12.2020
4963 Clear 21 1021 52 10000 3.1 50 13:54 12.12.2020
4964 Clear 20 1021 56 10000 2.6 50 13:36 12.12.2020
4965 Clear 19 1021 68 10000 2.1 40 12:47 12.12.2020
4966 Clear 15 1022 82 10000 3.6 50 11:43 12.12.2020
4967 Clear 13 1022 87 10000 3.6 70 10:53 12.12.2020
4968 Clear 13 1022 87 10000 3.6 70 10:53 12.12.2020
4969 Clear 10 1022 100 8000 2.6 90 09:32 12.12.2020
4970 Fog 10 1022 100 600 2.6 110 08:53 12.12.2020
4971 Clouds 13 1022 93 5000 3.6 100 02:53 12.12.2020
4972 Clear 14 1024 76 10000 2.6 60 23:54 11.12.2020
4973 Clear 16 1023 67 10000 3.29 61 22:24 11.12.2020
4974 Clear 19 1023 55 10000 2.1 30 20:35 11.12.2020
4975 Clouds 23 1023 40 10000 2.1 80 17:58 11.12.2020
4976 Clear 21 1023 46 10000 2.1 60 14:53 11.12.2020
4977 Clear 20 1024 52 10000 1.5 50 13:58 11.12.2020
4978 Clouds 19 1025 52 8000 2.1 80 12:56 11.12.2020
4979 Clear 18 1026 55 8000 2.1 80 12:18 11.12.2020
4980 Clear 18 1026 55 8000 2.1 80 12:18 11.12.2020
4981 Clear 17 1026 59 8000 1 0 11:50 11.12.2020
4982 Clear 13 1025 82 10000 3.1 80 10:45 11.12.2020
4983 Clear 9 1024 87 8000 2.1 80 08:46 11.12.2020
4984 Clear 9 1024 93 8000 2.1 100 05:42 11.12.2020
4985 Clear 9 1024 93 8000 2.1 60 04:52 11.12.2020
4986 Clear 12 1025 81 8000 2.1 70 01:38 11.12.2020
4987 Clouds 11 1024 87 8000 1.5 100 00:21 11.12.2020
4988 Clouds 14 1024 76 8000 3.1 120 22:44 10.12.2020
4989 Clouds 15 1025 67 8000 2.1 70 21:36 10.12.2020
4990 Clouds 16 1024 67 8000 2.6 60 20:41 10.12.2020
4991 Clouds 17 1024 63 8000 2.6 40 19:37 10.12.2020
4992 Clouds 18 1024 59 8000 3.6 360 18:56 10.12.2020
4993 Clouds 20 1023 52 8000 2.1 360 17:54 10.12.2020
4994 Clouds 20 1023 56 8000 1.5 20 16:30 10.12.2020
4995 Clouds 20 1023 52 8000 1.5 0 15:27 10.12.2020
4996 Clouds 19 1023 55 8000 1.5 0 14:50 10.12.2020
4997 Clouds 18 1024 59 8000 2.1 60 14:27 10.12.2020
4998 Clear 16 1025 67 8000 2.1 40 12:47 10.12.2020
4999 Clouds 13 1025 76 8000 2.6 30 11:35 10.12.2020
5000 Clouds 8 1025 87 8000 2.1 90 08:51 10.12.2020
5001 Clouds 9 1025 93 8000 3.6 140 07:45 10.12.2020
5002 Clear 8 1024 93 8000 2.1 50 06:41 10.12.2020
5003 Clear 10 1024 87 8000 1.5 100 02:56 10.12.2020
5004 Clear 11 1025 87 8000 1 0 02:00 10.12.2020
5005 Clear 12 1025 76 8000 0.5 0 00:22 10.12.2020
5006 Clear 13 1024 76 8000 1.5 110 21:58 09.12.2020
5007 Clear 15 1023 67 8000 2.6 70 20:28 09.12.2020
5008 Clear 17 1023 59 8000 3.6 40 19:21 09.12.2020
5009 Clouds 19 1022 52 8000 3.6 50 17:43 09.12.2020
5010 Clouds 19 1022 52 8000 4.1 80 16:44 09.12.2020
5011 Clouds 19 1022 52 8000 4.1 80 16:22 09.12.2020
5012 Clear 18 1022 55 8000 4.6 70 15:18 09.12.2020
5013 Clear 18 1023 55 8000 4.1 50 14:27 09.12.2020
5014 Clear 18 1024 59 8000 2.1 0 13:58 09.12.2020
5015 Clear 16 1024 63 8000 2.6 70 13:19 09.12.2020
5016 Clear 15 1025 62 8000 3.1 70 12:44 09.12.2020
5017 Clear 13 1025 71 8000 3.1 100 11:51 09.12.2020
5018 Clear 12 1025 71 8000 2.1 100 10:48 09.12.2020
5019 Clear 6 1024 93 8000 1 0 08:49 09.12.2020
5020 Clear 7 1023 87 8000 1.5 110 07:43 09.12.2020
5021 Clear 7 1023 87 8000 2.1 110 05:48 09.12.2020
5022 Clear 8 1023 87 8000 2.6 120 03:29 09.12.2020
5023 Clear 10 1024 81 8000 2.6 140 01:52 09.12.2020
5024 Clouds 11 1024 81 8000 2.1 60 23:43 08.12.2020
5025 Clouds 11 1024 81 8000 2.6 100 22:52 08.12.2020
5026 Clouds 13 1024 71 8000 2.6 110 21:22 08.12.2020
5027 Clouds 16 1023 59 8000 1 0 19:33 08.12.2020
5028 Clouds 17 1023 51 8000 1.5 40 18:59 08.12.2020
5029 Clouds 18 1023 48 8000 1 0 17:55 08.12.2020
5030 Clouds 18 1023 48 8000 1.5 0 15:45 08.12.2020
5031 Clear 17 1024 51 8000 1.5 50 14:26 08.12.2020
5032 Clear 16 1025 51 8000 1.5 0 13:24 08.12.2020
5033 Clear 14 1025 58 8000 1.5 50 12:27 08.12.2020
5034 Clear 14 1026 62 8000 1.5 70 11:50 08.12.2020
5035 Clear 11 1025 71 8000 2.1 110 10:45 08.12.2020
5036 Clear 10 1025 81 8000 1.5 90 10:19 08.12.2020
5037 Clear 5 1025 93 8000 1 0 08:28 08.12.2020
5038 Clear 6 1024 93 8000 1 0 06:52 08.12.2020
5039 Clear 8 1024 87 8000 1 0 03:34 08.12.2020
5040 Clear 10 1024 76 8000 1 0 00:47 08.12.2020
5041 Clear 12 1024 66 8000 2.1 150 23:52 07.12.2020
5042 Clear 12 1024 71 10000 2.1 90 22:40 07.12.2020
5043 Clear 12 1024 71 10000 1 0 21:51 07.12.2020
5044 Clear 15 1023 54 10000 2.1 260 19:55 07.12.2020
5045 Clear 18 1023 45 10000 0.5 0 18:42 07.12.2020
5046 Clear 18 1023 45 10000 1.5 0 17:26 07.12.2020
5047 Clear 18 1022 42 10000 1 0 16:54 07.12.2020
5048 Clear 18 1022 42 10000 1.5 60 15:30 07.12.2020
5049 Clear 16 1022 44 10000 2.1 30 14:51 07.12.2020
5050 Clear 17 1023 48 10000 1 0 14:18 07.12.2020
5051 Clear 15 1023 54 8000 1.5 100 13:21 07.12.2020
5052 Clear 12 1024 66 8000 2.1 80 11:44 07.12.2020
5053 Clear 11 1024 71 8000 2.1 90 11:19 07.12.2020
5054 Clear 8 1023 87 8000 2.1 100 09:56 07.12.2020
5055 Clear 5 1022 93 8000 1.5 70 08:26 07.12.2020
5056 Clear 6 1022 93 8000 2.1 110 06:36 07.12.2020
5057 Clear 6 1022 87 8000 2.1 70 04:50 07.12.2020
5058 Clear 8 1021 81 8000 2.1 80 01:55 07.12.2020
5059 Clear 9 1021 81 8000 2.6 110 00:27 07.12.2020
5060 Clear 10 1021 76 8000 2.1 80 22:25 06.12.2020
5061 Clouds 12 1020 62 8000 3.1 40 20:58 06.12.2020
5062 Clouds 12 1020 62 8000 3.1 50 20:34 06.12.2020
5063 Clouds 13 1020 58 8000 2.6 30 19:56 06.12.2020
5064 Clouds 15 1019 51 8000 2.6 80 18:40 06.12.2020
5065 Clouds 15 1019 47 8000 2.1 40 16:56 06.12.2020
5066 Clouds 15 1019 54 8000 2.1 30 15:21 06.12.2020
5067 Clouds 14 1020 62 8000 1 0 13:56 06.12.2020
5068 Clouds 13 1020 66 8000 1.5 0 12:52 06.12.2020
5069 Clouds 12 1021 71 8000 2.1 120 12:18 06.12.2020
5070 Clear 11 1021 81 8000 3.1 100 11:34 06.12.2020
5071 Clear 10 1020 81 8000 3.6 110 10:51 06.12.2020
5072 Clear 8 1020 93 8000 2.1 100 09:59 06.12.2020
5073 Clouds 6 1019 93 8000 1.5 90 08:30 06.12.2020
5074 Clouds 6 1018 100 8000 2.1 100 06:50 06.12.2020
5075 Clouds 8 1018 93 8000 1.5 100 01:50 06.12.2020
5076 Clouds 8 1018 93 8000 1.5 80 00:42 06.12.2020
5077 Clouds 8 1018 93 8000 1.5 80 00:23 06.12.2020
5078 Clouds 10 1017 87 8000 2.6 90 22:47 05.12.2020
5079 Clouds 10 1017 87 8000 2.6 70 22:20 05.12.2020
5080 Clouds 11 1016 81 8000 2.1 70 21:50 05.12.2020
5081 Clouds 11 1016 76 8000 2.1 60 21:26 05.12.2020
5082 Clouds 11 1015 76 8000 1.5 350 19:43 05.12.2020
5083 Rain 11 1015 81 8000 2.1 40 18:40 05.12.2020
5084 Rain 11 1014 87 5000 1.5 360 17:33 05.12.2020
5085 Rain 14 1014 67 8000 3.1 280 16:31 05.12.2020
5086 Rain 14 1014 67 8000 3.1 310 15:54 05.12.2020
5087 Rain 13 1014 71 6000 3.1 340 14:27 05.12.2020
5088 Rain 11 1016 93 4000 2.6 300 12:23 05.12.2020
5089 Rain 11 1015 93 4000 2.6 280 11:41 05.12.2020
5090 Rain 11 1015 93 6000 2.6 270 10:31 05.12.2020
5091 Rain 10 1013 100 4000 2.1 310 07:48 05.12.2020
5092 Rain 11 1012 93 6000 3.1 280 06:40 05.12.2020
5093 Rain 11 1012 100 5000 4.6 260 03:54 05.12.2020
5094 Rain 13 1014 82 10000 4.6 260 23:55 04.12.2020
5095 Clouds 13 1014 87 7000 3.6 250 22:24 04.12.2020
5096 Clouds 14 1014 71 10000 3.6 250 20:25 04.12.2020
5097 Clouds 16 1013 67 10000 5.7 290 18:53 04.12.2020
5098 Clouds 16 1013 67 10000 6.7 300 18:19 04.12.2020
5099 Clouds 18 1013 52 10000 6.2 280 17:37 04.12.2020
5100 Rain 19 1013 52 10000 5.7 270 15:46 04.12.2020
5101 Clouds 18 1015 59 10000 3.1 270 13:57 04.12.2020
5102 Clouds 18 1015 59 10000 3.1 290 13:29 04.12.2020
5103 Clouds 17 1016 67 10000 2.1 240 12:54 04.12.2020
5104 Mist 13 1016 100 4000 0.5 0 10:41 04.12.2020
5105 Mist 13 1016 93 3000 1 0 09:55 04.12.2020
5106 Mist 12 1016 100 2000 2.6 220 07:29 04.12.2020
5107 Fog 12 1016 100 700 3.1 220 06:39 04.12.2020
5108 Clouds 13 1016 87 6000 2.1 270 02:25 04.12.2020
5109 Clouds 14 1016 87 10000 4.1 230 23:21 03.12.2020
5110 Clouds 14 1016 87 10000 4.1 220 22:45 03.12.2020
5111 Clouds 15 1016 77 10000 3.6 240 20:49 03.12.2020
5112 Clouds 17 1015 67 10000 4.1 260 19:38 03.12.2020
5113 Clouds 17 1015 67 10000 4.1 260 19:19 03.12.2020
5114 Clouds 19 1015 63 10000 4.6 270 18:34 03.12.2020
5115 Clouds 20 1014 52 10000 5.1 270 17:20 03.12.2020
5116 Clouds 21 1014 49 10000 4.6 300 15:58 03.12.2020
5117 Clouds 21 1014 49 10000 3.6 300 15:31 03.12.2020
5118 Clouds 20 1014 49 10000 4.1 290 14:48 03.12.2020
5119 Clouds 19 1015 48 10000 3.6 290 13:44 03.12.2020
5120 Clouds 18 1016 52 8000 3.1 280 12:32 03.12.2020
5121 Clouds 17 1016 51 8000 3.6 280 11:49 03.12.2020
5122 Clouds 14 1016 67 8000 0.5 0 10:27 03.12.2020
5123 Clouds 12 1014 76 10000 1.5 120 07:48 03.12.2020
5124 Clear 13 1014 66 10000 1 0 03:38 03.12.2020
5125 Clear 12 1015 76 10000 1 0 01:24 03.12.2020
5126 Clear 16 1015 63 10000 3.1 200 23:19 02.12.2020
5127 Clouds 16 1015 63 9000 3.1 220 22:29 02.12.2020
5128 Clouds 16 1015 63 9000 3.6 240 21:29 02.12.2020
5129 Clouds 16 1015 59 9000 4.1 240 20:48 02.12.2020
5130 Clouds 17 1015 55 9000 4.1 250 20:29 02.12.2020
5131 Clouds 19 1014 52 9000 5.7 250 19:22 02.12.2020
5132 Clouds 22 1013 37 9000 6.2 270 17:48 02.12.2020
5133 Clouds 23 1013 27 9000 4.6 270 17:29 02.12.2020
5134 Clouds 25 1013 23 9000 2.6 350 15:37 02.12.2020
5135 Clouds 23 1015 28 9000 1 0 13:19 02.12.2020
5136 Clouds 17 1016 45 9000 1 0 10:47 02.12.2020
5137 Clouds 14 1016 50 9000 2.6 90 10:21 02.12.2020
5138 Clouds 11 1015 57 9000 2.1 80 06:53 02.12.2020
5139 Clear 16 1017 44 10000 3.1 90 23:20 01.12.2020
5140 Clear 17 1017 42 10000 3.1 120 22:20 01.12.2020
5141 Clouds 23 1016 25 10000 4.6 60 19:36 01.12.2020
5142 Clouds 23 1016 25 10000 4.6 60 18:46 01.12.2020
5143 Clouds 25 1016 22 10000 5.1 50 16:47 01.12.2020
5144 Clouds 25 1017 23 10000 5.7 80 14:34 01.12.2020
5145 Clear 21 1019 37 10000 3.6 80 12:31 01.12.2020
5146 Clear 19 1020 48 10000 3.1 90 11:28 01.12.2020
5147 Clear 17 1020 51 10000 2.6 80 10:46 01.12.2020
5148 Clear 15 1020 58 10000 3.1 90 10:26 01.12.2020
5149 Clear 12 1018 76 10000 4.1 90 07:26 01.12.2020
5150 Clouds 14 1019 82 10000 2.1 120 02:57 01.12.2020
5151 Clouds 15 1019 82 10000 2.1 130 00:57 01.12.2020
5152 Clouds 16 1019 72 10000 3.1 230 23:49 30.11.2020
5153 Clouds 17 1018 67 10000 2.6 230 23:18 30.11.2020
5154 Clouds 17 1018 63 10000 2.1 250 22:36 30.11.2020
5155 Clouds 17 1018 63 10000 2.1 250 22:18 30.11.2020
5156 Clouds 19 1016 48 10000 1 0 19:46 30.11.2020
5157 Clouds 20 1015 40 10000 1 0 18:44 30.11.2020
5158 Clouds 21 1014 37 10000 2.1 50 18:21 30.11.2020
5159 Clouds 23 1014 35 10000 2.1 360 17:43 30.11.2020
5160 Clouds 23 1014 35 10000 2.1 360 17:43 30.11.2020
5161 Clouds 23 1014 35 10000 1.5 0 16:44 30.11.2020
5162 Clouds 21 1015 46 10000 2.1 60 14:47 30.11.2020
5163 Clouds 19 1015 52 10000 3.1 50 13:55 30.11.2020
5164 Clouds 16 1016 67 7000 2.6 50 12:40 30.11.2020
5165 Clouds 16 1016 67 7000 2.6 50 12:20 30.11.2020
5166 Clouds 13 1015 82 6000 1.5 80 10:32 30.11.2020
5167 Mist 12 1015 87 4000 2.1 60 09:53 30.11.2020
5168 Clear 10 1014 93 10000 1.5 0 07:58 30.11.2020
5169 Clouds 13 1014 82 10000 1.5 160 01:23 30.11.2020
5170 Clouds 13 1014 82 10000 2.1 260 22:22 29.11.2020
5171 Clouds 14 1014 76 10000 2.1 260 21:44 29.11.2020
5172 Clouds 15 1013 72 10000 0.5 0 21:25 29.11.2020
5173 Clouds 15 1013 72 10000 1.5 30 18:46 29.11.2020
5174 Clouds 15 1013 67 10000 3.1 320 17:31 29.11.2020
5175 Clouds 17 1014 55 10000 2.6 300 13:35 29.11.2020
5176 Clouds 17 1014 55 10000 2.6 300 13:35 29.11.2020
5177 Clouds 17 1014 55 10000 2.1 320 12:43 29.11.2020
5178 Clouds 15 1014 67 10000 1.5 310 11:22 29.11.2020
5179 Clouds 10 1013 81 10000 2.1 80 08:53 29.11.2020
5180 Clear 9 1013 87 10000 2.1 80 08:34 29.11.2020
5181 Clear 12 1013 71 10000 0.5 0 02:31 29.11.2020
5182 Clouds 11 1014 81 10000 1 0 22:59 28.11.2020
5183 Clouds 13 1014 71 10000 1 0 22:18 28.11.2020
5184 Clouds 14 1014 62 10000 1.5 240 19:56 28.11.2020
5185 Clouds 15 1013 58 10000 1 0 19:27 28.11.2020
5186 Clouds 16 1013 51 10000 2.1 250 18:55 28.11.2020
5187 Clouds 18 1013 42 10000 2.6 250 17:57 28.11.2020
5188 Clouds 18 1013 45 10000 3.6 260 16:56 28.11.2020
5189 Clouds 17 1014 48 10000 3.1 300 14:58 28.11.2020
5190 Clouds 17 1015 55 10000 2.1 260 13:31 28.11.2020
5191 Clouds 13 1015 76 10000 2.6 280 11:24 28.11.2020
5192 Clouds 9 1014 87 10000 2.1 190 08:47 28.11.2020
5193 Clouds 11 1011 76 8000 3.1 220 03:38 28.11.2020
5194 Clouds 9 1011 87 8000 1 0 01:52 28.11.2020
5195 Clouds 12 1010 81 8000 3.1 150 23:19 27.11.2020
5196 Rain 11 1009 81 8000 3.1 170 21:57 27.11.2020
5197 Rain 12 1009 76 8000 2.1 290 20:38 27.11.2020
5198 Clouds 13 1008 71 10000 3.1 270 19:31 27.11.2020
5199 Clouds 14 1008 62 10000 2.6 10 18:51 27.11.2020
5200 Clouds 16 1007 48 10000 5.7 270 15:39 27.11.2020
5201 Clouds 15 1008 51 10000 4.1 240 14:18 27.11.2020
5202 Clouds 14 1009 58 10000 3.6 250 12:48 27.11.2020
5203 Clouds 13 1010 66 10000 3.1 260 11:57 27.11.2020
5204 Clouds 12 1009 66 10000 1.5 190 10:51 27.11.2020
5205 Clouds 11 1009 71 10000 2.1 160 10:27 27.11.2020
5206 Clouds 10 1010 70 10000 1.48 206 07:30 27.11.2020
5207 Clouds 12 1008 60 10000 0.57 348 22:43 26.11.2020
5208 Clouds 12 1008 57 10000 1.09 300 22:22 26.11.2020
5209 Clouds 11 1008 66 8000 2.1 210 21:39 26.11.2020
5210 Clouds 11 1008 71 8000 2.6 200 19:48 26.11.2020
5211 Clouds 12 1007 66 8000 5.1 280 18:34 26.11.2020
5212 Clouds 14 1007 62 8000 5.1 300 16:32 26.11.2020
5213 Clouds 13 1009 58 8000 6.2 260 13:43 26.11.2020
5214 Clouds 13 1009 58 8000 7.2 240 12:49 26.11.2020
5215 Clouds 12 1010 71 8000 7.7 250 12:29 26.11.2020
5216 Clouds 12 1010 66 8000 3.6 250 10:38 26.11.2020
5217 Clouds 12 1010 66 8000 3.6 250 10:18 26.11.2020
5218 Clouds 11 1010 81 8000 3.1 200 09:31 26.11.2020
5219 Clouds 10 1010 81 8000 3.6 240 08:43 26.11.2020
5220 Clouds 11 1010 81 5000 4.1 270 07:49 26.11.2020
5221 Rain 13 1013 76 7000 5.1 320 00:46 26.11.2020
5222 Clouds 17 1012 63 8000 4.1 290 21:36 25.11.2020
5223 Clouds 18 1012 59 8000 4.1 300 20:31 25.11.2020
5224 Clouds 19 1013 45 8000 4.1 290 18:58 25.11.2020
5225 Clouds 22 1013 35 8000 6.2 300 17:27 25.11.2020
5226 Clouds 23 1013 31 8000 3.1 250 15:43 25.11.2020
5227 Clouds 22 1014 30 8000 3.6 240 14:46 25.11.2020
5228 Clouds 20 1017 37 8000 3.1 230 13:45 25.11.2020
5229 Clouds 21 1019 40 8000 0.5 0 12:30 25.11.2020
5230 Clouds 17 1019 63 8000 0.5 0 11:21 25.11.2020
5231 Clouds 14 1020 71 8000 1 0 09:20 25.11.2020
5232 Clouds 13 1020 71 10000 2.1 120 08:49 25.11.2020
5233 Clouds 11 1020 87 10000 1.5 270 06:59 25.11.2020
5234 Clouds 14 1021 76 10000 2.1 240 03:49 25.11.2020
5235 Clouds 15 1023 72 10000 3.6 240 00:55 25.11.2020
5236 Clouds 16 1023 63 10000 3.1 240 23:59 24.11.2020
5237 Clouds 16 1023 63 10000 3.1 240 23:34 24.11.2020
5238 Clouds 16 1023 59 10000 3.1 240 22:38 24.11.2020
5239 Clouds 18 1023 45 10000 2.1 240 21:31 24.11.2020
5240 Clouds 19 1023 42 10000 2.6 290 20:55 24.11.2020
5241 Clouds 20 1022 34 10000 2.1 270 19:47 24.11.2020
5242 Clouds 25 1021 25 10000 3.6 280 17:32 24.11.2020
5243 Clouds 25 1021 25 10000 2.6 310 16:57 24.11.2020
5244 Clouds 25 1021 25 10000 2.6 330 16:37 24.11.2020
5245 Clouds 25 1021 25 10000 3.6 310 15:55 24.11.2020
5246 Clouds 25 1022 27 10000 4.1 300 15:19 24.11.2020
5247 Clear 25 1022 27 10000 3.1 310 14:44 24.11.2020
5248 Clear 22 1024 35 10000 2.1 300 13:20 24.11.2020
5249 Clear 22 1024 33 10000 1 0 12:38 24.11.2020
5250 Clear 21 1025 35 10000 1 0 11:59 24.11.2020
5251 Clear 18 1025 42 10000 1 0 10:52 24.11.2020
5252 Clear 16 1025 44 10000 1 0 10:25 24.11.2020
5253 Clear 16 1025 44 10000 1 0 10:25 24.11.2020
5254 Clear 12 1025 58 10000 1 0 09:37 24.11.2020
5255 Clear 10 1025 61 10000 2.1 100 08:57 24.11.2020
5256 Clear 11 1024 53 10000 1.5 270 04:51 24.11.2020
5257 Clear 16 1024 48 10000 2.1 260 23:35 23.11.2020
5258 Clear 18 1024 36 10000 2.6 120 21:56 23.11.2020
5259 Clear 18 1024 36 10000 2.6 100 21:25 23.11.2020
5260 Clear 22 1023 30 10000 1 0 20:29 23.11.2020
5261 Clear 22 1023 30 10000 1 0 19:53 23.11.2020
5262 Clear 26 1022 24 10000 1.5 10 17:29 23.11.2020
5263 Clear 26 1022 24 10000 1.5 0 16:55 23.11.2020
5264 Clear 25 1023 27 10000 2.1 360 14:50 23.11.2020
5265 Clear 25 1024 29 10000 1.5 0 13:56 23.11.2020
5266 Clouds 22 1025 35 10000 1.5 50 12:40 23.11.2020
5267 Clouds 21 1025 37 10000 1.5 40 11:57 23.11.2020
5268 Clouds 20 1025 42 10000 1.5 40 11:38 23.11.2020
5269 Clouds 15 1024 47 10000 1.5 100 09:47 23.11.2020
5270 Clear 10 1023 66 10000 1.5 70 08:51 23.11.2020
5271 Clear 14 1023 50 10000 2.1 170 07:58 23.11.2020
5272 Clear 13 1023 58 10000 1 0 03:32 23.11.2020
5273 Clear 18 1024 55 10000 2.6 230 23:51 22.11.2020
5274 Clear 18 1023 48 10000 2.6 230 22:23 22.11.2020
5275 Clear 21 1023 46 10000 2.1 10 21:24 22.11.2020
5276 Clear 22 1022 35 10000 2.6 340 20:20 22.11.2020
5277 Clear 23 1021 28 10000 3.1 240 19:29 22.11.2020
5278 Clear 26 1021 24 10000 3.6 270 18:23 22.11.2020
5279 Clear 27 1021 19 10000 2.1 350 16:26 22.11.2020
5280 Clear 28 1021 21 10000 2.1 0 15:25 22.11.2020
5281 Clear 26 1022 27 10000 1 0 13:27 22.11.2020
5282 Clear 24 1022 29 10000 1.5 340 12:43 22.11.2020
5283 Clear 22 1023 35 10000 1 0 11:54 22.11.2020
5284 Clear 20 1023 37 10000 0.5 0 10:51 22.11.2020
5285 Clear 17 1023 45 10000 1 0 10:33 22.11.2020
5286 Clear 13 1021 50 10000 1 0 04:39 22.11.2020
5287 Clear 16 1021 41 10000 1.5 170 23:56 21.11.2020
5288 Clear 20 1021 34 10000 1 0 22:42 21.11.2020
5289 Clear 22 1020 28 10000 1 0 21:31 21.11.2020
5290 Clear 21 1020 32 10000 0.5 0 20:49 21.11.2020
5291 Clear 22 1020 30 10000 1 0 20:20 21.11.2020
5292 Clear 23 1020 28 10000 1 0 19:49 21.11.2020
5293 Clear 24 1020 29 10000 1.5 350 19:18 21.11.2020
5294 Clear 27 1019 24 10000 2.1 40 17:32 21.11.2020
5295 Clear 27 1019 24 10000 2.1 10 16:45 21.11.2020
5296 Clear 26 1020 26 10000 2.1 350 15:42 21.11.2020
5297 Clear 26 1020 26 10000 2.1 350 15:20 21.11.2020
5298 Clear 26 1020 26 10000 1.5 0 14:42 21.11.2020
5299 Clear 24 1022 33 10000 1 0 12:59 21.11.2020
5300 Clear 24 1022 33 10000 1.5 60 12:23 21.11.2020
5301 Clear 22 1023 37 10000 2.1 20 11:49 21.11.2020
5302 Clear 18 1023 45 10000 2.6 100 10:28 21.11.2020
5303 Clear 12 1022 62 10000 1.5 100 08:52 21.11.2020
5304 Clear 12 1022 62 10000 1.5 100 08:52 21.11.2020
5305 Clear 12 1021 58 10000 1.5 110 08:34 21.11.2020
5306 Clear 12 1021 58 10000 1 0 05:42 21.11.2020
5307 Clouds 16 1021 44 8000 1.5 150 03:28 21.11.2020
5308 Clear 18 1023 42 10000 1.5 210 00:22 21.11.2020
5309 Clear 19 1023 39 10000 4.1 220 22:59 20.11.2020
5310 Clear 19 1022 42 10000 3.6 240 21:45 20.11.2020
5311 Clear 19 1022 42 10000 3.6 240 21:21 20.11.2020
5312 Clear 19 1022 42 10000 3.6 240 21:21 20.11.2020
5313 Clear 22 1021 35 10000 4.6 270 19:55 20.11.2020
5314 Clouds 25 1021 27 10000 3.1 250 18:55 20.11.2020
5315 Clouds 26 1021 24 10000 4.1 270 18:27 20.11.2020
5316 Clouds 27 1020 24 10000 2.1 0 17:30 20.11.2020
5317 Clouds 27 1020 24 10000 2.6 300 16:47 20.11.2020
5318 Clouds 27 1021 26 10000 3.1 280 15:59 20.11.2020
5319 Clouds 27 1021 26 10000 3.1 310 15:39 20.11.2020
5320 Clear 26 1022 27 10000 2.1 300 13:54 20.11.2020
5321 Clear 24 1022 31 10000 2.1 310 13:19 20.11.2020
5322 Clear 24 1023 33 10000 1.5 70 12:41 20.11.2020
5323 Clear 23 1023 35 10000 1.5 100 11:50 20.11.2020
5324 Clear 20 1023 40 10000 2.6 100 11:21 20.11.2020
5325 Clear 16 1022 48 10000 1.5 80 09:46 20.11.2020
5326 Clear 14 1021 50 10000 1 0 08:28 20.11.2020
5327 Clear 13 1022 54 10000 1 0 07:35 20.11.2020
5328 Clear 15 1022 47 10000 1 0 03:45 20.11.2020
5329 Clear 19 1023 48 10000 1.5 240 23:31 19.11.2020
5330 Clear 19 1023 39 10000 2.1 230 22:27 19.11.2020
5331 Clear 19 1022 39 10000 2.1 240 21:49 19.11.2020
5332 Clouds 23 1022 31 10000 1.5 350 20:42 19.11.2020
5333 Clouds 23 1022 31 10000 1.5 350 20:41 19.11.2020
5334 Clouds 23 1022 31 10000 1.5 350 20:19 19.11.2020
5335 Clouds 25 1021 25 10000 1 0 19:25 19.11.2020
5336 Clouds 27 1021 22 10000 2.6 250 18:35 19.11.2020
5337 Clouds 28 1020 20 10000 3.1 320 17:18 19.11.2020
5338 Clouds 28 1020 21 10000 4.1 290 16:25 19.11.2020
5339 Clouds 28 1020 21 10000 3.6 290 15:28 19.11.2020
5340 Clouds 26 1021 26 10000 2.6 290 13:47 19.11.2020
5341 Clouds 26 1022 26 10000 2.6 310 13:27 19.11.2020
5342 Clouds 25 1022 27 10000 2.6 310 12:51 19.11.2020
5343 Clear 24 1022 29 10000 2.6 300 12:25 19.11.2020
5344 Clear 23 1022 31 10000 2.6 280 11:40 19.11.2020
5345 Clear 23 1022 31 10000 2.6 280 11:40 19.11.2020
5346 Clear 23 1022 31 10000 2.6 280 11:20 19.11.2020
5347 Clouds 21 1022 32 10000 1 0 10:29 19.11.2020
5348 Clouds 17 1021 39 10000 2.1 180 09:45 19.11.2020
5349 Clouds 17 1021 39 10000 2.1 180 09:26 19.11.2020
5350 Clouds 14 1021 47 10000 0.42 169 08:20 19.11.2020
5351 Clear 14 1021 44 10000 2.6 100 06:54 19.11.2020
5352 Clear 19 1021 34 10000 0.5 0 01:46 19.11.2020
5353 Clear 20 1022 32 10000 1 0 00:29 19.11.2020
5354 Clear 20 1022 32 10000 1 0 23:30 18.11.2020
5355 Clouds 22 1022 28 10000 1.5 220 22:40 18.11.2020
5356 Clouds 22 1022 28 10000 1.5 220 22:21 18.11.2020
5357 Clouds 23 1021 28 10000 2.6 160 21:40 18.11.2020
5358 Clouds 23 1021 28 10000 2.6 160 21:20 18.11.2020
5359 Clouds 24 1021 25 10000 1 0 19:54 18.11.2020
5360 Clouds 26 1021 22 10000 1.5 30 19:35 18.11.2020
5361 Clouds 27 1021 21 10000 2.1 40 18:57 18.11.2020
5362 Clouds 27 1021 21 10000 2.1 40 18:57 18.11.2020
5363 Clouds 29 1021 20 10000 3.6 40 18:38 18.11.2020
5364 Clouds 30 1021 19 10000 3.1 50 17:37 18.11.2020
5365 Clouds 30 1021 19 10000 3.1 70 16:25 18.11.2020
5366 Clouds 30 1021 19 10000 3.1 50 15:57 18.11.2020
5367 Clouds 29 1022 21 10000 4.1 50 14:41 18.11.2020
5368 Clouds 28 1023 24 10000 2.6 40 13:45 18.11.2020
5369 Clouds 28 1023 24 10000 1.5 0 13:20 18.11.2020
5370 Clouds 26 1024 29 10000 1.5 0 12:42 18.11.2020
5371 Clear 23 1024 35 10000 1.5 70 11:35 18.11.2020
5372 Clear 21 1024 37 10000 0.5 0 10:32 18.11.2020
5373 Clear 17 1024 48 10000 1.5 80 09:57 18.11.2020
5374 Clear 14 1023 54 10000 2.6 100 07:54 18.11.2020
5375 Clear 15 1023 51 10000 1 0 06:35 18.11.2020
5376 Clear 20 1024 37 10000 3.1 120 00:33 18.11.2020
5377 Clear 20 1024 34 10000 2.1 60 23:37 17.11.2020
5378 Clear 22 1024 30 10000 1.5 110 22:49 17.11.2020
5379 Clouds 22 1024 33 10000 2.6 140 22:29 17.11.2020
5380 Clouds 24 1024 29 10000 3.1 140 21:50 17.11.2020
5381 Clouds 23 1024 28 10000 3.1 110 21:30 17.11.2020
5382 Clouds 24 1024 27 10000 2.1 80 20:50 17.11.2020
5383 Clouds 26 1023 24 10000 3.1 50 20:26 17.11.2020
5384 Clouds 27 1023 24 10000 3.1 40 19:54 17.11.2020
5385 Clouds 30 1023 19 10000 4.1 60 18:30 17.11.2020
5386 Clouds 31 1023 18 10000 4.1 50 17:44 17.11.2020
5387 Clouds 32 1023 17 10000 3.6 70 16:54 17.11.2020
5388 Clouds 32 1023 17 10000 3.6 60 16:20 17.11.2020
5389 Clouds 31 1023 19 10000 3.6 50 15:40 17.11.2020
5390 Clouds 31 1023 19 10000 3.6 50 15:22 17.11.2020
5391 Clouds 32 1024 19 10000 2.6 0 14:54 17.11.2020
5392 Clouds 31 1024 23 10000 3.6 60 14:22 17.11.2020
5393 Clouds 28 1025 28 10000 3.1 50 13:35 17.11.2020
5394 Clouds 27 1025 28 10000 2.6 350 12:48 17.11.2020
5395 Clouds 27 1026 28 10000 1.5 360 12:22 17.11.2020
5396 Clouds 24 1026 36 10000 2.6 0 11:41 17.11.2020
5397 Clouds 18 1026 45 10000 2.6 80 10:45 17.11.2020
5398 Clouds 18 1026 45 10000 2.6 80 10:23 17.11.2020
5399 Clouds 17 1026 48 10000 2.6 80 09:48 17.11.2020
5400 Clouds 16 1025 51 10000 2.1 80 09:20 17.11.2020
5401 Clouds 15 1025 51 10000 2.6 90 08:21 17.11.2020
5402 Clouds 15 1025 51 10000 2.6 90 07:35 17.11.2020
5403 Clear 16 1024 48 10000 2.6 110 04:32 17.11.2020
5404 Clear 17 1024 48 10000 3.1 100 03:29 17.11.2020
5405 Clear 18 1025 45 10000 2.1 60 02:29 17.11.2020
5406 Clouds 20 1025 37 10000 2.1 100 00:57 17.11.2020
5407 Clear 22 1026 35 10000 2.1 110 23:57 16.11.2020
5408 Clear 22 1026 35 10000 2.6 120 23:37 16.11.2020
5409 Clear 22 1026 35 10000 2.6 120 23:19 16.11.2020
5410 Clear 22 1025 35 10000 2.1 120 22:26 16.11.2020
5411 Clear 23 1025 35 10000 2.6 130 21:58 16.11.2020
5412 Clear 24 1025 33 10000 3.6 120 21:39 16.11.2020
5413 Clear 24 1025 33 10000 3.6 120 21:20 16.11.2020
5414 Clouds 26 1024 29 10000 3.1 40 20:26 16.11.2020
5415 Clouds 27 1024 28 10000 2.6 40 19:55 16.11.2020
5416 Clouds 28 1024 24 10000 3.1 40 19:29 16.11.2020
5417 Clouds 29 1024 23 10000 3.1 30 18:51 16.11.2020
5418 Clouds 30 1023 22 10000 2.6 40 18:19 16.11.2020
5419 Clouds 31 1023 20 10000 2.6 50 17:36 16.11.2020
5420 Clouds 31 1023 20 10000 2.6 50 17:18 16.11.2020
5421 Clouds 32 1023 21 10000 2.1 20 16:49 16.11.2020
5422 Clouds 32 1024 21 10000 2.1 40 16:24 16.11.2020
5423 Clouds 31 1024 22 10000 3.1 30 15:44 16.11.2020
5424 Clouds 31 1024 22 10000 2.1 40 15:26 16.11.2020
5425 Clouds 30 1024 23 10000 2.1 40 14:48 16.11.2020
5426 Clouds 29 1025 26 10000 2.6 40 13:46 16.11.2020
5427 Clouds 28 1026 30 10000 1.5 0 12:59 16.11.2020
5428 Clear 26 1026 31 10000 1.5 60 12:29 16.11.2020
5429 Clear 22 1026 40 10000 2.1 50 11:40 16.11.2020
5430 Clear 22 1026 40 10000 2.1 50 11:21 16.11.2020
5431 Clear 22 1026 40 10000 1.5 360 10:44 16.11.2020
5432 Clear 21 1026 43 10000 1 0 10:25 16.11.2020
5433 Clear 19 1025 48 10000 1.5 60 09:49 16.11.2020
5434 Clear 18 1025 45 10000 1 0 09:23 16.11.2020
5435 Clear 17 1025 48 10000 2.6 170 08:41 16.11.2020
5436 Clouds 15 1025 51 10000 1.5 110 07:48 16.11.2020
5437 Clouds 16 1024 51 10000 1.5 110 06:53 16.11.2020
5438 Clouds 16 1024 48 10000 1.5 80 06:29 16.11.2020
5439 Clouds 18 1024 42 10000 0.5 0 04:48 16.11.2020
5440 Clouds 19 1025 39 10000 1 0 03:45 16.11.2020
5441 Clouds 20 1026 42 10000 1 0 01:44 16.11.2020
5442 Clouds 20 1025 40 10000 3.1 240 23:58 15.11.2020
5443 Clouds 21 1025 40 10000 1 0 23:28 15.11.2020
5444 Clouds 23 1025 38 10000 2.1 330 22:51 15.11.2020
5445 Clouds 23 1024 38 10000 1 0 22:22 15.11.2020
5446 Clouds 22 1024 37 10000 2.1 130 21:47 15.11.2020
5447 Clouds 22 1024 37 10000 2.1 110 21:25 15.11.2020
5448 Clouds 24 1023 33 10000 0.5 0 20:44 15.11.2020
5449 Clouds 24 1023 33 10000 2.61 48 20:22 15.11.2020
5450 Clouds 25 1023 31 10000 1 0 19:48 15.11.2020
5451 Clouds 27 1022 30 10000 1 0 19:22 15.11.2020
5452 Clouds 27 1022 28 10000 1.5 280 18:58 15.11.2020
5453 Clouds 29 1022 25 10000 1.5 280 18:40 15.11.2020
5454 Clouds 29 1022 25 10000 1.5 280 18:20 15.11.2020
5455 Clouds 30 1022 22 10000 1 0 17:46 15.11.2020
5456 Clouds 30 1022 22 10000 1.5 350 17:24 15.11.2020
5457 Clouds 30 1022 22 10000 1.5 300 16:50 15.11.2020
5458 Clouds 31 1021 20 10000 1 0 16:21 15.11.2020
5459 Clouds 32 1022 21 10000 1.5 100 15:56 15.11.2020
5460 Clouds 31 1022 23 10000 2.1 300 15:29 15.11.2020
5461 Clouds 31 1022 23 10000 2.1 40 14:59 15.11.2020
5462 Clouds 31 1022 23 10000 2.6 20 14:31 15.11.2020
5463 Clouds 30 1022 23 10000 2.6 50 13:57 15.11.2020
5464 Clouds 30 1023 28 10000 1.5 0 13:37 15.11.2020
5465 Clouds 29 1023 32 10000 2.6 110 12:52 15.11.2020
5466 Clouds 28 1023 32 10000 3.1 100 12:25 15.11.2020
5467 Clouds 26 1023 39 10000 2.6 80 11:47 15.11.2020
5468 Clouds 24 1023 41 10000 2.1 50 11:21 15.11.2020
5469 Clouds 23 1023 40 10000 2.6 100 10:59 15.11.2020
5470 Clouds 21 1023 49 10000 2.6 80 10:41 15.11.2020
5471 Clouds 21 1023 49 10000 2.6 80 10:23 15.11.2020
5472 Clouds 18 1023 59 10000 1 0 09:41 15.11.2020
5473 Clouds 18 1023 59 10000 1 0 09:19 15.11.2020
5474 Clouds 18 1022 55 10000 1.5 120 08:51 15.11.2020
5475 Clouds 18 1022 59 10000 2.1 110 08:22 15.11.2020
5476 Clouds 18 1021 59 10000 2.1 60 07:38 15.11.2020
5477 Clouds 20 1021 52 10000 2.6 110 04:58 15.11.2020
5478 Clouds 21 1021 49 10000 1.5 70 02:55 15.11.2020
5479 Clouds 22 1021 46 10000 2.1 130 00:48 15.11.2020
5480 Clouds 22 1022 46 10000 1.5 60 00:26 15.11.2020
5481 Clouds 22 1022 46 10000 1.5 60 00:26 15.11.2020
5482 Clouds 23 1022 43 10000 4.1 150 23:36 14.11.2020
5483 Clouds 23 1022 43 10000 4.1 150 22:50 14.11.2020
5484 Clouds 23 1022 43 10000 4.1 150 22:29 14.11.2020
5485 Clouds 24 1022 47 10000 2.6 210 21:42 14.11.2020
5486 Clouds 24 1022 47 10000 2.6 210 21:22 14.11.2020
5487 Clouds 25 1021 41 10000 1 0 20:50 14.11.2020
5488 Clouds 25 1021 41 10000 2.1 230 20:27 14.11.2020
5489 Clouds 25 1021 44 10000 0.5 0 19:51 14.11.2020
5490 Clouds 26 1020 39 10000 0.5 0 19:30 14.11.2020
5491 Clouds 26 1020 39 10000 1 0 18:43 14.11.2020
5492 Clouds 27 1020 36 10000 1 0 18:24 14.11.2020
5493 Clouds 27 1020 36 10000 1 0 18:24 14.11.2020
5494 Clouds 28 1020 37 10000 1.5 10 17:50 14.11.2020
5495 Clouds 28 1020 37 10000 1 0 17:31 14.11.2020
5496 Clouds 28 1020 37 8000 1.5 0 16:57 14.11.2020
5497 Clouds 28 1020 37 8000 2.1 360 16:36 14.11.2020
5498 Clouds 28 1020 37 8000 2.1 360 16:18 14.11.2020
5499 Clouds 28 1020 37 8000 1.5 360 15:50 14.11.2020
5500 Clouds 29 1020 35 8000 1.5 310 15:21 14.11.2020
5501 Clouds 27 1021 42 8000 1.5 0 14:38 14.11.2020
5502 Clouds 27 1021 42 8000 1.5 0 14:20 14.11.2020
5503 Clouds 26 1021 44 8000 2.6 40 13:40 14.11.2020
5504 Clouds 26 1021 44 8000 2.6 40 13:22 14.11.2020
5505 Clouds 26 1022 47 8000 2.6 60 12:45 14.11.2020
5506 Clouds 24 1022 57 8000 3.1 20 12:27 14.11.2020
5507 Clouds 23 1022 56 8000 1.5 60 11:41 14.11.2020
5508 Clouds 23 1022 56 8000 1.5 60 11:22 14.11.2020
5509 Clouds 21 1021 64 8000 2.1 80 10:42 14.11.2020
5510 Clouds 21 1021 64 8000 2.1 80 10:23 14.11.2020
5511 Clouds 20 1021 64 8000 2.6 100 09:46 14.11.2020
5512 Clouds 18 1021 72 8000 2.1 100 09:28 14.11.2020
5513 Clouds 17 1021 77 8000 1.5 60 08:49 14.11.2020
5514 Clouds 18 1021 72 8000 0.5 0 08:26 14.11.2020
5515 Clouds 18 1020 72 8000 3.1 120 07:43 14.11.2020
5516 Clouds 18 1020 72 8000 2.1 100 07:22 14.11.2020
5517 Clouds 17 1020 77 8000 1.5 90 06:30 14.11.2020
5518 Clouds 17 1020 82 8000 2.6 110 05:27 14.11.2020
5519 Clouds 18 1021 82 8000 2.1 110 03:40 14.11.2020
5520 Clouds 18 1021 77 8000 0.5 0 00:54 14.11.2020
5521 Clouds 18 1021 77 8000 0.5 0 23:43 13.11.2020
5522 Clouds 18 1022 72 8000 0.5 0 23:22 13.11.2020
5523 Clouds 19 1022 68 8000 1 0 22:42 13.11.2020
5524 Clouds 19 1022 68 8000 1 0 22:23 13.11.2020
5525 Clouds 20 1021 68 8000 1 0 21:51 13.11.2020
5526 Clouds 20 1021 64 8000 1.5 300 21:29 13.11.2020
5527 Clouds 20 1021 64 8000 1.5 270 20:56 13.11.2020
5528 Clouds 20 1021 64 8000 2.1 280 20:37 13.11.2020
5529 Clouds 20 1021 64 8000 2.1 280 20:19 13.11.2020
5530 Clouds 22 1021 56 8000 2.1 250 19:45 13.11.2020
5531 Clouds 22 1021 56 8000 2.1 250 19:22 13.11.2020
5532 Clouds 22 1021 56 8000 3.1 270 18:50 13.11.2020
5533 Clouds 23 1020 53 8000 3.6 300 17:59 13.11.2020
5534 Clouds 24 1020 53 8000 1.5 0 17:39 13.11.2020
5535 Clouds 24 1020 53 8000 1.5 0 17:18 13.11.2020
5536 Clouds 24 1019 53 8000 1.5 20 16:46 13.11.2020
5537 Clouds 24 1019 53 8000 2.1 30 16:21 13.11.2020
5538 Clouds 24 1019 53 8000 1.5 320 15:41 13.11.2020
5539 Clouds 24 1019 53 8000 1.5 320 15:23 13.11.2020
5540 Clouds 23 1020 56 8000 1 0 14:40 13.11.2020
5541 Clouds 23 1020 56 8000 1 0 14:19 13.11.2020
5542 Clouds 21 1021 64 8000 1 0 13:40 13.11.2020
5543 Clouds 21 1021 64 8000 1 0 13:21 13.11.2020
5544 Clouds 21 1021 64 8000 1 0 13:21 13.11.2020
5545 Clouds 20 1021 68 8000 1.5 280 12:45 13.11.2020
5546 Clouds 19 1021 72 7000 1.5 300 12:24 13.11.2020
5547 Clouds 18 1021 77 7000 2.1 270 11:48 13.11.2020
5548 Clouds 17 1021 82 7000 2.6 260 11:24 13.11.2020
5549 Clouds 17 1021 82 7000 3.6 260 10:54 13.11.2020
5550 Clouds 17 1021 82 7000 3.1 270 10:34 13.11.2020
5551 Clouds 16 1020 82 7000 2.1 240 09:56 13.11.2020
5552 Clouds 16 1020 82 7000 2.1 240 09:32 13.11.2020
5553 Clouds 16 1020 82 7000 2.1 240 09:32 13.11.2020
5554 Clouds 16 1020 82 7000 2.6 240 08:57 13.11.2020
5555 Clouds 16 1019 82 7000 3.6 230 08:33 13.11.2020
5556 Clouds 17 1019 77 7000 1 0 07:55 13.11.2020
5557 Clouds 16 1019 82 7000 2.1 80 07:37 13.11.2020
5558 Clouds 16 1019 82 7000 2.1 80 07:18 13.11.2020
5559 Clouds 16 1018 77 7000 2.6 50 06:41 13.11.2020
5560 Clouds 16 1018 77 7000 3.6 70 05:42 13.11.2020
5561 Clouds 16 1018 82 7000 5.7 90 04:39 13.11.2020
5562 Clouds 17 1020 77 7000 1.5 250 01:43 13.11.2020
5563 Rain 19 1020 59 7000 1.5 340 00:37 13.11.2020
5564 Clouds 19 1020 55 7000 3.57 257 23:59 12.11.2020
5565 Clouds 20 1020 45 7000 2.6 260 23:36 12.11.2020
5566 Clouds 20 1020 45 7000 2.6 260 23:18 12.11.2020
5567 Clouds 21 1020 43 7000 1 0 22:41 12.11.2020
5568 Clouds 21 1020 43 7000 1 0 22:22 12.11.2020
5569 Clouds 21 1019 43 7000 1.5 310 21:42 12.11.2020
5570 Clouds 21 1019 43 7000 3.1 300 21:24 12.11.2020
5571 Clouds 21 1019 40 7000 3.1 320 20:57 12.11.2020
5572 Clouds 22 1018 37 7000 2.1 300 20:38 12.11.2020
5573 Clouds 22 1018 37 7000 2.1 300 20:18 12.11.2020
5574 Clouds 22 1018 37 7000 2.6 330 19:42 12.11.2020
5575 Clouds 22 1018 40 7000 3.1 280 19:24 12.11.2020
5576 Clouds 23 1017 35 7000 1.5 300 18:48 12.11.2020
5577 Clouds 23 1017 35 7000 1.5 310 18:22 12.11.2020
5578 Clouds 23 1017 35 7000 4.1 110 17:45 12.11.2020
5579 Clouds 24 1017 33 7000 2.6 100 17:26 12.11.2020
5580 Clouds 24 1017 33 7000 1 0 16:46 12.11.2020
5581 Clouds 24 1017 33 7000 1.5 0 16:25 12.11.2020
5582 Clouds 24 1017 31 7000 4.1 290 15:56 12.11.2020
5583 Clouds 24 1017 29 7000 1.5 310 15:32 12.11.2020
5584 Clouds 24 1017 29 7000 3.6 280 14:59 12.11.2020
5585 Clouds 24 1018 33 7000 5.1 260 14:41 12.11.2020
5586 Clouds 24 1018 33 7000 5.1 260 14:21 12.11.2020
5587 Clouds 24 1017 31 7000 2.1 300 13:46 12.11.2020
5588 Clouds 25 1018 27 7000 1 0 13:21 12.11.2020
5589 Clouds 25 1018 27 7000 1 0 12:50 12.11.2020
5590 Clouds 23 1018 33 7000 1 0 12:28 12.11.2020
5591 Clouds 21 1018 37 7000 3.1 0 11:59 12.11.2020
5592 Clouds 20 1018 40 7000 3.1 50 11:40 12.11.2020
5593 Clouds 20 1018 40 7000 1 0 10:58 12.11.2020
5594 Clouds 20 1018 40 10000 2.1 30 10:38 12.11.2020
5595 Clouds 20 1018 40 10000 2.1 30 10:20 12.11.2020
5596 Clouds 17 1018 48 10000 2.1 80 09:40 12.11.2020
5597 Clouds 17 1018 48 10000 2.1 80 09:18 12.11.2020
5598 Clouds 17 1017 42 10000 1 0 08:40 12.11.2020
5599 Clouds 17 1017 42 10000 1 0 08:21 12.11.2020
5600 Clouds 17 1017 45 10000 1.5 130 07:56 12.11.2020
5601 Clouds 16 1017 48 10000 0.5 0 07:37 12.11.2020
5602 Clouds 16 1017 48 10000 1 0 06:54 12.11.2020
5603 Clear 17 1017 42 10000 0.5 0 06:27 12.11.2020
5604 Clear 17 1018 45 10000 0.5 0 03:51 12.11.2020
5605 Clear 17 1018 42 10000 2.1 50 03:20 12.11.2020
5606 Clear 18 1019 42 10000 1.5 190 00:49 12.11.2020
5607 Clear 19 1019 39 10000 1 0 23:46 11.11.2020
5608 Clear 18 1019 42 10000 0.5 0 23:25 11.11.2020
5609 Clear 18 1019 39 10000 1 0 22:56 11.11.2020
5610 Clear 18 1019 42 10000 2.1 110 22:38 11.11.2020
5611 Clear 18 1019 42 10000 2.1 110 22:18 11.11.2020
5612 Clear 21 1019 35 10000 1 0 21:41 11.11.2020
5613 Clear 21 1019 35 10000 1 0 21:20 11.11.2020
5614 Clear 21 1019 35 10000 1.5 260 20:55 11.11.2020
5615 Clear 21 1019 35 10000 2.1 270 20:36 11.11.2020
5616 Clear 21 1019 35 10000 2.1 270 20:36 11.11.2020
5617 Clear 21 1019 35 10000 2.1 270 20:18 11.11.2020
5618 Clear 22 1018 33 10000 2.1 270 19:43 11.11.2020
5619 Clear 23 1018 28 10000 2.6 270 19:24 11.11.2020
5620 Clear 25 1018 23 10000 2.6 270 18:47 11.11.2020
5621 Clear 26 1018 22 10000 2.6 250 18:27 11.11.2020
5622 Clear 28 1017 17 10000 0.5 0 17:41 11.11.2020
5623 Clear 28 1017 17 10000 0.5 0 17:22 11.11.2020
5624 Clear 28 1017 18 10000 1 0 16:45 11.11.2020
5625 Clear 28 1017 20 10000 1 0 16:27 11.11.2020
5626 Clear 27 1017 22 10000 2.1 340 15:44 11.11.2020
5627 Clear 27 1017 22 10000 2.1 340 15:26 11.11.2020
5628 Clear 27 1017 24 10000 1.5 320 14:52 11.11.2020
5629 Clear 27 1017 24 10000 1.5 320 14:52 11.11.2020
5630 Clear 26 1017 22 10000 1.5 340 14:31 11.11.2020
5631 Clear 26 1018 26 10000 1.5 350 13:52 11.11.2020
5632 Clear 25 1018 25 10000 2.1 320 13:33 11.11.2020
5633 Clear 23 1019 31 10000 1 0 12:41 11.11.2020
5634 Clear 23 1019 31 10000 1 0 12:20 11.11.2020
5635 Clear 22 1020 35 10000 1 0 11:48 11.11.2020
5636 Clear 20 1020 42 10000 1 0 11:29 11.11.2020
5637 Clear 17 1019 48 10000 1 0 10:40 11.11.2020
5638 Clear 17 1019 48 10000 1 0 10:21 11.11.2020
5639 Clear 15 1019 51 10000 1 0 09:45 11.11.2020
5640 Clear 13 1018 58 10000 2.1 70 09:26 11.11.2020
5641 Clear 11 1018 66 10000 2.6 60 08:46 11.11.2020
5642 Clear 10 1018 76 10000 2.6 80 08:27 11.11.2020
5643 Clear 10 1018 76 10000 2.6 80 07:49 11.11.2020
5644 Clear 11 1019 71 10000 2.6 70 07:18 11.11.2020
5645 Clear 11 1019 76 10000 2.6 80 06:26 11.11.2020
5646 Clear 13 1019 71 10000 2.6 110 03:57 11.11.2020
5647 Clear 15 1020 67 10000 2.1 110 01:31 11.11.2020
5648 Clear 17 1020 63 10000 1.5 70 00:28 11.11.2020
5649 Clear 16 1020 67 10000 2.1 80 23:55 10.11.2020
5650 Clear 17 1020 63 10000 2.1 90 23:24 10.11.2020
5651 Clear 17 1020 63 10000 2.1 90 22:57 10.11.2020
5652 Clear 18 1020 55 10000 3.1 90 22:27 10.11.2020
5653 Clear 19 1020 55 10000 2.6 70 21:54 10.11.2020
5654 Clear 19 1020 55 10000 2.6 80 21:36 10.11.2020
5655 Clear 19 1020 55 10000 2.6 80 21:18 10.11.2020
5656 Clear 21 1019 49 10000 2.1 50 20:42 10.11.2020
5657 Clear 21 1019 49 10000 2.1 50 20:23 10.11.2020
5658 Clear 21 1019 49 10000 2.6 90 19:50 10.11.2020
5659 Clear 22 1019 46 10000 2.1 80 19:32 10.11.2020
5660 Clear 24 1019 41 10000 2.6 60 18:59 10.11.2020
5661 Clear 25 1019 41 10000 3.1 50 18:41 10.11.2020
5662 Clear 25 1019 41 10000 3.1 50 18:19 10.11.2020
5663 Clear 26 1019 39 10000 3.6 70 17:44 10.11.2020
5664 Clear 26 1019 39 10000 3.6 70 17:26 10.11.2020
5665 Clear 26 1019 39 10000 2.1 0 16:57 10.11.2020
5666 Clear 26 1019 39 10000 2.6 60 16:37 10.11.2020
5667 Clear 26 1019 39 10000 2.6 60 16:19 10.11.2020
5668 Clear 26 1019 39 10000 2.6 50 15:45 10.11.2020
5669 Clear 25 1020 41 10000 3.6 60 15:23 10.11.2020
5670 Clear 23 1020 49 8000 2.6 40 14:42 10.11.2020
5671 Clear 23 1020 49 8000 2.6 40 14:22 10.11.2020
5672 Clear 22 1021 56 8000 3.1 30 13:57 10.11.2020
5673 Clear 22 1022 56 8000 2.6 50 13:36 10.11.2020
5674 Clear 22 1022 56 8000 2.6 50 13:18 10.11.2020
5675 Clear 21 1022 56 8000 3.1 50 12:44 10.11.2020
5676 Clear 20 1023 60 8000 3.1 60 12:24 10.11.2020
5677 Clear 17 1023 72 8000 2.6 110 11:39 10.11.2020
5678 Clear 17 1023 72 8000 2.6 110 11:20 10.11.2020
5679 Clear 17 1023 72 8000 2.6 110 10:45 10.11.2020
5680 Clear 16 1023 72 8000 2.1 90 10:27 10.11.2020
5681 Clear 16 1022 72 8000 2.1 70 09:51 10.11.2020
5682 Clear 16 1022 72 8000 2.1 70 09:51 10.11.2020
5683 Clear 14 1022 82 8000 1.5 80 09:27 10.11.2020
5684 Clear 13 1022 87 8000 1.5 30 08:59 10.11.2020
5685 Clear 12 1021 87 8000 1 0 08:40 10.11.2020
5686 Clear 12 1021 87 8000 1 0 08:22 10.11.2020
5687 Clear 12 1021 81 8000 2.1 120 07:39 10.11.2020
5688 Clear 12 1021 81 8000 2.1 120 07:19 10.11.2020
5689 Clear 12 1021 87 6000 1 0 06:38 10.11.2020
5690 Clear 13 1021 82 6000 1.5 90 05:33 10.11.2020
5691 Clear 14 1022 76 8000 1.5 100 03:36 10.11.2020
5692 Clear 15 1022 77 10000 2.1 80 01:41 10.11.2020
5693 Clear 16 1022 77 10000 2.6 100 00:52 10.11.2020
5694 Clear 17 1023 72 10000 2.1 80 23:47 09.11.2020
5695 Clear 17 1023 72 10000 3.6 60 23:23 09.11.2020
5696 Clear 19 1023 63 10000 4.1 40 22:42 09.11.2020
5697 Clear 19 1023 63 10000 4.1 40 22:22 09.11.2020
5698 Clouds 19 1022 59 8000 4.1 20 21:44 09.11.2020
5699 Clouds 20 1022 49 8000 3.6 40 21:26 09.11.2020
5700 Clouds 21 1022 46 8000 2.6 40 20:42 09.11.2020
5701 Clouds 22 1022 43 8000 2.6 40 20:22 09.11.2020
5702 Clouds 22 1021 43 8000 2.6 40 19:49 09.11.2020
5703 Clouds 22 1021 43 8000 2.6 40 19:49 09.11.2020
5704 Clouds 22 1021 46 8000 2.6 40 19:24 09.11.2020
5705 Clouds 23 1021 43 8000 2.6 40 18:58 09.11.2020
5706 Clouds 24 1021 41 8000 2.1 40 18:39 09.11.2020
5707 Clouds 24 1021 41 8000 2.1 40 18:19 09.11.2020
5708 Clouds 24 1021 44 8000 2.1 30 17:44 09.11.2020
5709 Clouds 24 1021 44 8000 2.1 30 17:25 09.11.2020
5710 Clouds 24 1021 47 8000 1.5 310 16:44 09.11.2020
5711 Clouds 24 1021 47 8000 1.5 310 16:23 09.11.2020
5712 Clouds 23 1021 49 8000 2.1 330 15:45 09.11.2020
5713 Clouds 23 1021 53 8000 2.1 0 15:25 09.11.2020
5714 Clouds 23 1021 53 8000 2.6 360 14:49 09.11.2020
5715 Clouds 22 1022 56 8000 2.6 40 14:28 09.11.2020
5716 Clouds 21 1022 60 8000 3.1 40 13:57 09.11.2020
5717 Clouds 21 1022 60 8000 2.1 40 13:37 09.11.2020
5718 Clouds 21 1022 60 8000 2.1 40 13:18 09.11.2020
5719 Clouds 19 1023 68 8000 1.5 80 12:41 09.11.2020
5720 Clouds 19 1023 68 8000 1.5 80 12:21 09.11.2020
5721 Clouds 18 1024 68 8000 1 0 11:43 09.11.2020
5722 Clouds 18 1024 68 8000 1 0 11:24 09.11.2020
5723 Clouds 17 1024 72 8000 1.5 110 10:57 09.11.2020
5724 Clouds 17 1024 72 8000 1 0 10:39 09.11.2020
5725 Clouds 17 1024 72 8000 1 0 10:21 09.11.2020
5726 Clouds 14 1023 82 8000 1 0 09:30 09.11.2020
5727 Clouds 12 1023 87 8000 1.5 70 08:50 09.11.2020
5728 Clouds 12 1023 87 8000 0.5 0 08:27 09.11.2020
5729 Clouds 13 1023 82 8000 1 0 07:44 09.11.2020
5730 Clouds 12 1023 87 6000 1 0 07:23 09.11.2020
5731 Clouds 13 1022 82 8000 1.5 230 06:52 09.11.2020
5732 Clear 14 1022 82 8000 2.1 230 04:30 09.11.2020
5733 Clear 15 1022 77 8000 3.6 230 01:57 09.11.2020
5734 Clear 15 1023 77 6000 3.6 240 01:39 09.11.2020
5735 Clear 15 1023 77 6000 3.6 240 00:40 09.11.2020
5736 Clear 18 1023 72 6000 1.5 60 23:40 08.11.2020
5737 Clear 18 1023 72 6000 1.5 60 23:22 08.11.2020
5738 Clear 18 1022 72 7000 2.1 350 22:43 08.11.2020
5739 Clear 19 1022 68 7000 2.1 360 22:21 08.11.2020
5740 Clear 19 1022 59 10000 1.5 330 21:46 08.11.2020
5741 Clear 19 1022 59 10000 2.1 240 21:21 08.11.2020
5742 Clear 21 1022 52 10000 3.1 290 20:57 08.11.2020
5743 Clear 20 1021 52 10000 2.6 280 20:38 08.11.2020
5744 Clear 20 1021 52 10000 2.6 280 20:19 08.11.2020
5745 Clear 21 1021 52 10000 3.1 280 19:45 08.11.2020
5746 Clear 22 1021 49 10000 3.1 280 19:22 08.11.2020
5747 Clear 23 1021 46 10000 3.6 270 18:56 08.11.2020
5748 Clear 25 1020 41 10000 3.1 280 18:38 08.11.2020
5749 Clear 25 1020 41 10000 3.1 280 18:20 08.11.2020
5750 Clouds 25 1020 41 10000 2.6 310 17:42 08.11.2020
5751 Clouds 25 1020 41 10000 2.6 310 17:20 08.11.2020
5752 Clouds 25 1020 41 10000 2.1 310 16:57 08.11.2020
5753 Clear 25 1020 41 10000 1.5 20 16:37 08.11.2020
5754 Clear 25 1020 41 10000 1.5 20 16:18 08.11.2020
5755 Clear 26 1020 41 10000 1.5 0 15:44 08.11.2020
5756 Clouds 25 1020 44 10000 2.1 30 15:26 08.11.2020
5757 Clouds 24 1021 50 10000 2.6 320 14:42 08.11.2020
5758 Clouds 24 1021 50 10000 1.5 0 14:23 08.11.2020
5759 Clouds 24 1021 50 10000 1.5 0 14:23 08.11.2020
5760 Clear 23 1022 56 10000 1 0 13:50 08.11.2020
5761 Clear 23 1022 56 10000 1 0 13:24 08.11.2020
5762 Clear 21 1022 60 10000 1.5 0 12:47 08.11.2020
5763 Clear 22 1023 64 10000 1 0 12:29 08.11.2020
5764 Clear 20 1023 68 10000 1 0 11:59 08.11.2020
5765 Clear 19 1023 68 10000 0.5 0 11:41 08.11.2020
5766 Clear 19 1023 68 10000 0.5 0 11:22 08.11.2020
5767 Clear 18 1023 77 10000 1 0 10:52 08.11.2020
5768 Clear 17 1023 77 10000 1 0 10:20 08.11.2020
5769 Clouds 16 1023 82 10000 1 0 09:59 08.11.2020
5770 Clouds 16 1023 82 10000 0.5 0 09:41 08.11.2020
5771 Clouds 16 1023 82 10000 0.5 0 09:18 08.11.2020
5772 Clouds 12 1022 87 10000 1 0 08:42 08.11.2020
5773 Clouds 12 1022 87 10000 1 0 08:22 08.11.2020
5774 Clouds 12 1022 93 10000 0.5 0 07:53 08.11.2020
5775 Clear 12 1022 87 10000 0.5 0 07:31 08.11.2020
5776 Clear 13 1022 87 10000 1 0 06:27 08.11.2020
5777 Clear 13 1021 87 10000 1 0 05:54 08.11.2020
5778 Clear 14 1021 82 10000 1.5 240 04:50 08.11.2020
5779 Clear 16 1022 77 10000 3.1 220 01:55 08.11.2020
5780 Clear 15 1022 77 10000 2.1 240 01:19 08.11.2020
5781 Clear 15 1022 77 10000 2.1 240 01:19 08.11.2020
5782 Clear 15 1022 72 10000 3.6 280 00:30 08.11.2020
5783 Clear 17 1022 67 10000 1.5 80 23:50 07.11.2020
5784 Clear 17 1022 67 10000 2.6 90 23:31 07.11.2020
5785 Clear 17 1022 67 10000 2.6 90 23:31 07.11.2020
5786 Clear 17 1022 67 10000 2.6 90 23:31 07.11.2020
5787 Clear 18 1022 63 10000 3.1 110 22:48 07.11.2020
5788 Clear 18 1022 63 10000 2.6 110 22:28 07.11.2020
5789 Clear 19 1022 59 10000 2.6 100 21:58 07.11.2020
5790 Clear 19 1022 59 10000 2.1 80 21:39 07.11.2020
5791 Clear 19 1022 59 10000 2.1 80 21:19 07.11.2020
5792 Clouds 20 1022 56 10000 2.6 90 20:45 07.11.2020
5793 Clouds 20 1022 56 10000 1.5 80 20:27 07.11.2020
5794 Clouds 21 1021 52 10000 2.1 80 19:46 07.11.2020
5795 Clouds 22 1021 49 10000 2.6 40 19:27 07.11.2020
5796 Clouds 23 1021 46 10000 3.1 40 18:45 07.11.2020
5797 Clouds 23 1021 49 10000 3.1 60 18:26 07.11.2020
5798 Clouds 24 1021 44 10000 2.6 50 17:53 07.11.2020
5799 Clouds 24 1021 44 10000 2.6 10 17:34 07.11.2020
5800 Clouds 24 1021 47 10000 2.6 70 16:47 07.11.2020
5801 Clouds 24 1021 47 10000 3.1 40 16:26 07.11.2020
5802 Clouds 24 1021 47 10000 3.1 50 15:58 07.11.2020
5803 Clouds 23 1021 49 10000 4.1 60 15:40 07.11.2020
5804 Clouds 23 1021 49 10000 4.1 60 15:20 07.11.2020
5805 Clouds 23 1021 49 10000 3.1 70 14:43 07.11.2020
5806 Clouds 23 1021 49 10000 3.1 70 14:24 07.11.2020
5807 Clouds 23 1022 53 10000 4.1 60 13:52 07.11.2020
5808 Clouds 22 1022 56 10000 4.1 60 13:30 07.11.2020
5809 Clouds 21 1023 56 10000 4.6 70 12:44 07.11.2020
5810 Clouds 21 1023 60 10000 4.1 30 12:20 07.11.2020
5811 Clouds 19 1023 68 10000 3.6 70 11:41 07.11.2020
5812 Clouds 19 1023 68 10000 3.6 70 11:22 07.11.2020
5813 Clouds 18 1023 68 10000 4.1 80 10:45 07.11.2020
5814 Clear 17 1022 72 10000 4.1 80 10:25 07.11.2020
5815 Clouds 16 1022 77 9000 2.6 80 09:52 07.11.2020
5816 Clouds 15 1022 77 9000 2.6 90 09:32 07.11.2020
5817 Clouds 13 1021 87 9000 2.6 80 08:53 07.11.2020
5818 Clouds 13 1021 82 9000 2.6 80 08:34 07.11.2020
5819 Clouds 12 1021 87 9000 2.6 80 07:50 07.11.2020
5820 Clouds 13 1021 87 9000 3.6 90 07:18 07.11.2020
5821 Clouds 13 1020 82 9000 1.5 70 06:47 07.11.2020
5822 Clouds 14 1019 76 9000 3.1 100 04:43 07.11.2020
5823 Clouds 15 1019 72 9000 2.6 120 03:23 07.11.2020
5824 Clouds 16 1018 67 9000 0.5 0 01:28 07.11.2020
5825 Clouds 16 1018 67 9000 1 0 00:43 07.11.2020
5826 Clouds 17 1018 63 9000 1 0 23:50 06.11.2020
5827 Clouds 17 1018 63 9000 1.5 0 23:20 06.11.2020
5828 Clouds 18 1017 59 10000 1.5 290 22:41 06.11.2020
5829 Clouds 18 1017 59 10000 1.5 290 22:19 06.11.2020
5830 Clouds 18 1016 59 10000 2.6 260 21:45 06.11.2020
5831 Clouds 19 1016 59 10000 5.1 300 21:21 06.11.2020
5832 Clouds 19 1015 59 10000 3.6 320 20:52 06.11.2020
5833 Clouds 20 1015 56 10000 2.6 350 20:22 06.11.2020
5834 Clouds 20 1014 56 10000 2.1 40 19:56 06.11.2020
5835 Clouds 20 1014 56 10000 2.6 10 19:38 06.11.2020
5836 Clouds 20 1014 56 10000 2.6 10 19:19 06.11.2020
5837 Clouds 20 1014 60 10000 4.1 360 18:45 06.11.2020
5838 Clouds 21 1014 56 10000 4.6 320 18:23 06.11.2020
5839 Clouds 22 1013 53 10000 6.2 310 17:51 06.11.2020
5840 Clouds 23 1012 43 10000 5.7 300 17:25 06.11.2020
5841 Clouds 23 1012 43 10000 5.1 310 16:50 06.11.2020
5842 Clouds 22 1011 46 10000 5.1 320 16:27 06.11.2020
5843 Clouds 22 1012 46 10000 4.6 330 15:49 06.11.2020
5844 Clouds 22 1011 43 10000 4.6 330 15:29 06.11.2020
5845 Clouds 23 1011 43 10000 4.6 330 14:53 06.11.2020
5846 Clouds 23 1011 43 10000 3.6 330 14:27 06.11.2020
5847 Clouds 22 1012 49 10000 3.6 340 13:46 06.11.2020
5848 Clouds 22 1012 49 10000 3.6 340 13:24 06.11.2020
5849 Clouds 21 1012 56 10000 3.6 20 12:46 06.11.2020
5850 Clouds 21 1012 56 10000 3.6 20 12:23 06.11.2020
5851 Clouds 20 1012 64 10000 2.6 40 11:55 06.11.2020
5852 Clouds 19 1012 68 10000 2.1 120 11:35 06.11.2020
5853 Clouds 18 1012 72 10000 1.5 100 10:46 06.11.2020
5854 Clouds 16 1012 82 10000 2.6 150 10:25 06.11.2020
5855 Clouds 16 1012 82 10000 2.6 120 09:49 06.11.2020
5856 Clouds 16 1011 82 10000 0.5 0 09:22 06.11.2020
5857 Clouds 15 1011 87 10000 0.5 0 08:51 06.11.2020
5858 Clouds 14 1011 87 10000 1.5 0 08:29 06.11.2020
5859 Clouds 14 1011 87 10000 1.5 0 08:29 06.11.2020
5860 Clouds 14 1010 87 10000 1.5 0 07:54 06.11.2020
5861 Clouds 15 1010 82 10000 2.1 150 07:34 06.11.2020
5862 Clouds 15 1010 82 10000 3.1 160 06:58 06.11.2020
5863 Clouds 15 1011 82 10000 1.5 120 06:24 06.11.2020
5864 Clouds 14 1011 87 10000 2.1 220 05:36 06.11.2020
5865 Clouds 15 1012 87 10000 2.1 60 01:23 06.11.2020
5866 Clear 16 1012 77 10000 1.5 50 00:22 06.11.2020
5867 Clear 16 1012 82 10000 1.5 40 23:35 05.11.2020
5868 Clear 17 1012 77 10000 2.1 30 22:58 05.11.2020
5869 Clear 17 1012 77 10000 3.1 20 22:40 05.11.2020
5870 Clear 17 1012 77 10000 3.1 20 22:21 05.11.2020
5871 Clear 18 1011 72 10000 2.6 10 21:44 05.11.2020
5872 Clear 18 1011 68 10000 2.6 360 21:23 05.11.2020
5873 Clouds 19 1011 63 10000 2.1 20 20:57 05.11.2020
5874 Clouds 18 1011 68 10000 1.5 0 20:39 05.11.2020
5875 Clouds 18 1011 68 10000 1.5 0 20:21 05.11.2020
5876 Clouds 20 1010 60 10000 2.6 260 19:42 05.11.2020
5877 Clouds 20 1010 60 10000 2.6 260 19:23 05.11.2020
5878 Clouds 21 1010 56 10000 3.1 290 18:49 05.11.2020
5879 Clouds 22 1009 53 10000 3.1 300 18:30 05.11.2020
5880 Clouds 22 1009 53 10000 2.6 310 17:54 05.11.2020
5881 Clouds 23 1009 49 10000 2.6 320 17:36 05.11.2020
5882 Clouds 23 1009 49 10000 2.6 320 17:18 05.11.2020
5883 Clouds 22 1009 53 10000 3.1 330 16:41 05.11.2020
5884 Clouds 22 1009 53 10000 3.1 330 16:21 05.11.2020
5885 Clouds 22 1009 53 10000 3.1 330 15:49 05.11.2020
5886 Clouds 21 1009 56 10000 3.6 320 15:24 05.11.2020
5887 Clouds 21 1009 56 10000 3.6 350 14:47 05.11.2020
5888 Clouds 20 1010 60 10000 3.6 20 14:29 05.11.2020
5889 Clouds 20 1010 64 10000 4.1 300 13:49 05.11.2020
5890 Clouds 19 1010 68 10000 3.6 320 13:30 05.11.2020
5891 Clouds 19 1010 68 10000 3.6 300 12:53 05.11.2020
5892 Clouds 18 1010 68 10000 4.6 310 12:29 05.11.2020
5893 Clouds 18 1010 72 10000 5.1 280 11:57 05.11.2020
5894 Clouds 18 1010 72 10000 4.6 280 11:37 05.11.2020
5895 Clouds 15 1010 87 10000 4.1 270 11:19 05.11.2020
5896 Clouds 15 1010 87 10000 4.1 270 10:43 05.11.2020
5897 Clouds 15 1010 87 10000 3.6 270 10:25 05.11.2020
5898 Clouds 13 1010 93 10000 3.1 240 09:47 05.11.2020
5899 Clouds 12 1010 93 10000 2.6 240 09:22 05.11.2020
5900 Clouds 14 1009 82 10000 1 0 08:44 05.11.2020
5901 Clouds 14 1009 82 10000 2.1 20 08:26 05.11.2020
5902 Clouds 15 1009 72 10000 1.5 10 07:41 05.11.2020
5903 Clouds 15 1009 72 10000 1.5 10 07:20 05.11.2020
5904 Clouds 15 1009 77 10000 1.5 140 06:41 05.11.2020
5905 Clouds 15 1009 82 6000 1.5 20 05:44 05.11.2020
5906 Rain 16 1012 77 8000 2.6 230 01:35 05.11.2020
5907 Clouds 15 1013 87 8000 2.1 210 00:33 05.11.2020
5908 Clouds 15 1013 87 8000 3.6 240 23:44 04.11.2020
5909 Clouds 15 1013 87 8000 3.6 260 23:26 04.11.2020
5910 Clouds 15 1013 87 8000 3.6 250 22:52 04.11.2020
5911 Clouds 16 1013 82 8000 1 0 22:27 04.11.2020
5912 Clouds 16 1013 82 8000 2.1 30 21:58 04.11.2020
5913 Clouds 16 1013 82 8000 2.1 350 21:37 04.11.2020
5914 Clouds 16 1013 82 8000 2.1 350 21:18 04.11.2020
5915 Clouds 16 1013 82 8000 3.1 100 20:43 04.11.2020
5916 Clouds 16 1013 82 8000 3.1 100 20:25 04.11.2020
5917 Clouds 16 1013 82 8000 3.6 100 19:49 04.11.2020
5918 Clouds 16 1013 82 8000 4.1 110 19:29 04.11.2020
5919 Clouds 17 1014 72 8000 1 0 18:55 04.11.2020
5920 Clouds 17 1014 72 8000 1 0 18:55 04.11.2020
5921 Clouds 17 1014 72 8000 1 0 18:37 04.11.2020
5922 Clouds 17 1014 72 8000 1 0 18:18 04.11.2020
5923 Clouds 17 1014 77 8000 6.2 130 17:40 04.11.2020
5924 Clouds 17 1014 77 8000 6.2 130 17:21 04.11.2020
5925 Clouds 16 1015 77 8000 1.5 300 16:38 04.11.2020
5926 Clouds 16 1015 77 8000 1.5 300 16:20 04.11.2020
5927 Clouds 16 1015 82 8000 2.1 320 15:47 04.11.2020
5928 Clouds 15 1017 87 8000 4.1 280 15:25 04.11.2020
5929 Rain 15 1017 87 5000 6.7 280 14:57 04.11.2020
5930 Rain 17 1018 82 3000 5.1 280 14:39 04.11.2020
5931 Rain 17 1018 82 3000 5.1 280 14:19 04.11.2020
5932 Rain 18 1018 82 6000 6.7 280 13:42 04.11.2020
5933 Rain 18 1018 82 6000 6.7 280 13:20 04.11.2020
5934 Clouds 18 1019 82 8000 6.7 270 12:51 04.11.2020
5935 Clouds 19 1019 77 8000 4.1 280 12:27 04.11.2020
5936 Clouds 19 1019 77 8000 2.6 270 11:56 04.11.2020
5937 Clouds 18 1019 82 8000 2.6 280 11:38 04.11.2020
5938 Clouds 18 1019 82 8000 2.6 280 11:19 04.11.2020
5939 Clouds 18 1019 82 8000 2.6 250 10:46 04.11.2020
5940 Clouds 17 1019 88 8000 2.1 260 10:22 04.11.2020
5941 Clouds 17 1019 82 8000 2.1 260 09:51 04.11.2020
5942 Clouds 17 1019 82 8000 2.1 260 09:23 04.11.2020
5943 Clouds 16 1019 87 8000 2.1 260 08:46 04.11.2020
5944 Clouds 16 1018 87 8000 2.1 260 08:19 04.11.2020
5945 Clouds 16 1018 87 8000 2.1 260 07:50 04.11.2020
5946 Clouds 16 1018 87 8000 2.1 240 07:27 04.11.2020
5947 Clouds 16 1019 87 8000 2.1 250 06:45 04.11.2020
5948 Clouds 16 1019 87 8000 2.1 250 06:26 04.11.2020
5949 Clear 19 1020 72 10000 0.5 0 02:33 04.11.2020
5950 Clear 19 1020 72 10000 0.5 0 01:49 04.11.2020
5951 Clear 19 1021 72 10000 2.6 60 00:43 04.11.2020
5952 Clouds 19 1022 72 10000 2.1 30 23:40 03.11.2020
5953 Clouds 19 1022 72 10000 2.1 30 23:20 03.11.2020
5954 Clouds 20 1022 68 10000 3.6 20 22:41 03.11.2020
5955 Clouds 20 1022 68 10000 3.6 20 22:20 03.11.2020
5956 Clouds 20 1022 68 10000 3.6 20 21:56 03.11.2020
5957 Clouds 21 1022 60 10000 2.6 360 21:37 03.11.2020
5958 Clouds 21 1022 60 10000 2.6 360 21:19 03.11.2020
5959 Clouds 22 1022 53 10000 3.1 10 20:42 03.11.2020
5960 Clouds 23 1021 46 10000 3.6 350 20:22 03.11.2020
5961 Clouds 23 1021 46 10000 3.6 350 20:22 03.11.2020
5962 Clouds 24 1021 41 10000 3.1 360 19:43 03.11.2020
5963 Clouds 24 1021 41 10000 3.1 360 19:20 03.11.2020
5964 Clouds 25 1021 33 10000 3.1 340 18:44 03.11.2020
5965 Clouds 25 1021 33 10000 3.1 340 18:20 03.11.2020
5966 Clouds 26 1020 34 10000 3.1 10 17:56 03.11.2020
5967 Clouds 26 1020 39 10000 3.1 340 17:37 03.11.2020
5968 Clouds 26 1020 39 10000 3.1 340 17:18 03.11.2020
5969 Clouds 28 1020 37 10000 2.6 340 16:43 03.11.2020
5970 Clouds 28 1020 37 10000 2.6 340 16:21 03.11.2020
5971 Clouds 27 1021 34 10000 2.6 340 15:41 03.11.2020
5972 Clouds 27 1021 34 10000 2.6 340 15:23 03.11.2020
5973 Clouds 27 1021 39 10000 2.6 350 14:49 03.11.2020
5974 Clouds 26 1021 44 10000 2.6 0 14:30 03.11.2020
5975 Clouds 25 1022 47 8000 2.6 330 13:46 03.11.2020
5976 Clouds 24 1022 50 8000 2.1 330 13:23 03.11.2020
5977 Clouds 23 1023 56 8000 2.1 330 12:56 03.11.2020
5978 Clouds 22 1023 60 8000 1.5 0 12:36 03.11.2020
5979 Clouds 22 1023 60 8000 1.5 0 12:18 03.11.2020
5980 Clouds 22 1023 56 8000 1 0 11:41 03.11.2020
5981 Clouds 22 1023 56 8000 1 0 11:20 03.11.2020
5982 Clouds 19 1023 72 8000 0.5 0 10:39 03.11.2020
5983 Clouds 19 1023 72 8000 0.5 0 10:39 03.11.2020
5984 Clear 19 1023 72 8000 0.5 0 10:20 03.11.2020
5985 Clear 18 1023 68 8000 1 0 09:50 03.11.2020
5986 Clouds 17 1023 77 8000 0.5 0 09:31 03.11.2020
5987 Clouds 15 1023 82 8000 0.5 0 08:55 03.11.2020
5988 Clouds 14 1022 82 8000 0.5 0 08:34 03.11.2020
5989 Clear 15 1022 82 10000 2.1 230 07:49 03.11.2020
5990 Clear 15 1022 82 10000 2.1 230 07:22 03.11.2020
5991 Clear 14 1022 76 10000 2.6 240 06:45 03.11.2020
5992 Clear 14 1021 76 10000 1 0 05:19 03.11.2020
5993 Clear 18 1022 68 10000 2.1 220 01:51 03.11.2020
5994 Clear 18 1022 63 10000 1.5 290 00:40 03.11.2020
5995 Clear 21 1023 49 10000 2.6 240 23:48 02.11.2020
5996 Clear 21 1023 49 10000 2.6 240 23:29 02.11.2020
5997 Clear 21 1023 52 10000 2.1 230 22:49 02.11.2020
5998 Clear 21 1022 52 10000 3.1 230 22:30 02.11.2020
5999 Clear 21 1022 49 10000 3.1 250 21:58 02.11.2020
6000 Clouds 22 1022 43 10000 1.5 260 21:37 02.11.2020
6001 Clouds 22 1022 43 10000 1.5 260 21:19 02.11.2020
6002 Clouds 24 1021 41 10000 2.1 310 20:39 02.11.2020
6003 Clouds 24 1021 41 10000 2.1 310 20:20 02.11.2020
6004 Clouds 25 1021 36 10000 3.1 320 19:45 02.11.2020
6005 Clouds 26 1020 34 10000 3.1 330 19:27 02.11.2020
6006 Clouds 27 1020 32 10000 4.1 340 18:55 02.11.2020
6007 Clouds 29 1019 23 10000 3.6 290 18:37 02.11.2020
6008 Clouds 29 1019 23 10000 3.6 290 18:19 02.11.2020
6009 Clouds 30 1019 22 10000 3.6 280 17:40 02.11.2020
6010 Clouds 30 1019 22 10000 3.6 280 17:21 02.11.2020
6011 Clouds 29 1019 25 10000 2.6 300 16:49 02.11.2020
6012 Clouds 30 1019 23 10000 2.1 280 16:28 02.11.2020
6013 Clouds 30 1019 23 10000 2.1 320 15:55 02.11.2020
6014 Clouds 29 1019 26 10000 2.1 350 15:37 02.11.2020
6015 Clouds 29 1019 26 10000 2.1 350 15:19 02.11.2020
6016 Clouds 29 1020 26 10000 2.6 320 14:42 02.11.2020
6017 Clouds 29 1020 26 10000 2.1 300 14:19 02.11.2020
6018 Clouds 27 1021 30 10000 2.1 0 13:47 02.11.2020
6019 Clear 27 1021 30 10000 1.5 0 13:22 02.11.2020
6020 Clear 26 1021 31 10000 2.1 320 12:50 02.11.2020
6021 Clear 25 1022 33 10000 1 0 12:26 02.11.2020
6022 Clear 25 1022 33 10000 0.5 0 11:46 02.11.2020
6023 Clear 24 1022 36 10000 0.5 0 11:20 02.11.2020
6024 Clear 22 1022 40 10000 1 0 10:48 02.11.2020
6025 Clear 22 1021 40 10000 0.84 330 10:25 02.11.2020
6026 Clear 19 1021 48 10000 1 0 09:55 02.11.2020
6027 Clear 17 1021 55 10000 1 0 09:29 02.11.2020
6028 Clear 14 1020 58 10000 2.1 110 08:57 02.11.2020
6029 Clear 13 1020 62 10000 1 0 08:36 02.11.2020
6030 Clear 13 1020 62 10000 1 0 08:18 02.11.2020
6031 Clear 14 1020 54 10000 1.5 90 07:39 02.11.2020
6032 Clear 15 1020 58 10000 0.5 0 06:45 02.11.2020
6033 Clear 15 1020 54 10000 0.23 67 05:19 02.11.2020
6034 Clear 17 1021 45 10000 2.1 230 01:27 02.11.2020
6035 Clear 17 1021 45 10000 2.1 230 01:27 02.11.2020
6036 Clear 17 1021 45 10000 2.1 230 01:27 02.11.2020
6037 Clear 17 1021 45 10000 1.5 280 00:38 02.11.2020
6038 Clear 17 1021 45 10000 1.5 280 00:19 02.11.2020
6039 Clear 21 1021 37 10000 1.5 30 23:38 01.11.2020
6040 Clear 21 1021 37 10000 1.5 30 23:38 01.11.2020
6041 Clear 21 1021 37 10000 1.5 30 23:20 01.11.2020
6042 Clear 22 1021 30 10000 1.5 80 22:42 01.11.2020
6043 Clear 22 1021 30 10000 1.5 80 22:22 01.11.2020
6044 Clear 22 1021 30 10000 1.5 120 21:43 01.11.2020
6045 Clear 22 1020 28 10000 1.5 100 21:24 01.11.2020
6046 Clear 24 1020 27 10000 2.1 50 20:48 01.11.2020
6047 Clear 24 1020 27 10000 2.1 50 20:26 01.11.2020
6048 Clear 25 1020 25 10000 2.1 40 19:49 01.11.2020
6049 Clear 26 1020 24 10000 2.1 40 19:30 01.11.2020
6050 Clear 27 1019 24 10000 3.1 50 18:59 01.11.2020
6051 Clear 28 1019 23 10000 3.6 30 18:40 01.11.2020
6052 Clear 28 1019 23 10000 3.6 30 18:19 01.11.2020
6053 Clear 29 1020 21 10000 3.6 30 17:45 01.11.2020
6054 Clear 29 1020 21 10000 2.6 360 17:27 01.11.2020
6055 Clear 30 1020 20 10000 2.1 0 16:57 01.11.2020
6056 Clear 30 1020 22 10000 2.6 350 16:38 01.11.2020
6057 Clear 30 1020 22 10000 2.6 350 16:18 01.11.2020
6058 Clear 29 1020 25 10000 3.1 10 15:39 01.11.2020
6059 Clear 29 1020 25 10000 3.1 10 15:20 01.11.2020
6060 Clear 30 1021 22 10000 2.1 330 14:48 01.11.2020
6061 Clear 29 1021 23 10000 2.1 10 14:23 01.11.2020
6062 Clear 28 1022 23 10000 2.1 0 13:58 01.11.2020
6063 Clear 27 1022 26 10000 2.1 20 13:39 01.11.2020
6064 Clear 27 1022 26 10000 2.1 20 13:21 01.11.2020
6065 Clear 26 1023 29 10000 2.1 360 12:43 01.11.2020
6066 Clear 25 1023 29 10000 2.1 10 12:20 01.11.2020
6067 Clear 24 1023 31 10000 2.1 0 11:49 01.11.2020
6068 Clear 23 1023 35 10000 1.5 30 11:18 01.11.2020
6069 Clear 21 1023 37 10000 1 0 10:42 01.11.2020
6070 Clear 21 1023 37 10000 1 0 10:24 01.11.2020
6071 Clear 19 1023 42 10000 1 0 09:50 01.11.2020
6072 Clear 17 1023 51 10000 2.6 110 09:27 01.11.2020
6073 Clear 15 1023 54 10000 0.5 0 08:44 01.11.2020
6074 Clear 14 1023 58 10000 0.5 0 08:18 01.11.2020
6075 Clear 14 1022 54 10000 2.1 90 07:21 01.11.2020
6076 Clear 18 1024 48 10000 1 0 02:32 01.11.2020
6077 Clear 18 1024 48 10000 1 0 01:42 01.11.2020
6078 Clear 20 1025 49 10000 1 0 00:22 01.11.2020
6079 Clear 21 1025 46 10000 2.1 110 23:24 31.10.2020
6080 Clear 22 1025 43 10000 2.1 70 22:45 31.10.2020
6081 Clear 23 1024 40 10000 4.1 40 22:25 31.10.2020
6082 Clear 24 1024 36 10000 2.1 10 21:47 31.10.2020
6083 Clear 24 1024 36 10000 2.1 10 21:47 31.10.2020
6084 Clear 25 1023 27 10000 3.6 360 21:23 31.10.2020
6085 Clear 26 1023 22 10000 2.6 10 20:59 31.10.2020
6086 Clear 26 1023 24 10000 2.1 360 20:38 31.10.2020
6087 Clear 26 1023 24 10000 2.1 360 20:18 31.10.2020
6088 Clear 28 1023 20 10000 1.5 350 19:38 31.10.2020
6089 Clear 28 1023 20 10000 1.5 350 19:19 31.10.2020
6090 Clouds 29 1023 18 10000 2.1 340 18:45 31.10.2020
6091 Clouds 30 1023 17 10000 3.6 10 17:56 31.10.2020
6092 Clouds 31 1023 16 10000 3.1 340 17:37 31.10.2020
6093 Clouds 31 1023 16 10000 3.1 340 17:18 31.10.2020
6094 Clouds 31 1023 16 10000 2.1 320 16:41 31.10.2020
6095 Clouds 31 1023 16 10000 2.1 320 16:20 31.10.2020
6096 Clouds 31 1023 16 10000 1.5 0 15:42 31.10.2020
6097 Clouds 30 1023 17 10000 2.1 0 15:22 31.10.2020
6098 Clouds 31 1024 18 10000 1 0 14:46 31.10.2020
6099 Clouds 31 1024 18 10000 1 0 14:26 31.10.2020
6100 Clouds 30 1024 20 10000 1 0 13:50 31.10.2020
6101 Clear 28 1025 21 8000 2.1 360 13:23 31.10.2020
6102 Clear 28 1025 24 8000 1.5 360 12:35 31.10.2020
6103 Clear 25 1026 31 8000 2.1 30 11:48 31.10.2020
6104 Clear 25 1025 31 8000 1.5 80 11:29 31.10.2020
6105 Clear 24 1025 31 8000 1 0 10:56 31.10.2020
6106 Clear 23 1025 31 8000 1 0 10:33 31.10.2020
6107 Clear 18 1025 45 8000 1 0 09:42 31.10.2020
6108 Clear 18 1025 45 8000 1 0 09:22 31.10.2020
6109 Clear 14 1024 50 8000 1.5 50 08:33 31.10.2020
6110 Clear 15 1024 51 8000 0.5 0 07:58 31.10.2020
6111 Clear 16 1024 44 8000 1 0 07:27 31.10.2020
6112 Clear 16 1024 44 8000 2.1 120 06:40 31.10.2020
6113 Clear 17 1024 39 8000 0.5 0 05:20 31.10.2020
6114 Clear 19 1024 37 8000 2.1 170 03:46 31.10.2020
6115 Clear 19 1024 39 8000 2.1 230 01:30 31.10.2020
6116 Clear 21 1024 35 8000 1.5 130 00:47 31.10.2020
6117 Clouds 21 1024 37 8000 1 0 23:52 30.10.2020
6118 Clouds 22 1024 35 8000 1 0 23:25 30.10.2020
6119 Clouds 23 1024 33 8000 2.1 80 22:48 30.10.2020
6120 Clouds 24 1024 33 8000 2.1 50 22:26 30.10.2020
6121 Clouds 25 1023 29 8000 2.1 40 21:58 30.10.2020
6122 Clouds 25 1023 27 8000 1.5 30 21:38 30.10.2020
6123 Clouds 25 1023 27 8000 1.5 30 21:19 30.10.2020
6124 Clouds 28 1022 20 8000 3.6 20 20:42 30.10.2020
6125 Clouds 28 1022 20 8000 3.6 20 20:23 30.10.2020
6126 Clouds 28 1022 21 8000 3.1 10 19:47 30.10.2020
6127 Clouds 29 1021 20 8000 2.6 10 19:19 30.10.2020
6128 Clouds 30 1021 19 8000 2.6 10 18:50 30.10.2020
6129 Clouds 30 1021 17 8000 3.1 10 18:28 30.10.2020
6130 Clouds 31 1021 16 8000 3.1 360 17:50 30.10.2020
6131 Clouds 32 1021 17 8000 3.1 340 17:24 30.10.2020
6132 Clouds 31 1021 16 8000 3.1 320 16:58 30.10.2020
6133 Clouds 32 1021 17 8000 1.5 0 16:38 30.10.2020
6134 Clouds 32 1021 17 8000 1.5 0 16:19 30.10.2020
6135 Clouds 33 1021 17 8000 1.5 0 15:40 30.10.2020
6136 Clouds 33 1021 17 8000 1.5 0 15:20 30.10.2020
6137 Clouds 31 1021 18 8000 2.1 320 14:44 30.10.2020
6138 Clouds 31 1022 19 8000 2.1 60 14:25 30.10.2020
6139 Clouds 31 1022 18 8000 1 0 13:47 30.10.2020
6140 Clouds 30 1022 20 8000 1 0 13:22 30.10.2020
6141 Clouds 29 1023 23 8000 1 0 12:55 30.10.2020
6142 Clouds 28 1023 24 8000 1 0 12:23 30.10.2020
6143 Clouds 27 1023 28 8000 1 0 11:56 30.10.2020
6144 Clouds 25 1023 31 8000 1 0 11:23 30.10.2020
6145 Clouds 24 1023 36 8000 1 0 10:58 30.10.2020
6146 Clouds 22 1023 37 8000 1 0 10:39 30.10.2020
6147 Clouds 22 1023 37 8000 1 0 10:21 30.10.2020
6148 Clouds 21 1023 37 8000 1 0 09:43 30.10.2020
6149 Clouds 18 1022 45 8000 1.5 80 09:20 30.10.2020
6150 Clouds 16 1022 48 8000 1.5 140 08:39 30.10.2020
6151 Clouds 16 1022 48 8000 1.5 140 08:20 30.10.2020
6152 Clear 15 1021 54 10000 1.5 110 07:46 30.10.2020
6153 Clear 16 1021 51 10000 1.5 80 07:27 30.10.2020
6154 Clear 16 1021 51 10000 1.5 80 06:21 30.10.2020
6155 Clouds 19 1021 39 10000 1.5 100 04:26 30.10.2020
6156 Clouds 22 1021 33 10000 2.6 200 01:39 30.10.2020
6157 Clouds 22 1021 33 10000 1.5 190 00:31 30.10.2020
6158 Clouds 22 1021 33 10000 1.5 160 23:47 29.10.2020
6159 Clouds 22 1022 33 8000 1 0 23:29 29.10.2020
6160 Clouds 22 1021 30 8000 0.5 0 22:48 29.10.2020
6161 Clouds 23 1021 28 8000 0.5 0 22:27 29.10.2020
6162 Clouds 24 1021 27 8000 1 0 21:51 29.10.2020
6163 Clouds 24 1021 27 10000 1.5 110 21:26 29.10.2020
6164 Clouds 26 1021 22 10000 1 0 20:59 29.10.2020
6165 Clouds 27 1020 21 10000 1 0 20:39 29.10.2020
6166 Clouds 27 1020 21 10000 1 0 20:18 29.10.2020
6167 Clouds 28 1019 21 10000 1.5 290 19:39 29.10.2020
6168 Clouds 28 1019 21 10000 1.5 290 19:20 29.10.2020
6169 Clouds 29 1019 20 10000 1.5 280 18:46 29.10.2020
6170 Clouds 30 1019 19 10000 1.5 290 18:26 29.10.2020
6171 Clouds 31 1019 16 10000 1.5 10 17:43 29.10.2020
6172 Clouds 31 1019 16 10000 1.5 10 17:24 29.10.2020
6173 Clouds 32 1019 15 10000 2.1 320 16:55 29.10.2020
6174 Clouds 32 1019 15 10000 2.1 20 16:37 29.10.2020
6175 Clouds 32 1019 15 10000 2.1 20 16:18 29.10.2020
6176 Clear 31 1019 16 10000 2.1 350 15:41 29.10.2020
6177 Clear 31 1019 16 10000 2.1 350 15:22 29.10.2020
6178 Clear 30 1019 20 10000 2.6 350 14:59 29.10.2020
6179 Clear 30 1020 22 10000 1.5 10 14:40 29.10.2020
6180 Clear 30 1020 22 10000 1.5 10 14:18 29.10.2020
6181 Clear 28 1021 24 10000 2.1 340 13:41 29.10.2020
6182 Clear 28 1021 24 10000 2.1 340 13:22 29.10.2020
6183 Clear 26 1021 29 10000 1.5 70 12:42 29.10.2020
6184 Clear 26 1021 29 10000 1.5 70 12:19 29.10.2020
6185 Clear 25 1021 33 10000 2.1 50 11:48 29.10.2020
6186 Clear 24 1021 38 10000 2.1 60 11:26 29.10.2020
6187 Clear 21 1021 43 10000 3.1 110 10:38 29.10.2020
6188 Clear 21 1021 43 10000 3.1 110 10:20 29.10.2020
6189 Clear 19 1021 45 10000 2.1 110 09:56 29.10.2020
6190 Clear 16 1021 55 10000 1.5 70 09:29 29.10.2020
6191 Clear 14 1020 67 10000 1.5 80 08:59 29.10.2020
6192 Clear 13 1020 66 10000 2.1 80 08:40 29.10.2020
6193 Clear 13 1020 66 10000 2.1 80 08:19 29.10.2020
6194 Clear 13 1020 66 10000 2.1 70 07:46 29.10.2020
6195 Clear 14 1019 58 10000 2.6 80 06:58 29.10.2020
6196 Clear 14 1019 58 10000 3.1 110 06:22 29.10.2020
6197 Clear 14 1019 71 10000 2.1 70 04:46 29.10.2020
6198 Clouds 18 1021 42 10000 1.16 46 01:37 29.10.2020
6199 Clouds 19 1021 39 10000 0.97 42 00:31 29.10.2020
6200 Clouds 19 1021 39 10000 0.97 42 23:59 28.10.2020
6201 Clouds 19 1021 38 10000 1.27 29 23:22 28.10.2020
6202 Clear 20 1021 49 10000 1.5 80 22:46 28.10.2020
6203 Clear 20 1021 49 10000 1.5 80 22:28 28.10.2020
6204 Clear 20 1021 49 10000 1.5 80 22:00 28.10.2020
6205 Clear 21 1020 46 10000 2.1 80 21:41 28.10.2020
6206 Clear 21 1020 46 10000 2.1 80 21:23 28.10.2020
6207 Clear 23 1020 43 10000 2.6 40 20:42 28.10.2020
6208 Clear 23 1020 43 10000 2.6 40 20:22 28.10.2020
6209 Clear 23 1020 43 10000 2.6 40 19:51 28.10.2020
6210 Clear 24 1019 41 10000 2.6 40 19:30 28.10.2020
6211 Clear 25 1019 38 10000 2.6 50 18:51 28.10.2020
6212 Clear 26 1019 39 10000 3.1 40 18:22 28.10.2020
6213 Clear 26 1019 39 10000 3.1 40 18:22 28.10.2020
6214 Clear 26 1019 39 10000 3.1 350 17:57 28.10.2020
6215 Clear 27 1019 36 10000 2.1 350 17:39 28.10.2020
6216 Clear 27 1019 36 10000 2.1 350 17:18 28.10.2020
6217 Clear 27 1019 36 10000 1.5 0 16:44 28.10.2020
6218 Clear 26 1019 39 10000 1.5 280 16:23 28.10.2020
6219 Clear 26 1019 39 10000 1.5 280 16:23 28.10.2020
6220 Clear 25 1019 38 10000 2.1 50 15:40 28.10.2020
6221 Clear 25 1019 38 10000 2.1 50 15:19 28.10.2020
6222 Clear 25 1019 38 10000 2.1 50 15:19 28.10.2020
6223 Clear 23 1020 46 10000 2.6 30 14:44 28.10.2020
6224 Clear 23 1020 46 10000 2.6 30 14:26 28.10.2020
6225 Clear 25 1020 29 10000 2.32 20 12:50 28.10.2020
6226 Clear 25 1020 27 10000 2.3 18 12:31 28.10.2020
6227 Clear 23 1020 32 10000 2.19 43 11:59 28.10.2020
6228 Clear 23 1020 32 10000 2.19 43 11:41 28.10.2020
6229 Clear 17 1021 63 8000 1.5 100 11:20 28.10.2020
6230 Clear 16 1021 63 8000 0.5 0 10:50 28.10.2020
6231 Clear 16 1021 63 8000 0.5 0 10:32 28.10.2020
6232 Clear 15 1020 67 8000 1 0 09:45 28.10.2020
6233 Clear 15 1020 67 8000 1 0 09:24 28.10.2020
6234 Clear 12 1020 76 8000 1 0 08:51 28.10.2020
6235 Clear 11 1019 76 10000 0.5 0 08:32 28.10.2020
6236 Clear 12 1019 76 10000 1 0 07:54 28.10.2020
6237 Clear 12 1019 71 8000 1 0 07:31 28.10.2020
6238 Clear 11 1019 76 8000 1 0 06:57 28.10.2020
6239 Clear 12 1019 71 8000 1.5 250 06:38 28.10.2020
6240 Clear 12 1019 71 8000 1 0 05:44 28.10.2020
6241 Clear 12 1019 71 8000 1.5 240 04:50 28.10.2020
6242 Clear 12 1019 71 8000 1.5 260 03:53 28.10.2020
6243 Clear 15 1019 62 8000 2.1 100 01:56 28.10.2020
6244 Clear 15 1019 62 8000 2.1 100 01:56 28.10.2020
6245 Clear 16 1020 59 8000 2.1 40 00:33 28.10.2020
6246 Clear 17 1020 55 8000 3.1 40 23:50 27.10.2020
6247 Clear 17 1020 55 8000 3.1 40 23:22 27.10.2020
6248 Clear 18 1019 48 8000 4.1 20 22:45 27.10.2020
6249 Clear 19 1019 52 8000 2.1 40 22:22 27.10.2020
6250 Clear 19 1019 55 8000 2.6 80 21:57 27.10.2020
6251 Clear 20 1019 52 8000 2.6 60 21:38 27.10.2020
6252 Clear 20 1019 52 8000 2.6 60 21:38 27.10.2020
6253 Clear 20 1019 52 8000 2.6 60 21:20 27.10.2020
6254 Clear 21 1019 49 8000 3.1 50 20:50 27.10.2020
6255 Clear 21 1019 52 8000 1 0 20:25 27.10.2020
6256 Clear 21 1019 52 8000 1 0 19:57 27.10.2020
6257 Clear 22 1019 49 8000 1 0 19:38 27.10.2020
6258 Clear 22 1019 49 8000 1 0 19:19 27.10.2020
6259 Clear 23 1018 46 8000 1.5 70 18:45 27.10.2020
6260 Clouds 24 1018 44 8000 1.5 0 18:24 27.10.2020
6261 Clouds 24 1018 44 8000 1 0 17:59 27.10.2020
6262 Clouds 24 1018 44 8000 1.5 0 17:40 27.10.2020
6263 Clouds 24 1018 44 8000 1.5 0 17:19 27.10.2020
6264 Clouds 24 1018 47 8000 1 0 16:42 27.10.2020
6265 Clouds 24 1018 47 8000 1 0 16:23 27.10.2020
6266 Clouds 23 1018 49 8000 1 0 15:42 27.10.2020
6267 Clouds 22 1019 53 8000 2.6 60 15:24 27.10.2020
6268 Clouds 22 1019 56 8000 3.1 10 14:50 27.10.2020
6269 Clouds 22 1019 56 8000 2.6 0 14:30 27.10.2020
6270 Clouds 22 1020 53 8000 1.5 0 13:58 27.10.2020
6271 Clouds 21 1020 60 8000 2.1 70 13:29 27.10.2020
6272 Clouds 19 1021 63 8000 2.1 20 12:46 27.10.2020
6273 Clouds 20 1021 64 8000 1.5 0 12:27 27.10.2020
6274 Clouds 19 1021 68 8000 2.1 360 11:59 27.10.2020
6275 Clouds 18 1021 72 8000 1.5 0 11:41 27.10.2020
6276 Clouds 18 1021 72 8000 1.5 0 11:21 27.10.2020
6277 Clouds 16 1021 82 7000 1.5 90 10:43 27.10.2020
6278 Clouds 16 1021 82 7000 1.5 90 10:20 27.10.2020
6279 Clouds 15 1021 87 7000 1.5 50 09:28 27.10.2020
6280 Clouds 14 1020 87 7000 1.5 50 08:59 27.10.2020
6281 Clouds 13 1020 87 7000 1 0 08:33 27.10.2020
6282 Clouds 13 1020 87 8000 2.1 90 07:54 27.10.2020
6283 Clouds 14 1020 87 8000 1.5 100 07:36 27.10.2020
6284 Clouds 14 1020 87 8000 1 0 06:55 27.10.2020
6285 Clouds 14 1020 87 8000 1 0 06:20 27.10.2020
6286 Clouds 13 1020 93 8000 1 0 05:46 27.10.2020
6287 Clouds 14 1020 87 8000 1.5 110 05:24 27.10.2020
6288 Clouds 15 1020 82 8000 1.5 100 03:20 27.10.2020
6289 Clouds 16 1021 82 8000 3.1 50 01:22 27.10.2020
6290 Clouds 17 1021 77 10000 4.1 50 00:42 27.10.2020
6291 Clear 17 1021 77 10000 3.6 40 23:38 26.10.2020
6292 Clear 18 1021 72 10000 3.6 50 22:59 26.10.2020
6293 Clear 18 1021 72 10000 2.6 50 22:39 26.10.2020
6294 Clear 19 1021 68 10000 3.6 40 22:18 26.10.2020
6295 Clear 19 1021 68 10000 3.6 20 21:40 26.10.2020
6296 Clear 19 1021 68 10000 3.6 20 21:19 26.10.2020
6297 Clear 20 1021 64 10000 5.1 30 20:49 26.10.2020
6298 Clear 20 1021 64 10000 3.6 20 20:27 26.10.2020
6299 Clear 21 1021 60 10000 5.1 360 19:56 26.10.2020
6300 Clouds 22 1020 49 9000 3.6 350 19:38 26.10.2020
6301 Clouds 22 1020 49 9000 3.6 350 19:19 26.10.2020
6302 Clouds 24 1020 29 9000 2.6 360 18:42 26.10.2020
6303 Clouds 24 1020 29 9000 2.6 360 18:22 26.10.2020
6304 Clouds 26 1020 26 10000 2.1 340 17:44 26.10.2020
6305 Clouds 26 1020 26 10000 2.1 340 17:24 26.10.2020
6306 Clouds 26 1020 29 10000 1 0 16:56 26.10.2020
6307 Clear 25 1020 33 10000 2.1 0 16:37 26.10.2020
6308 Clear 25 1020 33 10000 2.1 0 16:18 26.10.2020
6309 Clear 24 1021 38 10000 2.6 320 15:39 26.10.2020
6310 Clear 24 1021 38 10000 2.6 320 15:19 26.10.2020
6311 Clear 24 1021 41 10000 2.6 340 14:45 26.10.2020
6312 Clear 24 1021 41 10000 2.1 0 14:19 26.10.2020
6313 Clear 23 1022 46 10000 2.6 0 13:42 26.10.2020
6314 Clear 22 1022 49 10000 2.1 0 13:22 26.10.2020
6315 Clear 21 1023 49 10000 3.6 10 12:47 26.10.2020
6316 Clear 19 1023 59 10000 2.6 340 12:27 26.10.2020
6317 Clear 19 1023 59 10000 1 0 11:55 26.10.2020
6318 Clear 18 1023 68 10000 1 0 11:37 26.10.2020
6319 Clear 18 1023 68 10000 1 0 11:18 26.10.2020
6320 Clear 16 1024 72 10000 2.1 0 10:41 26.10.2020
6321 Clear 16 1024 72 10000 2.1 0 10:22 26.10.2020
6322 Clear 16 1024 77 10000 1 0 09:43 26.10.2020
6323 Clear 14 1023 82 10000 0.5 0 09:23 26.10.2020
6324 Clear 13 1023 82 10000 2.1 160 08:29 26.10.2020
6325 Clear 12 1023 93 10000 2.1 220 07:53 26.10.2020
6326 Clear 12 1023 87 10000 1 0 07:35 26.10.2020
6327 Clear 12 1022 87 10000 1 0 06:37 26.10.2020
6328 Clear 13 1023 82 10000 1.5 0 04:22 26.10.2020
6329 Clear 13 1023 82 10000 2.6 240 03:42 26.10.2020
6330 Clear 14 1023 71 10000 1 0 01:52 26.10.2020
6331 Clear 15 1023 67 10000 1 0 01:23 26.10.2020
6332 Clear 17 1023 67 10000 2.1 40 00:32 26.10.2020
6333 Clear 18 1023 63 10000 2.6 50 23:41 25.10.2020
6334 Clear 18 1023 63 10000 2.6 50 23:21 25.10.2020
6335 Clear 19 1023 52 10000 3.6 40 22:41 25.10.2020
6336 Clear 19 1023 52 10000 3.6 40 22:21 25.10.2020
6337 Clear 19 1023 52 10000 3.6 40 22:21 25.10.2020
6338 Clear 21 1023 40 10000 2.6 10 21:43 25.10.2020
6339 Clear 21 1022 40 10000 1.5 330 21:24 25.10.2020
6340 Clear 20 1022 42 10000 2.1 250 20:56 25.10.2020
6341 Clear 22 1022 37 10000 1.5 250 20:37 25.10.2020
6342 Clear 22 1022 37 10000 1.5 250 20:18 25.10.2020
6343 Clear 23 1022 33 10000 1 0 19:48 25.10.2020
6344 Clear 24 1022 31 10000 0.5 0 19:22 25.10.2020
6345 Clear 25 1022 29 10000 1 0 18:55 25.10.2020
6346 Clear 26 1022 29 10000 2.1 330 18:37 25.10.2020
6347 Clear 26 1022 29 10000 2.1 330 18:18 25.10.2020
6348 Clear 26 1022 31 10000 1.5 0 17:39 25.10.2020
6349 Clear 26 1022 31 10000 1.5 0 17:21 25.10.2020
6350 Clear 26 1021 31 10000 2.6 360 16:57 25.10.2020
6351 Clear 27 1021 32 10000 1.5 0 16:38 25.10.2020
6352 Clear 27 1021 32 10000 1.5 0 16:18 25.10.2020
6353 Clear 25 1022 36 10000 1.5 0 15:45 25.10.2020
6354 Clear 25 1022 36 10000 1.5 0 15:25 25.10.2020
6355 Clear 25 1022 36 10000 1.5 0 14:46 25.10.2020
6356 Clear 24 1023 38 10000 2.1 330 14:28 25.10.2020
6357 Clear 24 1023 38 10000 2.1 0 13:43 25.10.2020
6358 Clear 23 1023 46 10000 2.1 0 13:21 25.10.2020
6359 Clear 23 1023 49 10000 2.1 360 12:49 25.10.2020
6360 Clear 22 1024 49 10000 2.1 340 12:27 25.10.2020
6361 Clear 22 1024 53 10000 1.5 0 11:55 25.10.2020
6362 Clear 21 1024 56 10000 1 0 11:37 25.10.2020
6363 Clear 21 1024 56 10000 1 0 11:18 25.10.2020
6364 Clear 18 1024 68 10000 1 0 10:44 25.10.2020
6365 Clear 18 1024 68 10000 1 0 10:25 25.10.2020
6366 Clear 18 1024 68 10000 0.5 0 09:48 25.10.2020
6367 Clear 17 1023 72 10000 0.5 0 09:20 25.10.2020
6368 Clear 15 1023 77 10000 0.5 0 08:51 25.10.2020
6369 Clear 12 1023 81 10000 0.5 0 08:32 25.10.2020
6370 Clear 13 1023 82 10000 1 0 07:53 25.10.2020
6371 Clear 13 1023 82 10000 1.5 120 07:34 25.10.2020
6372 Clear 12 1023 81 10000 0.5 0 06:51 25.10.2020
6373 Clear 13 1023 82 10000 1.5 20 05:59 25.10.2020
6374 Clear 14 1023 76 10000 1 0 04:52 25.10.2020
6375 Clear 14 1023 76 10000 1 0 03:44 25.10.2020
6376 Clear 17 1024 63 10000 2.1 80 01:47 25.10.2020
6377 Clear 18 1025 59 10000 3.1 40 00:49 25.10.2020
6378 Clear 19 1025 55 10000 3.1 30 00:20 25.10.2020
6379 Clear 19 1025 55 10000 3.1 110 23:54 24.10.2020
6380 Clear 19 1025 52 10000 2.1 80 23:26 24.10.2020
6381 Clear 20 1024 49 10000 2.6 80 22:55 24.10.2020
6382 Clear 20 1024 45 10000 2.6 70 22:37 24.10.2020
6383 Clear 20 1024 45 10000 2.6 70 22:19 24.10.2020
6384 Clear 23 1024 40 10000 3.1 40 21:41 24.10.2020
6385 Clear 23 1024 40 10000 3.1 40 21:21 24.10.2020
6386 Clear 23 1023 40 10000 3.6 30 20:47 24.10.2020
6387 Clear 24 1023 38 10000 2.1 60 20:23 24.10.2020
6388 Clear 25 1023 36 10000 2.1 50 19:55 24.10.2020
6389 Clear 25 1023 36 10000 2.1 50 19:37 24.10.2020
6390 Clear 25 1023 36 10000 2.1 50 19:19 24.10.2020
6391 Clear 26 1023 34 10000 2.6 40 18:42 24.10.2020
6392 Clear 26 1023 34 10000 2.6 40 18:22 24.10.2020
6393 Clear 26 1023 31 10000 2.6 40 17:39 24.10.2020
6394 Clear 26 1023 31 10000 2.6 40 17:21 24.10.2020
6395 Clear 26 1023 34 10000 2.1 0 16:45 24.10.2020
6396 Clear 26 1023 34 10000 2.6 70 16:23 24.10.2020
6397 Clear 25 1024 36 10000 3.1 80 15:41 24.10.2020
6398 Clear 25 1024 36 10000 3.1 80 15:20 24.10.2020
6399 Clear 24 1024 44 10000 3.6 70 14:54 24.10.2020
6400 Clear 23 1025 49 10000 4.1 80 14:29 24.10.2020
6401 Clear 22 1025 53 10000 5.1 80 13:47 24.10.2020
6402 Clear 22 1026 56 10000 4.1 70 13:29 24.10.2020
6403 Clear 21 1026 60 10000 3.6 90 12:55 24.10.2020
6404 Clear 19 1026 63 10000 2.6 60 12:37 24.10.2020
6405 Clear 19 1026 63 10000 2.6 60 12:19 24.10.2020
6406 Clear 19 1027 68 10000 1 0 11:42 24.10.2020
6407 Clear 17 1026 77 10000 1 0 10:54 24.10.2020
6408 Clear 16 1026 82 10000 0.5 0 10:34 24.10.2020
6409 Clear 14 1026 87 10000 1 0 09:56 24.10.2020
6410 Clouds 13 1026 87 8000 0.5 0 09:38 24.10.2020
6411 Clouds 13 1026 87 8000 0.5 0 09:19 24.10.2020
6412 Clouds 13 1026 87 8000 1 0 08:40 24.10.2020
6413 Clouds 13 1026 87 8000 1 0 08:18 24.10.2020
6414 Clouds 12 1026 93 8000 1.5 100 07:45 24.10.2020
6415 Clouds 13 1025 87 8000 1.5 90 07:19 24.10.2020
6416 Clouds 13 1025 87 8000 1 0 06:36 24.10.2020
6417 Clouds 15 1026 77 8000 2.1 80 03:51 24.10.2020
6418 Clouds 16 1026 72 8000 2.1 80 02:20 24.10.2020
6419 Clouds 18 1026 63 10000 4.1 50 00:43 24.10.2020
6420 Clouds 18 1026 72 10000 2.6 40 00:22 24.10.2020
6421 Clouds 18 1026 68 10000 2.1 80 23:56 23.10.2020
6422 Clouds 18 1026 68 10000 3.1 90 23:36 23.10.2020
6423 Clouds 18 1026 68 10000 3.1 90 23:18 23.10.2020
6424 Clouds 19 1025 63 10000 3.1 70 22:40 23.10.2020
6425 Clouds 19 1025 63 10000 3.1 70 22:20 23.10.2020
6426 Clouds 20 1025 60 10000 4.1 70 21:51 23.10.2020
6427 Clouds 20 1025 60 10000 3.6 70 21:25 23.10.2020
6428 Clouds 21 1024 56 10000 3.6 70 20:43 23.10.2020
6429 Clouds 21 1024 56 10000 3.1 70 20:25 23.10.2020
6430 Clouds 22 1024 53 10000 3.6 70 19:59 23.10.2020
6431 Clouds 22 1023 53 10000 2.1 70 19:34 23.10.2020
6432 Clouds 22 1023 53 10000 3.1 70 18:58 23.10.2020
6433 Clouds 23 1023 46 10000 3.1 70 18:39 23.10.2020
6434 Clouds 23 1023 46 10000 3.1 70 18:19 23.10.2020
6435 Clouds 23 1023 49 10000 2.1 0 17:43 23.10.2020
6436 Clouds 23 1023 49 10000 2.1 0 17:21 23.10.2020
6437 Clouds 22 1023 53 10000 2.6 70 16:46 23.10.2020
6438 Clouds 22 1023 53 10000 2.1 30 16:26 23.10.2020
6439 Clouds 22 1023 56 10000 3.1 30 15:47 23.10.2020
6440 Clouds 22 1024 53 8000 2.6 80 15:25 23.10.2020
6441 Clouds 21 1024 64 8000 2.6 30 14:57 23.10.2020
6442 Clouds 20 1024 68 8000 2.6 80 14:39 23.10.2020
6443 Clouds 20 1024 68 8000 2.6 80 14:20 23.10.2020
6444 Clouds 19 1025 72 8000 2.6 80 13:38 23.10.2020
6445 Clouds 19 1025 72 8000 2.6 80 13:19 23.10.2020
6446 Clouds 18 1025 77 8000 2.1 120 12:47 23.10.2020
6447 Clouds 20 1025 72 8000 0.5 0 12:27 23.10.2020
6448 Clouds 17 1025 82 8000 1 0 11:47 23.10.2020
6449 Clouds 15 1025 87 8000 1 0 11:22 23.10.2020
6450 Clouds 15 1024 87 8000 1.5 250 10:46 23.10.2020
6451 Clouds 15 1024 87 8000 1.5 250 10:25 23.10.2020
6452 Clouds 15 1023 87 8000 1.5 250 09:46 23.10.2020
6453 Clouds 14 1023 93 8000 1 0 09:27 23.10.2020
6454 Clouds 14 1023 93 8000 1.5 260 08:53 23.10.2020
6455 Clouds 14 1022 93 8000 1.5 250 08:33 23.10.2020
6456 Clouds 15 1022 87 8000 2.1 240 07:46 23.10.2020
6457 Clouds 15 1022 87 8000 2.1 250 07:22 23.10.2020
6458 Clouds 16 1022 82 8000 1.5 230 06:20 23.10.2020
6459 Clouds 16 1022 82 8000 2.1 260 05:36 23.10.2020
6460 Clouds 17 1022 72 8000 2.1 330 02:32 23.10.2020
6461 Clouds 17 1022 77 8000 2.1 300 01:52 23.10.2020
6462 Clouds 18 1022 72 8000 2.6 320 00:48 23.10.2020
6463 Clouds 18 1021 72 8000 2.1 330 23:48 22.10.2020
6464 Clouds 18 1021 72 8000 1.5 330 23:30 22.10.2020
6465 Clouds 18 1020 77 6000 2.1 340 22:50 22.10.2020
6466 Clouds 18 1021 77 6000 2.1 320 22:28 22.10.2020
6467 Rain 18 1020 77 5000 2.1 250 21:59 22.10.2020
6468 Rain 18 1020 77 5000 3.1 300 21:41 22.10.2020
6469 Rain 18 1020 77 5000 3.1 300 21:23 22.10.2020
6470 Clouds 19 1019 68 6000 4.1 290 20:45 22.10.2020
6471 Clouds 20 1018 64 6000 3.1 300 20:26 22.10.2020
6472 Clouds 19 1018 72 6000 2.6 240 19:59 22.10.2020
6473 Rain 19 1018 72 5000 3.1 180 19:40 22.10.2020
6474 Rain 19 1018 72 5000 3.1 180 19:18 22.10.2020
6475 Rain 21 1017 64 5000 2.1 260 18:42 22.10.2020
6476 Rain 21 1017 64 5000 2.1 260 18:20 22.10.2020
6477 Clouds 21 1017 64 8000 2.1 300 17:45 22.10.2020
6478 Clouds 21 1017 64 8000 2.1 280 17:22 22.10.2020
6479 Clouds 22 1017 60 8000 2.6 300 16:47 22.10.2020
6480 Clouds 21 1017 64 8000 4.1 280 16:26 22.10.2020
6481 Clouds 21 1017 68 8000 3.6 290 15:57 22.10.2020
6482 Clouds 20 1017 72 8000 3.6 280 15:38 22.10.2020
6483 Clouds 20 1017 72 8000 3.6 280 15:19 22.10.2020
6484 Clouds 19 1017 77 8000 3.1 310 14:45 22.10.2020
6485 Clouds 18 1017 82 8000 3.1 290 14:24 22.10.2020
6486 Clouds 18 1017 82 8000 3.6 290 13:45 22.10.2020
6487 Clouds 18 1017 88 8000 4.6 290 13:23 22.10.2020
6488 Clouds 18 1018 82 8000 3.1 280 12:47 22.10.2020
6489 Clouds 17 1017 93 6000 3.1 290 12:23 22.10.2020
6490 Rain 17 1017 93 6000 3.6 290 11:48 22.10.2020
6491 Rain 17 1017 88 6000 3.1 290 11:20 22.10.2020
6492 Clouds 17 1016 88 8000 2.6 300 10:49 22.10.2020
6493 Clouds 17 1016 88 8000 2.6 320 10:27 22.10.2020
6494 Clouds 17 1015 88 8000 2.1 340 09:46 22.10.2020
6495 Clouds 17 1014 88 8000 2.1 10 09:26 22.10.2020
6496 Clouds 16 1014 93 8000 2.1 40 08:49 22.10.2020
6497 Clouds 16 1014 93 8000 4.1 100 08:27 22.10.2020
6498 Rain 16 1014 93 6000 3.1 80 07:51 22.10.2020
6499 Rain 16 1014 93 6000 4.1 100 07:32 22.10.2020
6500 Rain 16 1013 93 6000 3.6 100 06:58 22.10.2020
6501 Rain 16 1014 93 6000 2.6 90 06:26 22.10.2020
6502 Rain 17 1014 88 6000 3.6 120 05:40 22.10.2020
6503 Clouds 17 1014 82 8000 1 0 03:46 22.10.2020
6504 Clouds 18 1015 77 8000 1 0 01:43 22.10.2020
6505 Clouds 19 1016 72 8000 2.1 240 00:25 22.10.2020
6506 Clouds 19 1016 72 8000 2.1 240 23:47 21.10.2020
6507 Clouds 19 1015 72 8000 2.1 250 23:28 21.10.2020
6508 Clouds 19 1015 72 8000 3.1 280 22:40 21.10.2020
6509 Clouds 19 1015 72 8000 3.1 280 22:19 21.10.2020
6510 Clouds 20 1015 64 8000 3.6 280 21:56 21.10.2020
6511 Clouds 20 1014 72 8000 3.6 310 21:37 21.10.2020
6512 Clouds 20 1014 72 8000 3.6 310 21:18 21.10.2020
6513 Clouds 20 1014 77 8000 1.5 300 20:45 21.10.2020
6514 Clouds 20 1014 72 6000 1 0 20:18 21.10.2020
6515 Rain 19 1014 77 6000 1.5 250 19:43 21.10.2020
6516 Rain 19 1013 72 6000 2.1 290 19:25 21.10.2020
6517 Clouds 21 1014 64 8000 3.6 300 18:54 21.10.2020
6518 Clouds 21 1014 64 8000 4.1 300 18:32 21.10.2020
6519 Clouds 21 1013 64 8000 5.7 300 17:54 21.10.2020
6520 Clouds 22 1013 60 8000 5.1 320 17:36 21.10.2020
6521 Clouds 22 1013 60 8000 5.1 320 17:18 21.10.2020
6522 Clouds 23 1013 60 8000 2.6 20 16:40 21.10.2020
6523 Clouds 23 1013 60 8000 2.6 20 16:20 21.10.2020
6524 Clouds 23 1013 60 8000 1.5 0 15:48 21.10.2020
6525 Clouds 23 1013 60 8000 1.5 0 15:28 21.10.2020
6526 Clouds 23 1013 60 8000 3.1 80 14:57 21.10.2020
6527 Clouds 23 1013 60 8000 2.6 60 14:38 21.10.2020
6528 Clouds 23 1013 60 8000 2.6 60 14:19 21.10.2020
6529 Clouds 22 1014 64 8000 2.1 30 13:42 21.10.2020
6530 Clouds 22 1014 64 8000 2.1 30 13:21 21.10.2020
6531 Clouds 22 1015 64 8000 2.1 0 12:41 21.10.2020
6532 Clouds 22 1015 64 8000 2.1 0 12:21 21.10.2020
6533 Clouds 22 1014 64 8000 2.1 30 11:47 21.10.2020
6534 Clouds 21 1014 64 8000 2.1 90 11:21 21.10.2020
6535 Clouds 21 1014 64 8000 2.1 90 10:58 21.10.2020
6536 Clouds 20 1014 68 8000 2.1 60 10:40 21.10.2020
6537 Clouds 20 1014 68 8000 2.1 60 10:20 21.10.2020
6538 Clouds 19 1014 77 8000 2.1 90 09:42 21.10.2020
6539 Clouds 19 1014 77 8000 1.5 70 09:18 21.10.2020
6540 Clouds 19 1014 77 10000 1 0 08:40 21.10.2020
6541 Clouds 19 1014 77 10000 1 0 08:22 21.10.2020
6542 Clouds 19 1014 77 10000 1.5 40 07:49 21.10.2020
6543 Clouds 19 1014 77 10000 3.1 330 06:59 21.10.2020
6544 Clouds 19 1014 77 10000 2.1 320 06:34 21.10.2020
6545 Clouds 19 1014 77 10000 2.1 10 05:59 21.10.2020
6546 Clouds 20 1014 82 10000 6.7 300 02:46 21.10.2020
6547 Clouds 22 1014 60 10000 4.6 280 00:26 21.10.2020
6548 Clouds 23 1014 53 8000 5.1 300 23:31 20.10.2020
6549 Clouds 26 1013 41 6000 4.6 270 22:41 20.10.2020
6550 Clouds 26 1013 41 6000 4.6 270 22:23 20.10.2020
6551 Clouds 27 1012 39 6000 8.2 270 21:47 20.10.2020
6552 Clouds 29 1012 26 6000 5.7 230 21:19 20.10.2020
6553 Dust 28 1011 30 1000 8.2 260 20:43 20.10.2020
6554 Dust 28 1011 30 1000 8.2 260 20:24 20.10.2020
6555 Dust 31 1011 19 4000 7.7 220 19:46 20.10.2020
6556 Dust 31 1011 19 4000 7.7 220 19:22 20.10.2020
6557 Clouds 32 1010 18 5000 9.8 200 18:59 20.10.2020
6558 Clouds 32 1010 18 5000 9.8 200 18:59 20.10.2020
6559 Clouds 32 1010 19 5000 9.3 200 18:38 20.10.2020
6560 Clouds 32 1010 19 5000 9.3 200 17:57 20.10.2020
6561 Sand 33 1010 18 1500 10.8 200 17:37 20.10.2020
6562 Sand 34 1010 18 1500 9.3 190 17:18 20.10.2020
6563 Sand 34 1010 18 1500 9.3 190 16:41 20.10.2020
6564 Sand 34 1010 18 1500 9.3 190 16:23 20.10.2020
6565 Sand 35 1010 16 4000 8.2 190 15:47 20.10.2020
6566 Sand 35 1010 16 4000 8.2 190 15:28 20.10.2020
6567 Clouds 35 1011 17 6000 6.7 200 14:46 20.10.2020
6568 Clouds 35 1011 17 6000 6.7 200 14:25 20.10.2020
6569 Clouds 31 1012 25 10000 2.1 70 13:59 20.10.2020
6570 Clouds 31 1012 25 10000 2.1 70 13:40 20.10.2020
6571 Clouds 29 1012 28 10000 2.6 50 13:20 20.10.2020
6572 Clouds 29 1012 28 10000 2.6 50 12:50 20.10.2020
6573 Clouds 27 1013 34 10000 3.1 60 12:30 20.10.2020
6574 Clouds 24 1014 38 10000 2.6 70 11:47 20.10.2020
6575 Clouds 21 1014 46 10000 2.6 60 11:28 20.10.2020
6576 Clouds 21 1014 43 10000 1.5 60 10:46 20.10.2020
6577 Clouds 21 1014 43 10000 1.5 60 10:25 20.10.2020
6578 Clouds 18 1014 48 10000 1.5 150 09:46 20.10.2020
6579 Clouds 18 1014 48 10000 1.5 150 09:20 20.10.2020
6580 Clear 17 1014 51 10000 2.1 350 08:40 20.10.2020
6581 Clouds 17 1014 51 10000 2.1 350 08:21 20.10.2020
6582 Clouds 18 1014 48 10000 3.6 90 07:44 20.10.2020
6583 Clouds 18 1013 52 10000 4.1 90 07:22 20.10.2020
6584 Clouds 18 1014 52 10000 3.6 80 06:20 20.10.2020
6585 Clouds 20 1015 45 10000 2.6 100 04:51 20.10.2020
6586 Clouds 22 1017 40 10000 2.1 220 02:31 20.10.2020
6587 Clouds 20 1017 45 10000 2.1 250 01:30 20.10.2020
6588 Clouds 21 1017 46 10000 1 0 00:52 20.10.2020
6589 Clouds 21 1017 46 10000 2.1 250 00:29 20.10.2020
6590 Clouds 22 1017 43 10000 1 0 23:54 19.10.2020
6591 Clouds 23 1017 43 10000 2.1 240 23:27 19.10.2020
6592 Clouds 23 1017 43 10000 1.5 250 22:56 19.10.2020
6593 Clouds 24 1017 38 10000 2.1 290 22:28 19.10.2020
6594 Clouds 25 1017 38 10000 2.1 290 21:58 19.10.2020
6595 Clouds 25 1017 36 10000 2.1 280 21:39 19.10.2020
6596 Clear 26 1017 34 10000 3.1 270 21:19 19.10.2020
6597 Clear 27 1016 32 10000 5.1 270 20:43 19.10.2020
6598 Clouds 27 1016 32 10000 5.1 270 20:25 19.10.2020
6599 Clouds 29 1016 26 10000 4.6 260 19:46 19.10.2020
6600 Clouds 30 1016 27 10000 3.6 260 19:20 19.10.2020
6601 Clouds 30 1016 27 10000 3.6 260 18:50 19.10.2020
6602 Clouds 31 1016 25 10000 2.6 280 18:31 19.10.2020
6603 Clouds 31 1016 23 10000 2.1 0 17:49 19.10.2020
6604 Clouds 31 1016 23 10000 2.1 0 17:28 19.10.2020
6605 Clouds 32 1016 24 10000 2.6 300 16:54 19.10.2020
6606 Clouds 31 1016 27 10000 2.1 340 16:30 19.10.2020
6607 Clouds 29 1016 30 10000 2.1 330 15:57 19.10.2020
6608 Clouds 31 1017 13 10000 3.42 297 15:36 19.10.2020
6609 Clouds 30 1017 14 10000 2.37 301 15:18 19.10.2020
6610 Clouds 30 1017 14 10000 2.37 301 14:40 19.10.2020
6611 Clouds 29 1018 15 10000 2.17 306 14:21 19.10.2020
6612 Clouds 29 1018 15 10000 2.17 306 13:44 19.10.2020
6613 Clear 28 1019 19 10000 1.55 323 13:26 19.10.2020
6614 Clear 28 1019 19 10000 1.55 323 12:45 19.10.2020
6615 Clear 26 1019 23 10000 1.47 312 12:26 19.10.2020
6616 Clear 26 1019 23 10000 1.47 312 11:51 19.10.2020
6617 Clouds 19 1017 55 10000 1 0 11:24 19.10.2020
6618 Clouds 19 1017 55 10000 1 0 10:45 19.10.2020
6619 Clouds 19 1017 55 10000 1 0 10:25 19.10.2020
6620 Clouds 18 1017 55 10000 1.5 230 09:58 19.10.2020
6621 Clouds 16 1017 63 10000 2.6 240 09:37 19.10.2020
6622 Clouds 16 1017 63 10000 2.6 240 09:18 19.10.2020
6623 Clouds 16 1017 63 10000 2.6 240 09:18 19.10.2020
6624 Clear 15 1017 62 8000 2.1 260 08:44 19.10.2020
6625 Clouds 15 1016 67 8000 1.5 250 08:21 19.10.2020
6626 Clouds 17 1016 63 8000 1 0 07:21 19.10.2020
6627 Clouds 17 1016 59 8000 0.5 0 06:45 19.10.2020
6628 Clouds 18 1016 59 8000 2.1 230 05:36 19.10.2020
6629 Clouds 19 1016 55 8000 1 0 03:46 19.10.2020
6630 Clouds 20 1017 52 9000 1.5 250 01:43 19.10.2020
6631 Clouds 20 1018 52 9000 2.1 270 00:43 19.10.2020
6632 Clouds 22 1018 46 9000 1 0 23:59 18.10.2020
6633 Clouds 22 1018 46 9000 1.5 280 23:40 18.10.2020
6634 Clouds 22 1018 46 9000 1.5 280 23:20 18.10.2020
6635 Clouds 22 1018 49 9000 2.1 310 22:44 18.10.2020
6636 Clouds 23 1017 46 9000 2.6 330 22:19 18.10.2020
6637 Clouds 24 1016 44 9000 3.6 300 21:43 18.10.2020
6638 Clouds 24 1016 44 9000 3.6 300 21:23 18.10.2020
6639 Clouds 24 1016 41 9000 4.6 280 20:46 18.10.2020
6640 Clouds 25 1015 41 9000 6.2 270 20:24 18.10.2020
6641 Clouds 26 1015 36 9000 7.2 270 19:50 18.10.2020
6642 Clouds 28 1014 28 9000 6.2 260 19:27 18.10.2020
6643 Clouds 29 1014 28 9000 6.7 270 18:55 18.10.2020
6644 Clouds 30 1014 27 9000 5.7 280 18:36 18.10.2020
6645 Clouds 30 1014 27 9000 5.7 280 18:18 18.10.2020
6646 Clouds 30 1013 23 10000 4.6 290 17:41 18.10.2020
6647 Clouds 30 1013 23 10000 4.6 290 17:22 18.10.2020
6648 Clouds 31 1013 22 10000 3.1 310 16:43 18.10.2020
6649 Clouds 30 1013 25 10000 3.1 310 16:24 18.10.2020
6650 Clouds 31 1014 23 10000 2.6 320 15:43 18.10.2020
6651 Clouds 31 1014 23 10000 2.1 300 15:22 18.10.2020
6652 Clouds 30 1014 25 10000 1.5 0 14:58 18.10.2020
6653 Clouds 29 1015 28 10000 2.6 20 14:37 18.10.2020
6654 Clouds 29 1015 28 10000 2.6 20 14:18 18.10.2020
6655 Clouds 26 1016 36 8000 3.1 70 13:41 18.10.2020
6656 Clouds 26 1016 36 8000 3.1 70 13:23 18.10.2020
6657 Clouds 24 1016 41 9000 3.1 70 12:43 18.10.2020
6658 Clouds 23 1016 43 9000 3.6 80 12:23 18.10.2020
6659 Clouds 21 1016 46 9000 4.1 80 11:46 18.10.2020
6660 Clouds 20 1016 49 9000 2.1 70 11:28 18.10.2020
6661 Clouds 18 1016 52 9000 2.6 80 10:55 18.10.2020
6662 Clouds 17 1016 55 8000 2.1 100 10:37 18.10.2020
6663 Clouds 17 1016 55 8000 2.1 100 10:18 18.10.2020
6664 Clouds 13 1016 66 8000 1 0 09:42 18.10.2020
6665 Clouds 13 1016 66 8000 1 0 09:42 18.10.2020
6666 Clouds 13 1016 66 8000 1 0 09:20 18.10.2020
6667 Clouds 14 1016 62 8000 0.42 56 08:45 18.10.2020
6668 Clear 14 1016 62 8000 1 0 08:25 18.10.2020
6669 Clear 14 1015 62 8000 1 0 07:48 18.10.2020
6670 Clear 15 1015 58 8000 0.5 0 05:56 18.10.2020
6671 Clear 16 1015 55 8000 1 0 03:40 18.10.2020
6672 Clear 17 1016 55 8000 1 0 02:52 18.10.2020
6673 Clear 18 1015 52 8000 1.5 90 01:30 18.10.2020
6674 Clear 19 1016 48 8000 3.1 100 00:38 18.10.2020
6675 Clear 19 1016 48 8000 3.1 100 00:20 18.10.2020
6676 Clear 20 1016 45 8000 2.1 70 23:41 17.10.2020
6677 Clear 20 1016 45 8000 2.1 70 23:21 17.10.2020
6678 Clear 21 1016 43 8000 2.6 80 22:56 17.10.2020
6679 Clear 22 1016 40 10000 3.1 60 22:36 17.10.2020
6680 Clear 22 1016 40 10000 3.1 60 22:18 17.10.2020
6681 Clear 23 1015 38 10000 2.6 30 21:42 17.10.2020
6682 Clear 23 1015 38 10000 2.6 30 21:20 17.10.2020
6683 Clear 23 1015 40 10000 2.1 40 20:44 17.10.2020
6684 Clear 23 1015 40 10000 1.5 50 20:20 17.10.2020
6685 Clear 24 1015 38 10000 2.1 40 19:44 17.10.2020
6686 Clear 25 1015 36 10000 2.1 70 19:22 17.10.2020
6687 Clear 25 1015 36 10000 2.1 300 18:46 17.10.2020
6688 Clear 24 1015 38 10000 2.6 20 18:28 17.10.2020
6689 Clear 24 1015 41 10000 2.1 80 17:56 17.10.2020
6690 Clear 24 1015<